<?xml version="1.0" encoding="UTF-8" standalone="no" ?>
<gpx xmlns="http://www.topografix.com/GPX/1/1" xmlns:xsi="http://www.w3.org/2001/XMLSchema-instance" xsi:schemaLocation="http://www.topografix.com/GPX/1/1 http://www.topografix.com/GPX/1/1/gpx.xsd" version="1.1" creator="VisuGPX - https://www.visugpx.com">
  <metadata>
    <name>Champagnat Cyclisme sur route</name>
  </metadata>
  <trk>
    <name><![CDATA[Champagnat Cyclisme sur route_1]]></name>
    <trkseg>
      <trkpt lat="46.48716" lon="5.3819">
        <ele>298.4</ele>
        <time>2021-08-20T11:00:22Z</time>
      </trkpt>
      <trkpt lat="46.48726" lon="5.382">
        <ele>297.6</ele>
        <time>2021-08-20T11:00:23Z</time>
      </trkpt>
      <trkpt lat="46.48736" lon="5.38211">
        <ele>296.2</ele>
        <time>2021-08-20T11:00:24Z</time>
      </trkpt>
      <trkpt lat="46.48755" lon="5.38234">
        <ele>294.6</ele>
        <time>2021-08-20T11:00:26Z</time>
      </trkpt>
      <trkpt lat="46.48774" lon="5.38256">
        <ele>293.8</ele>
        <time>2021-08-20T11:00:28Z</time>
      </trkpt>
      <trkpt lat="46.48784" lon="5.38266">
        <ele>292.6</ele>
        <time>2021-08-20T11:00:29Z</time>
      </trkpt>
      <trkpt lat="46.48804" lon="5.38282">
        <ele>290.6</ele>
        <time>2021-08-20T11:00:31Z</time>
      </trkpt>
      <trkpt lat="46.48815" lon="5.3829">
        <ele>290.2</ele>
        <time>2021-08-20T11:00:32Z</time>
      </trkpt>
      <trkpt lat="46.48826" lon="5.38298">
        <ele>289</ele>
        <time>2021-08-20T11:00:33Z</time>
      </trkpt>
      <trkpt lat="46.48847" lon="5.38315">
        <ele>287.8</ele>
        <time>2021-08-20T11:00:35Z</time>
      </trkpt>
      <trkpt lat="46.48858" lon="5.38325">
        <ele>286.4</ele>
        <time>2021-08-20T11:00:36Z</time>
      </trkpt>
      <trkpt lat="46.4888" lon="5.3834">
        <ele>285</ele>
        <time>2021-08-20T11:00:38Z</time>
      </trkpt>
      <trkpt lat="46.48903" lon="5.38352">
        <ele>283.4</ele>
        <time>2021-08-20T11:00:40Z</time>
      </trkpt>
      <trkpt lat="46.48915" lon="5.3836">
        <ele>282.8</ele>
        <time>2021-08-20T11:00:41Z</time>
      </trkpt>
      <trkpt lat="46.48925" lon="5.38369">
        <ele>282.4</ele>
        <time>2021-08-20T11:00:42Z</time>
      </trkpt>
      <trkpt lat="46.48934" lon="5.3838">
        <ele>281.6</ele>
        <time>2021-08-20T11:00:43Z</time>
      </trkpt>
      <trkpt lat="46.48942" lon="5.38394">
        <ele>281</ele>
        <time>2021-08-20T11:00:44Z</time>
      </trkpt>
      <trkpt lat="46.48947" lon="5.38409">
        <ele>279.8</ele>
        <time>2021-08-20T11:00:45Z</time>
      </trkpt>
      <trkpt lat="46.48954" lon="5.3844">
        <ele>278.4</ele>
        <time>2021-08-20T11:00:47Z</time>
      </trkpt>
      <trkpt lat="46.48959" lon="5.38454">
        <ele>278</ele>
        <time>2021-08-20T11:00:48Z</time>
      </trkpt>
      <trkpt lat="46.48965" lon="5.38466">
        <ele>277.8</ele>
        <time>2021-08-20T11:00:49Z</time>
      </trkpt>
      <trkpt lat="46.48973" lon="5.38476">
        <ele>277.6</ele>
        <time>2021-08-20T11:00:50Z</time>
      </trkpt>
      <trkpt lat="46.48982" lon="5.38484">
        <ele>277.4</ele>
        <time>2021-08-20T11:00:51Z</time>
      </trkpt>
      <trkpt lat="46.48991" lon="5.38491">
        <ele>277.2</ele>
        <time>2021-08-20T11:00:52Z</time>
      </trkpt>
      <trkpt lat="46.49022" lon="5.38504">
        <ele>276.2</ele>
        <time>2021-08-20T11:00:55Z</time>
      </trkpt>
      <trkpt lat="46.49042" lon="5.38511">
        <ele>275.6</ele>
        <time>2021-08-20T11:00:57Z</time>
      </trkpt>
      <trkpt lat="46.49062" lon="5.38516">
        <ele>275</ele>
        <time>2021-08-20T11:00:59Z</time>
      </trkpt>
      <trkpt lat="46.4909" lon="5.38521">
        <ele>274.2</ele>
        <time>2021-08-20T11:01:02Z</time>
      </trkpt>
      <trkpt lat="46.49108" lon="5.38522">
        <ele>274</ele>
        <time>2021-08-20T11:01:04Z</time>
      </trkpt>
      <trkpt lat="46.4914" lon="5.3853">
        <ele>274</ele>
        <time>2021-08-20T11:01:08Z</time>
      </trkpt>
      <trkpt lat="46.49148" lon="5.38533">
        <ele>274</ele>
        <time>2021-08-20T11:01:09Z</time>
      </trkpt>
      <trkpt lat="46.4916" lon="5.38538">
        <ele>274.4</ele>
        <time>2021-08-20T11:01:11Z</time>
      </trkpt>
      <trkpt lat="46.49166" lon="5.38539">
        <ele>274.4</ele>
        <time>2021-08-20T11:01:12Z</time>
      </trkpt>
      <trkpt lat="46.49171" lon="5.3854">
        <ele>274.6</ele>
        <time>2021-08-20T11:01:13Z</time>
      </trkpt>
      <trkpt lat="46.49178" lon="5.38549">
        <ele>274.8</ele>
        <time>2021-08-20T11:01:15Z</time>
      </trkpt>
      <trkpt lat="46.49182" lon="5.38561">
        <ele>275</ele>
        <time>2021-08-20T11:01:17Z</time>
      </trkpt>
      <trkpt lat="46.49186" lon="5.38574">
        <ele>275.6</ele>
        <time>2021-08-20T11:01:19Z</time>
      </trkpt>
      <trkpt lat="46.49189" lon="5.38587">
        <ele>276.2</ele>
        <time>2021-08-20T11:01:21Z</time>
      </trkpt>
      <trkpt lat="46.49191" lon="5.38593">
        <ele>276.4</ele>
        <time>2021-08-20T11:01:22Z</time>
      </trkpt>
      <trkpt lat="46.49197" lon="5.38603">
        <ele>276.8</ele>
        <time>2021-08-20T11:01:24Z</time>
      </trkpt>
      <trkpt lat="46.492" lon="5.38606">
        <ele>277.4</ele>
        <time>2021-08-20T11:01:25Z</time>
      </trkpt>
      <trkpt lat="46.49208" lon="5.3861">
        <ele>278.4</ele>
        <time>2021-08-20T11:01:28Z</time>
      </trkpt>
      <trkpt lat="46.49211" lon="5.38607">
        <ele>278.6</ele>
        <time>2021-08-20T11:01:29Z</time>
      </trkpt>
      <trkpt lat="46.49214" lon="5.38602">
        <ele>278.8</ele>
        <time>2021-08-20T11:01:30Z</time>
      </trkpt>
      <trkpt lat="46.49216" lon="5.38595">
        <ele>279</ele>
        <time>2021-08-20T11:01:31Z</time>
      </trkpt>
      <trkpt lat="46.49222" lon="5.38551">
        <ele>278.8</ele>
        <time>2021-08-20T11:01:36Z</time>
      </trkpt>
      <trkpt lat="46.49226" lon="5.38522">
        <ele>277.4</ele>
        <time>2021-08-20T11:01:39Z</time>
      </trkpt>
      <trkpt lat="46.49233" lon="5.38482">
        <ele>276.2</ele>
        <time>2021-08-20T11:01:43Z</time>
      </trkpt>
      <trkpt lat="46.49239" lon="5.38452">
        <ele>275</ele>
        <time>2021-08-20T11:01:46Z</time>
      </trkpt>
      <trkpt lat="46.49248" lon="5.38408">
        <ele>274</ele>
        <time>2021-08-20T11:01:50Z</time>
      </trkpt>
      <trkpt lat="46.49253" lon="5.38377">
        <ele>273.6</ele>
        <time>2021-08-20T11:01:53Z</time>
      </trkpt>
      <trkpt lat="46.49254" lon="5.38369">
        <ele>273.6</ele>
        <time>2021-08-20T11:01:54Z</time>
      </trkpt>
      <trkpt lat="46.49259" lon="5.3835">
        <ele>273.2</ele>
        <time>2021-08-20T11:01:56Z</time>
      </trkpt>
      <trkpt lat="46.49261" lon="5.3834">
        <ele>273</ele>
        <time>2021-08-20T11:01:57Z</time>
      </trkpt>
      <trkpt lat="46.49265" lon="5.38318">
        <ele>272.6</ele>
        <time>2021-08-20T11:01:59Z</time>
      </trkpt>
      <trkpt lat="46.49271" lon="5.38284">
        <ele>271.6</ele>
        <time>2021-08-20T11:02:02Z</time>
      </trkpt>
      <trkpt lat="46.49276" lon="5.3826">
        <ele>271</ele>
        <time>2021-08-20T11:02:04Z</time>
      </trkpt>
      <trkpt lat="46.49278" lon="5.38248">
        <ele>270.6</ele>
        <time>2021-08-20T11:02:05Z</time>
      </trkpt>
      <trkpt lat="46.49286" lon="5.38211">
        <ele>269.4</ele>
        <time>2021-08-20T11:02:08Z</time>
      </trkpt>
      <trkpt lat="46.49293" lon="5.38175">
        <ele>268.2</ele>
        <time>2021-08-20T11:02:11Z</time>
      </trkpt>
      <trkpt lat="46.49295" lon="5.38163">
        <ele>268</ele>
        <time>2021-08-20T11:02:12Z</time>
      </trkpt>
      <trkpt lat="46.49304" lon="5.38114">
        <ele>267</ele>
        <time>2021-08-20T11:02:16Z</time>
      </trkpt>
      <trkpt lat="46.49317" lon="5.38054">
        <ele>266</ele>
        <time>2021-08-20T11:02:21Z</time>
      </trkpt>
      <trkpt lat="46.49319" lon="5.38042">
        <ele>265.6</ele>
        <time>2021-08-20T11:02:22Z</time>
      </trkpt>
      <trkpt lat="46.49328" lon="5.37994">
        <ele>265</ele>
        <time>2021-08-20T11:02:26Z</time>
      </trkpt>
      <trkpt lat="46.49337" lon="5.37947">
        <ele>264</ele>
        <time>2021-08-20T11:02:30Z</time>
      </trkpt>
      <trkpt lat="46.49341" lon="5.37925">
        <ele>264</ele>
        <time>2021-08-20T11:02:32Z</time>
      </trkpt>
      <trkpt lat="46.49347" lon="5.37895">
        <ele>264</ele>
        <time>2021-08-20T11:02:35Z</time>
      </trkpt>
      <trkpt lat="46.49361" lon="5.37843">
        <ele>265</ele>
        <time>2021-08-20T11:02:41Z</time>
      </trkpt>
      <trkpt lat="46.49364" lon="5.37834">
        <ele>265.2</ele>
        <time>2021-08-20T11:02:42Z</time>
      </trkpt>
      <trkpt lat="46.49375" lon="5.378">
        <ele>266</ele>
        <time>2021-08-20T11:02:46Z</time>
      </trkpt>
      <trkpt lat="46.49378" lon="5.3779">
        <ele>266.2</ele>
        <time>2021-08-20T11:02:47Z</time>
      </trkpt>
      <trkpt lat="46.49384" lon="5.37771">
        <ele>266.4</ele>
        <time>2021-08-20T11:02:49Z</time>
      </trkpt>
      <trkpt lat="46.49407" lon="5.37712">
        <ele>265.8</ele>
        <time>2021-08-20T11:02:55Z</time>
      </trkpt>
      <trkpt lat="46.49422" lon="5.37681">
        <ele>265</ele>
        <time>2021-08-20T11:02:58Z</time>
      </trkpt>
      <trkpt lat="46.49429" lon="5.37673">
        <ele>264.8</ele>
        <time>2021-08-20T11:02:59Z</time>
      </trkpt>
      <trkpt lat="46.49444" lon="5.37657">
        <ele>263.8</ele>
        <time>2021-08-20T11:03:01Z</time>
      </trkpt>
      <trkpt lat="46.49469" lon="5.37635">
        <ele>262.6</ele>
        <time>2021-08-20T11:03:04Z</time>
      </trkpt>
      <trkpt lat="46.49477" lon="5.37627">
        <ele>262</ele>
        <time>2021-08-20T11:03:05Z</time>
      </trkpt>
      <trkpt lat="46.49495" lon="5.37614">
        <ele>261</ele>
        <time>2021-08-20T11:03:07Z</time>
      </trkpt>
      <trkpt lat="46.49521" lon="5.37592">
        <ele>259.6</ele>
        <time>2021-08-20T11:03:10Z</time>
      </trkpt>
      <trkpt lat="46.49537" lon="5.37578">
        <ele>258.2</ele>
        <time>2021-08-20T11:03:12Z</time>
      </trkpt>
      <trkpt lat="46.49577" lon="5.37544">
        <ele>257</ele>
        <time>2021-08-20T11:03:17Z</time>
      </trkpt>
      <trkpt lat="46.4961" lon="5.37516">
        <ele>255.6</ele>
        <time>2021-08-20T11:03:21Z</time>
      </trkpt>
      <trkpt lat="46.49619" lon="5.37512">
        <ele>254.8</ele>
        <time>2021-08-20T11:03:22Z</time>
      </trkpt>
      <trkpt lat="46.49629" lon="5.37511">
        <ele>254.6</ele>
        <time>2021-08-20T11:03:23Z</time>
      </trkpt>
      <trkpt lat="46.49638" lon="5.37514">
        <ele>254.4</ele>
        <time>2021-08-20T11:03:24Z</time>
      </trkpt>
      <trkpt lat="46.49672" lon="5.37532">
        <ele>253</ele>
        <time>2021-08-20T11:03:28Z</time>
      </trkpt>
      <trkpt lat="46.49689" lon="5.37539">
        <ele>252.6</ele>
        <time>2021-08-20T11:03:30Z</time>
      </trkpt>
      <trkpt lat="46.49733" lon="5.37564">
        <ele>252.2</ele>
        <time>2021-08-20T11:03:36Z</time>
      </trkpt>
      <trkpt lat="46.49779" lon="5.37593">
        <ele>252.6</ele>
        <time>2021-08-20T11:03:43Z</time>
      </trkpt>
      <trkpt lat="46.49791" lon="5.37602">
        <ele>252.8</ele>
        <time>2021-08-20T11:03:45Z</time>
      </trkpt>
      <trkpt lat="46.49821" lon="5.37621">
        <ele>253.2</ele>
        <time>2021-08-20T11:03:50Z</time>
      </trkpt>
      <trkpt lat="46.49866" lon="5.3764">
        <ele>253.4</ele>
        <time>2021-08-20T11:03:57Z</time>
      </trkpt>
      <trkpt lat="46.49901" lon="5.37652">
        <ele>253.8</ele>
        <time>2021-08-20T11:04:03Z</time>
      </trkpt>
      <trkpt lat="46.49919" lon="5.37657">
        <ele>254</ele>
        <time>2021-08-20T11:04:06Z</time>
      </trkpt>
      <trkpt lat="46.49924" lon="5.3766">
        <ele>254</ele>
        <time>2021-08-20T11:04:07Z</time>
      </trkpt>
      <trkpt lat="46.4993" lon="5.37663">
        <ele>254.4</ele>
        <time>2021-08-20T11:04:08Z</time>
      </trkpt>
      <trkpt lat="46.49971" lon="5.3768">
        <ele>254.4</ele>
        <time>2021-08-20T11:04:15Z</time>
      </trkpt>
      <trkpt lat="46.5002" lon="5.37704">
        <ele>254.8</ele>
        <time>2021-08-20T11:04:24Z</time>
      </trkpt>
      <trkpt lat="46.50036" lon="5.37712">
        <ele>255.4</ele>
        <time>2021-08-20T11:04:27Z</time>
      </trkpt>
      <trkpt lat="46.50058" lon="5.37723">
        <ele>255.8</ele>
        <time>2021-08-20T11:04:31Z</time>
      </trkpt>
      <trkpt lat="46.50105" lon="5.3774">
        <ele>255.8</ele>
        <time>2021-08-20T11:04:39Z</time>
      </trkpt>
      <trkpt lat="46.50145" lon="5.37751">
        <ele>255.6</ele>
        <time>2021-08-20T11:04:45Z</time>
      </trkpt>
      <trkpt lat="46.50199" lon="5.37767">
        <ele>254.4</ele>
        <time>2021-08-20T11:04:52Z</time>
      </trkpt>
      <trkpt lat="46.50207" lon="5.37771">
        <ele>254.4</ele>
        <time>2021-08-20T11:04:53Z</time>
      </trkpt>
      <trkpt lat="46.5024" lon="5.37794">
        <ele>253.2</ele>
        <time>2021-08-20T11:04:58Z</time>
      </trkpt>
      <trkpt lat="46.50246" lon="5.37798">
        <ele>253.2</ele>
        <time>2021-08-20T11:04:59Z</time>
      </trkpt>
      <trkpt lat="46.50268" lon="5.37819">
        <ele>253.6</ele>
        <time>2021-08-20T11:05:03Z</time>
      </trkpt>
      <trkpt lat="46.50293" lon="5.37844">
        <ele>254</ele>
        <time>2021-08-20T11:05:08Z</time>
      </trkpt>
      <trkpt lat="46.50298" lon="5.37849">
        <ele>254.4</ele>
        <time>2021-08-20T11:05:09Z</time>
      </trkpt>
      <trkpt lat="46.50334" lon="5.37887">
        <ele>255</ele>
        <time>2021-08-20T11:05:16Z</time>
      </trkpt>
      <trkpt lat="46.50348" lon="5.37907">
        <ele>255</ele>
        <time>2021-08-20T11:05:19Z</time>
      </trkpt>
      <trkpt lat="46.50354" lon="5.37923">
        <ele>255</ele>
        <time>2021-08-20T11:05:21Z</time>
      </trkpt>
      <trkpt lat="46.50358" lon="5.37939">
        <ele>255.2</ele>
        <time>2021-08-20T11:05:23Z</time>
      </trkpt>
      <trkpt lat="46.50359" lon="5.37955">
        <ele>255.4</ele>
        <time>2021-08-20T11:05:25Z</time>
      </trkpt>
      <trkpt lat="46.50359" lon="5.37963">
        <ele>255.4</ele>
        <time>2021-08-20T11:05:26Z</time>
      </trkpt>
      <trkpt lat="46.50355" lon="5.38005">
        <ele>255.6</ele>
        <time>2021-08-20T11:05:31Z</time>
      </trkpt>
      <trkpt lat="46.50355" lon="5.38014">
        <ele>255.6</ele>
        <time>2021-08-20T11:05:32Z</time>
      </trkpt>
      <trkpt lat="46.50355" lon="5.38023">
        <ele>255.6</ele>
        <time>2021-08-20T11:05:33Z</time>
      </trkpt>
      <trkpt lat="46.5036" lon="5.38037">
        <ele>255.4</ele>
        <time>2021-08-20T11:05:35Z</time>
      </trkpt>
      <trkpt lat="46.50367" lon="5.38044">
        <ele>255.2</ele>
        <time>2021-08-20T11:05:38Z</time>
      </trkpt>
      <trkpt lat="46.50367" lon="5.38044">
        <ele>255.2</ele>
        <time>2021-08-20T11:05:41Z</time>
      </trkpt>
      <trkpt lat="46.50371" lon="5.38045">
        <ele>255.2</ele>
        <time>2021-08-20T11:05:47Z</time>
      </trkpt>
      <trkpt lat="46.50375" lon="5.38045">
        <ele>255</ele>
        <time>2021-08-20T11:05:49Z</time>
      </trkpt>
      <trkpt lat="46.50383" lon="5.38041">
        <ele>255</ele>
        <time>2021-08-20T11:05:51Z</time>
      </trkpt>
      <trkpt lat="46.50387" lon="5.38036">
        <ele>255</ele>
        <time>2021-08-20T11:05:52Z</time>
      </trkpt>
      <trkpt lat="46.50403" lon="5.38007">
        <ele>254.6</ele>
        <time>2021-08-20T11:05:56Z</time>
      </trkpt>
      <trkpt lat="46.50408" lon="5.37999">
        <ele>254.2</ele>
        <time>2021-08-20T11:05:57Z</time>
      </trkpt>
      <trkpt lat="46.50422" lon="5.37973">
        <ele>253</ele>
        <time>2021-08-20T11:06:00Z</time>
      </trkpt>
      <trkpt lat="46.50434" lon="5.37956">
        <ele>252.2</ele>
        <time>2021-08-20T11:06:02Z</time>
      </trkpt>
      <trkpt lat="46.50447" lon="5.37936">
        <ele>251.6</ele>
        <time>2021-08-20T11:06:04Z</time>
      </trkpt>
      <trkpt lat="46.50464" lon="5.37911">
        <ele>250.2</ele>
        <time>2021-08-20T11:06:07Z</time>
      </trkpt>
      <trkpt lat="46.50485" lon="5.3788">
        <ele>249</ele>
        <time>2021-08-20T11:06:10Z</time>
      </trkpt>
      <trkpt lat="46.50497" lon="5.37862">
        <ele>248</ele>
        <time>2021-08-20T11:06:12Z</time>
      </trkpt>
      <trkpt lat="46.5051" lon="5.37841">
        <ele>247.4</ele>
        <time>2021-08-20T11:06:14Z</time>
      </trkpt>
      <trkpt lat="46.5053" lon="5.3781">
        <ele>246.8</ele>
        <time>2021-08-20T11:06:17Z</time>
      </trkpt>
      <trkpt lat="46.50552" lon="5.37779">
        <ele>245.2</ele>
        <time>2021-08-20T11:06:20Z</time>
      </trkpt>
      <trkpt lat="46.50565" lon="5.37759">
        <ele>244</ele>
        <time>2021-08-20T11:06:22Z</time>
      </trkpt>
      <trkpt lat="46.50585" lon="5.37728">
        <ele>242.6</ele>
        <time>2021-08-20T11:06:25Z</time>
      </trkpt>
      <trkpt lat="46.50603" lon="5.37701">
        <ele>241.2</ele>
        <time>2021-08-20T11:06:28Z</time>
      </trkpt>
      <trkpt lat="46.50629" lon="5.3766">
        <ele>240</ele>
        <time>2021-08-20T11:06:32Z</time>
      </trkpt>
      <trkpt lat="46.50634" lon="5.37652">
        <ele>239.8</ele>
        <time>2021-08-20T11:06:33Z</time>
      </trkpt>
      <trkpt lat="46.50647" lon="5.37631">
        <ele>238.8</ele>
        <time>2021-08-20T11:06:35Z</time>
      </trkpt>
      <trkpt lat="46.50675" lon="5.37589">
        <ele>237.8</ele>
        <time>2021-08-20T11:06:40Z</time>
      </trkpt>
      <trkpt lat="46.50681" lon="5.37579">
        <ele>237.6</ele>
        <time>2021-08-20T11:06:41Z</time>
      </trkpt>
      <trkpt lat="46.50686" lon="5.37572">
        <ele>237.6</ele>
        <time>2021-08-20T11:06:42Z</time>
      </trkpt>
      <trkpt lat="46.50696" lon="5.37566">
        <ele>237.6</ele>
        <time>2021-08-20T11:06:44Z</time>
      </trkpt>
      <trkpt lat="46.50709" lon="5.37573">
        <ele>237.6</ele>
        <time>2021-08-20T11:06:46Z</time>
      </trkpt>
      <trkpt lat="46.50715" lon="5.37581">
        <ele>237.4</ele>
        <time>2021-08-20T11:06:47Z</time>
      </trkpt>
      <trkpt lat="46.50724" lon="5.37594">
        <ele>237.2</ele>
        <time>2021-08-20T11:06:49Z</time>
      </trkpt>
      <trkpt lat="46.50731" lon="5.3761">
        <ele>237.4</ele>
        <time>2021-08-20T11:06:51Z</time>
      </trkpt>
      <trkpt lat="46.50734" lon="5.37621">
        <ele>237.4</ele>
        <time>2021-08-20T11:06:52Z</time>
      </trkpt>
      <trkpt lat="46.50736" lon="5.3763">
        <ele>237.6</ele>
        <time>2021-08-20T11:06:53Z</time>
      </trkpt>
      <trkpt lat="46.50738" lon="5.37654">
        <ele>238.2</ele>
        <time>2021-08-20T11:06:56Z</time>
      </trkpt>
      <trkpt lat="46.50739" lon="5.37671">
        <ele>239</ele>
        <time>2021-08-20T11:06:58Z</time>
      </trkpt>
      <trkpt lat="46.50741" lon="5.377">
        <ele>240.4</ele>
        <time>2021-08-20T11:07:02Z</time>
      </trkpt>
      <trkpt lat="46.50743" lon="5.37721">
        <ele>241.6</ele>
        <time>2021-08-20T11:07:05Z</time>
      </trkpt>
      <trkpt lat="46.50745" lon="5.37744">
        <ele>242</ele>
        <time>2021-08-20T11:07:08Z</time>
      </trkpt>
      <trkpt lat="46.50753" lon="5.37788">
        <ele>242.6</ele>
        <time>2021-08-20T11:07:14Z</time>
      </trkpt>
      <trkpt lat="46.50756" lon="5.37797">
        <ele>242.8</ele>
        <time>2021-08-20T11:07:15Z</time>
      </trkpt>
      <trkpt lat="46.50771" lon="5.37835">
        <ele>243.4</ele>
        <time>2021-08-20T11:07:21Z</time>
      </trkpt>
      <trkpt lat="46.50781" lon="5.37853">
        <ele>243.8</ele>
        <time>2021-08-20T11:07:24Z</time>
      </trkpt>
      <trkpt lat="46.50797" lon="5.37874">
        <ele>244.2</ele>
        <time>2021-08-20T11:07:28Z</time>
      </trkpt>
      <trkpt lat="46.50809" lon="5.37887">
        <ele>244.2</ele>
        <time>2021-08-20T11:07:31Z</time>
      </trkpt>
      <trkpt lat="46.5082" lon="5.37894">
        <ele>244.4</ele>
        <time>2021-08-20T11:07:33Z</time>
      </trkpt>
      <trkpt lat="46.50825" lon="5.37896">
        <ele>244.4</ele>
        <time>2021-08-20T11:07:34Z</time>
      </trkpt>
      <trkpt lat="46.50865" lon="5.37902">
        <ele>244.2</ele>
        <time>2021-08-20T11:07:41Z</time>
      </trkpt>
      <trkpt lat="46.50916" lon="5.37902">
        <ele>244.6</ele>
        <time>2021-08-20T11:07:50Z</time>
      </trkpt>
      <trkpt lat="46.50922" lon="5.379">
        <ele>244.8</ele>
        <time>2021-08-20T11:07:51Z</time>
      </trkpt>
      <trkpt lat="46.50955" lon="5.3789">
        <ele>245.4</ele>
        <time>2021-08-20T11:07:57Z</time>
      </trkpt>
      <trkpt lat="46.51011" lon="5.37877">
        <ele>245.6</ele>
        <time>2021-08-20T11:08:06Z</time>
      </trkpt>
      <trkpt lat="46.51017" lon="5.37876">
        <ele>245.4</ele>
        <time>2021-08-20T11:08:07Z</time>
      </trkpt>
      <trkpt lat="46.51069" lon="5.3787">
        <ele>244.4</ele>
        <time>2021-08-20T11:08:14Z</time>
      </trkpt>
      <trkpt lat="46.51076" lon="5.37869">
        <ele>244</ele>
        <time>2021-08-20T11:08:15Z</time>
      </trkpt>
      <trkpt lat="46.51107" lon="5.37859">
        <ele>242.8</ele>
        <time>2021-08-20T11:08:19Z</time>
      </trkpt>
      <trkpt lat="46.51145" lon="5.37836">
        <ele>241.6</ele>
        <time>2021-08-20T11:08:24Z</time>
      </trkpt>
      <trkpt lat="46.51152" lon="5.3783">
        <ele>241.4</ele>
        <time>2021-08-20T11:08:25Z</time>
      </trkpt>
      <trkpt lat="46.51174" lon="5.37815">
        <ele>240.8</ele>
        <time>2021-08-20T11:08:28Z</time>
      </trkpt>
      <trkpt lat="46.51181" lon="5.37811">
        <ele>240.4</ele>
        <time>2021-08-20T11:08:29Z</time>
      </trkpt>
      <trkpt lat="46.51189" lon="5.37809">
        <ele>240.2</ele>
        <time>2021-08-20T11:08:30Z</time>
      </trkpt>
      <trkpt lat="46.51214" lon="5.37805">
        <ele>239.2</ele>
        <time>2021-08-20T11:08:33Z</time>
      </trkpt>
      <trkpt lat="46.51239" lon="5.37801">
        <ele>238</ele>
        <time>2021-08-20T11:08:36Z</time>
      </trkpt>
      <trkpt lat="46.51247" lon="5.37799">
        <ele>237.8</ele>
        <time>2021-08-20T11:08:37Z</time>
      </trkpt>
      <trkpt lat="46.51286" lon="5.37782">
        <ele>237.4</ele>
        <time>2021-08-20T11:08:42Z</time>
      </trkpt>
      <trkpt lat="46.51309" lon="5.37771">
        <ele>237</ele>
        <time>2021-08-20T11:08:45Z</time>
      </trkpt>
      <trkpt lat="46.51353" lon="5.37748">
        <ele>236</ele>
        <time>2021-08-20T11:08:51Z</time>
      </trkpt>
      <trkpt lat="46.51377" lon="5.37736">
        <ele>235.2</ele>
        <time>2021-08-20T11:08:54Z</time>
      </trkpt>
      <trkpt lat="46.51393" lon="5.37728">
        <ele>234.8</ele>
        <time>2021-08-20T11:08:56Z</time>
      </trkpt>
      <trkpt lat="46.51424" lon="5.37717">
        <ele>233.8</ele>
        <time>2021-08-20T11:09:00Z</time>
      </trkpt>
      <trkpt lat="46.51479" lon="5.37704">
        <ele>233</ele>
        <time>2021-08-20T11:09:07Z</time>
      </trkpt>
      <trkpt lat="46.51495" lon="5.377">
        <ele>232.8</ele>
        <time>2021-08-20T11:09:09Z</time>
      </trkpt>
      <trkpt lat="46.51503" lon="5.37698">
        <ele>232.4</ele>
        <time>2021-08-20T11:09:10Z</time>
      </trkpt>
      <trkpt lat="46.51544" lon="5.37688">
        <ele>231.2</ele>
        <time>2021-08-20T11:09:15Z</time>
      </trkpt>
      <trkpt lat="46.51577" lon="5.37683">
        <ele>230</ele>
        <time>2021-08-20T11:09:19Z</time>
      </trkpt>
      <trkpt lat="46.51625" lon="5.37674">
        <ele>229.4</ele>
        <time>2021-08-20T11:09:25Z</time>
      </trkpt>
      <trkpt lat="46.51643" lon="5.37667">
        <ele>229</ele>
        <time>2021-08-20T11:09:27Z</time>
      </trkpt>
      <trkpt lat="46.51673" lon="5.37653">
        <ele>228.6</ele>
        <time>2021-08-20T11:09:31Z</time>
      </trkpt>
      <trkpt lat="46.51679" lon="5.37648">
        <ele>228.6</ele>
        <time>2021-08-20T11:09:32Z</time>
      </trkpt>
      <trkpt lat="46.51691" lon="5.37638">
        <ele>228.4</ele>
        <time>2021-08-20T11:09:34Z</time>
      </trkpt>
      <trkpt lat="46.51708" lon="5.37632">
        <ele>228.4</ele>
        <time>2021-08-20T11:09:36Z</time>
      </trkpt>
      <trkpt lat="46.51735" lon="5.37638">
        <ele>228.6</ele>
        <time>2021-08-20T11:09:40Z</time>
      </trkpt>
      <trkpt lat="46.51777" lon="5.37651">
        <ele>229.2</ele>
        <time>2021-08-20T11:09:47Z</time>
      </trkpt>
      <trkpt lat="46.51814" lon="5.37653">
        <ele>230.2</ele>
        <time>2021-08-20T11:09:53Z</time>
      </trkpt>
      <trkpt lat="46.5182" lon="5.37652">
        <ele>230.4</ele>
        <time>2021-08-20T11:09:54Z</time>
      </trkpt>
      <trkpt lat="46.51848" lon="5.37651">
        <ele>231.4</ele>
        <time>2021-08-20T11:09:59Z</time>
      </trkpt>
      <trkpt lat="46.51853" lon="5.37651">
        <ele>231.6</ele>
        <time>2021-08-20T11:10:00Z</time>
      </trkpt>
      <trkpt lat="46.51864" lon="5.3765">
        <ele>232</ele>
        <time>2021-08-20T11:10:02Z</time>
      </trkpt>
      <trkpt lat="46.519" lon="5.37649">
        <ele>232.2</ele>
        <time>2021-08-20T11:10:08Z</time>
      </trkpt>
      <trkpt lat="46.51955" lon="5.37639">
        <ele>231.8</ele>
        <time>2021-08-20T11:10:17Z</time>
      </trkpt>
      <trkpt lat="46.5201" lon="5.3763">
        <ele>231.8</ele>
        <time>2021-08-20T11:10:26Z</time>
      </trkpt>
      <trkpt lat="46.52013" lon="5.37629">
        <ele>231.8</ele>
        <time>2021-08-20T11:10:27Z</time>
      </trkpt>
      <trkpt lat="46.52021" lon="5.37623">
        <ele>232</ele>
        <time>2021-08-20T11:10:29Z</time>
      </trkpt>
      <trkpt lat="46.52024" lon="5.37617">
        <ele>232</ele>
        <time>2021-08-20T11:10:30Z</time>
      </trkpt>
      <trkpt lat="46.52026" lon="5.3761">
        <ele>232</ele>
        <time>2021-08-20T11:10:31Z</time>
      </trkpt>
      <trkpt lat="46.52033" lon="5.37582">
        <ele>231.8</ele>
        <time>2021-08-20T11:10:34Z</time>
      </trkpt>
      <trkpt lat="46.52049" lon="5.3751">
        <ele>231.6</ele>
        <time>2021-08-20T11:10:42Z</time>
      </trkpt>
      <trkpt lat="46.52068" lon="5.3743">
        <ele>231</ele>
        <time>2021-08-20T11:10:51Z</time>
      </trkpt>
      <trkpt lat="46.52085" lon="5.37358">
        <ele>230.4</ele>
        <time>2021-08-20T11:10:59Z</time>
      </trkpt>
      <trkpt lat="46.52094" lon="5.37345">
        <ele>230</ele>
        <time>2021-08-20T11:11:01Z</time>
      </trkpt>
      <trkpt lat="46.52102" lon="5.37337">
        <ele>229.8</ele>
        <time>2021-08-20T11:11:02Z</time>
      </trkpt>
      <trkpt lat="46.52133" lon="5.37316">
        <ele>229.2</ele>
        <time>2021-08-20T11:11:06Z</time>
      </trkpt>
      <trkpt lat="46.52148" lon="5.37305">
        <ele>228.8</ele>
        <time>2021-08-20T11:11:08Z</time>
      </trkpt>
      <trkpt lat="46.52163" lon="5.37294">
        <ele>228.2</ele>
        <time>2021-08-20T11:11:10Z</time>
      </trkpt>
      <trkpt lat="46.52188" lon="5.37276">
        <ele>226.8</ele>
        <time>2021-08-20T11:11:13Z</time>
      </trkpt>
      <trkpt lat="46.52205" lon="5.37264">
        <ele>225.6</ele>
        <time>2021-08-20T11:11:15Z</time>
      </trkpt>
      <trkpt lat="46.52229" lon="5.37243">
        <ele>223.8</ele>
        <time>2021-08-20T11:11:18Z</time>
      </trkpt>
      <trkpt lat="46.52247" lon="5.37227">
        <ele>222.8</ele>
        <time>2021-08-20T11:11:20Z</time>
      </trkpt>
      <trkpt lat="46.52269" lon="5.37205">
        <ele>221.6</ele>
        <time>2021-08-20T11:11:23Z</time>
      </trkpt>
      <trkpt lat="46.52299" lon="5.37172">
        <ele>220.6</ele>
        <time>2021-08-20T11:11:27Z</time>
      </trkpt>
      <trkpt lat="46.52307" lon="5.37164">
        <ele>219.8</ele>
        <time>2021-08-20T11:11:28Z</time>
      </trkpt>
      <trkpt lat="46.52324" lon="5.37145">
        <ele>219.2</ele>
        <time>2021-08-20T11:11:30Z</time>
      </trkpt>
      <trkpt lat="46.52357" lon="5.37111">
        <ele>217.8</ele>
        <time>2021-08-20T11:11:34Z</time>
      </trkpt>
      <trkpt lat="46.5238" lon="5.37088">
        <ele>216.6</ele>
        <time>2021-08-20T11:11:37Z</time>
      </trkpt>
      <trkpt lat="46.52395" lon="5.3707">
        <ele>215.4</ele>
        <time>2021-08-20T11:11:39Z</time>
      </trkpt>
      <trkpt lat="46.52408" lon="5.37051">
        <ele>214.4</ele>
        <time>2021-08-20T11:11:41Z</time>
      </trkpt>
      <trkpt lat="46.52414" lon="5.3704">
        <ele>214.2</ele>
        <time>2021-08-20T11:11:42Z</time>
      </trkpt>
      <trkpt lat="46.52439" lon="5.36987">
        <ele>213.8</ele>
        <time>2021-08-20T11:11:47Z</time>
      </trkpt>
      <trkpt lat="46.52443" lon="5.36972">
        <ele>213.8</ele>
        <time>2021-08-20T11:11:48Z</time>
      </trkpt>
      <trkpt lat="46.5245" lon="5.36937">
        <ele>213.6</ele>
        <time>2021-08-20T11:11:51Z</time>
      </trkpt>
      <trkpt lat="46.52462" lon="5.36851">
        <ele>213.8</ele>
        <time>2021-08-20T11:11:58Z</time>
      </trkpt>
      <trkpt lat="46.52464" lon="5.36839">
        <ele>213.8</ele>
        <time>2021-08-20T11:11:59Z</time>
      </trkpt>
      <trkpt lat="46.52467" lon="5.36772">
        <ele>213.8</ele>
        <time>2021-08-20T11:12:05Z</time>
      </trkpt>
      <trkpt lat="46.5247" lon="5.36706">
        <ele>213.8</ele>
        <time>2021-08-20T11:12:11Z</time>
      </trkpt>
      <trkpt lat="46.52472" lon="5.36649">
        <ele>213</ele>
        <time>2021-08-20T11:12:16Z</time>
      </trkpt>
      <trkpt lat="46.52472" lon="5.36641">
        <ele>212.8</ele>
        <time>2021-08-20T11:12:17Z</time>
      </trkpt>
      <trkpt lat="46.52477" lon="5.36553">
        <ele>212.8</ele>
        <time>2021-08-20T11:12:25Z</time>
      </trkpt>
      <trkpt lat="46.52478" lon="5.36542">
        <ele>213</ele>
        <time>2021-08-20T11:12:26Z</time>
      </trkpt>
      <trkpt lat="46.52486" lon="5.36467">
        <ele>212.6</ele>
        <time>2021-08-20T11:12:33Z</time>
      </trkpt>
      <trkpt lat="46.52489" lon="5.36438">
        <ele>211.8</ele>
        <time>2021-08-20T11:12:36Z</time>
      </trkpt>
      <trkpt lat="46.52496" lon="5.36385">
        <ele>211.4</ele>
        <time>2021-08-20T11:12:41Z</time>
      </trkpt>
      <trkpt lat="46.52501" lon="5.36363">
        <ele>211.2</ele>
        <time>2021-08-20T11:12:43Z</time>
      </trkpt>
      <trkpt lat="46.52508" lon="5.36346">
        <ele>211.2</ele>
        <time>2021-08-20T11:12:45Z</time>
      </trkpt>
      <trkpt lat="46.52512" lon="5.36337">
        <ele>211.2</ele>
        <time>2021-08-20T11:12:46Z</time>
      </trkpt>
      <trkpt lat="46.5252" lon="5.36329">
        <ele>211</ele>
        <time>2021-08-20T11:12:47Z</time>
      </trkpt>
      <trkpt lat="46.52526" lon="5.36323">
        <ele>210.8</ele>
        <time>2021-08-20T11:12:48Z</time>
      </trkpt>
      <trkpt lat="46.52533" lon="5.36319">
        <ele>210.4</ele>
        <time>2021-08-20T11:12:49Z</time>
      </trkpt>
      <trkpt lat="46.52539" lon="5.36317">
        <ele>210.4</ele>
        <time>2021-08-20T11:12:50Z</time>
      </trkpt>
      <trkpt lat="46.52555" lon="5.36315">
        <ele>210.2</ele>
        <time>2021-08-20T11:12:52Z</time>
      </trkpt>
      <trkpt lat="46.52567" lon="5.36316">
        <ele>210.2</ele>
        <time>2021-08-20T11:12:54Z</time>
      </trkpt>
      <trkpt lat="46.52573" lon="5.36315">
        <ele>210</ele>
        <time>2021-08-20T11:12:55Z</time>
      </trkpt>
      <trkpt lat="46.52581" lon="5.3631">
        <ele>210</ele>
        <time>2021-08-20T11:12:56Z</time>
      </trkpt>
      <trkpt lat="46.52592" lon="5.36297">
        <ele>210.2</ele>
        <time>2021-08-20T11:12:58Z</time>
      </trkpt>
      <trkpt lat="46.52622" lon="5.36271">
        <ele>210.2</ele>
        <time>2021-08-20T11:13:03Z</time>
      </trkpt>
      <trkpt lat="46.52663" lon="5.36246">
        <ele>210</ele>
        <time>2021-08-20T11:13:10Z</time>
      </trkpt>
      <trkpt lat="46.52696" lon="5.36218">
        <ele>210</ele>
        <time>2021-08-20T11:13:16Z</time>
      </trkpt>
      <trkpt lat="46.52704" lon="5.36207">
        <ele>210</ele>
        <time>2021-08-20T11:13:18Z</time>
      </trkpt>
      <trkpt lat="46.52713" lon="5.36191">
        <ele>210.4</ele>
        <time>2021-08-20T11:13:20Z</time>
      </trkpt>
      <trkpt lat="46.52715" lon="5.36183">
        <ele>210.4</ele>
        <time>2021-08-20T11:13:21Z</time>
      </trkpt>
      <trkpt lat="46.52738" lon="5.36111">
        <ele>210.8</ele>
        <time>2021-08-20T11:13:30Z</time>
      </trkpt>
      <trkpt lat="46.52751" lon="5.36072">
        <ele>211</ele>
        <time>2021-08-20T11:13:36Z</time>
      </trkpt>
      <trkpt lat="46.52755" lon="5.3606">
        <ele>210.8</ele>
        <time>2021-08-20T11:13:38Z</time>
      </trkpt>
      <trkpt lat="46.52759" lon="5.3605">
        <ele>210.8</ele>
        <time>2021-08-20T11:13:41Z</time>
      </trkpt>
      <trkpt lat="46.52772" lon="5.36043">
        <ele>211.4</ele>
        <time>2021-08-20T11:13:45Z</time>
      </trkpt>
      <trkpt lat="46.5279" lon="5.36048">
        <ele>211.8</ele>
        <time>2021-08-20T11:13:49Z</time>
      </trkpt>
      <trkpt lat="46.528" lon="5.36052">
        <ele>212</ele>
        <time>2021-08-20T11:13:51Z</time>
      </trkpt>
      <trkpt lat="46.52823" lon="5.36058">
        <ele>212.8</ele>
        <time>2021-08-20T11:13:56Z</time>
      </trkpt>
      <trkpt lat="46.52829" lon="5.36061">
        <ele>213.4</ele>
        <time>2021-08-20T11:13:58Z</time>
      </trkpt>
      <trkpt lat="46.52834" lon="5.36064">
        <ele>213.8</ele>
        <time>2021-08-20T11:14:00Z</time>
      </trkpt>
      <trkpt lat="46.52848" lon="5.36066">
        <ele>214.4</ele>
        <time>2021-08-20T11:14:04Z</time>
      </trkpt>
      <trkpt lat="46.52877" lon="5.36067">
        <ele>215.2</ele>
        <time>2021-08-20T11:14:10Z</time>
      </trkpt>
      <trkpt lat="46.52901" lon="5.3607">
        <ele>215.4</ele>
        <time>2021-08-20T11:14:15Z</time>
      </trkpt>
      <trkpt lat="46.52913" lon="5.36072">
        <ele>215.8</ele>
        <time>2021-08-20T11:14:18Z</time>
      </trkpt>
      <trkpt lat="46.52946" lon="5.36081">
        <ele>216.4</ele>
        <time>2021-08-20T11:14:25Z</time>
      </trkpt>
      <trkpt lat="46.52949" lon="5.36084">
        <ele>216.6</ele>
        <time>2021-08-20T11:14:26Z</time>
      </trkpt>
      <trkpt lat="46.52953" lon="5.36087">
        <ele>216.8</ele>
        <time>2021-08-20T11:14:27Z</time>
      </trkpt>
      <trkpt lat="46.5296" lon="5.36095">
        <ele>217.2</ele>
        <time>2021-08-20T11:14:29Z</time>
      </trkpt>
      <trkpt lat="46.52962" lon="5.361">
        <ele>217.2</ele>
        <time>2021-08-20T11:14:30Z</time>
      </trkpt>
      <trkpt lat="46.52966" lon="5.36108">
        <ele>217.8</ele>
        <time>2021-08-20T11:14:32Z</time>
      </trkpt>
      <trkpt lat="46.52977" lon="5.36126">
        <ele>218.8</ele>
        <time>2021-08-20T11:14:36Z</time>
      </trkpt>
      <trkpt lat="46.52981" lon="5.3613">
        <ele>218.8</ele>
        <time>2021-08-20T11:14:37Z</time>
      </trkpt>
      <trkpt lat="46.52997" lon="5.36138">
        <ele>219.2</ele>
        <time>2021-08-20T11:14:41Z</time>
      </trkpt>
      <trkpt lat="46.53002" lon="5.36139">
        <ele>219.4</ele>
        <time>2021-08-20T11:14:42Z</time>
      </trkpt>
      <trkpt lat="46.53015" lon="5.36141">
        <ele>220</ele>
        <time>2021-08-20T11:14:46Z</time>
      </trkpt>
      <trkpt lat="46.5302" lon="5.36141">
        <ele>220.2</ele>
        <time>2021-08-20T11:14:47Z</time>
      </trkpt>
      <trkpt lat="46.53033" lon="5.36143">
        <ele>221.2</ele>
        <time>2021-08-20T11:14:50Z</time>
      </trkpt>
      <trkpt lat="46.53046" lon="5.36143">
        <ele>221.4</ele>
        <time>2021-08-20T11:14:53Z</time>
      </trkpt>
      <trkpt lat="46.53054" lon="5.3614">
        <ele>221.6</ele>
        <time>2021-08-20T11:14:55Z</time>
      </trkpt>
      <trkpt lat="46.5307" lon="5.36129">
        <ele>222.2</ele>
        <time>2021-08-20T11:14:59Z</time>
      </trkpt>
      <trkpt lat="46.53077" lon="5.36122">
        <ele>222.4</ele>
        <time>2021-08-20T11:15:01Z</time>
      </trkpt>
      <trkpt lat="46.53087" lon="5.36112">
        <ele>223</ele>
        <time>2021-08-20T11:15:04Z</time>
      </trkpt>
      <trkpt lat="46.53096" lon="5.361">
        <ele>223.4</ele>
        <time>2021-08-20T11:15:07Z</time>
      </trkpt>
      <trkpt lat="46.53098" lon="5.36095">
        <ele>223.6</ele>
        <time>2021-08-20T11:15:08Z</time>
      </trkpt>
      <trkpt lat="46.53108" lon="5.36074">
        <ele>224.4</ele>
        <time>2021-08-20T11:15:12Z</time>
      </trkpt>
      <trkpt lat="46.53127" lon="5.36039">
        <ele>225.2</ele>
        <time>2021-08-20T11:15:19Z</time>
      </trkpt>
      <trkpt lat="46.53136" lon="5.36025">
        <ele>225.4</ele>
        <time>2021-08-20T11:15:22Z</time>
      </trkpt>
      <trkpt lat="46.53155" lon="5.35993">
        <ele>226</ele>
        <time>2021-08-20T11:15:28Z</time>
      </trkpt>
      <trkpt lat="46.53162" lon="5.35978">
        <ele>226.6</ele>
        <time>2021-08-20T11:15:31Z</time>
      </trkpt>
      <trkpt lat="46.53183" lon="5.3594">
        <ele>227.6</ele>
        <time>2021-08-20T11:15:38Z</time>
      </trkpt>
      <trkpt lat="46.53187" lon="5.35934">
        <ele>227.6</ele>
        <time>2021-08-20T11:15:39Z</time>
      </trkpt>
      <trkpt lat="46.53191" lon="5.3593">
        <ele>227.8</ele>
        <time>2021-08-20T11:15:40Z</time>
      </trkpt>
      <trkpt lat="46.53195" lon="5.35927">
        <ele>227.8</ele>
        <time>2021-08-20T11:15:41Z</time>
      </trkpt>
      <trkpt lat="46.53217" lon="5.35917">
        <ele>228</ele>
        <time>2021-08-20T11:15:45Z</time>
      </trkpt>
      <trkpt lat="46.53245" lon="5.35907">
        <ele>228</ele>
        <time>2021-08-20T11:15:50Z</time>
      </trkpt>
      <trkpt lat="46.53268" lon="5.35896">
        <ele>228.4</ele>
        <time>2021-08-20T11:15:54Z</time>
      </trkpt>
      <trkpt lat="46.5332" lon="5.35873">
        <ele>228.4</ele>
        <time>2021-08-20T11:16:03Z</time>
      </trkpt>
      <trkpt lat="46.53363" lon="5.35862">
        <ele>228.8</ele>
        <time>2021-08-20T11:16:11Z</time>
      </trkpt>
      <trkpt lat="46.53395" lon="5.35865">
        <ele>229.8</ele>
        <time>2021-08-20T11:16:17Z</time>
      </trkpt>
      <trkpt lat="46.534" lon="5.35866">
        <ele>230.2</ele>
        <time>2021-08-20T11:16:18Z</time>
      </trkpt>
      <trkpt lat="46.53436" lon="5.35871">
        <ele>231.2</ele>
        <time>2021-08-20T11:16:25Z</time>
      </trkpt>
      <trkpt lat="46.53441" lon="5.35872">
        <ele>231.4</ele>
        <time>2021-08-20T11:16:26Z</time>
      </trkpt>
      <trkpt lat="46.53462" lon="5.3587">
        <ele>232</ele>
        <time>2021-08-20T11:16:30Z</time>
      </trkpt>
      <trkpt lat="46.53466" lon="5.35869">
        <ele>232.4</ele>
        <time>2021-08-20T11:16:31Z</time>
      </trkpt>
      <trkpt lat="46.53471" lon="5.35867">
        <ele>232.6</ele>
        <time>2021-08-20T11:16:32Z</time>
      </trkpt>
      <trkpt lat="46.5348" lon="5.35863">
        <ele>233.2</ele>
        <time>2021-08-20T11:16:35Z</time>
      </trkpt>
      <trkpt lat="46.53481" lon="5.35863">
        <ele>233.4</ele>
        <time>2021-08-20T11:16:36Z</time>
      </trkpt>
      <trkpt lat="46.53481" lon="5.35863">
        <ele>234.2</ele>
        <time>2021-08-20T11:16:39Z</time>
      </trkpt>
      <trkpt lat="46.53484" lon="5.35861">
        <ele>234.2</ele>
        <time>2021-08-20T11:17:25Z</time>
      </trkpt>
      <trkpt lat="46.5349" lon="5.35858">
        <ele>234.2</ele>
        <time>2021-08-20T11:17:27Z</time>
      </trkpt>
      <trkpt lat="46.53507" lon="5.35851">
        <ele>234.2</ele>
        <time>2021-08-20T11:17:31Z</time>
      </trkpt>
      <trkpt lat="46.53512" lon="5.3585">
        <ele>234.2</ele>
        <time>2021-08-20T11:17:32Z</time>
      </trkpt>
      <trkpt lat="46.53518" lon="5.3585">
        <ele>234.2</ele>
        <time>2021-08-20T11:17:33Z</time>
      </trkpt>
      <trkpt lat="46.53539" lon="5.35853">
        <ele>234</ele>
        <time>2021-08-20T11:17:37Z</time>
      </trkpt>
      <trkpt lat="46.5359" lon="5.35864">
        <ele>233.8</ele>
        <time>2021-08-20T11:17:46Z</time>
      </trkpt>
      <trkpt lat="46.5363" lon="5.3588">
        <ele>233.4</ele>
        <time>2021-08-20T11:17:53Z</time>
      </trkpt>
      <trkpt lat="46.53635" lon="5.35883">
        <ele>233.4</ele>
        <time>2021-08-20T11:17:54Z</time>
      </trkpt>
      <trkpt lat="46.53638" lon="5.35884">
        <ele>233.4</ele>
        <time>2021-08-20T11:17:55Z</time>
      </trkpt>
      <trkpt lat="46.53643" lon="5.35884">
        <ele>233.2</ele>
        <time>2021-08-20T11:17:57Z</time>
      </trkpt>
      <trkpt lat="46.5365" lon="5.35878">
        <ele>233</ele>
        <time>2021-08-20T11:17:59Z</time>
      </trkpt>
      <trkpt lat="46.53655" lon="5.35872">
        <ele>232.8</ele>
        <time>2021-08-20T11:18:00Z</time>
      </trkpt>
      <trkpt lat="46.53671" lon="5.3585">
        <ele>232.6</ele>
        <time>2021-08-20T11:18:03Z</time>
      </trkpt>
      <trkpt lat="46.53683" lon="5.35833">
        <ele>231.8</ele>
        <time>2021-08-20T11:18:05Z</time>
      </trkpt>
      <trkpt lat="46.53695" lon="5.35814">
        <ele>231</ele>
        <time>2021-08-20T11:18:07Z</time>
      </trkpt>
      <trkpt lat="46.53708" lon="5.35795">
        <ele>229.4</ele>
        <time>2021-08-20T11:18:09Z</time>
      </trkpt>
      <trkpt lat="46.5372" lon="5.35777">
        <ele>228.4</ele>
        <time>2021-08-20T11:18:11Z</time>
      </trkpt>
      <trkpt lat="46.53726" lon="5.35767">
        <ele>228</ele>
        <time>2021-08-20T11:18:12Z</time>
      </trkpt>
      <trkpt lat="46.53731" lon="5.35757">
        <ele>227.8</ele>
        <time>2021-08-20T11:18:13Z</time>
      </trkpt>
      <trkpt lat="46.5374" lon="5.35733">
        <ele>226.8</ele>
        <time>2021-08-20T11:18:15Z</time>
      </trkpt>
      <trkpt lat="46.5375" lon="5.35698">
        <ele>226</ele>
        <time>2021-08-20T11:18:18Z</time>
      </trkpt>
      <trkpt lat="46.53754" lon="5.35677">
        <ele>226</ele>
        <time>2021-08-20T11:18:20Z</time>
      </trkpt>
      <trkpt lat="46.53756" lon="5.3563">
        <ele>226</ele>
        <time>2021-08-20T11:18:24Z</time>
      </trkpt>
      <trkpt lat="46.53755" lon="5.35619">
        <ele>226</ele>
        <time>2021-08-20T11:18:25Z</time>
      </trkpt>
      <trkpt lat="46.53754" lon="5.35607">
        <ele>226</ele>
        <time>2021-08-20T11:18:26Z</time>
      </trkpt>
      <trkpt lat="46.53746" lon="5.35574">
        <ele>225.8</ele>
        <time>2021-08-20T11:18:29Z</time>
      </trkpt>
      <trkpt lat="46.53729" lon="5.35501">
        <ele>225.2</ele>
        <time>2021-08-20T11:18:36Z</time>
      </trkpt>
      <trkpt lat="46.53727" lon="5.3545">
        <ele>225.2</ele>
        <time>2021-08-20T11:18:41Z</time>
      </trkpt>
      <trkpt lat="46.53731" lon="5.35405">
        <ele>225.8</ele>
        <time>2021-08-20T11:18:46Z</time>
      </trkpt>
      <trkpt lat="46.53739" lon="5.35351">
        <ele>227</ele>
        <time>2021-08-20T11:18:53Z</time>
      </trkpt>
      <trkpt lat="46.5374" lon="5.35344">
        <ele>227.2</ele>
        <time>2021-08-20T11:18:54Z</time>
      </trkpt>
      <trkpt lat="46.53744" lon="5.3533">
        <ele>228.2</ele>
        <time>2021-08-20T11:18:56Z</time>
      </trkpt>
      <trkpt lat="46.53749" lon="5.35317">
        <ele>228.6</ele>
        <time>2021-08-20T11:18:58Z</time>
      </trkpt>
      <trkpt lat="46.53752" lon="5.35311">
        <ele>228.8</ele>
        <time>2021-08-20T11:18:59Z</time>
      </trkpt>
      <trkpt lat="46.53759" lon="5.353">
        <ele>229.2</ele>
        <time>2021-08-20T11:19:01Z</time>
      </trkpt>
      <trkpt lat="46.53774" lon="5.35278">
        <ele>230</ele>
        <time>2021-08-20T11:19:05Z</time>
      </trkpt>
      <trkpt lat="46.53783" lon="5.35267">
        <ele>230.4</ele>
        <time>2021-08-20T11:19:07Z</time>
      </trkpt>
      <trkpt lat="46.53821" lon="5.35226">
        <ele>231.2</ele>
        <time>2021-08-20T11:19:15Z</time>
      </trkpt>
      <trkpt lat="46.53861" lon="5.35198">
        <ele>230.4</ele>
        <time>2021-08-20T11:19:22Z</time>
      </trkpt>
      <trkpt lat="46.53901" lon="5.35171">
        <ele>229.4</ele>
        <time>2021-08-20T11:19:28Z</time>
      </trkpt>
      <trkpt lat="46.53915" lon="5.35162">
        <ele>229</ele>
        <time>2021-08-20T11:19:30Z</time>
      </trkpt>
      <trkpt lat="46.53941" lon="5.35141">
        <ele>228.8</ele>
        <time>2021-08-20T11:19:34Z</time>
      </trkpt>
      <trkpt lat="46.53959" lon="5.3512">
        <ele>228.4</ele>
        <time>2021-08-20T11:19:37Z</time>
      </trkpt>
      <trkpt lat="46.53976" lon="5.351">
        <ele>228.2</ele>
        <time>2021-08-20T11:19:40Z</time>
      </trkpt>
      <trkpt lat="46.54012" lon="5.35059">
        <ele>227.6</ele>
        <time>2021-08-20T11:19:46Z</time>
      </trkpt>
      <trkpt lat="46.54033" lon="5.35042">
        <ele>227.2</ele>
        <time>2021-08-20T11:19:49Z</time>
      </trkpt>
      <trkpt lat="46.54055" lon="5.35027">
        <ele>226.6</ele>
        <time>2021-08-20T11:19:52Z</time>
      </trkpt>
      <trkpt lat="46.5407" lon="5.35019">
        <ele>225.8</ele>
        <time>2021-08-20T11:19:54Z</time>
      </trkpt>
      <trkpt lat="46.54111" lon="5.35001">
        <ele>224.8</ele>
        <time>2021-08-20T11:19:59Z</time>
      </trkpt>
      <trkpt lat="46.5415" lon="5.34974">
        <ele>223.8</ele>
        <time>2021-08-20T11:20:04Z</time>
      </trkpt>
      <trkpt lat="46.54157" lon="5.34966">
        <ele>223.6</ele>
        <time>2021-08-20T11:20:05Z</time>
      </trkpt>
      <trkpt lat="46.54177" lon="5.34942">
        <ele>222.4</ele>
        <time>2021-08-20T11:20:08Z</time>
      </trkpt>
      <trkpt lat="46.54198" lon="5.34921">
        <ele>221.6</ele>
        <time>2021-08-20T11:20:11Z</time>
      </trkpt>
      <trkpt lat="46.54206" lon="5.34914">
        <ele>221.2</ele>
        <time>2021-08-20T11:20:12Z</time>
      </trkpt>
      <trkpt lat="46.54227" lon="5.34894">
        <ele>220.8</ele>
        <time>2021-08-20T11:20:15Z</time>
      </trkpt>
      <trkpt lat="46.54238" lon="5.34876">
        <ele>220.6</ele>
        <time>2021-08-20T11:20:17Z</time>
      </trkpt>
      <trkpt lat="46.54259" lon="5.34838">
        <ele>220.4</ele>
        <time>2021-08-20T11:20:21Z</time>
      </trkpt>
      <trkpt lat="46.54265" lon="5.3483">
        <ele>220.2</ele>
        <time>2021-08-20T11:20:22Z</time>
      </trkpt>
      <trkpt lat="46.54309" lon="5.34781">
        <ele>219.6</ele>
        <time>2021-08-20T11:20:29Z</time>
      </trkpt>
      <trkpt lat="46.54317" lon="5.34773">
        <ele>219.6</ele>
        <time>2021-08-20T11:20:30Z</time>
      </trkpt>
      <trkpt lat="46.54349" lon="5.34749">
        <ele>219.4</ele>
        <time>2021-08-20T11:20:35Z</time>
      </trkpt>
      <trkpt lat="46.54356" lon="5.34746">
        <ele>219.2</ele>
        <time>2021-08-20T11:20:36Z</time>
      </trkpt>
      <trkpt lat="46.54396" lon="5.34733">
        <ele>220.2</ele>
        <time>2021-08-20T11:20:42Z</time>
      </trkpt>
      <trkpt lat="46.54434" lon="5.34711">
        <ele>221</ele>
        <time>2021-08-20T11:20:48Z</time>
      </trkpt>
      <trkpt lat="46.54484" lon="5.34675">
        <ele>221</ele>
        <time>2021-08-20T11:20:56Z</time>
      </trkpt>
      <trkpt lat="46.54489" lon="5.34669">
        <ele>220.8</ele>
        <time>2021-08-20T11:20:57Z</time>
      </trkpt>
      <trkpt lat="46.54508" lon="5.34641">
        <ele>221.2</ele>
        <time>2021-08-20T11:21:01Z</time>
      </trkpt>
      <trkpt lat="46.54522" lon="5.34621">
        <ele>221.2</ele>
        <time>2021-08-20T11:21:04Z</time>
      </trkpt>
      <trkpt lat="46.54538" lon="5.34604">
        <ele>221.6</ele>
        <time>2021-08-20T11:21:07Z</time>
      </trkpt>
      <trkpt lat="46.54568" lon="5.34578">
        <ele>222</ele>
        <time>2021-08-20T11:21:13Z</time>
      </trkpt>
      <trkpt lat="46.54572" lon="5.34575">
        <ele>222.2</ele>
        <time>2021-08-20T11:21:14Z</time>
      </trkpt>
      <trkpt lat="46.5458" lon="5.34568">
        <ele>222.6</ele>
        <time>2021-08-20T11:21:16Z</time>
      </trkpt>
      <trkpt lat="46.54587" lon="5.34561">
        <ele>223.6</ele>
        <time>2021-08-20T11:21:18Z</time>
      </trkpt>
      <trkpt lat="46.54601" lon="5.34549">
        <ele>224.8</ele>
        <time>2021-08-20T11:21:22Z</time>
      </trkpt>
      <trkpt lat="46.54609" lon="5.34542">
        <ele>225.8</ele>
        <time>2021-08-20T11:21:24Z</time>
      </trkpt>
      <trkpt lat="46.54621" lon="5.34531">
        <ele>226.8</ele>
        <time>2021-08-20T11:21:27Z</time>
      </trkpt>
      <trkpt lat="46.5464" lon="5.34515">
        <ele>227.6</ele>
        <time>2021-08-20T11:21:31Z</time>
      </trkpt>
      <trkpt lat="46.54655" lon="5.34502">
        <ele>228</ele>
        <time>2021-08-20T11:21:34Z</time>
      </trkpt>
      <trkpt lat="46.54677" lon="5.34486">
        <ele>228.2</ele>
        <time>2021-08-20T11:21:38Z</time>
      </trkpt>
      <trkpt lat="46.54726" lon="5.34467">
        <ele>228.2</ele>
        <time>2021-08-20T11:21:46Z</time>
      </trkpt>
      <trkpt lat="46.54774" lon="5.34454">
        <ele>227.8</ele>
        <time>2021-08-20T11:21:53Z</time>
      </trkpt>
      <trkpt lat="46.5482" lon="5.34436">
        <ele>227.4</ele>
        <time>2021-08-20T11:22:00Z</time>
      </trkpt>
      <trkpt lat="46.54857" lon="5.34417">
        <ele>227.4</ele>
        <time>2021-08-20T11:22:06Z</time>
      </trkpt>
      <trkpt lat="46.54901" lon="5.34382">
        <ele>227.8</ele>
        <time>2021-08-20T11:22:14Z</time>
      </trkpt>
      <trkpt lat="46.54949" lon="5.3434">
        <ele>228.4</ele>
        <time>2021-08-20T11:22:23Z</time>
      </trkpt>
      <trkpt lat="46.54985" lon="5.34296">
        <ele>228.4</ele>
        <time>2021-08-20T11:22:30Z</time>
      </trkpt>
      <trkpt lat="46.5502" lon="5.3425">
        <ele>227.4</ele>
        <time>2021-08-20T11:22:37Z</time>
      </trkpt>
      <trkpt lat="46.55055" lon="5.34208">
        <ele>227.2</ele>
        <time>2021-08-20T11:22:44Z</time>
      </trkpt>
      <trkpt lat="46.55101" lon="5.3416">
        <ele>227</ele>
        <time>2021-08-20T11:22:52Z</time>
      </trkpt>
      <trkpt lat="46.55126" lon="5.34129">
        <ele>226.8</ele>
        <time>2021-08-20T11:22:57Z</time>
      </trkpt>
      <trkpt lat="46.5514" lon="5.34111">
        <ele>226.6</ele>
        <time>2021-08-20T11:23:00Z</time>
      </trkpt>
      <trkpt lat="46.55162" lon="5.34082">
        <ele>226.2</ele>
        <time>2021-08-20T11:23:05Z</time>
      </trkpt>
      <trkpt lat="46.55171" lon="5.3407">
        <ele>226.2</ele>
        <time>2021-08-20T11:23:07Z</time>
      </trkpt>
      <trkpt lat="46.55179" lon="5.34058">
        <ele>226.2</ele>
        <time>2021-08-20T11:23:09Z</time>
      </trkpt>
      <trkpt lat="46.55187" lon="5.34052">
        <ele>226.2</ele>
        <time>2021-08-20T11:23:11Z</time>
      </trkpt>
      <trkpt lat="46.55197" lon="5.34059">
        <ele>226.2</ele>
        <time>2021-08-20T11:23:14Z</time>
      </trkpt>
      <trkpt lat="46.55207" lon="5.3409">
        <ele>226.6</ele>
        <time>2021-08-20T11:23:19Z</time>
      </trkpt>
      <trkpt lat="46.55213" lon="5.34103">
        <ele>226.8</ele>
        <time>2021-08-20T11:23:21Z</time>
      </trkpt>
      <trkpt lat="46.55219" lon="5.34118">
        <ele>227</ele>
        <time>2021-08-20T11:23:23Z</time>
      </trkpt>
      <trkpt lat="46.55221" lon="5.34126">
        <ele>227</ele>
        <time>2021-08-20T11:23:24Z</time>
      </trkpt>
      <trkpt lat="46.55226" lon="5.34151">
        <ele>227.2</ele>
        <time>2021-08-20T11:23:27Z</time>
      </trkpt>
      <trkpt lat="46.55234" lon="5.34217">
        <ele>227.4</ele>
        <time>2021-08-20T11:23:34Z</time>
      </trkpt>
      <trkpt lat="46.55239" lon="5.34235">
        <ele>227.2</ele>
        <time>2021-08-20T11:23:36Z</time>
      </trkpt>
      <trkpt lat="46.55248" lon="5.34251">
        <ele>226.8</ele>
        <time>2021-08-20T11:23:38Z</time>
      </trkpt>
      <trkpt lat="46.55258" lon="5.34264">
        <ele>226.4</ele>
        <time>2021-08-20T11:23:40Z</time>
      </trkpt>
      <trkpt lat="46.55269" lon="5.34276">
        <ele>226.2</ele>
        <time>2021-08-20T11:23:42Z</time>
      </trkpt>
      <trkpt lat="46.55281" lon="5.34288">
        <ele>226</ele>
        <time>2021-08-20T11:23:44Z</time>
      </trkpt>
      <trkpt lat="46.55294" lon="5.34302">
        <ele>225.6</ele>
        <time>2021-08-20T11:23:46Z</time>
      </trkpt>
      <trkpt lat="46.55303" lon="5.3431">
        <ele>225.2</ele>
        <time>2021-08-20T11:23:47Z</time>
      </trkpt>
      <trkpt lat="46.55318" lon="5.34324">
        <ele>224.2</ele>
        <time>2021-08-20T11:23:49Z</time>
      </trkpt>
      <trkpt lat="46.55331" lon="5.3434">
        <ele>223.8</ele>
        <time>2021-08-20T11:23:51Z</time>
      </trkpt>
      <trkpt lat="46.55353" lon="5.34363">
        <ele>223</ele>
        <time>2021-08-20T11:23:54Z</time>
      </trkpt>
      <trkpt lat="46.5536" lon="5.3437">
        <ele>222.8</ele>
        <time>2021-08-20T11:23:55Z</time>
      </trkpt>
      <trkpt lat="46.55409" lon="5.34423">
        <ele>222</ele>
        <time>2021-08-20T11:24:02Z</time>
      </trkpt>
      <trkpt lat="46.55416" lon="5.34429">
        <ele>222</ele>
        <time>2021-08-20T11:24:03Z</time>
      </trkpt>
      <trkpt lat="46.55442" lon="5.34456">
        <ele>221.8</ele>
        <time>2021-08-20T11:24:07Z</time>
      </trkpt>
      <trkpt lat="46.55491" lon="5.34507">
        <ele>221</ele>
        <time>2021-08-20T11:24:15Z</time>
      </trkpt>
      <trkpt lat="46.55504" lon="5.34519">
        <ele>220.8</ele>
        <time>2021-08-20T11:24:17Z</time>
      </trkpt>
      <trkpt lat="46.55529" lon="5.34536">
        <ele>220.8</ele>
        <time>2021-08-20T11:24:21Z</time>
      </trkpt>
      <trkpt lat="46.55572" lon="5.34554">
        <ele>220.6</ele>
        <time>2021-08-20T11:24:27Z</time>
      </trkpt>
      <trkpt lat="46.55611" lon="5.34567">
        <ele>219.8</ele>
        <time>2021-08-20T11:24:32Z</time>
      </trkpt>
      <trkpt lat="46.55628" lon="5.34572">
        <ele>219.2</ele>
        <time>2021-08-20T11:24:34Z</time>
      </trkpt>
      <trkpt lat="46.55646" lon="5.34576">
        <ele>219</ele>
        <time>2021-08-20T11:24:36Z</time>
      </trkpt>
      <trkpt lat="46.55655" lon="5.34577">
        <ele>218.6</ele>
        <time>2021-08-20T11:24:37Z</time>
      </trkpt>
      <trkpt lat="46.55665" lon="5.34576">
        <ele>218</ele>
        <time>2021-08-20T11:24:38Z</time>
      </trkpt>
      <trkpt lat="46.55684" lon="5.34576">
        <ele>216.6</ele>
        <time>2021-08-20T11:24:40Z</time>
      </trkpt>
      <trkpt lat="46.55714" lon="5.34578">
        <ele>215.6</ele>
        <time>2021-08-20T11:24:43Z</time>
      </trkpt>
      <trkpt lat="46.55724" lon="5.34579">
        <ele>214.8</ele>
        <time>2021-08-20T11:24:44Z</time>
      </trkpt>
      <trkpt lat="46.55734" lon="5.34581">
        <ele>213.8</ele>
        <time>2021-08-20T11:24:45Z</time>
      </trkpt>
      <trkpt lat="46.55774" lon="5.34591">
        <ele>212.2</ele>
        <time>2021-08-20T11:24:49Z</time>
      </trkpt>
      <trkpt lat="46.55794" lon="5.34596">
        <ele>211</ele>
        <time>2021-08-20T11:24:51Z</time>
      </trkpt>
      <trkpt lat="46.55812" lon="5.34601">
        <ele>210.2</ele>
        <time>2021-08-20T11:24:53Z</time>
      </trkpt>
      <trkpt lat="46.55821" lon="5.34603">
        <ele>209.8</ele>
        <time>2021-08-20T11:24:54Z</time>
      </trkpt>
      <trkpt lat="46.55872" lon="5.34615">
        <ele>209</ele>
        <time>2021-08-20T11:25:00Z</time>
      </trkpt>
      <trkpt lat="46.55932" lon="5.34628">
        <ele>209</ele>
        <time>2021-08-20T11:25:07Z</time>
      </trkpt>
      <trkpt lat="46.55957" lon="5.34634">
        <ele>208.6</ele>
        <time>2021-08-20T11:25:10Z</time>
      </trkpt>
      <trkpt lat="46.55972" lon="5.34638">
        <ele>208.6</ele>
        <time>2021-08-20T11:25:12Z</time>
      </trkpt>
      <trkpt lat="46.56029" lon="5.34653">
        <ele>208.6</ele>
        <time>2021-08-20T11:25:20Z</time>
      </trkpt>
      <trkpt lat="46.56088" lon="5.34668">
        <ele>209.4</ele>
        <time>2021-08-20T11:25:28Z</time>
      </trkpt>
      <trkpt lat="46.56095" lon="5.34669">
        <ele>209.4</ele>
        <time>2021-08-20T11:25:29Z</time>
      </trkpt>
      <trkpt lat="46.56127" lon="5.34677">
        <ele>209.6</ele>
        <time>2021-08-20T11:25:34Z</time>
      </trkpt>
      <trkpt lat="46.56133" lon="5.34677">
        <ele>209.8</ele>
        <time>2021-08-20T11:25:35Z</time>
      </trkpt>
      <trkpt lat="46.56167" lon="5.34678">
        <ele>210.6</ele>
        <time>2021-08-20T11:25:41Z</time>
      </trkpt>
      <trkpt lat="46.56172" lon="5.34677">
        <ele>210.8</ele>
        <time>2021-08-20T11:25:42Z</time>
      </trkpt>
      <trkpt lat="46.56193" lon="5.34673">
        <ele>212</ele>
        <time>2021-08-20T11:25:46Z</time>
      </trkpt>
      <trkpt lat="46.56207" lon="5.34668">
        <ele>212.4</ele>
        <time>2021-08-20T11:25:49Z</time>
      </trkpt>
      <trkpt lat="46.56221" lon="5.34664">
        <ele>213.2</ele>
        <time>2021-08-20T11:25:52Z</time>
      </trkpt>
      <trkpt lat="46.56244" lon="5.34659">
        <ele>214.4</ele>
        <time>2021-08-20T11:25:57Z</time>
      </trkpt>
      <trkpt lat="46.56285" lon="5.34649">
        <ele>215.8</ele>
        <time>2021-08-20T11:26:06Z</time>
      </trkpt>
      <trkpt lat="46.56289" lon="5.34648">
        <ele>215.8</ele>
        <time>2021-08-20T11:26:07Z</time>
      </trkpt>
      <trkpt lat="46.56317" lon="5.34648">
        <ele>216.8</ele>
        <time>2021-08-20T11:26:13Z</time>
      </trkpt>
      <trkpt lat="46.56325" lon="5.34649">
        <ele>217.2</ele>
        <time>2021-08-20T11:26:15Z</time>
      </trkpt>
      <trkpt lat="46.56349" lon="5.34658">
        <ele>218.2</ele>
        <time>2021-08-20T11:26:20Z</time>
      </trkpt>
      <trkpt lat="46.5636" lon="5.34664">
        <ele>218.6</ele>
        <time>2021-08-20T11:26:22Z</time>
      </trkpt>
      <trkpt lat="46.56399" lon="5.34676">
        <ele>218.6</ele>
        <time>2021-08-20T11:26:29Z</time>
      </trkpt>
      <trkpt lat="46.56427" lon="5.34686">
        <ele>218.2</ele>
        <time>2021-08-20T11:26:33Z</time>
      </trkpt>
      <trkpt lat="46.56468" lon="5.3471">
        <ele>217</ele>
        <time>2021-08-20T11:26:39Z</time>
      </trkpt>
      <trkpt lat="46.56483" lon="5.34718">
        <ele>216</ele>
        <time>2021-08-20T11:26:41Z</time>
      </trkpt>
      <trkpt lat="46.5649" lon="5.34722">
        <ele>215.6</ele>
        <time>2021-08-20T11:26:42Z</time>
      </trkpt>
      <trkpt lat="46.56513" lon="5.34735">
        <ele>214.4</ele>
        <time>2021-08-20T11:26:45Z</time>
      </trkpt>
      <trkpt lat="46.56545" lon="5.34752">
        <ele>213.6</ele>
        <time>2021-08-20T11:26:49Z</time>
      </trkpt>
      <trkpt lat="46.56563" lon="5.34762">
        <ele>213.2</ele>
        <time>2021-08-20T11:26:51Z</time>
      </trkpt>
      <trkpt lat="46.56581" lon="5.3477">
        <ele>211.6</ele>
        <time>2021-08-20T11:26:53Z</time>
      </trkpt>
      <trkpt lat="46.56591" lon="5.34771">
        <ele>211.4</ele>
        <time>2021-08-20T11:26:54Z</time>
      </trkpt>
      <trkpt lat="46.56601" lon="5.34768">
        <ele>210.4</ele>
        <time>2021-08-20T11:26:55Z</time>
      </trkpt>
      <trkpt lat="46.56609" lon="5.34762">
        <ele>210.2</ele>
        <time>2021-08-20T11:26:56Z</time>
      </trkpt>
      <trkpt lat="46.56616" lon="5.34752">
        <ele>209.8</ele>
        <time>2021-08-20T11:26:57Z</time>
      </trkpt>
      <trkpt lat="46.56628" lon="5.34727">
        <ele>208.8</ele>
        <time>2021-08-20T11:26:59Z</time>
      </trkpt>
      <trkpt lat="46.56634" lon="5.34714">
        <ele>208.2</ele>
        <time>2021-08-20T11:27:00Z</time>
      </trkpt>
      <trkpt lat="46.5665" lon="5.34696">
        <ele>207.4</ele>
        <time>2021-08-20T11:27:02Z</time>
      </trkpt>
      <trkpt lat="46.56668" lon="5.34688">
        <ele>204.6</ele>
        <time>2021-08-20T11:27:04Z</time>
      </trkpt>
      <trkpt lat="46.56677" lon="5.34686">
        <ele>206</ele>
        <time>2021-08-20T11:27:05Z</time>
      </trkpt>
      <trkpt lat="46.56703" lon="5.34678">
        <ele>205.4</ele>
        <time>2021-08-20T11:27:08Z</time>
      </trkpt>
      <trkpt lat="46.56727" lon="5.34667">
        <ele>205.2</ele>
        <time>2021-08-20T11:27:11Z</time>
      </trkpt>
      <trkpt lat="46.56743" lon="5.34661">
        <ele>205.2</ele>
        <time>2021-08-20T11:27:13Z</time>
      </trkpt>
      <trkpt lat="46.5676" lon="5.34663">
        <ele>205.2</ele>
        <time>2021-08-20T11:27:15Z</time>
      </trkpt>
      <trkpt lat="46.56772" lon="5.34677">
        <ele>205.2</ele>
        <time>2021-08-20T11:27:17Z</time>
      </trkpt>
      <trkpt lat="46.56776" lon="5.34687">
        <ele>205.2</ele>
        <time>2021-08-20T11:27:18Z</time>
      </trkpt>
      <trkpt lat="46.56789" lon="5.3474">
        <ele>204.8</ele>
        <time>2021-08-20T11:27:23Z</time>
      </trkpt>
      <trkpt lat="46.56806" lon="5.34825">
        <ele>204.4</ele>
        <time>2021-08-20T11:27:31Z</time>
      </trkpt>
      <trkpt lat="46.5682" lon="5.34906">
        <ele>204.6</ele>
        <time>2021-08-20T11:27:39Z</time>
      </trkpt>
      <trkpt lat="46.56824" lon="5.34924">
        <ele>205</ele>
        <time>2021-08-20T11:27:41Z</time>
      </trkpt>
      <trkpt lat="46.56832" lon="5.34966">
        <ele>205.8</ele>
        <time>2021-08-20T11:27:46Z</time>
      </trkpt>
      <trkpt lat="46.56838" lon="5.34987">
        <ele>206.6</ele>
        <time>2021-08-20T11:27:49Z</time>
      </trkpt>
      <trkpt lat="46.56844" lon="5.35001">
        <ele>207.2</ele>
        <time>2021-08-20T11:27:51Z</time>
      </trkpt>
      <trkpt lat="46.5685" lon="5.35013">
        <ele>207.6</ele>
        <time>2021-08-20T11:27:53Z</time>
      </trkpt>
      <trkpt lat="46.56862" lon="5.35037">
        <ele>209.2</ele>
        <time>2021-08-20T11:27:57Z</time>
      </trkpt>
      <trkpt lat="46.56866" lon="5.35048">
        <ele>209.8</ele>
        <time>2021-08-20T11:27:59Z</time>
      </trkpt>
      <trkpt lat="46.56868" lon="5.35053">
        <ele>210.2</ele>
        <time>2021-08-20T11:28:00Z</time>
      </trkpt>
      <trkpt lat="46.56879" lon="5.35079">
        <ele>211.6</ele>
        <time>2021-08-20T11:28:05Z</time>
      </trkpt>
      <trkpt lat="46.56888" lon="5.35099">
        <ele>212.8</ele>
        <time>2021-08-20T11:28:09Z</time>
      </trkpt>
      <trkpt lat="46.56894" lon="5.35114">
        <ele>213.6</ele>
        <time>2021-08-20T11:28:12Z</time>
      </trkpt>
      <trkpt lat="46.56896" lon="5.35118">
        <ele>213.8</ele>
        <time>2021-08-20T11:28:13Z</time>
      </trkpt>
      <trkpt lat="46.56906" lon="5.35142">
        <ele>214.8</ele>
        <time>2021-08-20T11:28:18Z</time>
      </trkpt>
      <trkpt lat="46.56908" lon="5.35146">
        <ele>215</ele>
        <time>2021-08-20T11:28:19Z</time>
      </trkpt>
      <trkpt lat="46.56922" lon="5.35163">
        <ele>216.2</ele>
        <time>2021-08-20T11:28:23Z</time>
      </trkpt>
      <trkpt lat="46.56926" lon="5.35167">
        <ele>216.2</ele>
        <time>2021-08-20T11:28:24Z</time>
      </trkpt>
      <trkpt lat="46.56952" lon="5.35188">
        <ele>216.6</ele>
        <time>2021-08-20T11:28:29Z</time>
      </trkpt>
      <trkpt lat="46.56957" lon="5.35194">
        <ele>216.4</ele>
        <time>2021-08-20T11:28:30Z</time>
      </trkpt>
      <trkpt lat="46.56967" lon="5.35209">
        <ele>216</ele>
        <time>2021-08-20T11:28:32Z</time>
      </trkpt>
      <trkpt lat="46.56974" lon="5.35233">
        <ele>215.2</ele>
        <time>2021-08-20T11:28:34Z</time>
      </trkpt>
      <trkpt lat="46.56976" lon="5.35242">
        <ele>214.8</ele>
        <time>2021-08-20T11:28:35Z</time>
      </trkpt>
      <trkpt lat="46.56987" lon="5.35287">
        <ele>213.6</ele>
        <time>2021-08-20T11:28:39Z</time>
      </trkpt>
      <trkpt lat="46.56997" lon="5.35321">
        <ele>212.4</ele>
        <time>2021-08-20T11:28:42Z</time>
      </trkpt>
      <trkpt lat="46.57019" lon="5.35387">
        <ele>211.2</ele>
        <time>2021-08-20T11:28:48Z</time>
      </trkpt>
      <trkpt lat="46.57028" lon="5.35416">
        <ele>210.2</ele>
        <time>2021-08-20T11:28:51Z</time>
      </trkpt>
      <trkpt lat="46.57031" lon="5.3543">
        <ele>210.2</ele>
        <time>2021-08-20T11:28:52Z</time>
      </trkpt>
      <trkpt lat="46.57034" lon="5.3545">
        <ele>210</ele>
        <time>2021-08-20T11:28:54Z</time>
      </trkpt>
      <trkpt lat="46.57041" lon="5.35526">
        <ele>209.8</ele>
        <time>2021-08-20T11:29:01Z</time>
      </trkpt>
      <trkpt lat="46.5705" lon="5.35607">
        <ele>209.2</ele>
        <time>2021-08-20T11:29:08Z</time>
      </trkpt>
      <trkpt lat="46.57053" lon="5.35618">
        <ele>209.2</ele>
        <time>2021-08-20T11:29:09Z</time>
      </trkpt>
      <trkpt lat="46.57058" lon="5.35628">
        <ele>209.2</ele>
        <time>2021-08-20T11:29:10Z</time>
      </trkpt>
      <trkpt lat="46.57069" lon="5.35645">
        <ele>209</ele>
        <time>2021-08-20T11:29:12Z</time>
      </trkpt>
      <trkpt lat="46.57075" lon="5.35652">
        <ele>209</ele>
        <time>2021-08-20T11:29:13Z</time>
      </trkpt>
      <trkpt lat="46.57121" lon="5.35709">
        <ele>208.8</ele>
        <time>2021-08-20T11:29:21Z</time>
      </trkpt>
      <trkpt lat="46.57132" lon="5.35723">
        <ele>209</ele>
        <time>2021-08-20T11:29:23Z</time>
      </trkpt>
      <trkpt lat="46.57151" lon="5.35739">
        <ele>208.8</ele>
        <time>2021-08-20T11:29:26Z</time>
      </trkpt>
      <trkpt lat="46.57198" lon="5.35769">
        <ele>208.6</ele>
        <time>2021-08-20T11:29:33Z</time>
      </trkpt>
      <trkpt lat="46.57249" lon="5.35801">
        <ele>209</ele>
        <time>2021-08-20T11:29:41Z</time>
      </trkpt>
      <trkpt lat="46.57298" lon="5.35832">
        <ele>210</ele>
        <time>2021-08-20T11:29:49Z</time>
      </trkpt>
      <trkpt lat="46.57304" lon="5.35835">
        <ele>210</ele>
        <time>2021-08-20T11:29:50Z</time>
      </trkpt>
      <trkpt lat="46.57336" lon="5.35842">
        <ele>210.4</ele>
        <time>2021-08-20T11:29:55Z</time>
      </trkpt>
      <trkpt lat="46.57349" lon="5.35845">
        <ele>210.4</ele>
        <time>2021-08-20T11:29:57Z</time>
      </trkpt>
      <trkpt lat="46.57355" lon="5.35847">
        <ele>210.4</ele>
        <time>2021-08-20T11:29:58Z</time>
      </trkpt>
      <trkpt lat="46.57365" lon="5.35853">
        <ele>210.4</ele>
        <time>2021-08-20T11:30:00Z</time>
      </trkpt>
      <trkpt lat="46.5737" lon="5.35857">
        <ele>210.6</ele>
        <time>2021-08-20T11:30:01Z</time>
      </trkpt>
      <trkpt lat="46.57383" lon="5.35873">
        <ele>211</ele>
        <time>2021-08-20T11:30:04Z</time>
      </trkpt>
      <trkpt lat="46.57386" lon="5.3588">
        <ele>211.2</ele>
        <time>2021-08-20T11:30:05Z</time>
      </trkpt>
      <trkpt lat="46.57389" lon="5.35886">
        <ele>211.6</ele>
        <time>2021-08-20T11:30:06Z</time>
      </trkpt>
      <trkpt lat="46.57391" lon="5.35893">
        <ele>211.6</ele>
        <time>2021-08-20T11:30:07Z</time>
      </trkpt>
      <trkpt lat="46.57392" lon="5.35899">
        <ele>212</ele>
        <time>2021-08-20T11:30:08Z</time>
      </trkpt>
      <trkpt lat="46.57395" lon="5.35912">
        <ele>212.4</ele>
        <time>2021-08-20T11:30:10Z</time>
      </trkpt>
      <trkpt lat="46.57397" lon="5.35925">
        <ele>212.6</ele>
        <time>2021-08-20T11:30:12Z</time>
      </trkpt>
      <trkpt lat="46.574" lon="5.35943">
        <ele>213.2</ele>
        <time>2021-08-20T11:30:15Z</time>
      </trkpt>
      <trkpt lat="46.57401" lon="5.35949">
        <ele>213.6</ele>
        <time>2021-08-20T11:30:16Z</time>
      </trkpt>
      <trkpt lat="46.57403" lon="5.35967">
        <ele>214.6</ele>
        <time>2021-08-20T11:30:19Z</time>
      </trkpt>
      <trkpt lat="46.57406" lon="5.35992">
        <ele>215.6</ele>
        <time>2021-08-20T11:30:23Z</time>
      </trkpt>
      <trkpt lat="46.57406" lon="5.35999">
        <ele>216.2</ele>
        <time>2021-08-20T11:30:24Z</time>
      </trkpt>
      <trkpt lat="46.57407" lon="5.3602">
        <ele>216.8</ele>
        <time>2021-08-20T11:30:27Z</time>
      </trkpt>
      <trkpt lat="46.57406" lon="5.36042">
        <ele>216.8</ele>
        <time>2021-08-20T11:30:30Z</time>
      </trkpt>
      <trkpt lat="46.57399" lon="5.3609">
        <ele>216.8</ele>
        <time>2021-08-20T11:30:36Z</time>
      </trkpt>
      <trkpt lat="46.57392" lon="5.36128">
        <ele>216.6</ele>
        <time>2021-08-20T11:30:40Z</time>
      </trkpt>
      <trkpt lat="46.57392" lon="5.36139">
        <ele>216.4</ele>
        <time>2021-08-20T11:30:41Z</time>
      </trkpt>
      <trkpt lat="46.57393" lon="5.3615">
        <ele>216.4</ele>
        <time>2021-08-20T11:30:42Z</time>
      </trkpt>
      <trkpt lat="46.57397" lon="5.36183">
        <ele>215.8</ele>
        <time>2021-08-20T11:30:45Z</time>
      </trkpt>
      <trkpt lat="46.57398" lon="5.36194">
        <ele>215.6</ele>
        <time>2021-08-20T11:30:46Z</time>
      </trkpt>
      <trkpt lat="46.57406" lon="5.36239">
        <ele>214.2</ele>
        <time>2021-08-20T11:30:50Z</time>
      </trkpt>
      <trkpt lat="46.57409" lon="5.36262">
        <ele>213.8</ele>
        <time>2021-08-20T11:30:52Z</time>
      </trkpt>
      <trkpt lat="46.57412" lon="5.36286">
        <ele>213</ele>
        <time>2021-08-20T11:30:54Z</time>
      </trkpt>
      <trkpt lat="46.57418" lon="5.36321">
        <ele>212</ele>
        <time>2021-08-20T11:30:57Z</time>
      </trkpt>
      <trkpt lat="46.57426" lon="5.36372">
        <ele>210.8</ele>
        <time>2021-08-20T11:31:01Z</time>
      </trkpt>
      <trkpt lat="46.57432" lon="5.36397">
        <ele>210</ele>
        <time>2021-08-20T11:31:03Z</time>
      </trkpt>
      <trkpt lat="46.57436" lon="5.3641">
        <ele>209.6</ele>
        <time>2021-08-20T11:31:04Z</time>
      </trkpt>
      <trkpt lat="46.5744" lon="5.36422">
        <ele>209.4</ele>
        <time>2021-08-20T11:31:05Z</time>
      </trkpt>
      <trkpt lat="46.57457" lon="5.36454">
        <ele>208.2</ele>
        <time>2021-08-20T11:31:08Z</time>
      </trkpt>
      <trkpt lat="46.57463" lon="5.36464">
        <ele>207.4</ele>
        <time>2021-08-20T11:31:09Z</time>
      </trkpt>
      <trkpt lat="46.5747" lon="5.36474">
        <ele>207.2</ele>
        <time>2021-08-20T11:31:10Z</time>
      </trkpt>
      <trkpt lat="46.57476" lon="5.36484">
        <ele>206.6</ele>
        <time>2021-08-20T11:31:11Z</time>
      </trkpt>
      <trkpt lat="46.57486" lon="5.36503">
        <ele>206</ele>
        <time>2021-08-20T11:31:13Z</time>
      </trkpt>
      <trkpt lat="46.57503" lon="5.36532">
        <ele>205.4</ele>
        <time>2021-08-20T11:31:16Z</time>
      </trkpt>
      <trkpt lat="46.57533" lon="5.36588">
        <ele>205.6</ele>
        <time>2021-08-20T11:31:22Z</time>
      </trkpt>
      <trkpt lat="46.57537" lon="5.36598">
        <ele>205.6</ele>
        <time>2021-08-20T11:31:23Z</time>
      </trkpt>
      <trkpt lat="46.5754" lon="5.3662">
        <ele>205.6</ele>
        <time>2021-08-20T11:31:25Z</time>
      </trkpt>
      <trkpt lat="46.57538" lon="5.36641">
        <ele>205.8</ele>
        <time>2021-08-20T11:31:27Z</time>
      </trkpt>
      <trkpt lat="46.57533" lon="5.3665">
        <ele>205.8</ele>
        <time>2021-08-20T11:31:28Z</time>
      </trkpt>
      <trkpt lat="46.57522" lon="5.36666">
        <ele>206</ele>
        <time>2021-08-20T11:31:30Z</time>
      </trkpt>
      <trkpt lat="46.57516" lon="5.36684">
        <ele>206.4</ele>
        <time>2021-08-20T11:31:32Z</time>
      </trkpt>
      <trkpt lat="46.57515" lon="5.36703">
        <ele>207.2</ele>
        <time>2021-08-20T11:31:34Z</time>
      </trkpt>
      <trkpt lat="46.57516" lon="5.36712">
        <ele>207.4</ele>
        <time>2021-08-20T11:31:35Z</time>
      </trkpt>
      <trkpt lat="46.5752" lon="5.3675">
        <ele>208.4</ele>
        <time>2021-08-20T11:31:40Z</time>
      </trkpt>
      <trkpt lat="46.5752" lon="5.36758">
        <ele>208.6</ele>
        <time>2021-08-20T11:31:41Z</time>
      </trkpt>
      <trkpt lat="46.57521" lon="5.3678">
        <ele>209.6</ele>
        <time>2021-08-20T11:31:44Z</time>
      </trkpt>
      <trkpt lat="46.57519" lon="5.36803">
        <ele>210.2</ele>
        <time>2021-08-20T11:31:47Z</time>
      </trkpt>
      <trkpt lat="46.57515" lon="5.36824">
        <ele>211</ele>
        <time>2021-08-20T11:31:50Z</time>
      </trkpt>
      <trkpt lat="46.57514" lon="5.36843">
        <ele>212.4</ele>
        <time>2021-08-20T11:31:53Z</time>
      </trkpt>
      <trkpt lat="46.57514" lon="5.36856">
        <ele>213</ele>
        <time>2021-08-20T11:31:55Z</time>
      </trkpt>
      <trkpt lat="46.57515" lon="5.36869">
        <ele>213.6</ele>
        <time>2021-08-20T11:31:57Z</time>
      </trkpt>
      <trkpt lat="46.57515" lon="5.36875">
        <ele>213.8</ele>
        <time>2021-08-20T11:31:58Z</time>
      </trkpt>
      <trkpt lat="46.57516" lon="5.36881">
        <ele>214.2</ele>
        <time>2021-08-20T11:31:59Z</time>
      </trkpt>
      <trkpt lat="46.57519" lon="5.36895">
        <ele>214.6</ele>
        <time>2021-08-20T11:32:01Z</time>
      </trkpt>
      <trkpt lat="46.57524" lon="5.36915">
        <ele>215</ele>
        <time>2021-08-20T11:32:04Z</time>
      </trkpt>
      <trkpt lat="46.57525" lon="5.36933">
        <ele>215.2</ele>
        <time>2021-08-20T11:32:06Z</time>
      </trkpt>
      <trkpt lat="46.57524" lon="5.36942">
        <ele>215.4</ele>
        <time>2021-08-20T11:32:07Z</time>
      </trkpt>
      <trkpt lat="46.5752" lon="5.36961">
        <ele>215.6</ele>
        <time>2021-08-20T11:32:09Z</time>
      </trkpt>
      <trkpt lat="46.57518" lon="5.36969">
        <ele>215.6</ele>
        <time>2021-08-20T11:32:10Z</time>
      </trkpt>
      <trkpt lat="46.57501" lon="5.37027">
        <ele>215.4</ele>
        <time>2021-08-20T11:32:17Z</time>
      </trkpt>
      <trkpt lat="46.57484" lon="5.37076">
        <ele>216.4</ele>
        <time>2021-08-20T11:32:24Z</time>
      </trkpt>
      <trkpt lat="46.57483" lon="5.37083">
        <ele>216.6</ele>
        <time>2021-08-20T11:32:25Z</time>
      </trkpt>
      <trkpt lat="46.57475" lon="5.37116">
        <ele>217.6</ele>
        <time>2021-08-20T11:32:30Z</time>
      </trkpt>
      <trkpt lat="46.57474" lon="5.37124">
        <ele>217.8</ele>
        <time>2021-08-20T11:32:31Z</time>
      </trkpt>
      <trkpt lat="46.57468" lon="5.37168">
        <ele>218.2</ele>
        <time>2021-08-20T11:32:36Z</time>
      </trkpt>
      <trkpt lat="46.57466" lon="5.37228">
        <ele>218.2</ele>
        <time>2021-08-20T11:32:43Z</time>
      </trkpt>
      <trkpt lat="46.57468" lon="5.37286">
        <ele>218.8</ele>
        <time>2021-08-20T11:32:50Z</time>
      </trkpt>
      <trkpt lat="46.57468" lon="5.37293">
        <ele>219</ele>
        <time>2021-08-20T11:32:51Z</time>
      </trkpt>
      <trkpt lat="46.5747" lon="5.37328">
        <ele>219.8</ele>
        <time>2021-08-20T11:32:56Z</time>
      </trkpt>
      <trkpt lat="46.5747" lon="5.37335">
        <ele>220</ele>
        <time>2021-08-20T11:32:57Z</time>
      </trkpt>
      <trkpt lat="46.57469" lon="5.37342">
        <ele>220.2</ele>
        <time>2021-08-20T11:32:58Z</time>
      </trkpt>
      <trkpt lat="46.57465" lon="5.37354">
        <ele>220.4</ele>
        <time>2021-08-20T11:33:00Z</time>
      </trkpt>
      <trkpt lat="46.57454" lon="5.37373">
        <ele>220.8</ele>
        <time>2021-08-20T11:33:03Z</time>
      </trkpt>
      <trkpt lat="46.57448" lon="5.37385">
        <ele>221</ele>
        <time>2021-08-20T11:33:05Z</time>
      </trkpt>
      <trkpt lat="46.57445" lon="5.37393">
        <ele>221.2</ele>
        <time>2021-08-20T11:33:06Z</time>
      </trkpt>
      <trkpt lat="46.57431" lon="5.37448">
        <ele>221.6</ele>
        <time>2021-08-20T11:33:13Z</time>
      </trkpt>
      <trkpt lat="46.57414" lon="5.37498">
        <ele>221.2</ele>
        <time>2021-08-20T11:33:19Z</time>
      </trkpt>
      <trkpt lat="46.57392" lon="5.37541">
        <ele>221.4</ele>
        <time>2021-08-20T11:33:26Z</time>
      </trkpt>
      <trkpt lat="46.57378" lon="5.37565">
        <ele>222.6</ele>
        <time>2021-08-20T11:33:30Z</time>
      </trkpt>
      <trkpt lat="46.57357" lon="5.37593">
        <ele>223.2</ele>
        <time>2021-08-20T11:33:35Z</time>
      </trkpt>
      <trkpt lat="46.57311" lon="5.37644">
        <ele>223.4</ele>
        <time>2021-08-20T11:33:45Z</time>
      </trkpt>
      <trkpt lat="46.57277" lon="5.37679">
        <ele>222.8</ele>
        <time>2021-08-20T11:33:51Z</time>
      </trkpt>
      <trkpt lat="46.57236" lon="5.37725">
        <ele>222</ele>
        <time>2021-08-20T11:33:58Z</time>
      </trkpt>
      <trkpt lat="46.57228" lon="5.37742">
        <ele>221.6</ele>
        <time>2021-08-20T11:34:00Z</time>
      </trkpt>
      <trkpt lat="46.57227" lon="5.37753">
        <ele>221.6</ele>
        <time>2021-08-20T11:34:01Z</time>
      </trkpt>
      <trkpt lat="46.57229" lon="5.37764">
        <ele>221.4</ele>
        <time>2021-08-20T11:34:02Z</time>
      </trkpt>
      <trkpt lat="46.57232" lon="5.37774">
        <ele>221.2</ele>
        <time>2021-08-20T11:34:03Z</time>
      </trkpt>
      <trkpt lat="46.57247" lon="5.37804">
        <ele>220.4</ele>
        <time>2021-08-20T11:34:06Z</time>
      </trkpt>
      <trkpt lat="46.57262" lon="5.37835">
        <ele>219.4</ele>
        <time>2021-08-20T11:34:09Z</time>
      </trkpt>
      <trkpt lat="46.57268" lon="5.37846">
        <ele>219</ele>
        <time>2021-08-20T11:34:10Z</time>
      </trkpt>
      <trkpt lat="46.57291" lon="5.37891">
        <ele>217.4</ele>
        <time>2021-08-20T11:34:14Z</time>
      </trkpt>
      <trkpt lat="46.57309" lon="5.37925">
        <ele>216.2</ele>
        <time>2021-08-20T11:34:17Z</time>
      </trkpt>
      <trkpt lat="46.57326" lon="5.37958">
        <ele>215.6</ele>
        <time>2021-08-20T11:34:20Z</time>
      </trkpt>
      <trkpt lat="46.57331" lon="5.37969">
        <ele>214.8</ele>
        <time>2021-08-20T11:34:21Z</time>
      </trkpt>
      <trkpt lat="46.57348" lon="5.38004">
        <ele>213.6</ele>
        <time>2021-08-20T11:34:24Z</time>
      </trkpt>
      <trkpt lat="46.57354" lon="5.38016">
        <ele>213.4</ele>
        <time>2021-08-20T11:34:25Z</time>
      </trkpt>
      <trkpt lat="46.57372" lon="5.38053">
        <ele>212.2</ele>
        <time>2021-08-20T11:34:28Z</time>
      </trkpt>
      <trkpt lat="46.57385" lon="5.38077">
        <ele>211.2</ele>
        <time>2021-08-20T11:34:30Z</time>
      </trkpt>
      <trkpt lat="46.57394" lon="5.38088">
        <ele>210.6</ele>
        <time>2021-08-20T11:34:31Z</time>
      </trkpt>
      <trkpt lat="46.5741" lon="5.38103">
        <ele>209.6</ele>
        <time>2021-08-20T11:34:33Z</time>
      </trkpt>
      <trkpt lat="46.57427" lon="5.38116">
        <ele>208.4</ele>
        <time>2021-08-20T11:34:35Z</time>
      </trkpt>
      <trkpt lat="46.57475" lon="5.38153">
        <ele>207.8</ele>
        <time>2021-08-20T11:34:41Z</time>
      </trkpt>
      <trkpt lat="46.5752" lon="5.38188">
        <ele>207.4</ele>
        <time>2021-08-20T11:34:47Z</time>
      </trkpt>
      <trkpt lat="46.57544" lon="5.38206">
        <ele>207.2</ele>
        <time>2021-08-20T11:34:50Z</time>
      </trkpt>
      <trkpt lat="46.57588" lon="5.38248">
        <ele>207.6</ele>
        <time>2021-08-20T11:34:57Z</time>
      </trkpt>
      <trkpt lat="46.5761" lon="5.38287">
        <ele>208.2</ele>
        <time>2021-08-20T11:35:02Z</time>
      </trkpt>
      <trkpt lat="46.57622" lon="5.38315">
        <ele>208.6</ele>
        <time>2021-08-20T11:35:06Z</time>
      </trkpt>
      <trkpt lat="46.57626" lon="5.3832">
        <ele>208.6</ele>
        <time>2021-08-20T11:35:07Z</time>
      </trkpt>
      <trkpt lat="46.57636" lon="5.38325">
        <ele>209.6</ele>
        <time>2021-08-20T11:35:09Z</time>
      </trkpt>
      <trkpt lat="46.5764" lon="5.38325">
        <ele>209.8</ele>
        <time>2021-08-20T11:35:10Z</time>
      </trkpt>
      <trkpt lat="46.57644" lon="5.38324">
        <ele>210.4</ele>
        <time>2021-08-20T11:35:11Z</time>
      </trkpt>
      <trkpt lat="46.57655" lon="5.38319">
        <ele>210.8</ele>
        <time>2021-08-20T11:35:13Z</time>
      </trkpt>
      <trkpt lat="46.5766" lon="5.38317">
        <ele>211</ele>
        <time>2021-08-20T11:35:14Z</time>
      </trkpt>
      <trkpt lat="46.57677" lon="5.38314">
        <ele>212</ele>
        <time>2021-08-20T11:35:17Z</time>
      </trkpt>
      <trkpt lat="46.57705" lon="5.38308">
        <ele>212.6</ele>
        <time>2021-08-20T11:35:22Z</time>
      </trkpt>
      <trkpt lat="46.57746" lon="5.38292">
        <ele>213</ele>
        <time>2021-08-20T11:35:29Z</time>
      </trkpt>
      <trkpt lat="46.57752" lon="5.38288">
        <ele>213</ele>
        <time>2021-08-20T11:35:30Z</time>
      </trkpt>
      <trkpt lat="46.57791" lon="5.38251">
        <ele>212.4</ele>
        <time>2021-08-20T11:35:37Z</time>
      </trkpt>
      <trkpt lat="46.5784" lon="5.38205">
        <ele>211.6</ele>
        <time>2021-08-20T11:35:45Z</time>
      </trkpt>
      <trkpt lat="46.57846" lon="5.38198">
        <ele>211.6</ele>
        <time>2021-08-20T11:35:46Z</time>
      </trkpt>
      <trkpt lat="46.57854" lon="5.38185">
        <ele>211.4</ele>
        <time>2021-08-20T11:35:48Z</time>
      </trkpt>
      <trkpt lat="46.57858" lon="5.38176">
        <ele>211.4</ele>
        <time>2021-08-20T11:35:49Z</time>
      </trkpt>
      <trkpt lat="46.57875" lon="5.38133">
        <ele>211</ele>
        <time>2021-08-20T11:35:54Z</time>
      </trkpt>
      <trkpt lat="46.57887" lon="5.38099">
        <ele>210.8</ele>
        <time>2021-08-20T11:35:58Z</time>
      </trkpt>
      <trkpt lat="46.57908" lon="5.38033">
        <ele>210.8</ele>
        <time>2021-08-20T11:36:06Z</time>
      </trkpt>
      <trkpt lat="46.57917" lon="5.38018">
        <ele>210.8</ele>
        <time>2021-08-20T11:36:08Z</time>
      </trkpt>
      <trkpt lat="46.57929" lon="5.38003">
        <ele>210.8</ele>
        <time>2021-08-20T11:36:10Z</time>
      </trkpt>
      <trkpt lat="46.57962" lon="5.3798">
        <ele>210.6</ele>
        <time>2021-08-20T11:36:15Z</time>
      </trkpt>
      <trkpt lat="46.57998" lon="5.37953">
        <ele>209.8</ele>
        <time>2021-08-20T11:36:20Z</time>
      </trkpt>
      <trkpt lat="46.5802" lon="5.37941">
        <ele>208.4</ele>
        <time>2021-08-20T11:36:23Z</time>
      </trkpt>
      <trkpt lat="46.58037" lon="5.37935">
        <ele>208</ele>
        <time>2021-08-20T11:36:25Z</time>
      </trkpt>
      <trkpt lat="46.58069" lon="5.37925">
        <ele>207.4</ele>
        <time>2021-08-20T11:36:28Z</time>
      </trkpt>
      <trkpt lat="46.58119" lon="5.37907">
        <ele>207.2</ele>
        <time>2021-08-20T11:36:35Z</time>
      </trkpt>
      <trkpt lat="46.58126" lon="5.37903">
        <ele>207.8</ele>
        <time>2021-08-20T11:36:37Z</time>
      </trkpt>
      <trkpt lat="46.58143" lon="5.3789">
        <ele>208</ele>
        <time>2021-08-20T11:36:40Z</time>
      </trkpt>
      <trkpt lat="46.58155" lon="5.37882">
        <ele>208</ele>
        <time>2021-08-20T11:36:42Z</time>
      </trkpt>
      <trkpt lat="46.58174" lon="5.37879">
        <ele>208</ele>
        <time>2021-08-20T11:36:44Z</time>
      </trkpt>
      <trkpt lat="46.58187" lon="5.37883">
        <ele>208</ele>
        <time>2021-08-20T11:36:46Z</time>
      </trkpt>
      <trkpt lat="46.58198" lon="5.37889">
        <ele>208.2</ele>
        <time>2021-08-20T11:36:49Z</time>
      </trkpt>
      <trkpt lat="46.5821" lon="5.37897">
        <ele>208.6</ele>
        <time>2021-08-20T11:36:51Z</time>
      </trkpt>
      <trkpt lat="46.5824" lon="5.37917">
        <ele>209.8</ele>
        <time>2021-08-20T11:36:56Z</time>
      </trkpt>
      <trkpt lat="46.58244" lon="5.37919">
        <ele>210</ele>
        <time>2021-08-20T11:36:57Z</time>
      </trkpt>
      <trkpt lat="46.58279" lon="5.37942">
        <ele>210.8</ele>
        <time>2021-08-20T11:37:04Z</time>
      </trkpt>
      <trkpt lat="46.58294" lon="5.37951">
        <ele>211.4</ele>
        <time>2021-08-20T11:37:08Z</time>
      </trkpt>
      <trkpt lat="46.58324" lon="5.37969">
        <ele>211.8</ele>
        <time>2021-08-20T11:37:14Z</time>
      </trkpt>
      <trkpt lat="46.58334" lon="5.37974">
        <ele>211.8</ele>
        <time>2021-08-20T11:37:15Z</time>
      </trkpt>
      <trkpt lat="46.58347" lon="5.3798">
        <ele>212.2</ele>
        <time>2021-08-20T11:37:18Z</time>
      </trkpt>
      <trkpt lat="46.58374" lon="5.3799">
        <ele>212.8</ele>
        <time>2021-08-20T11:37:23Z</time>
      </trkpt>
      <trkpt lat="46.58378" lon="5.37992">
        <ele>213</ele>
        <time>2021-08-20T11:37:24Z</time>
      </trkpt>
      <trkpt lat="46.58407" lon="5.38001">
        <ele>214</ele>
        <time>2021-08-20T11:37:31Z</time>
      </trkpt>
      <trkpt lat="46.58431" lon="5.3801">
        <ele>214.6</ele>
        <time>2021-08-20T11:37:35Z</time>
      </trkpt>
      <trkpt lat="46.5844" lon="5.38013">
        <ele>215</ele>
        <time>2021-08-20T11:37:37Z</time>
      </trkpt>
      <trkpt lat="46.58449" lon="5.38016">
        <ele>215.4</ele>
        <time>2021-08-20T11:37:39Z</time>
      </trkpt>
      <trkpt lat="46.58462" lon="5.38022">
        <ele>216.4</ele>
        <time>2021-08-20T11:37:42Z</time>
      </trkpt>
      <trkpt lat="46.58465" lon="5.38023">
        <ele>216.4</ele>
        <time>2021-08-20T11:37:43Z</time>
      </trkpt>
      <trkpt lat="46.58491" lon="5.38031">
        <ele>217.8</ele>
        <time>2021-08-20T11:37:49Z</time>
      </trkpt>
      <trkpt lat="46.58495" lon="5.38031">
        <ele>218</ele>
        <time>2021-08-20T11:37:50Z</time>
      </trkpt>
      <trkpt lat="46.58499" lon="5.38031">
        <ele>218.4</ele>
        <time>2021-08-20T11:37:51Z</time>
      </trkpt>
      <trkpt lat="46.5851" lon="5.38029">
        <ele>218.8</ele>
        <time>2021-08-20T11:37:53Z</time>
      </trkpt>
      <trkpt lat="46.58514" lon="5.38027">
        <ele>219</ele>
        <time>2021-08-20T11:37:54Z</time>
      </trkpt>
      <trkpt lat="46.58525" lon="5.38022">
        <ele>219.2</ele>
        <time>2021-08-20T11:37:56Z</time>
      </trkpt>
      <trkpt lat="46.58564" lon="5.38002">
        <ele>218.6</ele>
        <time>2021-08-20T11:38:03Z</time>
      </trkpt>
      <trkpt lat="46.58577" lon="5.38004">
        <ele>218.4</ele>
        <time>2021-08-20T11:38:05Z</time>
      </trkpt>
      <trkpt lat="46.58587" lon="5.38012">
        <ele>218.2</ele>
        <time>2021-08-20T11:38:07Z</time>
      </trkpt>
      <trkpt lat="46.58617" lon="5.38039">
        <ele>218.4</ele>
        <time>2021-08-20T11:38:13Z</time>
      </trkpt>
      <trkpt lat="46.58622" lon="5.38042">
        <ele>218.8</ele>
        <time>2021-08-20T11:38:14Z</time>
      </trkpt>
      <trkpt lat="46.58663" lon="5.38053">
        <ele>219.4</ele>
        <time>2021-08-20T11:38:21Z</time>
      </trkpt>
      <trkpt lat="46.58708" lon="5.38056">
        <ele>220</ele>
        <time>2021-08-20T11:38:29Z</time>
      </trkpt>
      <trkpt lat="46.58714" lon="5.38057">
        <ele>220.2</ele>
        <time>2021-08-20T11:38:30Z</time>
      </trkpt>
      <trkpt lat="46.5876" lon="5.38062">
        <ele>221</ele>
        <time>2021-08-20T11:38:38Z</time>
      </trkpt>
      <trkpt lat="46.58772" lon="5.38066">
        <ele>221.4</ele>
        <time>2021-08-20T11:38:40Z</time>
      </trkpt>
      <trkpt lat="46.58776" lon="5.38068">
        <ele>221.4</ele>
        <time>2021-08-20T11:38:41Z</time>
      </trkpt>
      <trkpt lat="46.58788" lon="5.38077">
        <ele>221.6</ele>
        <time>2021-08-20T11:38:43Z</time>
      </trkpt>
      <trkpt lat="46.58791" lon="5.38081">
        <ele>221.6</ele>
        <time>2021-08-20T11:38:44Z</time>
      </trkpt>
      <trkpt lat="46.58814" lon="5.38109">
        <ele>222</ele>
        <time>2021-08-20T11:38:49Z</time>
      </trkpt>
      <trkpt lat="46.58837" lon="5.38139">
        <ele>222</ele>
        <time>2021-08-20T11:38:54Z</time>
      </trkpt>
      <trkpt lat="46.58872" lon="5.38182">
        <ele>221</ele>
        <time>2021-08-20T11:39:01Z</time>
      </trkpt>
      <trkpt lat="46.58884" lon="5.38197">
        <ele>220.6</ele>
        <time>2021-08-20T11:39:03Z</time>
      </trkpt>
      <trkpt lat="46.58911" lon="5.38231">
        <ele>220</ele>
        <time>2021-08-20T11:39:08Z</time>
      </trkpt>
      <trkpt lat="46.58933" lon="5.38258">
        <ele>219.8</ele>
        <time>2021-08-20T11:39:12Z</time>
      </trkpt>
      <trkpt lat="46.58974" lon="5.38294">
        <ele>218.8</ele>
        <time>2021-08-20T11:39:18Z</time>
      </trkpt>
      <trkpt lat="46.59001" lon="5.38317">
        <ele>217.8</ele>
        <time>2021-08-20T11:39:22Z</time>
      </trkpt>
      <trkpt lat="46.59034" lon="5.38344">
        <ele>217.2</ele>
        <time>2021-08-20T11:39:27Z</time>
      </trkpt>
      <trkpt lat="46.59067" lon="5.38371">
        <ele>217.4</ele>
        <time>2021-08-20T11:39:33Z</time>
      </trkpt>
      <trkpt lat="46.59101" lon="5.384">
        <ele>218.8</ele>
        <time>2021-08-20T11:39:40Z</time>
      </trkpt>
      <trkpt lat="46.59107" lon="5.38405">
        <ele>219.2</ele>
        <time>2021-08-20T11:39:41Z</time>
      </trkpt>
      <trkpt lat="46.5912" lon="5.38417">
        <ele>219.6</ele>
        <time>2021-08-20T11:39:44Z</time>
      </trkpt>
      <trkpt lat="46.59128" lon="5.38427">
        <ele>220</ele>
        <time>2021-08-20T11:39:46Z</time>
      </trkpt>
      <trkpt lat="46.59131" lon="5.38431">
        <ele>220</ele>
        <time>2021-08-20T11:39:47Z</time>
      </trkpt>
      <trkpt lat="46.59135" lon="5.38437">
        <ele>220</ele>
        <time>2021-08-20T11:39:48Z</time>
      </trkpt>
      <trkpt lat="46.5914" lon="5.38446">
        <ele>220.4</ele>
        <time>2021-08-20T11:39:50Z</time>
      </trkpt>
      <trkpt lat="46.59152" lon="5.38469">
        <ele>221</ele>
        <time>2021-08-20T11:39:54Z</time>
      </trkpt>
      <trkpt lat="46.59167" lon="5.38495">
        <ele>222.2</ele>
        <time>2021-08-20T11:39:58Z</time>
      </trkpt>
      <trkpt lat="46.59184" lon="5.38516">
        <ele>223.2</ele>
        <time>2021-08-20T11:40:02Z</time>
      </trkpt>
      <trkpt lat="46.59192" lon="5.38526">
        <ele>223.4</ele>
        <time>2021-08-20T11:40:04Z</time>
      </trkpt>
      <trkpt lat="46.59216" lon="5.3855">
        <ele>224.2</ele>
        <time>2021-08-20T11:40:10Z</time>
      </trkpt>
      <trkpt lat="46.5922" lon="5.38555">
        <ele>224.6</ele>
        <time>2021-08-20T11:40:11Z</time>
      </trkpt>
      <trkpt lat="46.59246" lon="5.38581">
        <ele>225</ele>
        <time>2021-08-20T11:40:16Z</time>
      </trkpt>
      <trkpt lat="46.59288" lon="5.38628">
        <ele>224.2</ele>
        <time>2021-08-20T11:40:24Z</time>
      </trkpt>
      <trkpt lat="46.59321" lon="5.38664">
        <ele>224</ele>
        <time>2021-08-20T11:40:30Z</time>
      </trkpt>
      <trkpt lat="46.59361" lon="5.38706">
        <ele>224.2</ele>
        <time>2021-08-20T11:40:39Z</time>
      </trkpt>
      <trkpt lat="46.59406" lon="5.38756">
        <ele>224.6</ele>
        <time>2021-08-20T11:40:47Z</time>
      </trkpt>
      <trkpt lat="46.59418" lon="5.38768">
        <ele>224.6</ele>
        <time>2021-08-20T11:40:49Z</time>
      </trkpt>
      <trkpt lat="46.59428" lon="5.3878">
        <ele>224.8</ele>
        <time>2021-08-20T11:40:51Z</time>
      </trkpt>
      <trkpt lat="46.59435" lon="5.38793">
        <ele>224.8</ele>
        <time>2021-08-20T11:40:53Z</time>
      </trkpt>
      <trkpt lat="46.59439" lon="5.38801">
        <ele>224.8</ele>
        <time>2021-08-20T11:40:54Z</time>
      </trkpt>
      <trkpt lat="46.59442" lon="5.38811">
        <ele>224.8</ele>
        <time>2021-08-20T11:40:55Z</time>
      </trkpt>
      <trkpt lat="46.59447" lon="5.38838">
        <ele>224.8</ele>
        <time>2021-08-20T11:40:58Z</time>
      </trkpt>
      <trkpt lat="46.59447" lon="5.38845">
        <ele>224.8</ele>
        <time>2021-08-20T11:40:59Z</time>
      </trkpt>
      <trkpt lat="46.59452" lon="5.38893">
        <ele>224.8</ele>
        <time>2021-08-20T11:41:04Z</time>
      </trkpt>
      <trkpt lat="46.59456" lon="5.3891">
        <ele>224.8</ele>
        <time>2021-08-20T11:41:06Z</time>
      </trkpt>
      <trkpt lat="46.59473" lon="5.38956">
        <ele>224.8</ele>
        <time>2021-08-20T11:41:11Z</time>
      </trkpt>
      <trkpt lat="46.59476" lon="5.38968">
        <ele>224.6</ele>
        <time>2021-08-20T11:41:12Z</time>
      </trkpt>
      <trkpt lat="46.59484" lon="5.39028">
        <ele>224.2</ele>
        <time>2021-08-20T11:41:18Z</time>
      </trkpt>
      <trkpt lat="46.59493" lon="5.39112">
        <ele>224.4</ele>
        <time>2021-08-20T11:41:26Z</time>
      </trkpt>
      <trkpt lat="46.59499" lon="5.39159">
        <ele>224.6</ele>
        <time>2021-08-20T11:41:31Z</time>
      </trkpt>
      <trkpt lat="46.59504" lon="5.39179">
        <ele>224.8</ele>
        <time>2021-08-20T11:41:33Z</time>
      </trkpt>
      <trkpt lat="46.59511" lon="5.39193">
        <ele>225</ele>
        <time>2021-08-20T11:41:35Z</time>
      </trkpt>
      <trkpt lat="46.59521" lon="5.39205">
        <ele>225.2</ele>
        <time>2021-08-20T11:41:37Z</time>
      </trkpt>
      <trkpt lat="46.59527" lon="5.39209">
        <ele>225.2</ele>
        <time>2021-08-20T11:41:38Z</time>
      </trkpt>
      <trkpt lat="46.59534" lon="5.3921">
        <ele>225.2</ele>
        <time>2021-08-20T11:41:39Z</time>
      </trkpt>
      <trkpt lat="46.59553" lon="5.3921">
        <ele>225.4</ele>
        <time>2021-08-20T11:41:42Z</time>
      </trkpt>
      <trkpt lat="46.59565" lon="5.39208">
        <ele>225.6</ele>
        <time>2021-08-20T11:41:44Z</time>
      </trkpt>
      <trkpt lat="46.59578" lon="5.39205">
        <ele>225.8</ele>
        <time>2021-08-20T11:41:46Z</time>
      </trkpt>
      <trkpt lat="46.5959" lon="5.39199">
        <ele>225.8</ele>
        <time>2021-08-20T11:41:48Z</time>
      </trkpt>
      <trkpt lat="46.59602" lon="5.39194">
        <ele>226</ele>
        <time>2021-08-20T11:41:50Z</time>
      </trkpt>
      <trkpt lat="46.59615" lon="5.3919">
        <ele>226.2</ele>
        <time>2021-08-20T11:41:52Z</time>
      </trkpt>
      <trkpt lat="46.59628" lon="5.39188">
        <ele>226.4</ele>
        <time>2021-08-20T11:41:54Z</time>
      </trkpt>
      <trkpt lat="46.59666" lon="5.39193">
        <ele>226.8</ele>
        <time>2021-08-20T11:42:00Z</time>
      </trkpt>
      <trkpt lat="46.59678" lon="5.39196">
        <ele>226.8</ele>
        <time>2021-08-20T11:42:02Z</time>
      </trkpt>
      <trkpt lat="46.59718" lon="5.39205">
        <ele>227.6</ele>
        <time>2021-08-20T11:42:09Z</time>
      </trkpt>
      <trkpt lat="46.59723" lon="5.39209">
        <ele>227.6</ele>
        <time>2021-08-20T11:42:10Z</time>
      </trkpt>
      <trkpt lat="46.59728" lon="5.39213">
        <ele>227.6</ele>
        <time>2021-08-20T11:42:11Z</time>
      </trkpt>
      <trkpt lat="46.59732" lon="5.39219">
        <ele>227.8</ele>
        <time>2021-08-20T11:42:12Z</time>
      </trkpt>
      <trkpt lat="46.59736" lon="5.39222">
        <ele>227.8</ele>
        <time>2021-08-20T11:42:13Z</time>
      </trkpt>
      <trkpt lat="46.59746" lon="5.39222">
        <ele>227.8</ele>
        <time>2021-08-20T11:42:15Z</time>
      </trkpt>
      <trkpt lat="46.59751" lon="5.39218">
        <ele>227.8</ele>
        <time>2021-08-20T11:42:16Z</time>
      </trkpt>
      <trkpt lat="46.59784" lon="5.392">
        <ele>227</ele>
        <time>2021-08-20T11:42:21Z</time>
      </trkpt>
      <trkpt lat="46.59798" lon="5.39195">
        <ele>226.6</ele>
        <time>2021-08-20T11:42:23Z</time>
      </trkpt>
      <trkpt lat="46.59806" lon="5.39194">
        <ele>226.4</ele>
        <time>2021-08-20T11:42:24Z</time>
      </trkpt>
      <trkpt lat="46.59813" lon="5.39194">
        <ele>226.4</ele>
        <time>2021-08-20T11:42:25Z</time>
      </trkpt>
      <trkpt lat="46.59857" lon="5.39199">
        <ele>226</ele>
        <time>2021-08-20T11:42:31Z</time>
      </trkpt>
      <trkpt lat="46.59892" lon="5.39195">
        <ele>225.8</ele>
        <time>2021-08-20T11:42:36Z</time>
      </trkpt>
      <trkpt lat="46.59906" lon="5.3919">
        <ele>225.4</ele>
        <time>2021-08-20T11:42:38Z</time>
      </trkpt>
      <trkpt lat="46.59935" lon="5.39186">
        <ele>224.8</ele>
        <time>2021-08-20T11:42:42Z</time>
      </trkpt>
      <trkpt lat="46.59958" lon="5.39186">
        <ele>224.2</ele>
        <time>2021-08-20T11:42:45Z</time>
      </trkpt>
      <trkpt lat="46.59983" lon="5.39189">
        <ele>223.4</ele>
        <time>2021-08-20T11:42:48Z</time>
      </trkpt>
      <trkpt lat="46.59989" lon="5.39191">
        <ele>223.2</ele>
        <time>2021-08-20T11:42:49Z</time>
      </trkpt>
      <trkpt lat="46.6001" lon="5.39203">
        <ele>222.8</ele>
        <time>2021-08-20T11:42:52Z</time>
      </trkpt>
      <trkpt lat="46.60023" lon="5.39215">
        <ele>222.4</ele>
        <time>2021-08-20T11:42:54Z</time>
      </trkpt>
      <trkpt lat="46.60035" lon="5.39231">
        <ele>222.2</ele>
        <time>2021-08-20T11:42:56Z</time>
      </trkpt>
      <trkpt lat="46.60041" lon="5.39243">
        <ele>222.2</ele>
        <time>2021-08-20T11:42:57Z</time>
      </trkpt>
      <trkpt lat="46.60041" lon="5.39243">
        <ele>222</ele>
        <time>2021-08-20T11:42:58Z</time>
      </trkpt>
      <trkpt lat="46.60048" lon="5.39264">
        <ele>221.6</ele>
        <time>2021-08-20T11:42:59Z</time>
      </trkpt>
      <trkpt lat="46.60051" lon="5.39292">
        <ele>221</ele>
        <time>2021-08-20T11:43:01Z</time>
      </trkpt>
      <trkpt lat="46.60052" lon="5.3931">
        <ele>221</ele>
        <time>2021-08-20T11:43:02Z</time>
      </trkpt>
      <trkpt lat="46.60052" lon="5.39322">
        <ele>219.8</ele>
        <time>2021-08-20T11:43:03Z</time>
      </trkpt>
      <trkpt lat="46.60048" lon="5.39352">
        <ele>218.8</ele>
        <time>2021-08-20T11:43:05Z</time>
      </trkpt>
      <trkpt lat="46.60041" lon="5.39393">
        <ele>217.4</ele>
        <time>2021-08-20T11:43:08Z</time>
      </trkpt>
      <trkpt lat="46.60039" lon="5.39406">
        <ele>217.2</ele>
        <time>2021-08-20T11:43:09Z</time>
      </trkpt>
      <trkpt lat="46.60033" lon="5.39451">
        <ele>216.6</ele>
        <time>2021-08-20T11:43:13Z</time>
      </trkpt>
      <trkpt lat="46.60036" lon="5.39486">
        <ele>216.8</ele>
        <time>2021-08-20T11:43:16Z</time>
      </trkpt>
      <trkpt lat="46.60038" lon="5.39495">
        <ele>217</ele>
        <time>2021-08-20T11:43:17Z</time>
      </trkpt>
      <trkpt lat="46.60042" lon="5.39506">
        <ele>217</ele>
        <time>2021-08-20T11:43:18Z</time>
      </trkpt>
      <trkpt lat="46.6006" lon="5.39547">
        <ele>216.6</ele>
        <time>2021-08-20T11:43:22Z</time>
      </trkpt>
      <trkpt lat="46.60065" lon="5.39557">
        <ele>216.4</ele>
        <time>2021-08-20T11:43:23Z</time>
      </trkpt>
      <trkpt lat="46.60079" lon="5.39589">
        <ele>215.2</ele>
        <time>2021-08-20T11:43:26Z</time>
      </trkpt>
      <trkpt lat="46.60083" lon="5.396">
        <ele>214.8</ele>
        <time>2021-08-20T11:43:27Z</time>
      </trkpt>
      <trkpt lat="46.60088" lon="5.39626">
        <ele>214.6</ele>
        <time>2021-08-20T11:43:29Z</time>
      </trkpt>
      <trkpt lat="46.60088" lon="5.39639">
        <ele>214.6</ele>
        <time>2021-08-20T11:43:30Z</time>
      </trkpt>
      <trkpt lat="46.60087" lon="5.39653">
        <ele>214.2</ele>
        <time>2021-08-20T11:43:31Z</time>
      </trkpt>
      <trkpt lat="46.60085" lon="5.39666">
        <ele>214.2</ele>
        <time>2021-08-20T11:43:32Z</time>
      </trkpt>
      <trkpt lat="46.60082" lon="5.39678">
        <ele>213.4</ele>
        <time>2021-08-20T11:43:33Z</time>
      </trkpt>
      <trkpt lat="46.60077" lon="5.3969">
        <ele>212</ele>
        <time>2021-08-20T11:43:34Z</time>
      </trkpt>
      <trkpt lat="46.60066" lon="5.39713">
        <ele>211.2</ele>
        <time>2021-08-20T11:43:36Z</time>
      </trkpt>
      <trkpt lat="46.60062" lon="5.39726">
        <ele>211</ele>
        <time>2021-08-20T11:43:37Z</time>
      </trkpt>
      <trkpt lat="46.60062" lon="5.39739">
        <ele>210.4</ele>
        <time>2021-08-20T11:43:38Z</time>
      </trkpt>
      <trkpt lat="46.60068" lon="5.39766">
        <ele>209.8</ele>
        <time>2021-08-20T11:43:40Z</time>
      </trkpt>
      <trkpt lat="46.60072" lon="5.39778">
        <ele>209.4</ele>
        <time>2021-08-20T11:43:41Z</time>
      </trkpt>
      <trkpt lat="46.60087" lon="5.39812">
        <ele>209</ele>
        <time>2021-08-20T11:43:44Z</time>
      </trkpt>
      <trkpt lat="46.60093" lon="5.39822">
        <ele>208.8</ele>
        <time>2021-08-20T11:43:45Z</time>
      </trkpt>
      <trkpt lat="46.601" lon="5.39831">
        <ele>208.6</ele>
        <time>2021-08-20T11:43:46Z</time>
      </trkpt>
      <trkpt lat="46.60107" lon="5.39839">
        <ele>208.4</ele>
        <time>2021-08-20T11:43:47Z</time>
      </trkpt>
      <trkpt lat="46.6013" lon="5.39858">
        <ele>208</ele>
        <time>2021-08-20T11:43:50Z</time>
      </trkpt>
      <trkpt lat="46.60144" lon="5.3987">
        <ele>207.6</ele>
        <time>2021-08-20T11:43:52Z</time>
      </trkpt>
      <trkpt lat="46.60169" lon="5.39898">
        <ele>207.4</ele>
        <time>2021-08-20T11:43:56Z</time>
      </trkpt>
      <trkpt lat="46.60178" lon="5.39915">
        <ele>207.6</ele>
        <time>2021-08-20T11:43:58Z</time>
      </trkpt>
      <trkpt lat="46.60183" lon="5.39935">
        <ele>208</ele>
        <time>2021-08-20T11:44:00Z</time>
      </trkpt>
      <trkpt lat="46.60186" lon="5.39984">
        <ele>208.6</ele>
        <time>2021-08-20T11:44:05Z</time>
      </trkpt>
      <trkpt lat="46.60187" lon="5.40021">
        <ele>209.2</ele>
        <time>2021-08-20T11:44:09Z</time>
      </trkpt>
      <trkpt lat="46.60188" lon="5.40049">
        <ele>210.4</ele>
        <time>2021-08-20T11:44:12Z</time>
      </trkpt>
      <trkpt lat="46.60189" lon="5.40078">
        <ele>211.2</ele>
        <time>2021-08-20T11:44:15Z</time>
      </trkpt>
      <trkpt lat="46.60187" lon="5.40123">
        <ele>212.4</ele>
        <time>2021-08-20T11:44:20Z</time>
      </trkpt>
      <trkpt lat="46.60177" lon="5.40176">
        <ele>213.4</ele>
        <time>2021-08-20T11:44:26Z</time>
      </trkpt>
      <trkpt lat="46.60175" lon="5.40186">
        <ele>213.4</ele>
        <time>2021-08-20T11:44:27Z</time>
      </trkpt>
      <trkpt lat="46.60174" lon="5.40196">
        <ele>213.4</ele>
        <time>2021-08-20T11:44:28Z</time>
      </trkpt>
      <trkpt lat="46.60173" lon="5.40217">
        <ele>213.8</ele>
        <time>2021-08-20T11:44:30Z</time>
      </trkpt>
      <trkpt lat="46.60177" lon="5.40237">
        <ele>213.4</ele>
        <time>2021-08-20T11:44:32Z</time>
      </trkpt>
      <trkpt lat="46.60183" lon="5.40256">
        <ele>213.2</ele>
        <time>2021-08-20T11:44:34Z</time>
      </trkpt>
      <trkpt lat="46.6021" lon="5.40328">
        <ele>212.8</ele>
        <time>2021-08-20T11:44:42Z</time>
      </trkpt>
      <trkpt lat="46.60212" lon="5.40337">
        <ele>212.8</ele>
        <time>2021-08-20T11:44:43Z</time>
      </trkpt>
      <trkpt lat="46.60218" lon="5.40365">
        <ele>213.2</ele>
        <time>2021-08-20T11:44:46Z</time>
      </trkpt>
      <trkpt lat="46.60219" lon="5.40385">
        <ele>213.4</ele>
        <time>2021-08-20T11:44:48Z</time>
      </trkpt>
      <trkpt lat="46.60217" lon="5.40432">
        <ele>213</ele>
        <time>2021-08-20T11:44:52Z</time>
      </trkpt>
      <trkpt lat="46.60217" lon="5.40475">
        <ele>211.8</ele>
        <time>2021-08-20T11:44:55Z</time>
      </trkpt>
      <trkpt lat="46.6022" lon="5.405">
        <ele>210.4</ele>
        <time>2021-08-20T11:44:57Z</time>
      </trkpt>
      <trkpt lat="46.60229" lon="5.40538">
        <ele>209.6</ele>
        <time>2021-08-20T11:45:00Z</time>
      </trkpt>
      <trkpt lat="46.60233" lon="5.40566">
        <ele>209</ele>
        <time>2021-08-20T11:45:02Z</time>
      </trkpt>
      <trkpt lat="46.60234" lon="5.40591">
        <ele>208.6</ele>
        <time>2021-08-20T11:45:04Z</time>
      </trkpt>
      <trkpt lat="46.60232" lon="5.40604">
        <ele>208.6</ele>
        <time>2021-08-20T11:45:05Z</time>
      </trkpt>
      <trkpt lat="46.60229" lon="5.40616">
        <ele>208.4</ele>
        <time>2021-08-20T11:45:06Z</time>
      </trkpt>
      <trkpt lat="46.6022" lon="5.40636">
        <ele>207.8</ele>
        <time>2021-08-20T11:45:08Z</time>
      </trkpt>
      <trkpt lat="46.60189" lon="5.4069">
        <ele>207.6</ele>
        <time>2021-08-20T11:45:14Z</time>
      </trkpt>
      <trkpt lat="46.60184" lon="5.40699">
        <ele>207.4</ele>
        <time>2021-08-20T11:45:15Z</time>
      </trkpt>
      <trkpt lat="46.60174" lon="5.40729">
        <ele>207.6</ele>
        <time>2021-08-20T11:45:18Z</time>
      </trkpt>
      <trkpt lat="46.60172" lon="5.4074">
        <ele>207.6</ele>
        <time>2021-08-20T11:45:19Z</time>
      </trkpt>
      <trkpt lat="46.60171" lon="5.40749">
        <ele>207.6</ele>
        <time>2021-08-20T11:45:20Z</time>
      </trkpt>
      <trkpt lat="46.60171" lon="5.40761">
        <ele>207.4</ele>
        <time>2021-08-20T11:45:21Z</time>
      </trkpt>
      <trkpt lat="46.60172" lon="5.40772">
        <ele>207.4</ele>
        <time>2021-08-20T11:45:22Z</time>
      </trkpt>
      <trkpt lat="46.60173" lon="5.40783">
        <ele>207.4</ele>
        <time>2021-08-20T11:45:23Z</time>
      </trkpt>
      <trkpt lat="46.60179" lon="5.40803">
        <ele>207.2</ele>
        <time>2021-08-20T11:45:25Z</time>
      </trkpt>
      <trkpt lat="46.60188" lon="5.4082">
        <ele>207.2</ele>
        <time>2021-08-20T11:45:27Z</time>
      </trkpt>
      <trkpt lat="46.60224" lon="5.40854">
        <ele>207.4</ele>
        <time>2021-08-20T11:45:33Z</time>
      </trkpt>
      <trkpt lat="46.60268" lon="5.40888">
        <ele>207.8</ele>
        <time>2021-08-20T11:45:41Z</time>
      </trkpt>
      <trkpt lat="46.60281" lon="5.40899">
        <ele>208.6</ele>
        <time>2021-08-20T11:45:44Z</time>
      </trkpt>
      <trkpt lat="46.603" lon="5.40918">
        <ele>209.6</ele>
        <time>2021-08-20T11:45:48Z</time>
      </trkpt>
      <trkpt lat="46.60302" lon="5.40923">
        <ele>209.8</ele>
        <time>2021-08-20T11:45:49Z</time>
      </trkpt>
      <trkpt lat="46.60306" lon="5.4093">
        <ele>210</ele>
        <time>2021-08-20T11:45:50Z</time>
      </trkpt>
      <trkpt lat="46.60314" lon="5.40947">
        <ele>210.6</ele>
        <time>2021-08-20T11:45:53Z</time>
      </trkpt>
      <trkpt lat="46.6032" lon="5.40957">
        <ele>211</ele>
        <time>2021-08-20T11:45:55Z</time>
      </trkpt>
      <trkpt lat="46.60329" lon="5.40975">
        <ele>212.2</ele>
        <time>2021-08-20T11:45:59Z</time>
      </trkpt>
      <trkpt lat="46.60335" lon="5.40985">
        <ele>213.2</ele>
        <time>2021-08-20T11:46:01Z</time>
      </trkpt>
      <trkpt lat="46.60338" lon="5.40988">
        <ele>213.8</ele>
        <time>2021-08-20T11:46:02Z</time>
      </trkpt>
      <trkpt lat="46.60348" lon="5.40997">
        <ele>215</ele>
        <time>2021-08-20T11:46:05Z</time>
      </trkpt>
      <trkpt lat="46.60365" lon="5.41009">
        <ele>216</ele>
        <time>2021-08-20T11:46:10Z</time>
      </trkpt>
      <trkpt lat="46.60381" lon="5.41019">
        <ele>216.6</ele>
        <time>2021-08-20T11:46:14Z</time>
      </trkpt>
      <trkpt lat="46.60388" lon="5.41025">
        <ele>217.2</ele>
        <time>2021-08-20T11:46:16Z</time>
      </trkpt>
      <trkpt lat="46.60398" lon="5.41037">
        <ele>218.2</ele>
        <time>2021-08-20T11:46:19Z</time>
      </trkpt>
      <trkpt lat="46.60401" lon="5.41043">
        <ele>218.4</ele>
        <time>2021-08-20T11:46:20Z</time>
      </trkpt>
      <trkpt lat="46.60409" lon="5.41058">
        <ele>219</ele>
        <time>2021-08-20T11:46:23Z</time>
      </trkpt>
      <trkpt lat="46.60414" lon="5.41069">
        <ele>219.2</ele>
        <time>2021-08-20T11:46:25Z</time>
      </trkpt>
      <trkpt lat="46.60418" lon="5.41081">
        <ele>219.6</ele>
        <time>2021-08-20T11:46:27Z</time>
      </trkpt>
      <trkpt lat="46.60429" lon="5.41108">
        <ele>220</ele>
        <time>2021-08-20T11:46:31Z</time>
      </trkpt>
      <trkpt lat="46.60433" lon="5.41115">
        <ele>220</ele>
        <time>2021-08-20T11:46:32Z</time>
      </trkpt>
      <trkpt lat="46.60444" lon="5.41127">
        <ele>220</ele>
        <time>2021-08-20T11:46:34Z</time>
      </trkpt>
      <trkpt lat="46.60449" lon="5.4113">
        <ele>219.8</ele>
        <time>2021-08-20T11:46:35Z</time>
      </trkpt>
      <trkpt lat="46.60462" lon="5.41136">
        <ele>219.6</ele>
        <time>2021-08-20T11:46:37Z</time>
      </trkpt>
      <trkpt lat="46.60483" lon="5.41139">
        <ele>219.2</ele>
        <time>2021-08-20T11:46:40Z</time>
      </trkpt>
      <trkpt lat="46.60521" lon="5.41139">
        <ele>218.4</ele>
        <time>2021-08-20T11:46:45Z</time>
      </trkpt>
      <trkpt lat="46.60539" lon="5.4114">
        <ele>217.8</ele>
        <time>2021-08-20T11:46:47Z</time>
      </trkpt>
      <trkpt lat="46.60556" lon="5.41143">
        <ele>217.2</ele>
        <time>2021-08-20T11:46:49Z</time>
      </trkpt>
      <trkpt lat="46.60596" lon="5.41152">
        <ele>216</ele>
        <time>2021-08-20T11:46:54Z</time>
      </trkpt>
      <trkpt lat="46.60638" lon="5.41166">
        <ele>214.4</ele>
        <time>2021-08-20T11:46:59Z</time>
      </trkpt>
      <trkpt lat="46.60648" lon="5.4117">
        <ele>214</ele>
        <time>2021-08-20T11:47:00Z</time>
      </trkpt>
      <trkpt lat="46.60673" lon="5.41179">
        <ele>213.4</ele>
        <time>2021-08-20T11:47:03Z</time>
      </trkpt>
      <trkpt lat="46.60688" lon="5.41188">
        <ele>213</ele>
        <time>2021-08-20T11:47:05Z</time>
      </trkpt>
      <trkpt lat="46.60695" lon="5.41194">
        <ele>212.8</ele>
        <time>2021-08-20T11:47:06Z</time>
      </trkpt>
      <trkpt lat="46.60707" lon="5.41207">
        <ele>212.4</ele>
        <time>2021-08-20T11:47:08Z</time>
      </trkpt>
      <trkpt lat="46.60731" lon="5.41238">
        <ele>212</ele>
        <time>2021-08-20T11:47:12Z</time>
      </trkpt>
      <trkpt lat="46.60764" lon="5.41276">
        <ele>212.6</ele>
        <time>2021-08-20T11:47:18Z</time>
      </trkpt>
      <trkpt lat="46.60801" lon="5.41315">
        <ele>213</ele>
        <time>2021-08-20T11:47:24Z</time>
      </trkpt>
      <trkpt lat="46.60816" lon="5.41327">
        <ele>213</ele>
        <time>2021-08-20T11:47:26Z</time>
      </trkpt>
      <trkpt lat="46.60832" lon="5.41334">
        <ele>212</ele>
        <time>2021-08-20T11:47:28Z</time>
      </trkpt>
      <trkpt lat="46.6084" lon="5.41334">
        <ele>211</ele>
        <time>2021-08-20T11:47:29Z</time>
      </trkpt>
      <trkpt lat="46.60847" lon="5.41333">
        <ele>210.6</ele>
        <time>2021-08-20T11:47:30Z</time>
      </trkpt>
      <trkpt lat="46.60851" lon="5.41331">
        <ele>210</ele>
        <time>2021-08-20T11:47:31Z</time>
      </trkpt>
      <trkpt lat="46.60859" lon="5.41326">
        <ele>209.6</ele>
        <time>2021-08-20T11:47:32Z</time>
      </trkpt>
      <trkpt lat="46.60871" lon="5.41312">
        <ele>209.2</ele>
        <time>2021-08-20T11:47:34Z</time>
      </trkpt>
      <trkpt lat="46.60883" lon="5.41296">
        <ele>208.8</ele>
        <time>2021-08-20T11:47:36Z</time>
      </trkpt>
      <trkpt lat="46.60908" lon="5.41265">
        <ele>207.8</ele>
        <time>2021-08-20T11:47:40Z</time>
      </trkpt>
      <trkpt lat="46.60956" lon="5.41211">
        <ele>206.8</ele>
        <time>2021-08-20T11:47:47Z</time>
      </trkpt>
      <trkpt lat="46.60963" lon="5.41204">
        <ele>206.6</ele>
        <time>2021-08-20T11:47:48Z</time>
      </trkpt>
      <trkpt lat="46.61014" lon="5.41161">
        <ele>206.2</ele>
        <time>2021-08-20T11:47:55Z</time>
      </trkpt>
      <trkpt lat="46.61029" lon="5.41155">
        <ele>206</ele>
        <time>2021-08-20T11:47:57Z</time>
      </trkpt>
      <trkpt lat="46.61044" lon="5.41154">
        <ele>206.2</ele>
        <time>2021-08-20T11:47:59Z</time>
      </trkpt>
      <trkpt lat="46.6106" lon="5.41157">
        <ele>206</ele>
        <time>2021-08-20T11:48:01Z</time>
      </trkpt>
      <trkpt lat="46.61083" lon="5.41164">
        <ele>206</ele>
        <time>2021-08-20T11:48:04Z</time>
      </trkpt>
      <trkpt lat="46.61136" lon="5.4118">
        <ele>205.8</ele>
        <time>2021-08-20T11:48:11Z</time>
      </trkpt>
      <trkpt lat="46.61172" lon="5.4119">
        <ele>206</ele>
        <time>2021-08-20T11:48:16Z</time>
      </trkpt>
      <trkpt lat="46.61225" lon="5.41205">
        <ele>206</ele>
        <time>2021-08-20T11:48:23Z</time>
      </trkpt>
      <trkpt lat="46.61253" lon="5.41214">
        <ele>205.8</ele>
        <time>2021-08-20T11:48:27Z</time>
      </trkpt>
      <trkpt lat="46.61311" lon="5.41228">
        <ele>206.2</ele>
        <time>2021-08-20T11:48:35Z</time>
      </trkpt>
      <trkpt lat="46.61318" lon="5.4123">
        <ele>206.2</ele>
        <time>2021-08-20T11:48:36Z</time>
      </trkpt>
      <trkpt lat="46.61373" lon="5.41246">
        <ele>206.2</ele>
        <time>2021-08-20T11:48:44Z</time>
      </trkpt>
      <trkpt lat="46.61387" lon="5.41249">
        <ele>206.4</ele>
        <time>2021-08-20T11:48:46Z</time>
      </trkpt>
      <trkpt lat="46.61442" lon="5.41264">
        <ele>206.4</ele>
        <time>2021-08-20T11:48:54Z</time>
      </trkpt>
      <trkpt lat="46.6148" lon="5.41274">
        <ele>206.2</ele>
        <time>2021-08-20T11:49:00Z</time>
      </trkpt>
      <trkpt lat="46.61519" lon="5.41289">
        <ele>206.4</ele>
        <time>2021-08-20T11:49:06Z</time>
      </trkpt>
      <trkpt lat="46.61565" lon="5.41321">
        <ele>205.8</ele>
        <time>2021-08-20T11:49:13Z</time>
      </trkpt>
      <trkpt lat="46.61571" lon="5.41325">
        <ele>205.6</ele>
        <time>2021-08-20T11:49:14Z</time>
      </trkpt>
      <trkpt lat="46.61617" lon="5.41363">
        <ele>205</ele>
        <time>2021-08-20T11:49:22Z</time>
      </trkpt>
      <trkpt lat="46.6166" lon="5.41412">
        <ele>205.6</ele>
        <time>2021-08-20T11:49:30Z</time>
      </trkpt>
      <trkpt lat="46.61683" lon="5.4143">
        <ele>205.8</ele>
        <time>2021-08-20T11:49:34Z</time>
      </trkpt>
      <trkpt lat="46.6169" lon="5.41433">
        <ele>206</ele>
        <time>2021-08-20T11:49:35Z</time>
      </trkpt>
      <trkpt lat="46.61703" lon="5.41437">
        <ele>206</ele>
        <time>2021-08-20T11:49:37Z</time>
      </trkpt>
      <trkpt lat="46.61724" lon="5.41437">
        <ele>206.2</ele>
        <time>2021-08-20T11:49:40Z</time>
      </trkpt>
      <trkpt lat="46.61731" lon="5.41436">
        <ele>206.2</ele>
        <time>2021-08-20T11:49:41Z</time>
      </trkpt>
      <trkpt lat="46.61757" lon="5.41423">
        <ele>206.2</ele>
        <time>2021-08-20T11:49:45Z</time>
      </trkpt>
      <trkpt lat="46.61783" lon="5.41395">
        <ele>206</ele>
        <time>2021-08-20T11:49:50Z</time>
      </trkpt>
      <trkpt lat="46.61819" lon="5.41334">
        <ele>206</ele>
        <time>2021-08-20T11:49:58Z</time>
      </trkpt>
      <trkpt lat="46.61832" lon="5.41311">
        <ele>206.2</ele>
        <time>2021-08-20T11:50:01Z</time>
      </trkpt>
      <trkpt lat="46.61867" lon="5.41249">
        <ele>206</ele>
        <time>2021-08-20T11:50:09Z</time>
      </trkpt>
      <trkpt lat="46.6191" lon="5.41187">
        <ele>205.8</ele>
        <time>2021-08-20T11:50:18Z</time>
      </trkpt>
      <trkpt lat="46.61919" lon="5.41175">
        <ele>205.8</ele>
        <time>2021-08-20T11:50:20Z</time>
      </trkpt>
      <trkpt lat="46.61961" lon="5.41118">
        <ele>205.6</ele>
        <time>2021-08-20T11:50:28Z</time>
      </trkpt>
      <trkpt lat="46.61981" lon="5.4109">
        <ele>205.8</ele>
        <time>2021-08-20T11:50:32Z</time>
      </trkpt>
      <trkpt lat="46.62017" lon="5.4103">
        <ele>206</ele>
        <time>2021-08-20T11:50:40Z</time>
      </trkpt>
      <trkpt lat="46.62041" lon="5.40959">
        <ele>206.6</ele>
        <time>2021-08-20T11:50:48Z</time>
      </trkpt>
      <trkpt lat="46.62066" lon="5.40882">
        <ele>206.8</ele>
        <time>2021-08-20T11:50:56Z</time>
      </trkpt>
      <trkpt lat="46.62073" lon="5.40864">
        <ele>206.8</ele>
        <time>2021-08-20T11:50:58Z</time>
      </trkpt>
      <trkpt lat="46.62098" lon="5.40792">
        <ele>207</ele>
        <time>2021-08-20T11:51:06Z</time>
      </trkpt>
      <trkpt lat="46.62104" lon="5.40776">
        <ele>207</ele>
        <time>2021-08-20T11:51:08Z</time>
      </trkpt>
      <trkpt lat="46.62115" lon="5.40751">
        <ele>207.2</ele>
        <time>2021-08-20T11:51:11Z</time>
      </trkpt>
      <trkpt lat="46.62124" lon="5.40736">
        <ele>207.6</ele>
        <time>2021-08-20T11:51:13Z</time>
      </trkpt>
      <trkpt lat="46.62135" lon="5.40724">
        <ele>207.6</ele>
        <time>2021-08-20T11:51:15Z</time>
      </trkpt>
      <trkpt lat="46.62148" lon="5.40715">
        <ele>207.4</ele>
        <time>2021-08-20T11:51:17Z</time>
      </trkpt>
      <trkpt lat="46.6216" lon="5.4071">
        <ele>207.2</ele>
        <time>2021-08-20T11:51:19Z</time>
      </trkpt>
      <trkpt lat="46.62175" lon="5.40709">
        <ele>207.2</ele>
        <time>2021-08-20T11:51:21Z</time>
      </trkpt>
      <trkpt lat="46.62182" lon="5.4071">
        <ele>207</ele>
        <time>2021-08-20T11:51:22Z</time>
      </trkpt>
      <trkpt lat="46.62195" lon="5.40715">
        <ele>207</ele>
        <time>2021-08-20T11:51:24Z</time>
      </trkpt>
      <trkpt lat="46.62201" lon="5.40718">
        <ele>206.8</ele>
        <time>2021-08-20T11:51:25Z</time>
      </trkpt>
      <trkpt lat="46.62207" lon="5.40722">
        <ele>206.8</ele>
        <time>2021-08-20T11:51:26Z</time>
      </trkpt>
      <trkpt lat="46.62229" lon="5.40744">
        <ele>206.8</ele>
        <time>2021-08-20T11:51:30Z</time>
      </trkpt>
      <trkpt lat="46.62278" lon="5.40793">
        <ele>207</ele>
        <time>2021-08-20T11:51:39Z</time>
      </trkpt>
      <trkpt lat="46.62283" lon="5.40799">
        <ele>207.2</ele>
        <time>2021-08-20T11:51:40Z</time>
      </trkpt>
      <trkpt lat="46.62288" lon="5.40805">
        <ele>207.4</ele>
        <time>2021-08-20T11:51:41Z</time>
      </trkpt>
      <trkpt lat="46.6231" lon="5.40838">
        <ele>207.6</ele>
        <time>2021-08-20T11:51:46Z</time>
      </trkpt>
      <trkpt lat="46.62331" lon="5.40873">
        <ele>207.8</ele>
        <time>2021-08-20T11:51:51Z</time>
      </trkpt>
      <trkpt lat="46.62343" lon="5.40886">
        <ele>207.8</ele>
        <time>2021-08-20T11:51:53Z</time>
      </trkpt>
      <trkpt lat="46.62389" lon="5.4093">
        <ele>207.6</ele>
        <time>2021-08-20T11:52:01Z</time>
      </trkpt>
      <trkpt lat="46.62394" lon="5.40936">
        <ele>207.8</ele>
        <time>2021-08-20T11:52:02Z</time>
      </trkpt>
      <trkpt lat="46.62403" lon="5.40952">
        <ele>207.8</ele>
        <time>2021-08-20T11:52:04Z</time>
      </trkpt>
      <trkpt lat="46.62413" lon="5.40976">
        <ele>207.8</ele>
        <time>2021-08-20T11:52:07Z</time>
      </trkpt>
      <trkpt lat="46.62441" lon="5.41048">
        <ele>208</ele>
        <time>2021-08-20T11:52:16Z</time>
      </trkpt>
      <trkpt lat="46.62444" lon="5.41056">
        <ele>208</ele>
        <time>2021-08-20T11:52:17Z</time>
      </trkpt>
      <trkpt lat="46.62473" lon="5.41115">
        <ele>208.2</ele>
        <time>2021-08-20T11:52:25Z</time>
      </trkpt>
      <trkpt lat="46.62482" lon="5.41124">
        <ele>208.4</ele>
        <time>2021-08-20T11:52:27Z</time>
      </trkpt>
      <trkpt lat="46.62498" lon="5.41137">
        <ele>208.4</ele>
        <time>2021-08-20T11:52:30Z</time>
      </trkpt>
      <trkpt lat="46.62534" lon="5.41154">
        <ele>209</ele>
        <time>2021-08-20T11:52:36Z</time>
      </trkpt>
      <trkpt lat="46.62546" lon="5.41159">
        <ele>209.4</ele>
        <time>2021-08-20T11:52:38Z</time>
      </trkpt>
      <trkpt lat="46.62578" lon="5.41173">
        <ele>210.2</ele>
        <time>2021-08-20T11:52:44Z</time>
      </trkpt>
      <trkpt lat="46.62601" lon="5.41184">
        <ele>210.6</ele>
        <time>2021-08-20T11:52:48Z</time>
      </trkpt>
      <trkpt lat="46.6263" lon="5.41197">
        <ele>211.2</ele>
        <time>2021-08-20T11:52:53Z</time>
      </trkpt>
      <trkpt lat="46.62646" lon="5.41203">
        <ele>211.6</ele>
        <time>2021-08-20T11:52:56Z</time>
      </trkpt>
      <trkpt lat="46.62673" lon="5.41215">
        <ele>212.4</ele>
        <time>2021-08-20T11:53:01Z</time>
      </trkpt>
      <trkpt lat="46.62687" lon="5.41221">
        <ele>212.6</ele>
        <time>2021-08-20T11:53:04Z</time>
      </trkpt>
      <trkpt lat="46.62729" lon="5.4124">
        <ele>213</ele>
        <time>2021-08-20T11:53:12Z</time>
      </trkpt>
      <trkpt lat="46.62745" lon="5.41247">
        <ele>213.4</ele>
        <time>2021-08-20T11:53:15Z</time>
      </trkpt>
      <trkpt lat="46.62775" lon="5.4126">
        <ele>214.6</ele>
        <time>2021-08-20T11:53:21Z</time>
      </trkpt>
      <trkpt lat="46.62809" lon="5.41274">
        <ele>215.4</ele>
        <time>2021-08-20T11:53:28Z</time>
      </trkpt>
      <trkpt lat="46.6282" lon="5.41279">
        <ele>215.8</ele>
        <time>2021-08-20T11:53:30Z</time>
      </trkpt>
      <trkpt lat="46.62851" lon="5.41291">
        <ele>216.8</ele>
        <time>2021-08-20T11:53:37Z</time>
      </trkpt>
      <trkpt lat="46.62883" lon="5.41305">
        <ele>218.2</ele>
        <time>2021-08-20T11:53:44Z</time>
      </trkpt>
      <trkpt lat="46.62895" lon="5.41312">
        <ele>219.2</ele>
        <time>2021-08-20T11:53:47Z</time>
      </trkpt>
      <trkpt lat="46.62899" lon="5.41314">
        <ele>219.4</ele>
        <time>2021-08-20T11:53:48Z</time>
      </trkpt>
      <trkpt lat="46.6292" lon="5.41323">
        <ele>220.8</ele>
        <time>2021-08-20T11:53:53Z</time>
      </trkpt>
      <trkpt lat="46.62928" lon="5.41327">
        <ele>221</ele>
        <time>2021-08-20T11:53:55Z</time>
      </trkpt>
      <trkpt lat="46.62947" lon="5.41336">
        <ele>221.8</ele>
        <time>2021-08-20T11:54:00Z</time>
      </trkpt>
      <trkpt lat="46.62967" lon="5.41345">
        <ele>223.2</ele>
        <time>2021-08-20T11:54:05Z</time>
      </trkpt>
      <trkpt lat="46.62984" lon="5.4135">
        <ele>224.4</ele>
        <time>2021-08-20T11:54:09Z</time>
      </trkpt>
      <trkpt lat="46.62997" lon="5.41357">
        <ele>225.8</ele>
        <time>2021-08-20T11:54:13Z</time>
      </trkpt>
      <trkpt lat="46.63019" lon="5.41368">
        <ele>226.8</ele>
        <time>2021-08-20T11:54:19Z</time>
      </trkpt>
      <trkpt lat="46.63026" lon="5.41372">
        <ele>227.2</ele>
        <time>2021-08-20T11:54:21Z</time>
      </trkpt>
      <trkpt lat="46.63042" lon="5.41386">
        <ele>228</ele>
        <time>2021-08-20T11:54:25Z</time>
      </trkpt>
      <trkpt lat="46.63045" lon="5.4139">
        <ele>228.2</ele>
        <time>2021-08-20T11:54:26Z</time>
      </trkpt>
      <trkpt lat="46.63068" lon="5.41417">
        <ele>228.8</ele>
        <time>2021-08-20T11:54:32Z</time>
      </trkpt>
      <trkpt lat="46.63081" lon="5.41432">
        <ele>229</ele>
        <time>2021-08-20T11:54:35Z</time>
      </trkpt>
      <trkpt lat="46.63094" lon="5.4145">
        <ele>229</ele>
        <time>2021-08-20T11:54:38Z</time>
      </trkpt>
      <trkpt lat="46.63123" lon="5.41499">
        <ele>228.4</ele>
        <time>2021-08-20T11:54:45Z</time>
      </trkpt>
      <trkpt lat="46.63156" lon="5.41571">
        <ele>228</ele>
        <time>2021-08-20T11:54:54Z</time>
      </trkpt>
      <trkpt lat="46.63187" lon="5.41636">
        <ele>228</ele>
        <time>2021-08-20T11:55:02Z</time>
      </trkpt>
      <trkpt lat="46.6319" lon="5.41644">
        <ele>228</ele>
        <time>2021-08-20T11:55:03Z</time>
      </trkpt>
      <trkpt lat="46.63219" lon="5.41707">
        <ele>228.4</ele>
        <time>2021-08-20T11:55:11Z</time>
      </trkpt>
      <trkpt lat="46.63248" lon="5.41747">
        <ele>229</ele>
        <time>2021-08-20T11:55:17Z</time>
      </trkpt>
      <trkpt lat="46.63287" lon="5.41801">
        <ele>229.8</ele>
        <time>2021-08-20T11:55:25Z</time>
      </trkpt>
      <trkpt lat="46.63329" lon="5.41861">
        <ele>229.2</ele>
        <time>2021-08-20T11:55:32Z</time>
      </trkpt>
      <trkpt lat="46.63363" lon="5.41909">
        <ele>228.4</ele>
        <time>2021-08-20T11:55:38Z</time>
      </trkpt>
      <trkpt lat="46.63376" lon="5.41921">
        <ele>228</ele>
        <time>2021-08-20T11:55:40Z</time>
      </trkpt>
      <trkpt lat="46.63382" lon="5.41926">
        <ele>227.8</ele>
        <time>2021-08-20T11:55:41Z</time>
      </trkpt>
      <trkpt lat="46.63417" lon="5.41954">
        <ele>228.2</ele>
        <time>2021-08-20T11:55:47Z</time>
      </trkpt>
      <trkpt lat="46.63444" lon="5.41965">
        <ele>228.4</ele>
        <time>2021-08-20T11:55:51Z</time>
      </trkpt>
      <trkpt lat="46.63448" lon="5.41968">
        <ele>228.6</ele>
        <time>2021-08-20T11:55:52Z</time>
      </trkpt>
      <trkpt lat="46.6346" lon="5.41977">
        <ele>229</ele>
        <time>2021-08-20T11:55:54Z</time>
      </trkpt>
      <trkpt lat="46.63478" lon="5.41991">
        <ele>229.4</ele>
        <time>2021-08-20T11:55:57Z</time>
      </trkpt>
      <trkpt lat="46.6349" lon="5.42002">
        <ele>229.6</ele>
        <time>2021-08-20T11:55:59Z</time>
      </trkpt>
      <trkpt lat="46.63524" lon="5.42026">
        <ele>229.6</ele>
        <time>2021-08-20T11:56:05Z</time>
      </trkpt>
      <trkpt lat="46.63541" lon="5.42034">
        <ele>229.6</ele>
        <time>2021-08-20T11:56:08Z</time>
      </trkpt>
      <trkpt lat="46.63553" lon="5.42042">
        <ele>229.8</ele>
        <time>2021-08-20T11:56:10Z</time>
      </trkpt>
      <trkpt lat="46.63576" lon="5.42066">
        <ele>229.8</ele>
        <time>2021-08-20T11:56:14Z</time>
      </trkpt>
      <trkpt lat="46.6358" lon="5.42072">
        <ele>229.8</ele>
        <time>2021-08-20T11:56:15Z</time>
      </trkpt>
      <trkpt lat="46.63584" lon="5.4208">
        <ele>229.8</ele>
        <time>2021-08-20T11:56:16Z</time>
      </trkpt>
      <trkpt lat="46.63593" lon="5.42107">
        <ele>229.8</ele>
        <time>2021-08-20T11:56:19Z</time>
      </trkpt>
      <trkpt lat="46.63595" lon="5.42116">
        <ele>229.8</ele>
        <time>2021-08-20T11:56:20Z</time>
      </trkpt>
      <trkpt lat="46.63604" lon="5.42132">
        <ele>229.8</ele>
        <time>2021-08-20T11:56:22Z</time>
      </trkpt>
      <trkpt lat="46.6362" lon="5.42142">
        <ele>229.8</ele>
        <time>2021-08-20T11:56:25Z</time>
      </trkpt>
      <trkpt lat="46.63638" lon="5.42151">
        <ele>230</ele>
        <time>2021-08-20T11:56:28Z</time>
      </trkpt>
      <trkpt lat="46.63661" lon="5.4216">
        <ele>231</ele>
        <time>2021-08-20T11:56:32Z</time>
      </trkpt>
      <trkpt lat="46.63665" lon="5.42162">
        <ele>231</ele>
        <time>2021-08-20T11:56:33Z</time>
      </trkpt>
      <trkpt lat="46.63706" lon="5.42189">
        <ele>231.8</ele>
        <time>2021-08-20T11:56:40Z</time>
      </trkpt>
      <trkpt lat="46.63722" lon="5.42202">
        <ele>232</ele>
        <time>2021-08-20T11:56:43Z</time>
      </trkpt>
      <trkpt lat="46.63738" lon="5.42219">
        <ele>232.4</ele>
        <time>2021-08-20T11:56:46Z</time>
      </trkpt>
      <trkpt lat="46.63748" lon="5.42231">
        <ele>232.6</ele>
        <time>2021-08-20T11:56:48Z</time>
      </trkpt>
      <trkpt lat="46.63752" lon="5.42246">
        <ele>232.6</ele>
        <time>2021-08-20T11:56:50Z</time>
      </trkpt>
      <trkpt lat="46.63752" lon="5.42265">
        <ele>232.6</ele>
        <time>2021-08-20T11:56:52Z</time>
      </trkpt>
      <trkpt lat="46.63756" lon="5.42284">
        <ele>232.6</ele>
        <time>2021-08-20T11:56:54Z</time>
      </trkpt>
      <trkpt lat="46.63766" lon="5.42299">
        <ele>232.6</ele>
        <time>2021-08-20T11:56:56Z</time>
      </trkpt>
      <trkpt lat="46.63772" lon="5.42305">
        <ele>232.4</ele>
        <time>2021-08-20T11:56:57Z</time>
      </trkpt>
      <trkpt lat="46.638" lon="5.42332">
        <ele>232</ele>
        <time>2021-08-20T11:57:02Z</time>
      </trkpt>
      <trkpt lat="46.63804" lon="5.42336">
        <ele>231.6</ele>
        <time>2021-08-20T11:57:03Z</time>
      </trkpt>
      <trkpt lat="46.6381" lon="5.42343">
        <ele>231.6</ele>
        <time>2021-08-20T11:57:04Z</time>
      </trkpt>
      <trkpt lat="46.63827" lon="5.42368">
        <ele>232.2</ele>
        <time>2021-08-20T11:57:08Z</time>
      </trkpt>
      <trkpt lat="46.63862" lon="5.42432">
        <ele>233.2</ele>
        <time>2021-08-20T11:57:17Z</time>
      </trkpt>
      <trkpt lat="46.63885" lon="5.42479">
        <ele>233.2</ele>
        <time>2021-08-20T11:57:23Z</time>
      </trkpt>
      <trkpt lat="46.63887" lon="5.42489">
        <ele>233.2</ele>
        <time>2021-08-20T11:57:24Z</time>
      </trkpt>
      <trkpt lat="46.63892" lon="5.4251">
        <ele>233</ele>
        <time>2021-08-20T11:57:26Z</time>
      </trkpt>
      <trkpt lat="46.639" lon="5.42529">
        <ele>232.2</ele>
        <time>2021-08-20T11:57:28Z</time>
      </trkpt>
      <trkpt lat="46.63912" lon="5.42548">
        <ele>231.8</ele>
        <time>2021-08-20T11:57:30Z</time>
      </trkpt>
      <trkpt lat="46.6393" lon="5.42568">
        <ele>231.4</ele>
        <time>2021-08-20T11:57:33Z</time>
      </trkpt>
      <trkpt lat="46.63943" lon="5.42583">
        <ele>231</ele>
        <time>2021-08-20T11:57:35Z</time>
      </trkpt>
      <trkpt lat="46.63986" lon="5.42627">
        <ele>230</ele>
        <time>2021-08-20T11:57:42Z</time>
      </trkpt>
      <trkpt lat="46.63999" lon="5.4264">
        <ele>229.6</ele>
        <time>2021-08-20T11:57:44Z</time>
      </trkpt>
      <trkpt lat="46.64009" lon="5.42658">
        <ele>229.4</ele>
        <time>2021-08-20T11:57:46Z</time>
      </trkpt>
      <trkpt lat="46.64032" lon="5.42703">
        <ele>229</ele>
        <time>2021-08-20T11:57:51Z</time>
      </trkpt>
      <trkpt lat="46.64049" lon="5.42729">
        <ele>228.6</ele>
        <time>2021-08-20T11:57:54Z</time>
      </trkpt>
      <trkpt lat="46.64091" lon="5.42779">
        <ele>228.2</ele>
        <time>2021-08-20T11:58:01Z</time>
      </trkpt>
      <trkpt lat="46.64097" lon="5.42783">
        <ele>228</ele>
        <time>2021-08-20T11:58:02Z</time>
      </trkpt>
      <trkpt lat="46.64105" lon="5.42789">
        <ele>228</ele>
        <time>2021-08-20T11:58:03Z</time>
      </trkpt>
      <trkpt lat="46.64111" lon="5.42792">
        <ele>227.8</ele>
        <time>2021-08-20T11:58:04Z</time>
      </trkpt>
      <trkpt lat="46.64134" lon="5.42805">
        <ele>227.6</ele>
        <time>2021-08-20T11:58:07Z</time>
      </trkpt>
      <trkpt lat="46.64139" lon="5.4281">
        <ele>227.6</ele>
        <time>2021-08-20T11:58:08Z</time>
      </trkpt>
      <trkpt lat="46.64151" lon="5.42825">
        <ele>227.6</ele>
        <time>2021-08-20T11:58:10Z</time>
      </trkpt>
      <trkpt lat="46.64155" lon="5.42831">
        <ele>227.6</ele>
        <time>2021-08-20T11:58:11Z</time>
      </trkpt>
      <trkpt lat="46.64177" lon="5.42887">
        <ele>227.6</ele>
        <time>2021-08-20T11:58:17Z</time>
      </trkpt>
      <trkpt lat="46.64203" lon="5.42964">
        <ele>227.6</ele>
        <time>2021-08-20T11:58:25Z</time>
      </trkpt>
      <trkpt lat="46.64206" lon="5.42974">
        <ele>227.6</ele>
        <time>2021-08-20T11:58:26Z</time>
      </trkpt>
      <trkpt lat="46.64208" lon="5.42991">
        <ele>227.8</ele>
        <time>2021-08-20T11:58:28Z</time>
      </trkpt>
      <trkpt lat="46.64208" lon="5.43002">
        <ele>227.8</ele>
        <time>2021-08-20T11:58:29Z</time>
      </trkpt>
      <trkpt lat="46.64207" lon="5.43011">
        <ele>227.8</ele>
        <time>2021-08-20T11:58:30Z</time>
      </trkpt>
      <trkpt lat="46.642" lon="5.43039">
        <ele>228</ele>
        <time>2021-08-20T11:58:33Z</time>
      </trkpt>
      <trkpt lat="46.64185" lon="5.43099">
        <ele>228.8</ele>
        <time>2021-08-20T11:58:40Z</time>
      </trkpt>
      <trkpt lat="46.64185" lon="5.43106">
        <ele>229</ele>
        <time>2021-08-20T11:58:41Z</time>
      </trkpt>
      <trkpt lat="46.64186" lon="5.43133">
        <ele>229.4</ele>
        <time>2021-08-20T11:58:44Z</time>
      </trkpt>
      <trkpt lat="46.64188" lon="5.43142">
        <ele>229.6</ele>
        <time>2021-08-20T11:58:45Z</time>
      </trkpt>
      <trkpt lat="46.64196" lon="5.43169">
        <ele>229.8</ele>
        <time>2021-08-20T11:58:48Z</time>
      </trkpt>
      <trkpt lat="46.64202" lon="5.43185">
        <ele>229.8</ele>
        <time>2021-08-20T11:58:50Z</time>
      </trkpt>
      <trkpt lat="46.64222" lon="5.43228">
        <ele>229.8</ele>
        <time>2021-08-20T11:58:55Z</time>
      </trkpt>
      <trkpt lat="46.64254" lon="5.43286">
        <ele>228.4</ele>
        <time>2021-08-20T11:59:01Z</time>
      </trkpt>
      <trkpt lat="46.64292" lon="5.43348">
        <ele>227.6</ele>
        <time>2021-08-20T11:59:08Z</time>
      </trkpt>
      <trkpt lat="46.64304" lon="5.43366">
        <ele>226.8</ele>
        <time>2021-08-20T11:59:10Z</time>
      </trkpt>
      <trkpt lat="46.64312" lon="5.43376">
        <ele>226.8</ele>
        <time>2021-08-20T11:59:11Z</time>
      </trkpt>
      <trkpt lat="46.64317" lon="5.43383">
        <ele>226.4</ele>
        <time>2021-08-20T11:59:12Z</time>
      </trkpt>
      <trkpt lat="46.64338" lon="5.43406">
        <ele>225.8</ele>
        <time>2021-08-20T11:59:15Z</time>
      </trkpt>
      <trkpt lat="46.64351" lon="5.43415">
        <ele>225.2</ele>
        <time>2021-08-20T11:59:17Z</time>
      </trkpt>
      <trkpt lat="46.64373" lon="5.43427">
        <ele>225</ele>
        <time>2021-08-20T11:59:20Z</time>
      </trkpt>
      <trkpt lat="46.64425" lon="5.43443">
        <ele>225.2</ele>
        <time>2021-08-20T11:59:27Z</time>
      </trkpt>
      <trkpt lat="46.64447" lon="5.43452">
        <ele>225.8</ele>
        <time>2021-08-20T11:59:30Z</time>
      </trkpt>
      <trkpt lat="46.64459" lon="5.43461">
        <ele>225.8</ele>
        <time>2021-08-20T11:59:32Z</time>
      </trkpt>
      <trkpt lat="46.64482" lon="5.43481">
        <ele>226.2</ele>
        <time>2021-08-20T11:59:36Z</time>
      </trkpt>
      <trkpt lat="46.64495" lon="5.43493">
        <ele>226.4</ele>
        <time>2021-08-20T11:59:38Z</time>
      </trkpt>
      <trkpt lat="46.64501" lon="5.43499">
        <ele>226.4</ele>
        <time>2021-08-20T11:59:39Z</time>
      </trkpt>
      <trkpt lat="46.64537" lon="5.43534">
        <ele>226.6</ele>
        <time>2021-08-20T11:59:45Z</time>
      </trkpt>
      <trkpt lat="46.64567" lon="5.43565">
        <ele>226.6</ele>
        <time>2021-08-20T11:59:50Z</time>
      </trkpt>
      <trkpt lat="46.64574" lon="5.4357">
        <ele>226.6</ele>
        <time>2021-08-20T11:59:51Z</time>
      </trkpt>
      <trkpt lat="46.64585" lon="5.43575">
        <ele>226.6</ele>
        <time>2021-08-20T11:59:53Z</time>
      </trkpt>
      <trkpt lat="46.64599" lon="5.43578">
        <ele>226.8</ele>
        <time>2021-08-20T11:59:55Z</time>
      </trkpt>
      <trkpt lat="46.64606" lon="5.4358">
        <ele>226.8</ele>
        <time>2021-08-20T11:59:56Z</time>
      </trkpt>
      <trkpt lat="46.64616" lon="5.43585">
        <ele>227.2</ele>
        <time>2021-08-20T11:59:58Z</time>
      </trkpt>
      <trkpt lat="46.64629" lon="5.43592">
        <ele>228</ele>
        <time>2021-08-20T12:00:00Z</time>
      </trkpt>
      <trkpt lat="46.64639" lon="5.436">
        <ele>228.4</ele>
        <time>2021-08-20T12:00:02Z</time>
      </trkpt>
      <trkpt lat="46.64661" lon="5.43618">
        <ele>229.4</ele>
        <time>2021-08-20T12:00:06Z</time>
      </trkpt>
      <trkpt lat="46.64665" lon="5.43621">
        <ele>229.6</ele>
        <time>2021-08-20T12:00:07Z</time>
      </trkpt>
      <trkpt lat="46.64697" lon="5.43645">
        <ele>230.6</ele>
        <time>2021-08-20T12:00:13Z</time>
      </trkpt>
      <trkpt lat="46.64708" lon="5.43651">
        <ele>231</ele>
        <time>2021-08-20T12:00:15Z</time>
      </trkpt>
      <trkpt lat="46.64728" lon="5.43662">
        <ele>231.6</ele>
        <time>2021-08-20T12:00:19Z</time>
      </trkpt>
      <trkpt lat="46.64737" lon="5.43667">
        <ele>232</ele>
        <time>2021-08-20T12:00:21Z</time>
      </trkpt>
      <trkpt lat="46.64753" lon="5.43676">
        <ele>232.8</ele>
        <time>2021-08-20T12:00:24Z</time>
      </trkpt>
      <trkpt lat="46.64776" lon="5.43692">
        <ele>233.4</ele>
        <time>2021-08-20T12:00:28Z</time>
      </trkpt>
      <trkpt lat="46.64781" lon="5.43698">
        <ele>233.4</ele>
        <time>2021-08-20T12:00:29Z</time>
      </trkpt>
      <trkpt lat="46.64789" lon="5.43709">
        <ele>233.6</ele>
        <time>2021-08-20T12:00:31Z</time>
      </trkpt>
      <trkpt lat="46.64792" lon="5.43716">
        <ele>233.6</ele>
        <time>2021-08-20T12:00:32Z</time>
      </trkpt>
      <trkpt lat="46.64796" lon="5.43725">
        <ele>233.6</ele>
        <time>2021-08-20T12:00:33Z</time>
      </trkpt>
      <trkpt lat="46.64804" lon="5.43751">
        <ele>233.4</ele>
        <time>2021-08-20T12:00:36Z</time>
      </trkpt>
      <trkpt lat="46.6481" lon="5.43781">
        <ele>233</ele>
        <time>2021-08-20T12:00:39Z</time>
      </trkpt>
      <trkpt lat="46.64814" lon="5.4379">
        <ele>232.8</ele>
        <time>2021-08-20T12:00:40Z</time>
      </trkpt>
      <trkpt lat="46.64817" lon="5.43799">
        <ele>232.8</ele>
        <time>2021-08-20T12:00:41Z</time>
      </trkpt>
      <trkpt lat="46.64827" lon="5.43816">
        <ele>232.6</ele>
        <time>2021-08-20T12:00:43Z</time>
      </trkpt>
      <trkpt lat="46.64838" lon="5.4383">
        <ele>232.2</ele>
        <time>2021-08-20T12:00:45Z</time>
      </trkpt>
      <trkpt lat="46.64858" lon="5.43847">
        <ele>231.8</ele>
        <time>2021-08-20T12:00:48Z</time>
      </trkpt>
      <trkpt lat="46.64872" lon="5.43856">
        <ele>231.6</ele>
        <time>2021-08-20T12:00:50Z</time>
      </trkpt>
      <trkpt lat="46.64885" lon="5.43868">
        <ele>231.2</ele>
        <time>2021-08-20T12:00:52Z</time>
      </trkpt>
      <trkpt lat="46.64899" lon="5.43884">
        <ele>231</ele>
        <time>2021-08-20T12:00:54Z</time>
      </trkpt>
      <trkpt lat="46.64919" lon="5.43897">
        <ele>230.8</ele>
        <time>2021-08-20T12:00:57Z</time>
      </trkpt>
      <trkpt lat="46.64937" lon="5.43914">
        <ele>230.8</ele>
        <time>2021-08-20T12:01:00Z</time>
      </trkpt>
      <trkpt lat="46.64982" lon="5.4396">
        <ele>231.4</ele>
        <time>2021-08-20T12:01:08Z</time>
      </trkpt>
      <trkpt lat="46.64999" lon="5.43977">
        <ele>231.8</ele>
        <time>2021-08-20T12:01:11Z</time>
      </trkpt>
      <trkpt lat="46.65005" lon="5.43982">
        <ele>232</ele>
        <time>2021-08-20T12:01:12Z</time>
      </trkpt>
      <trkpt lat="46.65016" lon="5.43994">
        <ele>232.6</ele>
        <time>2021-08-20T12:01:14Z</time>
      </trkpt>
      <trkpt lat="46.65034" lon="5.44008">
        <ele>232.8</ele>
        <time>2021-08-20T12:01:17Z</time>
      </trkpt>
      <trkpt lat="46.65046" lon="5.44013">
        <ele>233.2</ele>
        <time>2021-08-20T12:01:19Z</time>
      </trkpt>
      <trkpt lat="46.65083" lon="5.44016">
        <ele>234</ele>
        <time>2021-08-20T12:01:25Z</time>
      </trkpt>
      <trkpt lat="46.65096" lon="5.4402">
        <ele>234</ele>
        <time>2021-08-20T12:01:27Z</time>
      </trkpt>
      <trkpt lat="46.65102" lon="5.44023">
        <ele>234.4</ele>
        <time>2021-08-20T12:01:28Z</time>
      </trkpt>
      <trkpt lat="46.65107" lon="5.44028">
        <ele>234.4</ele>
        <time>2021-08-20T12:01:29Z</time>
      </trkpt>
      <trkpt lat="46.65112" lon="5.44033">
        <ele>234.6</ele>
        <time>2021-08-20T12:01:30Z</time>
      </trkpt>
      <trkpt lat="46.65136" lon="5.44064">
        <ele>234.8</ele>
        <time>2021-08-20T12:01:35Z</time>
      </trkpt>
      <trkpt lat="46.65175" lon="5.44121">
        <ele>234.8</ele>
        <time>2021-08-20T12:01:43Z</time>
      </trkpt>
      <trkpt lat="46.65214" lon="5.44186">
        <ele>234.6</ele>
        <time>2021-08-20T12:01:52Z</time>
      </trkpt>
      <trkpt lat="46.65252" lon="5.44237">
        <ele>234.2</ele>
        <time>2021-08-20T12:02:00Z</time>
      </trkpt>
      <trkpt lat="46.65285" lon="5.44264">
        <ele>234</ele>
        <time>2021-08-20T12:02:06Z</time>
      </trkpt>
      <trkpt lat="46.65332" lon="5.44296">
        <ele>234.2</ele>
        <time>2021-08-20T12:02:14Z</time>
      </trkpt>
      <trkpt lat="46.65368" lon="5.44332">
        <ele>234.2</ele>
        <time>2021-08-20T12:02:21Z</time>
      </trkpt>
      <trkpt lat="46.65373" lon="5.44338">
        <ele>234.2</ele>
        <time>2021-08-20T12:02:22Z</time>
      </trkpt>
      <trkpt lat="46.65399" lon="5.44367">
        <ele>234</ele>
        <time>2021-08-20T12:02:27Z</time>
      </trkpt>
      <trkpt lat="46.65437" lon="5.44424">
        <ele>233.6</ele>
        <time>2021-08-20T12:02:35Z</time>
      </trkpt>
      <trkpt lat="46.65451" lon="5.44446">
        <ele>233.6</ele>
        <time>2021-08-20T12:02:38Z</time>
      </trkpt>
      <trkpt lat="46.65463" lon="5.44458">
        <ele>233.4</ele>
        <time>2021-08-20T12:02:40Z</time>
      </trkpt>
      <trkpt lat="46.65502" lon="5.44483">
        <ele>233.6</ele>
        <time>2021-08-20T12:02:46Z</time>
      </trkpt>
      <trkpt lat="46.65534" lon="5.44498">
        <ele>233.8</ele>
        <time>2021-08-20T12:02:51Z</time>
      </trkpt>
      <trkpt lat="46.65541" lon="5.44499">
        <ele>233.8</ele>
        <time>2021-08-20T12:02:52Z</time>
      </trkpt>
      <trkpt lat="46.65567" lon="5.44505">
        <ele>234</ele>
        <time>2021-08-20T12:02:56Z</time>
      </trkpt>
      <trkpt lat="46.65579" lon="5.44513">
        <ele>234</ele>
        <time>2021-08-20T12:02:58Z</time>
      </trkpt>
      <trkpt lat="46.6562" lon="5.44558">
        <ele>234.8</ele>
        <time>2021-08-20T12:03:06Z</time>
      </trkpt>
      <trkpt lat="46.65664" lon="5.44612">
        <ele>235.4</ele>
        <time>2021-08-20T12:03:15Z</time>
      </trkpt>
      <trkpt lat="46.65678" lon="5.44632">
        <ele>235.8</ele>
        <time>2021-08-20T12:03:18Z</time>
      </trkpt>
      <trkpt lat="46.65693" lon="5.44652">
        <ele>235.4</ele>
        <time>2021-08-20T12:03:21Z</time>
      </trkpt>
      <trkpt lat="46.65722" lon="5.447">
        <ele>235.4</ele>
        <time>2021-08-20T12:03:28Z</time>
      </trkpt>
      <trkpt lat="46.65728" lon="5.44718">
        <ele>235.4</ele>
        <time>2021-08-20T12:03:30Z</time>
      </trkpt>
      <trkpt lat="46.65731" lon="5.44736">
        <ele>235.4</ele>
        <time>2021-08-20T12:03:32Z</time>
      </trkpt>
      <trkpt lat="46.65744" lon="5.44809">
        <ele>236.4</ele>
        <time>2021-08-20T12:03:40Z</time>
      </trkpt>
      <trkpt lat="46.65746" lon="5.44818">
        <ele>236.4</ele>
        <time>2021-08-20T12:03:41Z</time>
      </trkpt>
      <trkpt lat="46.6576" lon="5.44874">
        <ele>236.2</ele>
        <time>2021-08-20T12:03:47Z</time>
      </trkpt>
      <trkpt lat="46.65762" lon="5.44894">
        <ele>236</ele>
        <time>2021-08-20T12:03:49Z</time>
      </trkpt>
      <trkpt lat="46.65764" lon="5.44926">
        <ele>235.8</ele>
        <time>2021-08-20T12:03:52Z</time>
      </trkpt>
      <trkpt lat="46.65768" lon="5.44991">
        <ele>235.2</ele>
        <time>2021-08-20T12:03:58Z</time>
      </trkpt>
      <trkpt lat="46.6577" lon="5.45002">
        <ele>235</ele>
        <time>2021-08-20T12:03:59Z</time>
      </trkpt>
      <trkpt lat="46.65777" lon="5.45021">
        <ele>234.8</ele>
        <time>2021-08-20T12:04:01Z</time>
      </trkpt>
      <trkpt lat="46.65782" lon="5.4503">
        <ele>234.6</ele>
        <time>2021-08-20T12:04:02Z</time>
      </trkpt>
      <trkpt lat="46.65795" lon="5.45046">
        <ele>234.2</ele>
        <time>2021-08-20T12:04:04Z</time>
      </trkpt>
      <trkpt lat="46.65815" lon="5.45068">
        <ele>233.2</ele>
        <time>2021-08-20T12:04:07Z</time>
      </trkpt>
      <trkpt lat="46.65821" lon="5.45075">
        <ele>232.6</ele>
        <time>2021-08-20T12:04:08Z</time>
      </trkpt>
      <trkpt lat="46.65857" lon="5.45113">
        <ele>232</ele>
        <time>2021-08-20T12:04:14Z</time>
      </trkpt>
      <trkpt lat="46.65889" lon="5.45151">
        <ele>233.8</ele>
        <time>2021-08-20T12:04:20Z</time>
      </trkpt>
      <trkpt lat="46.65893" lon="5.45157">
        <ele>234</ele>
        <time>2021-08-20T12:04:21Z</time>
      </trkpt>
      <trkpt lat="46.65908" lon="5.45176">
        <ele>234.8</ele>
        <time>2021-08-20T12:04:24Z</time>
      </trkpt>
      <trkpt lat="46.65918" lon="5.45188">
        <ele>235.2</ele>
        <time>2021-08-20T12:04:26Z</time>
      </trkpt>
      <trkpt lat="46.6596" lon="5.4523">
        <ele>235.6</ele>
        <time>2021-08-20T12:04:34Z</time>
      </trkpt>
      <trkpt lat="46.65971" lon="5.45242">
        <ele>235.6</ele>
        <time>2021-08-20T12:04:36Z</time>
      </trkpt>
      <trkpt lat="46.65983" lon="5.45265">
        <ele>235.2</ele>
        <time>2021-08-20T12:04:39Z</time>
      </trkpt>
      <trkpt lat="46.65991" lon="5.45285">
        <ele>235</ele>
        <time>2021-08-20T12:04:41Z</time>
      </trkpt>
      <trkpt lat="46.66" lon="5.45311">
        <ele>234.6</ele>
        <time>2021-08-20T12:04:44Z</time>
      </trkpt>
      <trkpt lat="46.66023" lon="5.45351">
        <ele>234.8</ele>
        <time>2021-08-20T12:04:49Z</time>
      </trkpt>
      <trkpt lat="46.6606" lon="5.45413">
        <ele>235</ele>
        <time>2021-08-20T12:04:57Z</time>
      </trkpt>
      <trkpt lat="46.66065" lon="5.45421">
        <ele>235</ele>
        <time>2021-08-20T12:04:58Z</time>
      </trkpt>
      <trkpt lat="46.66101" lon="5.45464">
        <ele>234.6</ele>
        <time>2021-08-20T12:05:04Z</time>
      </trkpt>
      <trkpt lat="46.66118" lon="5.45476">
        <ele>234.4</ele>
        <time>2021-08-20T12:05:06Z</time>
      </trkpt>
      <trkpt lat="46.66139" lon="5.45487">
        <ele>233.4</ele>
        <time>2021-08-20T12:05:09Z</time>
      </trkpt>
      <trkpt lat="46.66189" lon="5.45507">
        <ele>232.2</ele>
        <time>2021-08-20T12:05:15Z</time>
      </trkpt>
      <trkpt lat="46.66221" lon="5.4552">
        <ele>232</ele>
        <time>2021-08-20T12:05:19Z</time>
      </trkpt>
      <trkpt lat="46.66264" lon="5.45548">
        <ele>231.4</ele>
        <time>2021-08-20T12:05:25Z</time>
      </trkpt>
      <trkpt lat="46.66295" lon="5.45577">
        <ele>231</ele>
        <time>2021-08-20T12:05:30Z</time>
      </trkpt>
      <trkpt lat="46.66312" lon="5.45595">
        <ele>231</ele>
        <time>2021-08-20T12:05:33Z</time>
      </trkpt>
      <trkpt lat="46.66342" lon="5.45638">
        <ele>231</ele>
        <time>2021-08-20T12:05:39Z</time>
      </trkpt>
      <trkpt lat="46.66373" lon="5.45697">
        <ele>230.6</ele>
        <time>2021-08-20T12:05:46Z</time>
      </trkpt>
      <trkpt lat="46.66395" lon="5.45744">
        <ele>229.6</ele>
        <time>2021-08-20T12:05:51Z</time>
      </trkpt>
      <trkpt lat="46.664" lon="5.45753">
        <ele>229.6</ele>
        <time>2021-08-20T12:05:52Z</time>
      </trkpt>
      <trkpt lat="46.66435" lon="5.45824">
        <ele>229</ele>
        <time>2021-08-20T12:06:00Z</time>
      </trkpt>
      <trkpt lat="46.66447" lon="5.45848">
        <ele>229</ele>
        <time>2021-08-20T12:06:03Z</time>
      </trkpt>
      <trkpt lat="46.66483" lon="5.4592">
        <ele>230</ele>
        <time>2021-08-20T12:06:11Z</time>
      </trkpt>
      <trkpt lat="46.66486" lon="5.45927">
        <ele>229.8</ele>
        <time>2021-08-20T12:06:12Z</time>
      </trkpt>
      <trkpt lat="46.665" lon="5.45936">
        <ele>230</ele>
        <time>2021-08-20T12:06:14Z</time>
      </trkpt>
      <trkpt lat="46.66513" lon="5.4593">
        <ele>230.2</ele>
        <time>2021-08-20T12:06:16Z</time>
      </trkpt>
      <trkpt lat="46.66519" lon="5.45925">
        <ele>230.2</ele>
        <time>2021-08-20T12:06:17Z</time>
      </trkpt>
      <trkpt lat="46.66557" lon="5.45897">
        <ele>230.8</ele>
        <time>2021-08-20T12:06:23Z</time>
      </trkpt>
      <trkpt lat="46.66576" lon="5.45884">
        <ele>231.2</ele>
        <time>2021-08-20T12:06:26Z</time>
      </trkpt>
      <trkpt lat="46.66617" lon="5.45855">
        <ele>231.8</ele>
        <time>2021-08-20T12:06:33Z</time>
      </trkpt>
      <trkpt lat="46.66628" lon="5.45848">
        <ele>232.2</ele>
        <time>2021-08-20T12:06:35Z</time>
      </trkpt>
      <trkpt lat="46.6665" lon="5.45837">
        <ele>232.8</ele>
        <time>2021-08-20T12:06:39Z</time>
      </trkpt>
      <trkpt lat="46.66656" lon="5.45834">
        <ele>233.2</ele>
        <time>2021-08-20T12:06:40Z</time>
      </trkpt>
      <trkpt lat="46.66669" lon="5.45829">
        <ele>233.8</ele>
        <time>2021-08-20T12:06:42Z</time>
      </trkpt>
      <trkpt lat="46.66698" lon="5.45819">
        <ele>234.4</ele>
        <time>2021-08-20T12:06:47Z</time>
      </trkpt>
      <trkpt lat="46.66704" lon="5.45818">
        <ele>234.4</ele>
        <time>2021-08-20T12:06:48Z</time>
      </trkpt>
      <trkpt lat="46.66739" lon="5.45806">
        <ele>235.4</ele>
        <time>2021-08-20T12:06:54Z</time>
      </trkpt>
      <trkpt lat="46.66745" lon="5.45804">
        <ele>235.6</ele>
        <time>2021-08-20T12:06:55Z</time>
      </trkpt>
      <trkpt lat="46.66801" lon="5.45796">
        <ele>236</ele>
        <time>2021-08-20T12:07:04Z</time>
      </trkpt>
      <trkpt lat="46.66813" lon="5.45802">
        <ele>236.2</ele>
        <time>2021-08-20T12:07:06Z</time>
      </trkpt>
      <trkpt lat="46.66824" lon="5.45813">
        <ele>236.2</ele>
        <time>2021-08-20T12:07:08Z</time>
      </trkpt>
      <trkpt lat="46.66829" lon="5.4582">
        <ele>236.4</ele>
        <time>2021-08-20T12:07:09Z</time>
      </trkpt>
      <trkpt lat="46.66853" lon="5.45862">
        <ele>236.8</ele>
        <time>2021-08-20T12:07:15Z</time>
      </trkpt>
      <trkpt lat="46.66885" lon="5.45934">
        <ele>237.2</ele>
        <time>2021-08-20T12:07:24Z</time>
      </trkpt>
      <trkpt lat="46.66893" lon="5.45948">
        <ele>236.8</ele>
        <time>2021-08-20T12:07:26Z</time>
      </trkpt>
      <trkpt lat="46.66902" lon="5.4596">
        <ele>236.8</ele>
        <time>2021-08-20T12:07:28Z</time>
      </trkpt>
      <trkpt lat="46.66907" lon="5.45965">
        <ele>236.8</ele>
        <time>2021-08-20T12:07:29Z</time>
      </trkpt>
      <trkpt lat="46.66932" lon="5.45982">
        <ele>237.2</ele>
        <time>2021-08-20T12:07:33Z</time>
      </trkpt>
      <trkpt lat="46.66945" lon="5.45988">
        <ele>237.4</ele>
        <time>2021-08-20T12:07:35Z</time>
      </trkpt>
      <trkpt lat="46.66962" lon="5.45997">
        <ele>237.6</ele>
        <time>2021-08-20T12:07:38Z</time>
      </trkpt>
      <trkpt lat="46.67003" lon="5.46023">
        <ele>238</ele>
        <time>2021-08-20T12:07:45Z</time>
      </trkpt>
      <trkpt lat="46.67039" lon="5.46046">
        <ele>238.2</ele>
        <time>2021-08-20T12:07:51Z</time>
      </trkpt>
      <trkpt lat="46.6707" lon="5.46049">
        <ele>238</ele>
        <time>2021-08-20T12:07:56Z</time>
      </trkpt>
      <trkpt lat="46.6712" lon="5.46045">
        <ele>237.8</ele>
        <time>2021-08-20T12:08:04Z</time>
      </trkpt>
      <trkpt lat="46.67159" lon="5.46045">
        <ele>237.8</ele>
        <time>2021-08-20T12:08:11Z</time>
      </trkpt>
      <trkpt lat="46.67166" lon="5.46048">
        <ele>238</ele>
        <time>2021-08-20T12:08:14Z</time>
      </trkpt>
      <trkpt lat="46.67166" lon="5.46047">
        <ele>238.2</ele>
        <time>2021-08-20T12:08:16Z</time>
      </trkpt>
      <trkpt lat="46.67167" lon="5.46049">
        <ele>238.8</ele>
        <time>2021-08-20T12:08:51Z</time>
      </trkpt>
      <trkpt lat="46.67173" lon="5.46053">
        <ele>238.8</ele>
        <time>2021-08-20T12:08:53Z</time>
      </trkpt>
      <trkpt lat="46.67182" lon="5.46052">
        <ele>238.8</ele>
        <time>2021-08-20T12:08:55Z</time>
      </trkpt>
      <trkpt lat="46.67193" lon="5.46051">
        <ele>238.6</ele>
        <time>2021-08-20T12:08:57Z</time>
      </trkpt>
      <trkpt lat="46.67205" lon="5.46053">
        <ele>238.6</ele>
        <time>2021-08-20T12:08:59Z</time>
      </trkpt>
      <trkpt lat="46.67236" lon="5.46069">
        <ele>238.6</ele>
        <time>2021-08-20T12:09:04Z</time>
      </trkpt>
      <trkpt lat="46.67291" lon="5.46096">
        <ele>238.4</ele>
        <time>2021-08-20T12:09:12Z</time>
      </trkpt>
      <trkpt lat="46.67347" lon="5.46125">
        <ele>238.4</ele>
        <time>2021-08-20T12:09:20Z</time>
      </trkpt>
      <trkpt lat="46.67354" lon="5.46128">
        <ele>238.4</ele>
        <time>2021-08-20T12:09:21Z</time>
      </trkpt>
      <trkpt lat="46.6741" lon="5.46156">
        <ele>239.2</ele>
        <time>2021-08-20T12:09:29Z</time>
      </trkpt>
      <trkpt lat="46.67431" lon="5.46166">
        <ele>239.4</ele>
        <time>2021-08-20T12:09:32Z</time>
      </trkpt>
      <trkpt lat="46.67488" lon="5.46193">
        <ele>239.8</ele>
        <time>2021-08-20T12:09:40Z</time>
      </trkpt>
      <trkpt lat="46.67524" lon="5.4621">
        <ele>239</ele>
        <time>2021-08-20T12:09:45Z</time>
      </trkpt>
      <trkpt lat="46.6758" lon="5.46238">
        <ele>239.4</ele>
        <time>2021-08-20T12:09:53Z</time>
      </trkpt>
      <trkpt lat="46.67602" lon="5.46249">
        <ele>239.6</ele>
        <time>2021-08-20T12:09:56Z</time>
      </trkpt>
      <trkpt lat="46.67658" lon="5.46276">
        <ele>239.2</ele>
        <time>2021-08-20T12:10:04Z</time>
      </trkpt>
      <trkpt lat="46.67687" lon="5.46289">
        <ele>239.4</ele>
        <time>2021-08-20T12:10:08Z</time>
      </trkpt>
      <trkpt lat="46.67741" lon="5.46314">
        <ele>239.8</ele>
        <time>2021-08-20T12:10:16Z</time>
      </trkpt>
      <trkpt lat="46.67768" lon="5.46327">
        <ele>240</ele>
        <time>2021-08-20T12:10:20Z</time>
      </trkpt>
      <trkpt lat="46.67794" lon="5.46341">
        <ele>240</ele>
        <time>2021-08-20T12:10:24Z</time>
      </trkpt>
      <trkpt lat="46.67828" lon="5.46357">
        <ele>240.6</ele>
        <time>2021-08-20T12:10:29Z</time>
      </trkpt>
      <trkpt lat="46.67881" lon="5.46385">
        <ele>240.2</ele>
        <time>2021-08-20T12:10:37Z</time>
      </trkpt>
      <trkpt lat="46.67902" lon="5.46395">
        <ele>239.8</ele>
        <time>2021-08-20T12:10:40Z</time>
      </trkpt>
      <trkpt lat="46.67958" lon="5.46423">
        <ele>239.8</ele>
        <time>2021-08-20T12:10:48Z</time>
      </trkpt>
      <trkpt lat="46.67979" lon="5.46433">
        <ele>239.8</ele>
        <time>2021-08-20T12:10:51Z</time>
      </trkpt>
      <trkpt lat="46.67999" lon="5.46443">
        <ele>239.8</ele>
        <time>2021-08-20T12:10:54Z</time>
      </trkpt>
      <trkpt lat="46.68056" lon="5.46471">
        <ele>240.2</ele>
        <time>2021-08-20T12:11:02Z</time>
      </trkpt>
      <trkpt lat="46.68078" lon="5.46482">
        <ele>239.6</ele>
        <time>2021-08-20T12:11:05Z</time>
      </trkpt>
      <trkpt lat="46.6813" lon="5.46508">
        <ele>239.4</ele>
        <time>2021-08-20T12:11:12Z</time>
      </trkpt>
      <trkpt lat="46.68152" lon="5.46518">
        <ele>239</ele>
        <time>2021-08-20T12:11:15Z</time>
      </trkpt>
      <trkpt lat="46.68201" lon="5.46552">
        <ele>238.4</ele>
        <time>2021-08-20T12:11:22Z</time>
      </trkpt>
      <trkpt lat="46.68215" lon="5.46563">
        <ele>238.2</ele>
        <time>2021-08-20T12:11:24Z</time>
      </trkpt>
      <trkpt lat="46.68268" lon="5.46605">
        <ele>238</ele>
        <time>2021-08-20T12:11:31Z</time>
      </trkpt>
      <trkpt lat="46.68276" lon="5.46611">
        <ele>237.8</ele>
        <time>2021-08-20T12:11:32Z</time>
      </trkpt>
      <trkpt lat="46.683" lon="5.46631">
        <ele>236.6</ele>
        <time>2021-08-20T12:11:35Z</time>
      </trkpt>
      <trkpt lat="46.68317" lon="5.46645">
        <ele>235.4</ele>
        <time>2021-08-20T12:11:37Z</time>
      </trkpt>
      <trkpt lat="46.68326" lon="5.46653">
        <ele>235</ele>
        <time>2021-08-20T12:11:38Z</time>
      </trkpt>
      <trkpt lat="46.68342" lon="5.4667">
        <ele>234.4</ele>
        <time>2021-08-20T12:11:40Z</time>
      </trkpt>
      <trkpt lat="46.68364" lon="5.46699">
        <ele>232.8</ele>
        <time>2021-08-20T12:11:43Z</time>
      </trkpt>
      <trkpt lat="46.68371" lon="5.46708">
        <ele>232.6</ele>
        <time>2021-08-20T12:11:44Z</time>
      </trkpt>
      <trkpt lat="46.6839" lon="5.46737">
        <ele>232.2</ele>
        <time>2021-08-20T12:11:47Z</time>
      </trkpt>
      <trkpt lat="46.6841" lon="5.46771">
        <ele>232.4</ele>
        <time>2021-08-20T12:11:51Z</time>
      </trkpt>
      <trkpt lat="46.68432" lon="5.46808">
        <ele>234</ele>
        <time>2021-08-20T12:11:56Z</time>
      </trkpt>
      <trkpt lat="46.68441" lon="5.46823">
        <ele>234.4</ele>
        <time>2021-08-20T12:11:58Z</time>
      </trkpt>
      <trkpt lat="46.68457" lon="5.46851">
        <ele>235.2</ele>
        <time>2021-08-20T12:12:02Z</time>
      </trkpt>
      <trkpt lat="46.68473" lon="5.46881">
        <ele>236</ele>
        <time>2021-08-20T12:12:06Z</time>
      </trkpt>
      <trkpt lat="46.68477" lon="5.46888">
        <ele>236.2</ele>
        <time>2021-08-20T12:12:07Z</time>
      </trkpt>
      <trkpt lat="46.68507" lon="5.4694">
        <ele>237</ele>
        <time>2021-08-20T12:12:14Z</time>
      </trkpt>
      <trkpt lat="46.68526" lon="5.46975">
        <ele>237.4</ele>
        <time>2021-08-20T12:12:19Z</time>
      </trkpt>
      <trkpt lat="46.68542" lon="5.47002">
        <ele>238</ele>
        <time>2021-08-20T12:12:23Z</time>
      </trkpt>
      <trkpt lat="46.68562" lon="5.47037">
        <ele>238.4</ele>
        <time>2021-08-20T12:12:28Z</time>
      </trkpt>
      <trkpt lat="46.68591" lon="5.4709">
        <ele>239</ele>
        <time>2021-08-20T12:12:35Z</time>
      </trkpt>
      <trkpt lat="46.68612" lon="5.47128">
        <ele>239.4</ele>
        <time>2021-08-20T12:12:40Z</time>
      </trkpt>
      <trkpt lat="46.68634" lon="5.47167">
        <ele>239</ele>
        <time>2021-08-20T12:12:45Z</time>
      </trkpt>
      <trkpt lat="46.6867" lon="5.47233">
        <ele>238.8</ele>
        <time>2021-08-20T12:12:53Z</time>
      </trkpt>
      <trkpt lat="46.68684" lon="5.4726">
        <ele>239</ele>
        <time>2021-08-20T12:12:56Z</time>
      </trkpt>
      <trkpt lat="46.68712" lon="5.47314">
        <ele>238.2</ele>
        <time>2021-08-20T12:13:02Z</time>
      </trkpt>
      <trkpt lat="46.68724" lon="5.47331">
        <ele>238</ele>
        <time>2021-08-20T12:13:04Z</time>
      </trkpt>
      <trkpt lat="46.68738" lon="5.47344">
        <ele>237.6</ele>
        <time>2021-08-20T12:13:06Z</time>
      </trkpt>
      <trkpt lat="46.68745" lon="5.47347">
        <ele>237.4</ele>
        <time>2021-08-20T12:13:07Z</time>
      </trkpt>
      <trkpt lat="46.68753" lon="5.47349">
        <ele>237</ele>
        <time>2021-08-20T12:13:08Z</time>
      </trkpt>
      <trkpt lat="46.68779" lon="5.47351">
        <ele>236.4</ele>
        <time>2021-08-20T12:13:11Z</time>
      </trkpt>
      <trkpt lat="46.68825" lon="5.47361">
        <ele>236.4</ele>
        <time>2021-08-20T12:13:17Z</time>
      </trkpt>
      <trkpt lat="46.68846" lon="5.47373">
        <ele>236.6</ele>
        <time>2021-08-20T12:13:20Z</time>
      </trkpt>
      <trkpt lat="46.68852" lon="5.47377">
        <ele>236.8</ele>
        <time>2021-08-20T12:13:21Z</time>
      </trkpt>
      <trkpt lat="46.68869" lon="5.47393">
        <ele>237.6</ele>
        <time>2021-08-20T12:13:24Z</time>
      </trkpt>
      <trkpt lat="46.68889" lon="5.47416">
        <ele>238.2</ele>
        <time>2021-08-20T12:13:28Z</time>
      </trkpt>
      <trkpt lat="46.68906" lon="5.4744">
        <ele>239.4</ele>
        <time>2021-08-20T12:13:32Z</time>
      </trkpt>
      <trkpt lat="46.68915" lon="5.47452">
        <ele>239.6</ele>
        <time>2021-08-20T12:13:34Z</time>
      </trkpt>
      <trkpt lat="46.68927" lon="5.47472">
        <ele>240.6</ele>
        <time>2021-08-20T12:13:37Z</time>
      </trkpt>
      <trkpt lat="46.68948" lon="5.47507">
        <ele>241.2</ele>
        <time>2021-08-20T12:13:42Z</time>
      </trkpt>
      <trkpt lat="46.68989" lon="5.47572">
        <ele>241.6</ele>
        <time>2021-08-20T12:13:51Z</time>
      </trkpt>
      <trkpt lat="46.68998" lon="5.47587">
        <ele>241.4</ele>
        <time>2021-08-20T12:13:53Z</time>
      </trkpt>
      <trkpt lat="46.69035" lon="5.47648">
        <ele>240.8</ele>
        <time>2021-08-20T12:14:01Z</time>
      </trkpt>
      <trkpt lat="46.6904" lon="5.47656">
        <ele>240.8</ele>
        <time>2021-08-20T12:14:02Z</time>
      </trkpt>
      <trkpt lat="46.69074" lon="5.47711">
        <ele>240.8</ele>
        <time>2021-08-20T12:14:09Z</time>
      </trkpt>
      <trkpt lat="46.69114" lon="5.47775">
        <ele>241.4</ele>
        <time>2021-08-20T12:14:17Z</time>
      </trkpt>
      <trkpt lat="46.69124" lon="5.47791">
        <ele>241.4</ele>
        <time>2021-08-20T12:14:19Z</time>
      </trkpt>
      <trkpt lat="46.69161" lon="5.47849">
        <ele>241.4</ele>
        <time>2021-08-20T12:14:26Z</time>
      </trkpt>
      <trkpt lat="46.69172" lon="5.47867">
        <ele>241</ele>
        <time>2021-08-20T12:14:28Z</time>
      </trkpt>
      <trkpt lat="46.69212" lon="5.47933">
        <ele>240</ele>
        <time>2021-08-20T12:14:35Z</time>
      </trkpt>
      <trkpt lat="46.69218" lon="5.47942">
        <ele>240</ele>
        <time>2021-08-20T12:14:36Z</time>
      </trkpt>
      <trkpt lat="46.69224" lon="5.4795">
        <ele>239.6</ele>
        <time>2021-08-20T12:14:37Z</time>
      </trkpt>
      <trkpt lat="46.6924" lon="5.47959">
        <ele>239.2</ele>
        <time>2021-08-20T12:14:39Z</time>
      </trkpt>
      <trkpt lat="46.69255" lon="5.47953">
        <ele>239</ele>
        <time>2021-08-20T12:14:41Z</time>
      </trkpt>
      <trkpt lat="46.69285" lon="5.47921">
        <ele>238.2</ele>
        <time>2021-08-20T12:14:45Z</time>
      </trkpt>
      <trkpt lat="46.69293" lon="5.47914">
        <ele>237.8</ele>
        <time>2021-08-20T12:14:46Z</time>
      </trkpt>
      <trkpt lat="46.69302" lon="5.47908">
        <ele>237.6</ele>
        <time>2021-08-20T12:14:47Z</time>
      </trkpt>
      <trkpt lat="46.69311" lon="5.47903">
        <ele>237.2</ele>
        <time>2021-08-20T12:14:48Z</time>
      </trkpt>
      <trkpt lat="46.6932" lon="5.479">
        <ele>237</ele>
        <time>2021-08-20T12:14:49Z</time>
      </trkpt>
      <trkpt lat="46.69329" lon="5.47898">
        <ele>236.8</ele>
        <time>2021-08-20T12:14:50Z</time>
      </trkpt>
      <trkpt lat="46.69355" lon="5.47896">
        <ele>236</ele>
        <time>2021-08-20T12:14:53Z</time>
      </trkpt>
      <trkpt lat="46.69397" lon="5.4789">
        <ele>235</ele>
        <time>2021-08-20T12:14:58Z</time>
      </trkpt>
      <trkpt lat="46.69415" lon="5.47886">
        <ele>235</ele>
        <time>2021-08-20T12:15:00Z</time>
      </trkpt>
      <trkpt lat="46.69464" lon="5.47876">
        <ele>235</ele>
        <time>2021-08-20T12:15:06Z</time>
      </trkpt>
      <trkpt lat="46.69488" lon="5.47876">
        <ele>235.4</ele>
        <time>2021-08-20T12:15:09Z</time>
      </trkpt>
      <trkpt lat="46.69504" lon="5.4788">
        <ele>235.8</ele>
        <time>2021-08-20T12:15:11Z</time>
      </trkpt>
      <trkpt lat="46.69525" lon="5.47887">
        <ele>236</ele>
        <time>2021-08-20T12:15:14Z</time>
      </trkpt>
      <trkpt lat="46.69538" lon="5.47892">
        <ele>236.2</ele>
        <time>2021-08-20T12:15:16Z</time>
      </trkpt>
      <trkpt lat="46.69549" lon="5.47898">
        <ele>236.6</ele>
        <time>2021-08-20T12:15:18Z</time>
      </trkpt>
      <trkpt lat="46.69555" lon="5.47902">
        <ele>237.2</ele>
        <time>2021-08-20T12:15:19Z</time>
      </trkpt>
      <trkpt lat="46.69564" lon="5.47911">
        <ele>238</ele>
        <time>2021-08-20T12:15:21Z</time>
      </trkpt>
      <trkpt lat="46.69574" lon="5.47923">
        <ele>238.6</ele>
        <time>2021-08-20T12:15:23Z</time>
      </trkpt>
      <trkpt lat="46.69583" lon="5.47937">
        <ele>239.4</ele>
        <time>2021-08-20T12:15:25Z</time>
      </trkpt>
      <trkpt lat="46.69588" lon="5.47945">
        <ele>239.6</ele>
        <time>2021-08-20T12:15:26Z</time>
      </trkpt>
      <trkpt lat="46.69592" lon="5.47953">
        <ele>239.6</ele>
        <time>2021-08-20T12:15:27Z</time>
      </trkpt>
      <trkpt lat="46.69617" lon="5.48">
        <ele>240.2</ele>
        <time>2021-08-20T12:15:33Z</time>
      </trkpt>
      <trkpt lat="46.69621" lon="5.48008">
        <ele>240.2</ele>
        <time>2021-08-20T12:15:34Z</time>
      </trkpt>
      <trkpt lat="46.69636" lon="5.48029">
        <ele>240.8</ele>
        <time>2021-08-20T12:15:37Z</time>
      </trkpt>
      <trkpt lat="46.69641" lon="5.48036">
        <ele>241</ele>
        <time>2021-08-20T12:15:38Z</time>
      </trkpt>
      <trkpt lat="46.69655" lon="5.48057">
        <ele>241</ele>
        <time>2021-08-20T12:15:41Z</time>
      </trkpt>
      <trkpt lat="46.69672" lon="5.48084">
        <ele>240.8</ele>
        <time>2021-08-20T12:15:45Z</time>
      </trkpt>
      <trkpt lat="46.69682" lon="5.48096">
        <ele>240.6</ele>
        <time>2021-08-20T12:15:47Z</time>
      </trkpt>
      <trkpt lat="46.69703" lon="5.4813">
        <ele>240.6</ele>
        <time>2021-08-20T12:15:52Z</time>
      </trkpt>
      <trkpt lat="46.69724" lon="5.48163">
        <ele>240.8</ele>
        <time>2021-08-20T12:15:57Z</time>
      </trkpt>
      <trkpt lat="46.69761" lon="5.48222">
        <ele>242</ele>
        <time>2021-08-20T12:16:06Z</time>
      </trkpt>
      <trkpt lat="46.6978" lon="5.48255">
        <ele>242.2</ele>
        <time>2021-08-20T12:16:11Z</time>
      </trkpt>
      <trkpt lat="46.69791" lon="5.48273">
        <ele>242.6</ele>
        <time>2021-08-20T12:16:14Z</time>
      </trkpt>
      <trkpt lat="46.69796" lon="5.48279">
        <ele>243</ele>
        <time>2021-08-20T12:16:15Z</time>
      </trkpt>
      <trkpt lat="46.69832" lon="5.48326">
        <ele>244</ele>
        <time>2021-08-20T12:16:22Z</time>
      </trkpt>
      <trkpt lat="46.69837" lon="5.48333">
        <ele>244</ele>
        <time>2021-08-20T12:16:23Z</time>
      </trkpt>
      <trkpt lat="46.69863" lon="5.48374">
        <ele>243.8</ele>
        <time>2021-08-20T12:16:28Z</time>
      </trkpt>
      <trkpt lat="46.69879" lon="5.48398">
        <ele>242.8</ele>
        <time>2021-08-20T12:16:31Z</time>
      </trkpt>
      <trkpt lat="46.6989" lon="5.48413">
        <ele>242.8</ele>
        <time>2021-08-20T12:16:33Z</time>
      </trkpt>
      <trkpt lat="46.69898" lon="5.4843">
        <ele>242.6</ele>
        <time>2021-08-20T12:16:35Z</time>
      </trkpt>
      <trkpt lat="46.69926" lon="5.48471">
        <ele>242.6</ele>
        <time>2021-08-20T12:16:41Z</time>
      </trkpt>
      <trkpt lat="46.69944" lon="5.48496">
        <ele>242.8</ele>
        <time>2021-08-20T12:16:45Z</time>
      </trkpt>
      <trkpt lat="46.69952" lon="5.4851">
        <ele>243.2</ele>
        <time>2021-08-20T12:16:47Z</time>
      </trkpt>
      <trkpt lat="46.69956" lon="5.48516">
        <ele>243.4</ele>
        <time>2021-08-20T12:16:48Z</time>
      </trkpt>
      <trkpt lat="46.69973" lon="5.48541">
        <ele>243.6</ele>
        <time>2021-08-20T12:16:52Z</time>
      </trkpt>
      <trkpt lat="46.69981" lon="5.48554">
        <ele>244</ele>
        <time>2021-08-20T12:16:54Z</time>
      </trkpt>
      <trkpt lat="46.70002" lon="5.48586">
        <ele>244.6</ele>
        <time>2021-08-20T12:16:59Z</time>
      </trkpt>
      <trkpt lat="46.70014" lon="5.48605">
        <ele>245.2</ele>
        <time>2021-08-20T12:17:02Z</time>
      </trkpt>
      <trkpt lat="46.70024" lon="5.48624">
        <ele>245.4</ele>
        <time>2021-08-20T12:17:05Z</time>
      </trkpt>
      <trkpt lat="46.70028" lon="5.48629">
        <ele>245.4</ele>
        <time>2021-08-20T12:17:06Z</time>
      </trkpt>
      <trkpt lat="46.70031" lon="5.48631">
        <ele>245.4</ele>
        <time>2021-08-20T12:17:07Z</time>
      </trkpt>
      <trkpt lat="46.7004" lon="5.48627">
        <ele>245.4</ele>
        <time>2021-08-20T12:17:09Z</time>
      </trkpt>
      <trkpt lat="46.70051" lon="5.48616">
        <ele>245.4</ele>
        <time>2021-08-20T12:17:11Z</time>
      </trkpt>
      <trkpt lat="46.70057" lon="5.48609">
        <ele>245.2</ele>
        <time>2021-08-20T12:17:12Z</time>
      </trkpt>
      <trkpt lat="46.70086" lon="5.4857">
        <ele>244.6</ele>
        <time>2021-08-20T12:17:17Z</time>
      </trkpt>
      <trkpt lat="46.70098" lon="5.48554">
        <ele>244.2</ele>
        <time>2021-08-20T12:17:19Z</time>
      </trkpt>
      <trkpt lat="46.70125" lon="5.48528">
        <ele>243.8</ele>
        <time>2021-08-20T12:17:23Z</time>
      </trkpt>
      <trkpt lat="46.70174" lon="5.48495">
        <ele>243.6</ele>
        <time>2021-08-20T12:17:30Z</time>
      </trkpt>
      <trkpt lat="46.70231" lon="5.48463">
        <ele>243.4</ele>
        <time>2021-08-20T12:17:38Z</time>
      </trkpt>
      <trkpt lat="46.70245" lon="5.48455">
        <ele>243.2</ele>
        <time>2021-08-20T12:17:40Z</time>
      </trkpt>
      <trkpt lat="46.70296" lon="5.48427">
        <ele>242.6</ele>
        <time>2021-08-20T12:17:47Z</time>
      </trkpt>
      <trkpt lat="46.70304" lon="5.48423">
        <ele>242.4</ele>
        <time>2021-08-20T12:17:48Z</time>
      </trkpt>
      <trkpt lat="46.70355" lon="5.48396">
        <ele>242.2</ele>
        <time>2021-08-20T12:17:55Z</time>
      </trkpt>
      <trkpt lat="46.70377" lon="5.48383">
        <ele>242.4</ele>
        <time>2021-08-20T12:17:58Z</time>
      </trkpt>
      <trkpt lat="46.7043" lon="5.4835">
        <ele>242.2</ele>
        <time>2021-08-20T12:18:05Z</time>
      </trkpt>
      <trkpt lat="46.70468" lon="5.48326">
        <ele>242</ele>
        <time>2021-08-20T12:18:10Z</time>
      </trkpt>
      <trkpt lat="46.70491" lon="5.48312">
        <ele>241.8</ele>
        <time>2021-08-20T12:18:13Z</time>
      </trkpt>
      <trkpt lat="46.70549" lon="5.48282">
        <ele>241.2</ele>
        <time>2021-08-20T12:18:20Z</time>
      </trkpt>
      <trkpt lat="46.70583" lon="5.48263">
        <ele>240.8</ele>
        <time>2021-08-20T12:18:24Z</time>
      </trkpt>
      <trkpt lat="46.70617" lon="5.48243">
        <ele>239.8</ele>
        <time>2021-08-20T12:18:28Z</time>
      </trkpt>
      <trkpt lat="46.70625" lon="5.48238">
        <ele>239.8</ele>
        <time>2021-08-20T12:18:29Z</time>
      </trkpt>
      <trkpt lat="46.70676" lon="5.48208">
        <ele>239</ele>
        <time>2021-08-20T12:18:35Z</time>
      </trkpt>
      <trkpt lat="46.70693" lon="5.48198">
        <ele>238.6</ele>
        <time>2021-08-20T12:18:37Z</time>
      </trkpt>
      <trkpt lat="46.70744" lon="5.48167">
        <ele>237.8</ele>
        <time>2021-08-20T12:18:43Z</time>
      </trkpt>
      <trkpt lat="46.7077" lon="5.4815">
        <ele>237.6</ele>
        <time>2021-08-20T12:18:46Z</time>
      </trkpt>
      <trkpt lat="46.70788" lon="5.4814">
        <ele>237.2</ele>
        <time>2021-08-20T12:18:48Z</time>
      </trkpt>
      <trkpt lat="46.70815" lon="5.48123">
        <ele>236.2</ele>
        <time>2021-08-20T12:18:51Z</time>
      </trkpt>
      <trkpt lat="46.70843" lon="5.48107">
        <ele>235.2</ele>
        <time>2021-08-20T12:18:54Z</time>
      </trkpt>
      <trkpt lat="46.70881" lon="5.48085">
        <ele>233.8</ele>
        <time>2021-08-20T12:18:58Z</time>
      </trkpt>
      <trkpt lat="46.70911" lon="5.48068">
        <ele>232.6</ele>
        <time>2021-08-20T12:19:01Z</time>
      </trkpt>
      <trkpt lat="46.70941" lon="5.4805">
        <ele>231.2</ele>
        <time>2021-08-20T12:19:04Z</time>
      </trkpt>
      <trkpt lat="46.70961" lon="5.48038">
        <ele>230</ele>
        <time>2021-08-20T12:19:06Z</time>
      </trkpt>
      <trkpt lat="46.70971" lon="5.48032">
        <ele>229.4</ele>
        <time>2021-08-20T12:19:07Z</time>
      </trkpt>
      <trkpt lat="46.70981" lon="5.48025">
        <ele>229.2</ele>
        <time>2021-08-20T12:19:08Z</time>
      </trkpt>
      <trkpt lat="46.70991" lon="5.48019">
        <ele>228.8</ele>
        <time>2021-08-20T12:19:09Z</time>
      </trkpt>
      <trkpt lat="46.71011" lon="5.48007">
        <ele>227.6</ele>
        <time>2021-08-20T12:19:11Z</time>
      </trkpt>
      <trkpt lat="46.71044" lon="5.47987">
        <ele>226.2</ele>
        <time>2021-08-20T12:19:14Z</time>
      </trkpt>
      <trkpt lat="46.71052" lon="5.47981">
        <ele>226.2</ele>
        <time>2021-08-20T12:19:15Z</time>
      </trkpt>
      <trkpt lat="46.71098" lon="5.47949">
        <ele>225.2</ele>
        <time>2021-08-20T12:19:20Z</time>
      </trkpt>
      <trkpt lat="46.71116" lon="5.47936">
        <ele>225</ele>
        <time>2021-08-20T12:19:22Z</time>
      </trkpt>
      <trkpt lat="46.71169" lon="5.47898">
        <ele>224.2</ele>
        <time>2021-08-20T12:19:28Z</time>
      </trkpt>
      <trkpt lat="46.7122" lon="5.47861">
        <ele>223.2</ele>
        <time>2021-08-20T12:19:34Z</time>
      </trkpt>
      <trkpt lat="46.71254" lon="5.47837">
        <ele>223.4</ele>
        <time>2021-08-20T12:19:38Z</time>
      </trkpt>
      <trkpt lat="46.71263" lon="5.47831">
        <ele>223.4</ele>
        <time>2021-08-20T12:19:39Z</time>
      </trkpt>
      <trkpt lat="46.71302" lon="5.47799">
        <ele>223</ele>
        <time>2021-08-20T12:19:44Z</time>
      </trkpt>
      <trkpt lat="46.71344" lon="5.47755">
        <ele>222.6</ele>
        <time>2021-08-20T12:19:50Z</time>
      </trkpt>
      <trkpt lat="46.71375" lon="5.47714">
        <ele>222.6</ele>
        <time>2021-08-20T12:19:55Z</time>
      </trkpt>
      <trkpt lat="46.71381" lon="5.47708">
        <ele>222.6</ele>
        <time>2021-08-20T12:19:56Z</time>
      </trkpt>
      <trkpt lat="46.71389" lon="5.47704">
        <ele>222.8</ele>
        <time>2021-08-20T12:19:57Z</time>
      </trkpt>
      <trkpt lat="46.71404" lon="5.47703">
        <ele>222.8</ele>
        <time>2021-08-20T12:19:59Z</time>
      </trkpt>
      <trkpt lat="46.71427" lon="5.47707">
        <ele>222.8</ele>
        <time>2021-08-20T12:20:02Z</time>
      </trkpt>
      <trkpt lat="46.71436" lon="5.47706">
        <ele>223</ele>
        <time>2021-08-20T12:20:03Z</time>
      </trkpt>
      <trkpt lat="46.71444" lon="5.47703">
        <ele>223.2</ele>
        <time>2021-08-20T12:20:04Z</time>
      </trkpt>
      <trkpt lat="46.71467" lon="5.47689">
        <ele>223</ele>
        <time>2021-08-20T12:20:07Z</time>
      </trkpt>
      <trkpt lat="46.7152" lon="5.47652">
        <ele>222.6</ele>
        <time>2021-08-20T12:20:14Z</time>
      </trkpt>
      <trkpt lat="46.71534" lon="5.47642">
        <ele>222.4</ele>
        <time>2021-08-20T12:20:16Z</time>
      </trkpt>
      <trkpt lat="46.7157" lon="5.47618">
        <ele>222.4</ele>
        <time>2021-08-20T12:20:21Z</time>
      </trkpt>
      <trkpt lat="46.71577" lon="5.47613">
        <ele>222.2</ele>
        <time>2021-08-20T12:20:22Z</time>
      </trkpt>
      <trkpt lat="46.71621" lon="5.47585">
        <ele>222</ele>
        <time>2021-08-20T12:20:28Z</time>
      </trkpt>
      <trkpt lat="46.71627" lon="5.47583">
        <ele>222</ele>
        <time>2021-08-20T12:20:29Z</time>
      </trkpt>
      <trkpt lat="46.71634" lon="5.47582">
        <ele>222</ele>
        <time>2021-08-20T12:20:30Z</time>
      </trkpt>
      <trkpt lat="46.71656" lon="5.47583">
        <ele>221.8</ele>
        <time>2021-08-20T12:20:33Z</time>
      </trkpt>
      <trkpt lat="46.71669" lon="5.47584">
        <ele>221.4</ele>
        <time>2021-08-20T12:20:35Z</time>
      </trkpt>
      <trkpt lat="46.71681" lon="5.47583">
        <ele>221.4</ele>
        <time>2021-08-20T12:20:37Z</time>
      </trkpt>
      <trkpt lat="46.71715" lon="5.47573">
        <ele>222.2</ele>
        <time>2021-08-20T12:20:42Z</time>
      </trkpt>
      <trkpt lat="46.71721" lon="5.47574">
        <ele>222.4</ele>
        <time>2021-08-20T12:20:43Z</time>
      </trkpt>
      <trkpt lat="46.71728" lon="5.47577">
        <ele>222.4</ele>
        <time>2021-08-20T12:20:44Z</time>
      </trkpt>
      <trkpt lat="46.71739" lon="5.47593">
        <ele>222.2</ele>
        <time>2021-08-20T12:20:46Z</time>
      </trkpt>
      <trkpt lat="46.71747" lon="5.47615">
        <ele>221.6</ele>
        <time>2021-08-20T12:20:48Z</time>
      </trkpt>
      <trkpt lat="46.71752" lon="5.47625">
        <ele>221.2</ele>
        <time>2021-08-20T12:20:49Z</time>
      </trkpt>
      <trkpt lat="46.71759" lon="5.47633">
        <ele>220.8</ele>
        <time>2021-08-20T12:20:50Z</time>
      </trkpt>
      <trkpt lat="46.71774" lon="5.47643">
        <ele>220</ele>
        <time>2021-08-20T12:20:52Z</time>
      </trkpt>
      <trkpt lat="46.71798" lon="5.47653">
        <ele>219</ele>
        <time>2021-08-20T12:20:55Z</time>
      </trkpt>
      <trkpt lat="46.71812" lon="5.47659">
        <ele>218.8</ele>
        <time>2021-08-20T12:20:57Z</time>
      </trkpt>
      <trkpt lat="46.71848" lon="5.47663">
        <ele>217.8</ele>
        <time>2021-08-20T12:21:02Z</time>
      </trkpt>
      <trkpt lat="46.71862" lon="5.47664">
        <ele>217.8</ele>
        <time>2021-08-20T12:21:04Z</time>
      </trkpt>
      <trkpt lat="46.71875" lon="5.47673">
        <ele>217.8</ele>
        <time>2021-08-20T12:21:06Z</time>
      </trkpt>
      <trkpt lat="46.71881" lon="5.47691">
        <ele>217.6</ele>
        <time>2021-08-20T12:21:08Z</time>
      </trkpt>
      <trkpt lat="46.71887" lon="5.47728">
        <ele>217.4</ele>
        <time>2021-08-20T12:21:12Z</time>
      </trkpt>
      <trkpt lat="46.71893" lon="5.47744">
        <ele>217.4</ele>
        <time>2021-08-20T12:21:14Z</time>
      </trkpt>
      <trkpt lat="46.71923" lon="5.47799">
        <ele>218.2</ele>
        <time>2021-08-20T12:21:21Z</time>
      </trkpt>
      <trkpt lat="46.7195" lon="5.47843">
        <ele>218.6</ele>
        <time>2021-08-20T12:21:27Z</time>
      </trkpt>
      <trkpt lat="46.71958" lon="5.47858">
        <ele>218.6</ele>
        <time>2021-08-20T12:21:29Z</time>
      </trkpt>
      <trkpt lat="46.7197" lon="5.47885">
        <ele>218.6</ele>
        <time>2021-08-20T12:21:32Z</time>
      </trkpt>
      <trkpt lat="46.71986" lon="5.4794">
        <ele>218.2</ele>
        <time>2021-08-20T12:21:38Z</time>
      </trkpt>
      <trkpt lat="46.71996" lon="5.47986">
        <ele>218.2</ele>
        <time>2021-08-20T12:21:43Z</time>
      </trkpt>
      <trkpt lat="46.71999" lon="5.47995">
        <ele>218.2</ele>
        <time>2021-08-20T12:21:44Z</time>
      </trkpt>
      <trkpt lat="46.72011" lon="5.48039">
        <ele>219</ele>
        <time>2021-08-20T12:21:49Z</time>
      </trkpt>
      <trkpt lat="46.72014" lon="5.48049">
        <ele>219</ele>
        <time>2021-08-20T12:21:50Z</time>
      </trkpt>
      <trkpt lat="46.72017" lon="5.48059">
        <ele>218.8</ele>
        <time>2021-08-20T12:21:51Z</time>
      </trkpt>
      <trkpt lat="46.72019" lon="5.48069">
        <ele>219</ele>
        <time>2021-08-20T12:21:52Z</time>
      </trkpt>
      <trkpt lat="46.7202" lon="5.48098">
        <ele>218.6</ele>
        <time>2021-08-20T12:21:55Z</time>
      </trkpt>
      <trkpt lat="46.7202" lon="5.48107">
        <ele>218.6</ele>
        <time>2021-08-20T12:21:56Z</time>
      </trkpt>
      <trkpt lat="46.72018" lon="5.48124">
        <ele>218.8</ele>
        <time>2021-08-20T12:21:58Z</time>
      </trkpt>
      <trkpt lat="46.72015" lon="5.4814">
        <ele>219.2</ele>
        <time>2021-08-20T12:22:00Z</time>
      </trkpt>
      <trkpt lat="46.72013" lon="5.48156">
        <ele>219.4</ele>
        <time>2021-08-20T12:22:02Z</time>
      </trkpt>
      <trkpt lat="46.72008" lon="5.48185">
        <ele>220</ele>
        <time>2021-08-20T12:22:06Z</time>
      </trkpt>
      <trkpt lat="46.72007" lon="5.48191">
        <ele>220.4</ele>
        <time>2021-08-20T12:22:07Z</time>
      </trkpt>
      <trkpt lat="46.72002" lon="5.48224">
        <ele>221.4</ele>
        <time>2021-08-20T12:22:12Z</time>
      </trkpt>
      <trkpt lat="46.72001" lon="5.4823">
        <ele>221.4</ele>
        <time>2021-08-20T12:22:13Z</time>
      </trkpt>
      <trkpt lat="46.71998" lon="5.48247">
        <ele>222.4</ele>
        <time>2021-08-20T12:22:16Z</time>
      </trkpt>
      <trkpt lat="46.72" lon="5.48256">
        <ele>222.6</ele>
        <time>2021-08-20T12:22:17Z</time>
      </trkpt>
      <trkpt lat="46.72" lon="5.48264">
        <ele>223</ele>
        <time>2021-08-20T12:22:18Z</time>
      </trkpt>
      <trkpt lat="46.71999" lon="5.48272">
        <ele>223</ele>
        <time>2021-08-20T12:22:19Z</time>
      </trkpt>
      <trkpt lat="46.71999" lon="5.48288">
        <ele>223.6</ele>
        <time>2021-08-20T12:22:21Z</time>
      </trkpt>
      <trkpt lat="46.72001" lon="5.48299">
        <ele>223.6</ele>
        <time>2021-08-20T12:22:22Z</time>
      </trkpt>
      <trkpt lat="46.72001" lon="5.48358">
        <ele>224</ele>
        <time>2021-08-20T12:22:29Z</time>
      </trkpt>
      <trkpt lat="46.72007" lon="5.48401">
        <ele>225.4</ele>
        <time>2021-08-20T12:22:35Z</time>
      </trkpt>
      <trkpt lat="46.72007" lon="5.48408">
        <ele>225.6</ele>
        <time>2021-08-20T12:22:36Z</time>
      </trkpt>
      <trkpt lat="46.72007" lon="5.48415">
        <ele>226.2</ele>
        <time>2021-08-20T12:22:37Z</time>
      </trkpt>
      <trkpt lat="46.72008" lon="5.48428">
        <ele>226.6</ele>
        <time>2021-08-20T12:22:39Z</time>
      </trkpt>
      <trkpt lat="46.72007" lon="5.48435">
        <ele>226.8</ele>
        <time>2021-08-20T12:22:40Z</time>
      </trkpt>
      <trkpt lat="46.72007" lon="5.48442">
        <ele>227</ele>
        <time>2021-08-20T12:22:41Z</time>
      </trkpt>
      <trkpt lat="46.72007" lon="5.48465">
        <ele>227.2</ele>
        <time>2021-08-20T12:22:44Z</time>
      </trkpt>
      <trkpt lat="46.72009" lon="5.4851">
        <ele>227.2</ele>
        <time>2021-08-20T12:22:49Z</time>
      </trkpt>
      <trkpt lat="46.72011" lon="5.48562">
        <ele>227</ele>
        <time>2021-08-20T12:22:55Z</time>
      </trkpt>
      <trkpt lat="46.72012" lon="5.48569">
        <ele>227.2</ele>
        <time>2021-08-20T12:22:56Z</time>
      </trkpt>
      <trkpt lat="46.72012" lon="5.48583">
        <ele>227.4</ele>
        <time>2021-08-20T12:22:58Z</time>
      </trkpt>
      <trkpt lat="46.72012" lon="5.48596">
        <ele>227.8</ele>
        <time>2021-08-20T12:23:00Z</time>
      </trkpt>
      <trkpt lat="46.72012" lon="5.48602">
        <ele>228.2</ele>
        <time>2021-08-20T12:23:01Z</time>
      </trkpt>
      <trkpt lat="46.72012" lon="5.48617">
        <ele>228.8</ele>
        <time>2021-08-20T12:23:04Z</time>
      </trkpt>
      <trkpt lat="46.72012" lon="5.48626">
        <ele>229.6</ele>
        <time>2021-08-20T12:23:06Z</time>
      </trkpt>
      <trkpt lat="46.72011" lon="5.48629">
        <ele>230.2</ele>
        <time>2021-08-20T12:23:07Z</time>
      </trkpt>
      <trkpt lat="46.7201" lon="5.48641">
        <ele>231.4</ele>
        <time>2021-08-20T12:23:10Z</time>
      </trkpt>
      <trkpt lat="46.72012" lon="5.48659">
        <ele>232.4</ele>
        <time>2021-08-20T12:23:14Z</time>
      </trkpt>
      <trkpt lat="46.72012" lon="5.48672">
        <ele>233.4</ele>
        <time>2021-08-20T12:23:17Z</time>
      </trkpt>
      <trkpt lat="46.72012" lon="5.48675">
        <ele>233.4</ele>
        <time>2021-08-20T12:23:18Z</time>
      </trkpt>
      <trkpt lat="46.72013" lon="5.48679">
        <ele>234</ele>
        <time>2021-08-20T12:23:19Z</time>
      </trkpt>
      <trkpt lat="46.72017" lon="5.48695">
        <ele>235</ele>
        <time>2021-08-20T12:23:22Z</time>
      </trkpt>
      <trkpt lat="46.72021" lon="5.48728">
        <ele>236</ele>
        <time>2021-08-20T12:23:27Z</time>
      </trkpt>
      <trkpt lat="46.72022" lon="5.48734">
        <ele>236</ele>
        <time>2021-08-20T12:23:28Z</time>
      </trkpt>
      <trkpt lat="46.72023" lon="5.48739">
        <ele>236.6</ele>
        <time>2021-08-20T12:23:29Z</time>
      </trkpt>
      <trkpt lat="46.72025" lon="5.4875">
        <ele>237</ele>
        <time>2021-08-20T12:23:31Z</time>
      </trkpt>
      <trkpt lat="46.72033" lon="5.48788">
        <ele>238.2</ele>
        <time>2021-08-20T12:23:36Z</time>
      </trkpt>
      <trkpt lat="46.72039" lon="5.48827">
        <ele>239.2</ele>
        <time>2021-08-20T12:23:41Z</time>
      </trkpt>
      <trkpt lat="46.7204" lon="5.48835">
        <ele>239.4</ele>
        <time>2021-08-20T12:23:42Z</time>
      </trkpt>
      <trkpt lat="46.72042" lon="5.48844">
        <ele>239.4</ele>
        <time>2021-08-20T12:23:43Z</time>
      </trkpt>
      <trkpt lat="46.72045" lon="5.48859">
        <ele>239.6</ele>
        <time>2021-08-20T12:23:45Z</time>
      </trkpt>
      <trkpt lat="46.72048" lon="5.48873">
        <ele>240</ele>
        <time>2021-08-20T12:23:47Z</time>
      </trkpt>
      <trkpt lat="46.72049" lon="5.48887">
        <ele>240.4</ele>
        <time>2021-08-20T12:23:50Z</time>
      </trkpt>
      <trkpt lat="46.72049" lon="5.4889">
        <ele>240.4</ele>
        <time>2021-08-20T12:23:51Z</time>
      </trkpt>
      <trkpt lat="46.7205" lon="5.48892">
        <ele>240.6</ele>
        <time>2021-08-20T12:23:52Z</time>
      </trkpt>
      <trkpt lat="46.7205" lon="5.48893">
        <ele>240.6</ele>
        <time>2021-08-20T12:23:55Z</time>
      </trkpt>
      <trkpt lat="46.72052" lon="5.48899">
        <ele>240.8</ele>
        <time>2021-08-20T12:24:39Z</time>
      </trkpt>
      <trkpt lat="46.72056" lon="5.48927">
        <ele>240.8</ele>
        <time>2021-08-20T12:24:44Z</time>
      </trkpt>
      <trkpt lat="46.72059" lon="5.48952">
        <ele>240.6</ele>
        <time>2021-08-20T12:24:47Z</time>
      </trkpt>
      <trkpt lat="46.72061" lon="5.48961">
        <ele>240.6</ele>
        <time>2021-08-20T12:24:48Z</time>
      </trkpt>
      <trkpt lat="46.72062" lon="5.4897">
        <ele>240.6</ele>
        <time>2021-08-20T12:24:49Z</time>
      </trkpt>
      <trkpt lat="46.72065" lon="5.48987">
        <ele>240.4</ele>
        <time>2021-08-20T12:24:51Z</time>
      </trkpt>
      <trkpt lat="46.72067" lon="5.48996">
        <ele>240.4</ele>
        <time>2021-08-20T12:24:52Z</time>
      </trkpt>
      <trkpt lat="46.72069" lon="5.49004">
        <ele>240.4</ele>
        <time>2021-08-20T12:24:53Z</time>
      </trkpt>
      <trkpt lat="46.72071" lon="5.49013">
        <ele>240.4</ele>
        <time>2021-08-20T12:24:54Z</time>
      </trkpt>
      <trkpt lat="46.72078" lon="5.4904">
        <ele>240.4</ele>
        <time>2021-08-20T12:24:57Z</time>
      </trkpt>
      <trkpt lat="46.72081" lon="5.49057">
        <ele>240.6</ele>
        <time>2021-08-20T12:24:59Z</time>
      </trkpt>
      <trkpt lat="46.72087" lon="5.49084">
        <ele>240.8</ele>
        <time>2021-08-20T12:25:02Z</time>
      </trkpt>
      <trkpt lat="46.72092" lon="5.49111">
        <ele>240.8</ele>
        <time>2021-08-20T12:25:05Z</time>
      </trkpt>
      <trkpt lat="46.72094" lon="5.49127">
        <ele>240.8</ele>
        <time>2021-08-20T12:25:07Z</time>
      </trkpt>
      <trkpt lat="46.72101" lon="5.4919">
        <ele>240.6</ele>
        <time>2021-08-20T12:25:14Z</time>
      </trkpt>
      <trkpt lat="46.72108" lon="5.4924">
        <ele>240.4</ele>
        <time>2021-08-20T12:25:19Z</time>
      </trkpt>
      <trkpt lat="46.72123" lon="5.49301">
        <ele>239.4</ele>
        <time>2021-08-20T12:25:25Z</time>
      </trkpt>
      <trkpt lat="46.72126" lon="5.4931">
        <ele>239.4</ele>
        <time>2021-08-20T12:25:26Z</time>
      </trkpt>
      <trkpt lat="46.72136" lon="5.49335">
        <ele>239.2</ele>
        <time>2021-08-20T12:25:29Z</time>
      </trkpt>
      <trkpt lat="46.72139" lon="5.49343">
        <ele>239.2</ele>
        <time>2021-08-20T12:25:30Z</time>
      </trkpt>
      <trkpt lat="46.72158" lon="5.49378">
        <ele>240.4</ele>
        <time>2021-08-20T12:25:35Z</time>
      </trkpt>
      <trkpt lat="46.72162" lon="5.49384">
        <ele>240.6</ele>
        <time>2021-08-20T12:25:36Z</time>
      </trkpt>
      <trkpt lat="46.72195" lon="5.49438">
        <ele>241.2</ele>
        <time>2021-08-20T12:25:43Z</time>
      </trkpt>
      <trkpt lat="46.7221" lon="5.4946">
        <ele>241.2</ele>
        <time>2021-08-20T12:25:46Z</time>
      </trkpt>
      <trkpt lat="46.72231" lon="5.49487">
        <ele>241.4</ele>
        <time>2021-08-20T12:25:50Z</time>
      </trkpt>
      <trkpt lat="46.72267" lon="5.49534">
        <ele>241.4</ele>
        <time>2021-08-20T12:25:57Z</time>
      </trkpt>
      <trkpt lat="46.72298" lon="5.49583">
        <ele>241.4</ele>
        <time>2021-08-20T12:26:03Z</time>
      </trkpt>
      <trkpt lat="46.72336" lon="5.49638">
        <ele>241.2</ele>
        <time>2021-08-20T12:26:10Z</time>
      </trkpt>
      <trkpt lat="46.72372" lon="5.49681">
        <ele>241</ele>
        <time>2021-08-20T12:26:16Z</time>
      </trkpt>
      <trkpt lat="46.72374" lon="5.49688">
        <ele>241</ele>
        <time>2021-08-20T12:26:17Z</time>
      </trkpt>
      <trkpt lat="46.72377" lon="5.49699">
        <ele>241.2</ele>
        <time>2021-08-20T12:26:18Z</time>
      </trkpt>
      <trkpt lat="46.7238" lon="5.4972">
        <ele>241</ele>
        <time>2021-08-20T12:26:20Z</time>
      </trkpt>
      <trkpt lat="46.72382" lon="5.4973">
        <ele>240.8</ele>
        <time>2021-08-20T12:26:21Z</time>
      </trkpt>
      <trkpt lat="46.72392" lon="5.49747">
        <ele>241</ele>
        <time>2021-08-20T12:26:23Z</time>
      </trkpt>
      <trkpt lat="46.7242" lon="5.49773">
        <ele>240.4</ele>
        <time>2021-08-20T12:26:27Z</time>
      </trkpt>
      <trkpt lat="46.72436" lon="5.49786">
        <ele>240.2</ele>
        <time>2021-08-20T12:26:29Z</time>
      </trkpt>
      <trkpt lat="46.72467" lon="5.49809">
        <ele>239.2</ele>
        <time>2021-08-20T12:26:33Z</time>
      </trkpt>
      <trkpt lat="46.72476" lon="5.49814">
        <ele>239</ele>
        <time>2021-08-20T12:26:34Z</time>
      </trkpt>
      <trkpt lat="46.725" lon="5.4983">
        <ele>238</ele>
        <time>2021-08-20T12:26:37Z</time>
      </trkpt>
      <trkpt lat="46.72507" lon="5.49836">
        <ele>237.8</ele>
        <time>2021-08-20T12:26:38Z</time>
      </trkpt>
      <trkpt lat="46.72514" lon="5.49843">
        <ele>237.8</ele>
        <time>2021-08-20T12:26:39Z</time>
      </trkpt>
      <trkpt lat="46.72556" lon="5.49884">
        <ele>237.6</ele>
        <time>2021-08-20T12:26:45Z</time>
      </trkpt>
      <trkpt lat="46.72583" lon="5.49911">
        <ele>237</ele>
        <time>2021-08-20T12:26:49Z</time>
      </trkpt>
      <trkpt lat="46.72597" lon="5.49923">
        <ele>236.8</ele>
        <time>2021-08-20T12:26:51Z</time>
      </trkpt>
      <trkpt lat="46.72645" lon="5.49968">
        <ele>237.2</ele>
        <time>2021-08-20T12:26:59Z</time>
      </trkpt>
      <trkpt lat="46.7267" lon="5.49989">
        <ele>237.8</ele>
        <time>2021-08-20T12:27:04Z</time>
      </trkpt>
      <trkpt lat="46.72674" lon="5.49996">
        <ele>237.8</ele>
        <time>2021-08-20T12:27:05Z</time>
      </trkpt>
      <trkpt lat="46.72677" lon="5.50003">
        <ele>237.8</ele>
        <time>2021-08-20T12:27:06Z</time>
      </trkpt>
      <trkpt lat="46.7268" lon="5.50021">
        <ele>237.8</ele>
        <time>2021-08-20T12:27:08Z</time>
      </trkpt>
      <trkpt lat="46.72682" lon="5.50031">
        <ele>237.8</ele>
        <time>2021-08-20T12:27:09Z</time>
      </trkpt>
      <trkpt lat="46.72688" lon="5.5005">
        <ele>237.6</ele>
        <time>2021-08-20T12:27:11Z</time>
      </trkpt>
      <trkpt lat="46.72693" lon="5.50059">
        <ele>237.4</ele>
        <time>2021-08-20T12:27:12Z</time>
      </trkpt>
      <trkpt lat="46.72726" lon="5.50106">
        <ele>235.8</ele>
        <time>2021-08-20T12:27:17Z</time>
      </trkpt>
      <trkpt lat="46.72748" lon="5.50137">
        <ele>234.6</ele>
        <time>2021-08-20T12:27:20Z</time>
      </trkpt>
      <trkpt lat="46.72762" lon="5.5016">
        <ele>233.4</ele>
        <time>2021-08-20T12:27:22Z</time>
      </trkpt>
      <trkpt lat="46.72769" lon="5.50172">
        <ele>232.8</ele>
        <time>2021-08-20T12:27:23Z</time>
      </trkpt>
      <trkpt lat="46.72774" lon="5.50185">
        <ele>231.8</ele>
        <time>2021-08-20T12:27:24Z</time>
      </trkpt>
      <trkpt lat="46.72778" lon="5.50199">
        <ele>231.6</ele>
        <time>2021-08-20T12:27:25Z</time>
      </trkpt>
      <trkpt lat="46.72781" lon="5.50213">
        <ele>231</ele>
        <time>2021-08-20T12:27:26Z</time>
      </trkpt>
      <trkpt lat="46.72782" lon="5.50226">
        <ele>230.6</ele>
        <time>2021-08-20T12:27:27Z</time>
      </trkpt>
      <trkpt lat="46.72785" lon="5.50239">
        <ele>230.2</ele>
        <time>2021-08-20T12:27:28Z</time>
      </trkpt>
      <trkpt lat="46.72792" lon="5.50262">
        <ele>229.8</ele>
        <time>2021-08-20T12:27:30Z</time>
      </trkpt>
      <trkpt lat="46.7281" lon="5.50297">
        <ele>229.6</ele>
        <time>2021-08-20T12:27:34Z</time>
      </trkpt>
      <trkpt lat="46.72815" lon="5.50305">
        <ele>229.6</ele>
        <time>2021-08-20T12:27:35Z</time>
      </trkpt>
      <trkpt lat="46.72837" lon="5.50342">
        <ele>231.8</ele>
        <time>2021-08-20T12:27:40Z</time>
      </trkpt>
      <trkpt lat="46.7284" lon="5.50347">
        <ele>232.2</ele>
        <time>2021-08-20T12:27:41Z</time>
      </trkpt>
      <trkpt lat="46.72849" lon="5.5036">
        <ele>233.2</ele>
        <time>2021-08-20T12:27:43Z</time>
      </trkpt>
      <trkpt lat="46.72861" lon="5.50376">
        <ele>234.4</ele>
        <time>2021-08-20T12:27:46Z</time>
      </trkpt>
      <trkpt lat="46.72865" lon="5.50381">
        <ele>234.8</ele>
        <time>2021-08-20T12:27:47Z</time>
      </trkpt>
      <trkpt lat="46.72873" lon="5.50392">
        <ele>235.6</ele>
        <time>2021-08-20T12:27:49Z</time>
      </trkpt>
      <trkpt lat="46.72886" lon="5.50407">
        <ele>236.8</ele>
        <time>2021-08-20T12:27:52Z</time>
      </trkpt>
      <trkpt lat="46.72906" lon="5.50431">
        <ele>238</ele>
        <time>2021-08-20T12:27:57Z</time>
      </trkpt>
      <trkpt lat="46.72921" lon="5.5045">
        <ele>239.2</ele>
        <time>2021-08-20T12:28:01Z</time>
      </trkpt>
      <trkpt lat="46.7294" lon="5.50475">
        <ele>240.4</ele>
        <time>2021-08-20T12:28:06Z</time>
      </trkpt>
      <trkpt lat="46.7295" lon="5.50488">
        <ele>241.2</ele>
        <time>2021-08-20T12:28:09Z</time>
      </trkpt>
      <trkpt lat="46.72956" lon="5.50498">
        <ele>241.6</ele>
        <time>2021-08-20T12:28:11Z</time>
      </trkpt>
      <trkpt lat="46.72959" lon="5.50503">
        <ele>241.8</ele>
        <time>2021-08-20T12:28:12Z</time>
      </trkpt>
      <trkpt lat="46.72966" lon="5.50512">
        <ele>242</ele>
        <time>2021-08-20T12:28:14Z</time>
      </trkpt>
      <trkpt lat="46.7297" lon="5.50522">
        <ele>242.2</ele>
        <time>2021-08-20T12:28:16Z</time>
      </trkpt>
      <trkpt lat="46.72971" lon="5.50527">
        <ele>242.2</ele>
        <time>2021-08-20T12:28:17Z</time>
      </trkpt>
      <trkpt lat="46.72974" lon="5.50536">
        <ele>242.2</ele>
        <time>2021-08-20T12:28:19Z</time>
      </trkpt>
      <trkpt lat="46.72977" lon="5.5054">
        <ele>242.2</ele>
        <time>2021-08-20T12:28:20Z</time>
      </trkpt>
      <trkpt lat="46.72985" lon="5.50551">
        <ele>242.2</ele>
        <time>2021-08-20T12:28:22Z</time>
      </trkpt>
      <trkpt lat="46.72992" lon="5.50567">
        <ele>242</ele>
        <time>2021-08-20T12:28:24Z</time>
      </trkpt>
      <trkpt lat="46.73012" lon="5.50616">
        <ele>240.6</ele>
        <time>2021-08-20T12:28:29Z</time>
      </trkpt>
      <trkpt lat="46.73017" lon="5.50627">
        <ele>240.4</ele>
        <time>2021-08-20T12:28:30Z</time>
      </trkpt>
      <trkpt lat="46.7303" lon="5.50662">
        <ele>239.2</ele>
        <time>2021-08-20T12:28:33Z</time>
      </trkpt>
      <trkpt lat="46.73034" lon="5.50675">
        <ele>238.6</ele>
        <time>2021-08-20T12:28:34Z</time>
      </trkpt>
      <trkpt lat="46.73041" lon="5.50701">
        <ele>237.4</ele>
        <time>2021-08-20T12:28:36Z</time>
      </trkpt>
      <trkpt lat="46.73044" lon="5.50714">
        <ele>237</ele>
        <time>2021-08-20T12:28:37Z</time>
      </trkpt>
      <trkpt lat="46.73046" lon="5.50727">
        <ele>236.4</ele>
        <time>2021-08-20T12:28:38Z</time>
      </trkpt>
      <trkpt lat="46.73046" lon="5.5074">
        <ele>236.2</ele>
        <time>2021-08-20T12:28:39Z</time>
      </trkpt>
      <trkpt lat="46.73044" lon="5.50765">
        <ele>235.6</ele>
        <time>2021-08-20T12:28:41Z</time>
      </trkpt>
      <trkpt lat="46.73048" lon="5.50844">
        <ele>235.6</ele>
        <time>2021-08-20T12:28:48Z</time>
      </trkpt>
      <trkpt lat="46.73051" lon="5.50852">
        <ele>235.6</ele>
        <time>2021-08-20T12:28:49Z</time>
      </trkpt>
      <trkpt lat="46.73064" lon="5.50882">
        <ele>236</ele>
        <time>2021-08-20T12:28:53Z</time>
      </trkpt>
      <trkpt lat="46.73071" lon="5.50898">
        <ele>236.6</ele>
        <time>2021-08-20T12:28:55Z</time>
      </trkpt>
      <trkpt lat="46.73075" lon="5.50916">
        <ele>236.8</ele>
        <time>2021-08-20T12:28:57Z</time>
      </trkpt>
      <trkpt lat="46.73077" lon="5.50933">
        <ele>237.4</ele>
        <time>2021-08-20T12:28:59Z</time>
      </trkpt>
      <trkpt lat="46.73079" lon="5.50974">
        <ele>238</ele>
        <time>2021-08-20T12:29:04Z</time>
      </trkpt>
      <trkpt lat="46.73082" lon="5.51008">
        <ele>238.6</ele>
        <time>2021-08-20T12:29:08Z</time>
      </trkpt>
      <trkpt lat="46.73088" lon="5.51041">
        <ele>239.4</ele>
        <time>2021-08-20T12:29:12Z</time>
      </trkpt>
      <trkpt lat="46.73089" lon="5.51049">
        <ele>239.8</ele>
        <time>2021-08-20T12:29:13Z</time>
      </trkpt>
      <trkpt lat="46.73094" lon="5.51085">
        <ele>241.2</ele>
        <time>2021-08-20T12:29:18Z</time>
      </trkpt>
      <trkpt lat="46.73096" lon="5.511">
        <ele>241.6</ele>
        <time>2021-08-20T12:29:20Z</time>
      </trkpt>
      <trkpt lat="46.73101" lon="5.51121">
        <ele>242.4</ele>
        <time>2021-08-20T12:29:23Z</time>
      </trkpt>
      <trkpt lat="46.73107" lon="5.51152">
        <ele>243.6</ele>
        <time>2021-08-20T12:29:27Z</time>
      </trkpt>
      <trkpt lat="46.73113" lon="5.51175">
        <ele>244</ele>
        <time>2021-08-20T12:29:30Z</time>
      </trkpt>
      <trkpt lat="46.73128" lon="5.51228">
        <ele>244.6</ele>
        <time>2021-08-20T12:29:37Z</time>
      </trkpt>
      <trkpt lat="46.73132" lon="5.51243">
        <ele>245</ele>
        <time>2021-08-20T12:29:39Z</time>
      </trkpt>
      <trkpt lat="46.73144" lon="5.51296">
        <ele>245.6</ele>
        <time>2021-08-20T12:29:46Z</time>
      </trkpt>
      <trkpt lat="46.73145" lon="5.51304">
        <ele>245.8</ele>
        <time>2021-08-20T12:29:47Z</time>
      </trkpt>
      <trkpt lat="46.73154" lon="5.51341">
        <ele>246.8</ele>
        <time>2021-08-20T12:29:52Z</time>
      </trkpt>
      <trkpt lat="46.73162" lon="5.5137">
        <ele>247.2</ele>
        <time>2021-08-20T12:29:56Z</time>
      </trkpt>
      <trkpt lat="46.73182" lon="5.51428">
        <ele>247.8</ele>
        <time>2021-08-20T12:30:04Z</time>
      </trkpt>
      <trkpt lat="46.73187" lon="5.51443">
        <ele>248</ele>
        <time>2021-08-20T12:30:06Z</time>
      </trkpt>
      <trkpt lat="46.73207" lon="5.51505">
        <ele>248.8</ele>
        <time>2021-08-20T12:30:14Z</time>
      </trkpt>
      <trkpt lat="46.73211" lon="5.51523">
        <ele>248.8</ele>
        <time>2021-08-20T12:30:16Z</time>
      </trkpt>
      <trkpt lat="46.73224" lon="5.51599">
        <ele>248.6</ele>
        <time>2021-08-20T12:30:24Z</time>
      </trkpt>
      <trkpt lat="46.73233" lon="5.51669">
        <ele>247.8</ele>
        <time>2021-08-20T12:30:31Z</time>
      </trkpt>
      <trkpt lat="46.73235" lon="5.51679">
        <ele>247.8</ele>
        <time>2021-08-20T12:30:32Z</time>
      </trkpt>
      <trkpt lat="46.73245" lon="5.51751">
        <ele>247</ele>
        <time>2021-08-20T12:30:39Z</time>
      </trkpt>
      <trkpt lat="46.73252" lon="5.51798">
        <ele>246.8</ele>
        <time>2021-08-20T12:30:43Z</time>
      </trkpt>
      <trkpt lat="46.73258" lon="5.51829">
        <ele>246.2</ele>
        <time>2021-08-20T12:30:46Z</time>
      </trkpt>
      <trkpt lat="46.73275" lon="5.51865">
        <ele>245.8</ele>
        <time>2021-08-20T12:30:50Z</time>
      </trkpt>
      <trkpt lat="46.7328" lon="5.51875">
        <ele>245.6</ele>
        <time>2021-08-20T12:30:51Z</time>
      </trkpt>
      <trkpt lat="46.73285" lon="5.51884">
        <ele>245.6</ele>
        <time>2021-08-20T12:30:52Z</time>
      </trkpt>
      <trkpt lat="46.73295" lon="5.51915">
        <ele>245.4</ele>
        <time>2021-08-20T12:30:55Z</time>
      </trkpt>
      <trkpt lat="46.73311" lon="5.51988">
        <ele>245.4</ele>
        <time>2021-08-20T12:31:02Z</time>
      </trkpt>
      <trkpt lat="46.73328" lon="5.52066">
        <ele>245.6</ele>
        <time>2021-08-20T12:31:10Z</time>
      </trkpt>
      <trkpt lat="46.73329" lon="5.52075">
        <ele>245.8</ele>
        <time>2021-08-20T12:31:11Z</time>
      </trkpt>
      <trkpt lat="46.73332" lon="5.52112">
        <ele>246.8</ele>
        <time>2021-08-20T12:31:15Z</time>
      </trkpt>
      <trkpt lat="46.73331" lon="5.52129">
        <ele>247.4</ele>
        <time>2021-08-20T12:31:17Z</time>
      </trkpt>
      <trkpt lat="46.73329" lon="5.52147">
        <ele>247.6</ele>
        <time>2021-08-20T12:31:19Z</time>
      </trkpt>
      <trkpt lat="46.73328" lon="5.52156">
        <ele>247.8</ele>
        <time>2021-08-20T12:31:20Z</time>
      </trkpt>
      <trkpt lat="46.73328" lon="5.52165">
        <ele>248.2</ele>
        <time>2021-08-20T12:31:21Z</time>
      </trkpt>
      <trkpt lat="46.7333" lon="5.52184">
        <ele>248.6</ele>
        <time>2021-08-20T12:31:23Z</time>
      </trkpt>
      <trkpt lat="46.73335" lon="5.52201">
        <ele>248.6</ele>
        <time>2021-08-20T12:31:25Z</time>
      </trkpt>
      <trkpt lat="46.73344" lon="5.52216">
        <ele>248.8</ele>
        <time>2021-08-20T12:31:27Z</time>
      </trkpt>
      <trkpt lat="46.73355" lon="5.52231">
        <ele>248.8</ele>
        <time>2021-08-20T12:31:29Z</time>
      </trkpt>
      <trkpt lat="46.73389" lon="5.52287">
        <ele>249</ele>
        <time>2021-08-20T12:31:36Z</time>
      </trkpt>
      <trkpt lat="46.73424" lon="5.5235">
        <ele>249.2</ele>
        <time>2021-08-20T12:31:44Z</time>
      </trkpt>
      <trkpt lat="46.73436" lon="5.52376">
        <ele>249.4</ele>
        <time>2021-08-20T12:31:47Z</time>
      </trkpt>
      <trkpt lat="46.73453" lon="5.52426">
        <ele>249.6</ele>
        <time>2021-08-20T12:31:52Z</time>
      </trkpt>
      <trkpt lat="46.73455" lon="5.52437">
        <ele>249.6</ele>
        <time>2021-08-20T12:31:53Z</time>
      </trkpt>
      <trkpt lat="46.73457" lon="5.52447">
        <ele>249.6</ele>
        <time>2021-08-20T12:31:54Z</time>
      </trkpt>
      <trkpt lat="46.73458" lon="5.52458">
        <ele>249.4</ele>
        <time>2021-08-20T12:31:55Z</time>
      </trkpt>
      <trkpt lat="46.73458" lon="5.52481">
        <ele>249</ele>
        <time>2021-08-20T12:31:57Z</time>
      </trkpt>
      <trkpt lat="46.73454" lon="5.52502">
        <ele>248.8</ele>
        <time>2021-08-20T12:31:59Z</time>
      </trkpt>
      <trkpt lat="46.73451" lon="5.52512">
        <ele>248.8</ele>
        <time>2021-08-20T12:32:00Z</time>
      </trkpt>
      <trkpt lat="46.73445" lon="5.52519">
        <ele>248.8</ele>
        <time>2021-08-20T12:32:01Z</time>
      </trkpt>
      <trkpt lat="46.73435" lon="5.52533">
        <ele>248.8</ele>
        <time>2021-08-20T12:32:03Z</time>
      </trkpt>
      <trkpt lat="46.73431" lon="5.52541">
        <ele>248.8</ele>
        <time>2021-08-20T12:32:04Z</time>
      </trkpt>
      <trkpt lat="46.73415" lon="5.5257">
        <ele>249.2</ele>
        <time>2021-08-20T12:32:08Z</time>
      </trkpt>
      <trkpt lat="46.73403" lon="5.52597">
        <ele>250.2</ele>
        <time>2021-08-20T12:32:12Z</time>
      </trkpt>
      <trkpt lat="46.73399" lon="5.52603">
        <ele>250.6</ele>
        <time>2021-08-20T12:32:13Z</time>
      </trkpt>
      <trkpt lat="46.73391" lon="5.52621">
        <ele>251.2</ele>
        <time>2021-08-20T12:32:16Z</time>
      </trkpt>
      <trkpt lat="46.73385" lon="5.52632">
        <ele>251.6</ele>
        <time>2021-08-20T12:32:18Z</time>
      </trkpt>
      <trkpt lat="46.73379" lon="5.52643">
        <ele>252.8</ele>
        <time>2021-08-20T12:32:20Z</time>
      </trkpt>
      <trkpt lat="46.73371" lon="5.52659">
        <ele>253.4</ele>
        <time>2021-08-20T12:32:23Z</time>
      </trkpt>
      <trkpt lat="46.73368" lon="5.52665">
        <ele>253.8</ele>
        <time>2021-08-20T12:32:24Z</time>
      </trkpt>
      <trkpt lat="46.73366" lon="5.5267">
        <ele>253.8</ele>
        <time>2021-08-20T12:32:25Z</time>
      </trkpt>
      <trkpt lat="46.73363" lon="5.52676">
        <ele>254.2</ele>
        <time>2021-08-20T12:32:26Z</time>
      </trkpt>
      <trkpt lat="46.73358" lon="5.52689">
        <ele>254.8</ele>
        <time>2021-08-20T12:32:28Z</time>
      </trkpt>
      <trkpt lat="46.73357" lon="5.52694">
        <ele>255</ele>
        <time>2021-08-20T12:32:29Z</time>
      </trkpt>
      <trkpt lat="46.73357" lon="5.52701">
        <ele>255</ele>
        <time>2021-08-20T12:32:30Z</time>
      </trkpt>
      <trkpt lat="46.73364" lon="5.52714">
        <ele>255.8</ele>
        <time>2021-08-20T12:32:32Z</time>
      </trkpt>
      <trkpt lat="46.73369" lon="5.52718">
        <ele>256.4</ele>
        <time>2021-08-20T12:32:33Z</time>
      </trkpt>
      <trkpt lat="46.73385" lon="5.52728">
        <ele>256.6</ele>
        <time>2021-08-20T12:32:36Z</time>
      </trkpt>
      <trkpt lat="46.73425" lon="5.52759">
        <ele>256.8</ele>
        <time>2021-08-20T12:32:43Z</time>
      </trkpt>
      <trkpt lat="46.73436" lon="5.52771">
        <ele>256.6</ele>
        <time>2021-08-20T12:32:45Z</time>
      </trkpt>
      <trkpt lat="46.73457" lon="5.52798">
        <ele>256.6</ele>
        <time>2021-08-20T12:32:49Z</time>
      </trkpt>
      <trkpt lat="46.73498" lon="5.5285">
        <ele>255.6</ele>
        <time>2021-08-20T12:32:57Z</time>
      </trkpt>
      <trkpt lat="46.73503" lon="5.52857">
        <ele>255.6</ele>
        <time>2021-08-20T12:32:58Z</time>
      </trkpt>
      <trkpt lat="46.73515" lon="5.52866">
        <ele>255.6</ele>
        <time>2021-08-20T12:33:00Z</time>
      </trkpt>
      <trkpt lat="46.73522" lon="5.52869">
        <ele>255.6</ele>
        <time>2021-08-20T12:33:01Z</time>
      </trkpt>
      <trkpt lat="46.73528" lon="5.5287">
        <ele>255.6</ele>
        <time>2021-08-20T12:33:02Z</time>
      </trkpt>
      <trkpt lat="46.73543" lon="5.52865">
        <ele>255.6</ele>
        <time>2021-08-20T12:33:04Z</time>
      </trkpt>
      <trkpt lat="46.73575" lon="5.52841">
        <ele>255.2</ele>
        <time>2021-08-20T12:33:09Z</time>
      </trkpt>
      <trkpt lat="46.73584" lon="5.52836">
        <ele>255.2</ele>
        <time>2021-08-20T12:33:10Z</time>
      </trkpt>
      <trkpt lat="46.73598" lon="5.52835">
        <ele>255</ele>
        <time>2021-08-20T12:33:12Z</time>
      </trkpt>
      <trkpt lat="46.73612" lon="5.52841">
        <ele>254.8</ele>
        <time>2021-08-20T12:33:14Z</time>
      </trkpt>
      <trkpt lat="46.7362" lon="5.52848">
        <ele>254.8</ele>
        <time>2021-08-20T12:33:15Z</time>
      </trkpt>
      <trkpt lat="46.73653" lon="5.52885">
        <ele>255</ele>
        <time>2021-08-20T12:33:21Z</time>
      </trkpt>
      <trkpt lat="46.73692" lon="5.52926">
        <ele>255.2</ele>
        <time>2021-08-20T12:33:28Z</time>
      </trkpt>
      <trkpt lat="46.73735" lon="5.5297">
        <ele>255.2</ele>
        <time>2021-08-20T12:33:35Z</time>
      </trkpt>
      <trkpt lat="46.73781" lon="5.53007">
        <ele>255</ele>
        <time>2021-08-20T12:33:42Z</time>
      </trkpt>
      <trkpt lat="46.73832" lon="5.53042">
        <ele>255</ele>
        <time>2021-08-20T12:33:50Z</time>
      </trkpt>
      <trkpt lat="46.73839" lon="5.53046">
        <ele>255</ele>
        <time>2021-08-20T12:33:51Z</time>
      </trkpt>
      <trkpt lat="46.73858" lon="5.53055">
        <ele>255.2</ele>
        <time>2021-08-20T12:33:54Z</time>
      </trkpt>
      <trkpt lat="46.73872" lon="5.53058">
        <ele>255.2</ele>
        <time>2021-08-20T12:33:56Z</time>
      </trkpt>
      <trkpt lat="46.73886" lon="5.53057">
        <ele>255.4</ele>
        <time>2021-08-20T12:33:58Z</time>
      </trkpt>
      <trkpt lat="46.73898" lon="5.53051">
        <ele>255.4</ele>
        <time>2021-08-20T12:34:00Z</time>
      </trkpt>
      <trkpt lat="46.7391" lon="5.53045">
        <ele>255.4</ele>
        <time>2021-08-20T12:34:02Z</time>
      </trkpt>
      <trkpt lat="46.73931" lon="5.53042">
        <ele>255.6</ele>
        <time>2021-08-20T12:34:05Z</time>
      </trkpt>
      <trkpt lat="46.73957" lon="5.53051">
        <ele>256</ele>
        <time>2021-08-20T12:34:09Z</time>
      </trkpt>
      <trkpt lat="46.73968" lon="5.53056">
        <ele>256.4</ele>
        <time>2021-08-20T12:34:11Z</time>
      </trkpt>
      <trkpt lat="46.7399" lon="5.53069">
        <ele>257.2</ele>
        <time>2021-08-20T12:34:15Z</time>
      </trkpt>
      <trkpt lat="46.73996" lon="5.53072">
        <ele>257.8</ele>
        <time>2021-08-20T12:34:16Z</time>
      </trkpt>
      <trkpt lat="46.74036" lon="5.53098">
        <ele>258.8</ele>
        <time>2021-08-20T12:34:23Z</time>
      </trkpt>
      <trkpt lat="46.7409" lon="5.5313">
        <ele>259.6</ele>
        <time>2021-08-20T12:34:33Z</time>
      </trkpt>
      <trkpt lat="46.74101" lon="5.53135">
        <ele>260</ele>
        <time>2021-08-20T12:34:35Z</time>
      </trkpt>
      <trkpt lat="46.74133" lon="5.53149">
        <ele>261</ele>
        <time>2021-08-20T12:34:41Z</time>
      </trkpt>
      <trkpt lat="46.74151" lon="5.53155">
        <ele>261.2</ele>
        <time>2021-08-20T12:34:44Z</time>
      </trkpt>
      <trkpt lat="46.74175" lon="5.5316">
        <ele>261.4</ele>
        <time>2021-08-20T12:34:48Z</time>
      </trkpt>
      <trkpt lat="46.74206" lon="5.53171">
        <ele>262</ele>
        <time>2021-08-20T12:34:54Z</time>
      </trkpt>
      <trkpt lat="46.74211" lon="5.53172">
        <ele>262.2</ele>
        <time>2021-08-20T12:34:55Z</time>
      </trkpt>
      <trkpt lat="46.74219" lon="5.53175">
        <ele>263</ele>
        <time>2021-08-20T12:34:57Z</time>
      </trkpt>
      <trkpt lat="46.74223" lon="5.53176">
        <ele>263.4</ele>
        <time>2021-08-20T12:34:58Z</time>
      </trkpt>
      <trkpt lat="46.74228" lon="5.53178">
        <ele>263.6</ele>
        <time>2021-08-20T12:34:59Z</time>
      </trkpt>
      <trkpt lat="46.74236" lon="5.53181">
        <ele>264.2</ele>
        <time>2021-08-20T12:35:01Z</time>
      </trkpt>
      <trkpt lat="46.74244" lon="5.53185">
        <ele>265</ele>
        <time>2021-08-20T12:35:03Z</time>
      </trkpt>
      <trkpt lat="46.74252" lon="5.53188">
        <ele>265.4</ele>
        <time>2021-08-20T12:35:05Z</time>
      </trkpt>
      <trkpt lat="46.74261" lon="5.5319">
        <ele>265.6</ele>
        <time>2021-08-20T12:35:07Z</time>
      </trkpt>
      <trkpt lat="46.74269" lon="5.53193">
        <ele>265.8</ele>
        <time>2021-08-20T12:35:09Z</time>
      </trkpt>
      <trkpt lat="46.74277" lon="5.53195">
        <ele>266.4</ele>
        <time>2021-08-20T12:35:11Z</time>
      </trkpt>
      <trkpt lat="46.74289" lon="5.53198">
        <ele>267.2</ele>
        <time>2021-08-20T12:35:14Z</time>
      </trkpt>
      <trkpt lat="46.74294" lon="5.53198">
        <ele>267.4</ele>
        <time>2021-08-20T12:35:15Z</time>
      </trkpt>
      <trkpt lat="46.74302" lon="5.53199">
        <ele>267.8</ele>
        <time>2021-08-20T12:35:17Z</time>
      </trkpt>
      <trkpt lat="46.74317" lon="5.53205">
        <ele>269</ele>
        <time>2021-08-20T12:35:21Z</time>
      </trkpt>
      <trkpt lat="46.74325" lon="5.53208">
        <ele>269.4</ele>
        <time>2021-08-20T12:35:23Z</time>
      </trkpt>
      <trkpt lat="46.7434" lon="5.53211">
        <ele>270</ele>
        <time>2021-08-20T12:35:27Z</time>
      </trkpt>
      <trkpt lat="46.74354" lon="5.53215">
        <ele>271</ele>
        <time>2021-08-20T12:35:30Z</time>
      </trkpt>
      <trkpt lat="46.74359" lon="5.53216">
        <ele>271.2</ele>
        <time>2021-08-20T12:35:32Z</time>
      </trkpt>
      <trkpt lat="46.7438" lon="5.53222">
        <ele>272.2</ele>
        <time>2021-08-20T12:35:37Z</time>
      </trkpt>
      <trkpt lat="46.74403" lon="5.53228">
        <ele>273.4</ele>
        <time>2021-08-20T12:35:43Z</time>
      </trkpt>
      <trkpt lat="46.74408" lon="5.53229">
        <ele>273.8</ele>
        <time>2021-08-20T12:35:44Z</time>
      </trkpt>
      <trkpt lat="46.74421" lon="5.53232">
        <ele>274.6</ele>
        <time>2021-08-20T12:35:48Z</time>
      </trkpt>
      <trkpt lat="46.74428" lon="5.53234">
        <ele>274.8</ele>
        <time>2021-08-20T12:35:50Z</time>
      </trkpt>
      <trkpt lat="46.74448" lon="5.53238">
        <ele>275.8</ele>
        <time>2021-08-20T12:35:55Z</time>
      </trkpt>
      <trkpt lat="46.7446" lon="5.53241">
        <ele>276.4</ele>
        <time>2021-08-20T12:35:58Z</time>
      </trkpt>
      <trkpt lat="46.74467" lon="5.53243">
        <ele>276.8</ele>
        <time>2021-08-20T12:36:00Z</time>
      </trkpt>
      <trkpt lat="46.74494" lon="5.53251">
        <ele>277.8</ele>
        <time>2021-08-20T12:36:07Z</time>
      </trkpt>
      <trkpt lat="46.74508" lon="5.53256">
        <ele>278.4</ele>
        <time>2021-08-20T12:36:10Z</time>
      </trkpt>
      <trkpt lat="46.74517" lon="5.53259">
        <ele>279.2</ele>
        <time>2021-08-20T12:36:12Z</time>
      </trkpt>
      <trkpt lat="46.74532" lon="5.53265">
        <ele>279.8</ele>
        <time>2021-08-20T12:36:16Z</time>
      </trkpt>
      <trkpt lat="46.74545" lon="5.5327">
        <ele>280.2</ele>
        <time>2021-08-20T12:36:19Z</time>
      </trkpt>
      <trkpt lat="46.74551" lon="5.53273">
        <ele>280.8</ele>
        <time>2021-08-20T12:36:21Z</time>
      </trkpt>
      <trkpt lat="46.74566" lon="5.53277">
        <ele>281.4</ele>
        <time>2021-08-20T12:36:25Z</time>
      </trkpt>
      <trkpt lat="46.74574" lon="5.53281">
        <ele>282</ele>
        <time>2021-08-20T12:36:27Z</time>
      </trkpt>
      <trkpt lat="46.74582" lon="5.53283">
        <ele>282.4</ele>
        <time>2021-08-20T12:36:29Z</time>
      </trkpt>
      <trkpt lat="46.74603" lon="5.53294">
        <ele>283.4</ele>
        <time>2021-08-20T12:36:34Z</time>
      </trkpt>
      <trkpt lat="46.74606" lon="5.53297">
        <ele>283.6</ele>
        <time>2021-08-20T12:36:35Z</time>
      </trkpt>
      <trkpt lat="46.74627" lon="5.53316">
        <ele>284.4</ele>
        <time>2021-08-20T12:36:41Z</time>
      </trkpt>
      <trkpt lat="46.74631" lon="5.53318">
        <ele>284.8</ele>
        <time>2021-08-20T12:36:42Z</time>
      </trkpt>
      <trkpt lat="46.74634" lon="5.53321">
        <ele>284.8</ele>
        <time>2021-08-20T12:36:43Z</time>
      </trkpt>
      <trkpt lat="46.74647" lon="5.53327">
        <ele>285.8</ele>
        <time>2021-08-20T12:36:46Z</time>
      </trkpt>
      <trkpt lat="46.7465" lon="5.53329">
        <ele>286.2</ele>
        <time>2021-08-20T12:36:47Z</time>
      </trkpt>
      <trkpt lat="46.74662" lon="5.53334">
        <ele>286.8</ele>
        <time>2021-08-20T12:36:50Z</time>
      </trkpt>
      <trkpt lat="46.74676" lon="5.53346">
        <ele>287.8</ele>
        <time>2021-08-20T12:36:54Z</time>
      </trkpt>
      <trkpt lat="46.74695" lon="5.53371">
        <ele>288.8</ele>
        <time>2021-08-20T12:37:00Z</time>
      </trkpt>
      <trkpt lat="46.74697" lon="5.53375">
        <ele>289</ele>
        <time>2021-08-20T12:37:01Z</time>
      </trkpt>
      <trkpt lat="46.74699" lon="5.53379">
        <ele>289.2</ele>
        <time>2021-08-20T12:37:02Z</time>
      </trkpt>
      <trkpt lat="46.74706" lon="5.53387">
        <ele>289.4</ele>
        <time>2021-08-20T12:37:04Z</time>
      </trkpt>
      <trkpt lat="46.7471" lon="5.5339">
        <ele>289.6</ele>
        <time>2021-08-20T12:37:05Z</time>
      </trkpt>
      <trkpt lat="46.74716" lon="5.53394">
        <ele>290.2</ele>
        <time>2021-08-20T12:37:07Z</time>
      </trkpt>
      <trkpt lat="46.74732" lon="5.53401">
        <ele>291</ele>
        <time>2021-08-20T12:37:11Z</time>
      </trkpt>
      <trkpt lat="46.74735" lon="5.53403">
        <ele>291.2</ele>
        <time>2021-08-20T12:37:12Z</time>
      </trkpt>
      <trkpt lat="46.74749" lon="5.53409">
        <ele>292.2</ele>
        <time>2021-08-20T12:37:16Z</time>
      </trkpt>
      <trkpt lat="46.74752" lon="5.5341">
        <ele>292.4</ele>
        <time>2021-08-20T12:37:17Z</time>
      </trkpt>
      <trkpt lat="46.74772" lon="5.53419">
        <ele>293.6</ele>
        <time>2021-08-20T12:37:22Z</time>
      </trkpt>
      <trkpt lat="46.74777" lon="5.53421">
        <ele>293.8</ele>
        <time>2021-08-20T12:37:23Z</time>
      </trkpt>
      <trkpt lat="46.74797" lon="5.53429">
        <ele>294.6</ele>
        <time>2021-08-20T12:37:27Z</time>
      </trkpt>
      <trkpt lat="46.74807" lon="5.53433">
        <ele>295</ele>
        <time>2021-08-20T12:37:29Z</time>
      </trkpt>
      <trkpt lat="46.74826" lon="5.53439">
        <ele>295.6</ele>
        <time>2021-08-20T12:37:33Z</time>
      </trkpt>
      <trkpt lat="46.7484" lon="5.53446">
        <ele>296.2</ele>
        <time>2021-08-20T12:37:36Z</time>
      </trkpt>
      <trkpt lat="46.74851" lon="5.5345">
        <ele>296.4</ele>
        <time>2021-08-20T12:37:38Z</time>
      </trkpt>
      <trkpt lat="46.74882" lon="5.5346">
        <ele>296.6</ele>
        <time>2021-08-20T12:37:43Z</time>
      </trkpt>
      <trkpt lat="46.74888" lon="5.53463">
        <ele>296.6</ele>
        <time>2021-08-20T12:37:44Z</time>
      </trkpt>
      <trkpt lat="46.74908" lon="5.5347">
        <ele>296.6</ele>
        <time>2021-08-20T12:37:47Z</time>
      </trkpt>
      <trkpt lat="46.74956" lon="5.53488">
        <ele>296</ele>
        <time>2021-08-20T12:37:54Z</time>
      </trkpt>
      <trkpt lat="46.74963" lon="5.53493">
        <ele>295.8</ele>
        <time>2021-08-20T12:37:55Z</time>
      </trkpt>
      <trkpt lat="46.7497" lon="5.535">
        <ele>295.6</ele>
        <time>2021-08-20T12:37:56Z</time>
      </trkpt>
      <trkpt lat="46.74977" lon="5.53508">
        <ele>295.4</ele>
        <time>2021-08-20T12:37:57Z</time>
      </trkpt>
      <trkpt lat="46.74999" lon="5.53552">
        <ele>294.4</ele>
        <time>2021-08-20T12:38:01Z</time>
      </trkpt>
      <trkpt lat="46.75008" lon="5.53578">
        <ele>293.4</ele>
        <time>2021-08-20T12:38:03Z</time>
      </trkpt>
      <trkpt lat="46.7501" lon="5.53605">
        <ele>292</ele>
        <time>2021-08-20T12:38:05Z</time>
      </trkpt>
      <trkpt lat="46.75004" lon="5.53642">
        <ele>290.6</ele>
        <time>2021-08-20T12:38:08Z</time>
      </trkpt>
      <trkpt lat="46.75002" lon="5.53654">
        <ele>290.2</ele>
        <time>2021-08-20T12:38:09Z</time>
      </trkpt>
      <trkpt lat="46.74994" lon="5.5372">
        <ele>290.2</ele>
        <time>2021-08-20T12:38:15Z</time>
      </trkpt>
      <trkpt lat="46.74992" lon="5.53751">
        <ele>290.8</ele>
        <time>2021-08-20T12:38:18Z</time>
      </trkpt>
      <trkpt lat="46.74989" lon="5.5377">
        <ele>291.6</ele>
        <time>2021-08-20T12:38:20Z</time>
      </trkpt>
      <trkpt lat="46.74988" lon="5.53778">
        <ele>291.8</ele>
        <time>2021-08-20T12:38:21Z</time>
      </trkpt>
      <trkpt lat="46.74984" lon="5.53795">
        <ele>292.2</ele>
        <time>2021-08-20T12:38:23Z</time>
      </trkpt>
      <trkpt lat="46.74979" lon="5.53811">
        <ele>292.6</ele>
        <time>2021-08-20T12:38:25Z</time>
      </trkpt>
      <trkpt lat="46.74977" lon="5.53818">
        <ele>293</ele>
        <time>2021-08-20T12:38:26Z</time>
      </trkpt>
      <trkpt lat="46.74971" lon="5.53848">
        <ele>294</ele>
        <time>2021-08-20T12:38:30Z</time>
      </trkpt>
      <trkpt lat="46.74972" lon="5.53856">
        <ele>294.2</ele>
        <time>2021-08-20T12:38:31Z</time>
      </trkpt>
      <trkpt lat="46.74973" lon="5.53863">
        <ele>294.2</ele>
        <time>2021-08-20T12:38:32Z</time>
      </trkpt>
      <trkpt lat="46.74976" lon="5.5387">
        <ele>294.6</ele>
        <time>2021-08-20T12:38:33Z</time>
      </trkpt>
      <trkpt lat="46.7498" lon="5.53875">
        <ele>295</ele>
        <time>2021-08-20T12:38:34Z</time>
      </trkpt>
      <trkpt lat="46.74985" lon="5.53879">
        <ele>295.4</ele>
        <time>2021-08-20T12:38:35Z</time>
      </trkpt>
      <trkpt lat="46.7499" lon="5.53883">
        <ele>295.8</ele>
        <time>2021-08-20T12:38:36Z</time>
      </trkpt>
      <trkpt lat="46.75013" lon="5.53895">
        <ele>296.6</ele>
        <time>2021-08-20T12:38:40Z</time>
      </trkpt>
      <trkpt lat="46.75026" lon="5.53901">
        <ele>296.8</ele>
        <time>2021-08-20T12:38:42Z</time>
      </trkpt>
      <trkpt lat="46.75062" lon="5.53919">
        <ele>295.8</ele>
        <time>2021-08-20T12:38:47Z</time>
      </trkpt>
      <trkpt lat="46.75069" lon="5.53923">
        <ele>295.2</ele>
        <time>2021-08-20T12:38:48Z</time>
      </trkpt>
      <trkpt lat="46.75086" lon="5.53933">
        <ele>294</ele>
        <time>2021-08-20T12:38:50Z</time>
      </trkpt>
      <trkpt lat="46.75112" lon="5.53946">
        <ele>293.2</ele>
        <time>2021-08-20T12:38:53Z</time>
      </trkpt>
      <trkpt lat="46.75121" lon="5.5395">
        <ele>292.4</ele>
        <time>2021-08-20T12:38:54Z</time>
      </trkpt>
      <trkpt lat="46.7514" lon="5.5396">
        <ele>291</ele>
        <time>2021-08-20T12:38:56Z</time>
      </trkpt>
      <trkpt lat="46.75167" lon="5.53975">
        <ele>289.6</ele>
        <time>2021-08-20T12:38:59Z</time>
      </trkpt>
      <trkpt lat="46.75195" lon="5.53989">
        <ele>288.6</ele>
        <time>2021-08-20T12:39:02Z</time>
      </trkpt>
      <trkpt lat="46.75233" lon="5.54008">
        <ele>287.2</ele>
        <time>2021-08-20T12:39:06Z</time>
      </trkpt>
      <trkpt lat="46.75243" lon="5.54013">
        <ele>287</ele>
        <time>2021-08-20T12:39:07Z</time>
      </trkpt>
      <trkpt lat="46.75263" lon="5.54024">
        <ele>286.2</ele>
        <time>2021-08-20T12:39:09Z</time>
      </trkpt>
      <trkpt lat="46.75273" lon="5.54029">
        <ele>285.8</ele>
        <time>2021-08-20T12:39:10Z</time>
      </trkpt>
      <trkpt lat="46.75283" lon="5.54035">
        <ele>284.4</ele>
        <time>2021-08-20T12:39:11Z</time>
      </trkpt>
      <trkpt lat="46.75303" lon="5.54046">
        <ele>283.2</ele>
        <time>2021-08-20T12:39:13Z</time>
      </trkpt>
      <trkpt lat="46.75313" lon="5.54051">
        <ele>282.6</ele>
        <time>2021-08-20T12:39:14Z</time>
      </trkpt>
      <trkpt lat="46.75323" lon="5.54057">
        <ele>281.8</ele>
        <time>2021-08-20T12:39:15Z</time>
      </trkpt>
      <trkpt lat="46.75344" lon="5.5407">
        <ele>280.6</ele>
        <time>2021-08-20T12:39:17Z</time>
      </trkpt>
      <trkpt lat="46.75366" lon="5.54084">
        <ele>279</ele>
        <time>2021-08-20T12:39:19Z</time>
      </trkpt>
      <trkpt lat="46.75378" lon="5.54092">
        <ele>278</ele>
        <time>2021-08-20T12:39:20Z</time>
      </trkpt>
      <trkpt lat="46.75389" lon="5.541">
        <ele>277.6</ele>
        <time>2021-08-20T12:39:21Z</time>
      </trkpt>
      <trkpt lat="46.75401" lon="5.54108">
        <ele>276.6</ele>
        <time>2021-08-20T12:39:22Z</time>
      </trkpt>
      <trkpt lat="46.75439" lon="5.54129">
        <ele>274.6</ele>
        <time>2021-08-20T12:39:25Z</time>
      </trkpt>
      <trkpt lat="46.75478" lon="5.54136">
        <ele>272.8</ele>
        <time>2021-08-20T12:39:28Z</time>
      </trkpt>
      <trkpt lat="46.75492" lon="5.54137">
        <ele>271.2</ele>
        <time>2021-08-20T12:39:29Z</time>
      </trkpt>
      <trkpt lat="46.75504" lon="5.54138">
        <ele>270</ele>
        <time>2021-08-20T12:39:30Z</time>
      </trkpt>
      <trkpt lat="46.7553" lon="5.54142">
        <ele>267.6</ele>
        <time>2021-08-20T12:39:32Z</time>
      </trkpt>
      <trkpt lat="46.75554" lon="5.54145">
        <ele>266.6</ele>
        <time>2021-08-20T12:39:34Z</time>
      </trkpt>
      <trkpt lat="46.75566" lon="5.54146">
        <ele>266.4</ele>
        <time>2021-08-20T12:39:35Z</time>
      </trkpt>
      <trkpt lat="46.75579" lon="5.54148">
        <ele>265.4</ele>
        <time>2021-08-20T12:39:36Z</time>
      </trkpt>
      <trkpt lat="46.75602" lon="5.54154">
        <ele>264.2</ele>
        <time>2021-08-20T12:39:38Z</time>
      </trkpt>
      <trkpt lat="46.75614" lon="5.54158">
        <ele>263.2</ele>
        <time>2021-08-20T12:39:39Z</time>
      </trkpt>
      <trkpt lat="46.75625" lon="5.54163">
        <ele>263</ele>
        <time>2021-08-20T12:39:40Z</time>
      </trkpt>
      <trkpt lat="46.75668" lon="5.54179">
        <ele>262.2</ele>
        <time>2021-08-20T12:39:44Z</time>
      </trkpt>
      <trkpt lat="46.75678" lon="5.54183">
        <ele>261.8</ele>
        <time>2021-08-20T12:39:45Z</time>
      </trkpt>
      <trkpt lat="46.75707" lon="5.542">
        <ele>260.4</ele>
        <time>2021-08-20T12:39:48Z</time>
      </trkpt>
      <trkpt lat="46.75736" lon="5.54214">
        <ele>259.2</ele>
        <time>2021-08-20T12:39:51Z</time>
      </trkpt>
      <trkpt lat="46.75746" lon="5.54217">
        <ele>259.2</ele>
        <time>2021-08-20T12:39:52Z</time>
      </trkpt>
      <trkpt lat="46.75778" lon="5.54222">
        <ele>257.8</ele>
        <time>2021-08-20T12:39:55Z</time>
      </trkpt>
      <trkpt lat="46.758" lon="5.54225">
        <ele>257</ele>
        <time>2021-08-20T12:39:57Z</time>
      </trkpt>
      <trkpt lat="46.75812" lon="5.54227">
        <ele>256.6</ele>
        <time>2021-08-20T12:39:58Z</time>
      </trkpt>
      <trkpt lat="46.75835" lon="5.5423">
        <ele>255.2</ele>
        <time>2021-08-20T12:40:00Z</time>
      </trkpt>
      <trkpt lat="46.75858" lon="5.54234">
        <ele>253.8</ele>
        <time>2021-08-20T12:40:02Z</time>
      </trkpt>
      <trkpt lat="46.75882" lon="5.5424">
        <ele>252.4</ele>
        <time>2021-08-20T12:40:04Z</time>
      </trkpt>
      <trkpt lat="46.75905" lon="5.54242">
        <ele>251.4</ele>
        <time>2021-08-20T12:40:06Z</time>
      </trkpt>
      <trkpt lat="46.75926" lon="5.54242">
        <ele>250.4</ele>
        <time>2021-08-20T12:40:08Z</time>
      </trkpt>
      <trkpt lat="46.75935" lon="5.54242">
        <ele>249.6</ele>
        <time>2021-08-20T12:40:09Z</time>
      </trkpt>
      <trkpt lat="46.7595" lon="5.54241">
        <ele>248.6</ele>
        <time>2021-08-20T12:40:11Z</time>
      </trkpt>
      <trkpt lat="46.75961" lon="5.5424">
        <ele>247.4</ele>
        <time>2021-08-20T12:40:13Z</time>
      </trkpt>
      <trkpt lat="46.75966" lon="5.54239">
        <ele>246.2</ele>
        <time>2021-08-20T12:40:14Z</time>
      </trkpt>
      <trkpt lat="46.7597" lon="5.54238">
        <ele>245.8</ele>
        <time>2021-08-20T12:40:15Z</time>
      </trkpt>
      <trkpt lat="46.75974" lon="5.54238">
        <ele>245</ele>
        <time>2021-08-20T12:40:16Z</time>
      </trkpt>
      <trkpt lat="46.75982" lon="5.54239">
        <ele>243.6</ele>
        <time>2021-08-20T12:40:19Z</time>
      </trkpt>
      <trkpt lat="46.75983" lon="5.5424">
        <ele>242.2</ele>
        <time>2021-08-20T12:40:23Z</time>
      </trkpt>
      <trkpt lat="46.75985" lon="5.54248">
        <ele>241.6</ele>
        <time>2021-08-20T12:40:27Z</time>
      </trkpt>
      <trkpt lat="46.75986" lon="5.54256">
        <ele>241.6</ele>
        <time>2021-08-20T12:40:29Z</time>
      </trkpt>
      <trkpt lat="46.7599" lon="5.54288">
        <ele>241.2</ele>
        <time>2021-08-20T12:40:35Z</time>
      </trkpt>
      <trkpt lat="46.75992" lon="5.54304">
        <ele>241</ele>
        <time>2021-08-20T12:40:37Z</time>
      </trkpt>
      <trkpt lat="46.75994" lon="5.5433">
        <ele>240.6</ele>
        <time>2021-08-20T12:40:40Z</time>
      </trkpt>
      <trkpt lat="46.76002" lon="5.54407">
        <ele>240</ele>
        <time>2021-08-20T12:40:48Z</time>
      </trkpt>
      <trkpt lat="46.76011" lon="5.54483">
        <ele>240.4</ele>
        <time>2021-08-20T12:40:56Z</time>
      </trkpt>
      <trkpt lat="46.76017" lon="5.54537">
        <ele>241.2</ele>
        <time>2021-08-20T12:41:02Z</time>
      </trkpt>
      <trkpt lat="46.76025" lon="5.54615">
        <ele>242</ele>
        <time>2021-08-20T12:41:11Z</time>
      </trkpt>
      <trkpt lat="46.76025" lon="5.54624">
        <ele>242.2</ele>
        <time>2021-08-20T12:41:12Z</time>
      </trkpt>
      <trkpt lat="46.76022" lon="5.54667">
        <ele>243.4</ele>
        <time>2021-08-20T12:41:17Z</time>
      </trkpt>
      <trkpt lat="46.76012" lon="5.54742">
        <ele>244</ele>
        <time>2021-08-20T12:41:25Z</time>
      </trkpt>
      <trkpt lat="46.76001" lon="5.54823">
        <ele>243.4</ele>
        <time>2021-08-20T12:41:33Z</time>
      </trkpt>
      <trkpt lat="46.75999" lon="5.54843">
        <ele>243.4</ele>
        <time>2021-08-20T12:41:35Z</time>
      </trkpt>
      <trkpt lat="46.75993" lon="5.54928">
        <ele>243</ele>
        <time>2021-08-20T12:41:43Z</time>
      </trkpt>
      <trkpt lat="46.75995" lon="5.55015">
        <ele>243.2</ele>
        <time>2021-08-20T12:41:51Z</time>
      </trkpt>
      <trkpt lat="46.75995" lon="5.55025">
        <ele>243.2</ele>
        <time>2021-08-20T12:41:52Z</time>
      </trkpt>
      <trkpt lat="46.75996" lon="5.55108">
        <ele>243.4</ele>
        <time>2021-08-20T12:42:00Z</time>
      </trkpt>
      <trkpt lat="46.75996" lon="5.55138">
        <ele>243.6</ele>
        <time>2021-08-20T12:42:03Z</time>
      </trkpt>
      <trkpt lat="46.75997" lon="5.55224">
        <ele>244.2</ele>
        <time>2021-08-20T12:42:12Z</time>
      </trkpt>
      <trkpt lat="46.75997" lon="5.55234">
        <ele>244.4</ele>
        <time>2021-08-20T12:42:13Z</time>
      </trkpt>
      <trkpt lat="46.75997" lon="5.55243">
        <ele>244.4</ele>
        <time>2021-08-20T12:42:14Z</time>
      </trkpt>
      <trkpt lat="46.75999" lon="5.55298">
        <ele>245.6</ele>
        <time>2021-08-20T12:42:20Z</time>
      </trkpt>
      <trkpt lat="46.75999" lon="5.55308">
        <ele>245.6</ele>
        <time>2021-08-20T12:42:21Z</time>
      </trkpt>
      <trkpt lat="46.75998" lon="5.55389">
        <ele>245.8</ele>
        <time>2021-08-20T12:42:30Z</time>
      </trkpt>
      <trkpt lat="46.75997" lon="5.55398">
        <ele>246</ele>
        <time>2021-08-20T12:42:31Z</time>
      </trkpt>
      <trkpt lat="46.75995" lon="5.55426">
        <ele>246.8</ele>
        <time>2021-08-20T12:42:34Z</time>
      </trkpt>
      <trkpt lat="46.75992" lon="5.55462">
        <ele>247</ele>
        <time>2021-08-20T12:42:38Z</time>
      </trkpt>
      <trkpt lat="46.7599" lon="5.55491">
        <ele>247.2</ele>
        <time>2021-08-20T12:42:41Z</time>
      </trkpt>
      <trkpt lat="46.75983" lon="5.55577">
        <ele>247.6</ele>
        <time>2021-08-20T12:42:50Z</time>
      </trkpt>
      <trkpt lat="46.75981" lon="5.55605">
        <ele>247.6</ele>
        <time>2021-08-20T12:42:53Z</time>
      </trkpt>
      <trkpt lat="46.75979" lon="5.55633">
        <ele>247.6</ele>
        <time>2021-08-20T12:42:56Z</time>
      </trkpt>
      <trkpt lat="46.75978" lon="5.55641">
        <ele>247.6</ele>
        <time>2021-08-20T12:42:57Z</time>
      </trkpt>
      <trkpt lat="46.75978" lon="5.55649">
        <ele>247.6</ele>
        <time>2021-08-20T12:42:58Z</time>
      </trkpt>
      <trkpt lat="46.75976" lon="5.55667">
        <ele>247.6</ele>
        <time>2021-08-20T12:43:00Z</time>
      </trkpt>
      <trkpt lat="46.75975" lon="5.55676">
        <ele>247.6</ele>
        <time>2021-08-20T12:43:01Z</time>
      </trkpt>
      <trkpt lat="46.75973" lon="5.55695">
        <ele>247.8</ele>
        <time>2021-08-20T12:43:03Z</time>
      </trkpt>
      <trkpt lat="46.75971" lon="5.55713">
        <ele>248.4</ele>
        <time>2021-08-20T12:43:05Z</time>
      </trkpt>
      <trkpt lat="46.75962" lon="5.55765">
        <ele>249</ele>
        <time>2021-08-20T12:43:11Z</time>
      </trkpt>
      <trkpt lat="46.7596" lon="5.55773">
        <ele>249</ele>
        <time>2021-08-20T12:43:12Z</time>
      </trkpt>
      <trkpt lat="46.7594" lon="5.55836">
        <ele>250</ele>
        <time>2021-08-20T12:43:20Z</time>
      </trkpt>
      <trkpt lat="46.75938" lon="5.55844">
        <ele>250</ele>
        <time>2021-08-20T12:43:21Z</time>
      </trkpt>
      <trkpt lat="46.75934" lon="5.55858">
        <ele>250.4</ele>
        <time>2021-08-20T12:43:23Z</time>
      </trkpt>
      <trkpt lat="46.75932" lon="5.5588">
        <ele>250.8</ele>
        <time>2021-08-20T12:43:26Z</time>
      </trkpt>
      <trkpt lat="46.75933" lon="5.55887">
        <ele>251.2</ele>
        <time>2021-08-20T12:43:27Z</time>
      </trkpt>
      <trkpt lat="46.75936" lon="5.55893">
        <ele>251.4</ele>
        <time>2021-08-20T12:43:28Z</time>
      </trkpt>
      <trkpt lat="46.75941" lon="5.55897">
        <ele>251.6</ele>
        <time>2021-08-20T12:43:29Z</time>
      </trkpt>
      <trkpt lat="46.75952" lon="5.55904">
        <ele>251.8</ele>
        <time>2021-08-20T12:43:31Z</time>
      </trkpt>
      <trkpt lat="46.75968" lon="5.55917">
        <ele>251.8</ele>
        <time>2021-08-20T12:43:34Z</time>
      </trkpt>
      <trkpt lat="46.75975" lon="5.55925">
        <ele>251.6</ele>
        <time>2021-08-20T12:43:36Z</time>
      </trkpt>
      <trkpt lat="46.75977" lon="5.55929">
        <ele>251.4</ele>
        <time>2021-08-20T12:43:37Z</time>
      </trkpt>
      <trkpt lat="46.75977" lon="5.55932">
        <ele>251.2</ele>
        <time>2021-08-20T12:43:38Z</time>
      </trkpt>
      <trkpt lat="46.75973" lon="5.55938">
        <ele>250.8</ele>
        <time>2021-08-20T12:43:40Z</time>
      </trkpt>
      <trkpt lat="46.75962" lon="5.5595">
        <ele>250.6</ele>
        <time>2021-08-20T12:43:45Z</time>
      </trkpt>
      <trkpt lat="46.75944" lon="5.5597">
        <ele>250.8</ele>
        <time>2021-08-20T12:43:53Z</time>
      </trkpt>
      <trkpt lat="46.75949" lon="5.55969">
        <ele>251.2</ele>
        <time>2021-08-20T12:43:56Z</time>
      </trkpt>
      <trkpt lat="46.75958" lon="5.55956">
        <ele>251.2</ele>
        <time>2021-08-20T12:43:59Z</time>
      </trkpt>
      <trkpt lat="46.7597" lon="5.55941">
        <ele>251</ele>
        <time>2021-08-20T12:44:02Z</time>
      </trkpt>
      <trkpt lat="46.75976" lon="5.55936">
        <ele>250.4</ele>
        <time>2021-08-20T12:44:04Z</time>
      </trkpt>
      <trkpt lat="46.75983" lon="5.55935">
        <ele>250.2</ele>
        <time>2021-08-20T12:44:06Z</time>
      </trkpt>
      <trkpt lat="46.75992" lon="5.55942">
        <ele>249.8</ele>
        <time>2021-08-20T12:44:08Z</time>
      </trkpt>
      <trkpt lat="46.76016" lon="5.55966">
        <ele>249.4</ele>
        <time>2021-08-20T12:44:13Z</time>
      </trkpt>
      <trkpt lat="46.76021" lon="5.55971">
        <ele>249</ele>
        <time>2021-08-20T12:44:14Z</time>
      </trkpt>
      <trkpt lat="46.7605" lon="5.56001">
        <ele>247.8</ele>
        <time>2021-08-20T12:44:19Z</time>
      </trkpt>
      <trkpt lat="46.76056" lon="5.56006">
        <ele>247.4</ele>
        <time>2021-08-20T12:44:20Z</time>
      </trkpt>
      <trkpt lat="46.76082" lon="5.56025">
        <ele>246.6</ele>
        <time>2021-08-20T12:44:24Z</time>
      </trkpt>
      <trkpt lat="46.76096" lon="5.56031">
        <ele>246.4</ele>
        <time>2021-08-20T12:44:26Z</time>
      </trkpt>
      <trkpt lat="46.76145" lon="5.56053">
        <ele>246.2</ele>
        <time>2021-08-20T12:44:34Z</time>
      </trkpt>
      <trkpt lat="46.7618" lon="5.56069">
        <ele>246.2</ele>
        <time>2021-08-20T12:44:40Z</time>
      </trkpt>
      <trkpt lat="46.76192" lon="5.56072">
        <ele>246.2</ele>
        <time>2021-08-20T12:44:42Z</time>
      </trkpt>
      <trkpt lat="46.76203" lon="5.56073">
        <ele>246.6</ele>
        <time>2021-08-20T12:44:44Z</time>
      </trkpt>
      <trkpt lat="46.76209" lon="5.56072">
        <ele>246.6</ele>
        <time>2021-08-20T12:44:45Z</time>
      </trkpt>
      <trkpt lat="46.76224" lon="5.56073">
        <ele>246.8</ele>
        <time>2021-08-20T12:44:48Z</time>
      </trkpt>
      <trkpt lat="46.76229" lon="5.56077">
        <ele>246.8</ele>
        <time>2021-08-20T12:44:49Z</time>
      </trkpt>
      <trkpt lat="46.76233" lon="5.56082">
        <ele>247</ele>
        <time>2021-08-20T12:44:50Z</time>
      </trkpt>
      <trkpt lat="46.76237" lon="5.56095">
        <ele>247.2</ele>
        <time>2021-08-20T12:44:52Z</time>
      </trkpt>
      <trkpt lat="46.76237" lon="5.56111">
        <ele>247.8</ele>
        <time>2021-08-20T12:44:54Z</time>
      </trkpt>
      <trkpt lat="46.76237" lon="5.56119">
        <ele>248</ele>
        <time>2021-08-20T12:44:55Z</time>
      </trkpt>
      <trkpt lat="46.76237" lon="5.56136">
        <ele>248.4</ele>
        <time>2021-08-20T12:44:57Z</time>
      </trkpt>
      <trkpt lat="46.76237" lon="5.56153">
        <ele>248.8</ele>
        <time>2021-08-20T12:44:59Z</time>
      </trkpt>
      <trkpt lat="46.76241" lon="5.56201">
        <ele>249.8</ele>
        <time>2021-08-20T12:45:05Z</time>
      </trkpt>
      <trkpt lat="46.76242" lon="5.56209">
        <ele>249.8</ele>
        <time>2021-08-20T12:45:06Z</time>
      </trkpt>
      <trkpt lat="46.76246" lon="5.56267">
        <ele>250</ele>
        <time>2021-08-20T12:45:13Z</time>
      </trkpt>
      <trkpt lat="46.76253" lon="5.56335">
        <ele>250.8</ele>
        <time>2021-08-20T12:45:21Z</time>
      </trkpt>
      <trkpt lat="46.76255" lon="5.56361">
        <ele>251</ele>
        <time>2021-08-20T12:45:24Z</time>
      </trkpt>
      <trkpt lat="46.7626" lon="5.56445">
        <ele>251.8</ele>
        <time>2021-08-20T12:45:33Z</time>
      </trkpt>
      <trkpt lat="46.7626" lon="5.56455">
        <ele>251.8</ele>
        <time>2021-08-20T12:45:34Z</time>
      </trkpt>
      <trkpt lat="46.7626" lon="5.56533">
        <ele>252</ele>
        <time>2021-08-20T12:45:42Z</time>
      </trkpt>
      <trkpt lat="46.76259" lon="5.56543">
        <ele>252</ele>
        <time>2021-08-20T12:45:43Z</time>
      </trkpt>
      <trkpt lat="46.7626" lon="5.56601">
        <ele>252</ele>
        <time>2021-08-20T12:45:49Z</time>
      </trkpt>
      <trkpt lat="46.7626" lon="5.5663">
        <ele>252.2</ele>
        <time>2021-08-20T12:45:52Z</time>
      </trkpt>
      <trkpt lat="46.76264" lon="5.56666">
        <ele>252.6</ele>
        <time>2021-08-20T12:45:56Z</time>
      </trkpt>
      <trkpt lat="46.76266" lon="5.56686">
        <ele>252.6</ele>
        <time>2021-08-20T12:45:58Z</time>
      </trkpt>
      <trkpt lat="46.76274" lon="5.56729">
        <ele>253</ele>
        <time>2021-08-20T12:46:03Z</time>
      </trkpt>
      <trkpt lat="46.76277" lon="5.56747">
        <ele>253.2</ele>
        <time>2021-08-20T12:46:05Z</time>
      </trkpt>
      <trkpt lat="46.76293" lon="5.5682">
        <ele>254.2</ele>
        <time>2021-08-20T12:46:13Z</time>
      </trkpt>
      <trkpt lat="46.76296" lon="5.56829">
        <ele>254.2</ele>
        <time>2021-08-20T12:46:14Z</time>
      </trkpt>
      <trkpt lat="46.76316" lon="5.56911">
        <ele>254.4</ele>
        <time>2021-08-20T12:46:23Z</time>
      </trkpt>
      <trkpt lat="46.76333" lon="5.56986">
        <ele>255</ele>
        <time>2021-08-20T12:46:31Z</time>
      </trkpt>
      <trkpt lat="46.76336" lon="5.57005">
        <ele>255</ele>
        <time>2021-08-20T12:46:33Z</time>
      </trkpt>
      <trkpt lat="46.76342" lon="5.57045">
        <ele>255.4</ele>
        <time>2021-08-20T12:46:37Z</time>
      </trkpt>
      <trkpt lat="46.76346" lon="5.57075">
        <ele>255.4</ele>
        <time>2021-08-20T12:46:40Z</time>
      </trkpt>
      <trkpt lat="46.7635" lon="5.57158">
        <ele>255.6</ele>
        <time>2021-08-20T12:46:48Z</time>
      </trkpt>
      <trkpt lat="46.7635" lon="5.57169">
        <ele>255.6</ele>
        <time>2021-08-20T12:46:49Z</time>
      </trkpt>
      <trkpt lat="46.76353" lon="5.57256">
        <ele>255.8</ele>
        <time>2021-08-20T12:46:57Z</time>
      </trkpt>
      <trkpt lat="46.76353" lon="5.57267">
        <ele>255.8</ele>
        <time>2021-08-20T12:46:58Z</time>
      </trkpt>
      <trkpt lat="46.76356" lon="5.57346">
        <ele>255.4</ele>
        <time>2021-08-20T12:47:05Z</time>
      </trkpt>
      <trkpt lat="46.76357" lon="5.57365">
        <ele>255.2</ele>
        <time>2021-08-20T12:47:07Z</time>
      </trkpt>
      <trkpt lat="46.76364" lon="5.57446">
        <ele>255.6</ele>
        <time>2021-08-20T12:47:15Z</time>
      </trkpt>
      <trkpt lat="46.76368" lon="5.57474">
        <ele>256.8</ele>
        <time>2021-08-20T12:47:18Z</time>
      </trkpt>
      <trkpt lat="46.76378" lon="5.5752">
        <ele>257</ele>
        <time>2021-08-20T12:47:23Z</time>
      </trkpt>
      <trkpt lat="46.76394" lon="5.57601">
        <ele>257.6</ele>
        <time>2021-08-20T12:47:32Z</time>
      </trkpt>
      <trkpt lat="46.76395" lon="5.5761">
        <ele>257.6</ele>
        <time>2021-08-20T12:47:33Z</time>
      </trkpt>
      <trkpt lat="46.76397" lon="5.57619">
        <ele>257.8</ele>
        <time>2021-08-20T12:47:34Z</time>
      </trkpt>
      <trkpt lat="46.76414" lon="5.57691">
        <ele>258.6</ele>
        <time>2021-08-20T12:47:42Z</time>
      </trkpt>
      <trkpt lat="46.76418" lon="5.57708">
        <ele>258.8</ele>
        <time>2021-08-20T12:47:44Z</time>
      </trkpt>
      <trkpt lat="46.76431" lon="5.5778">
        <ele>258.8</ele>
        <time>2021-08-20T12:47:52Z</time>
      </trkpt>
      <trkpt lat="46.76432" lon="5.57854">
        <ele>259</ele>
        <time>2021-08-20T12:48:00Z</time>
      </trkpt>
      <trkpt lat="46.76425" lon="5.57928">
        <ele>259.4</ele>
        <time>2021-08-20T12:48:08Z</time>
      </trkpt>
      <trkpt lat="46.76421" lon="5.57985">
        <ele>259.8</ele>
        <time>2021-08-20T12:48:14Z</time>
      </trkpt>
      <trkpt lat="46.76419" lon="5.58003">
        <ele>260</ele>
        <time>2021-08-20T12:48:16Z</time>
      </trkpt>
      <trkpt lat="46.76416" lon="5.5804">
        <ele>260.2</ele>
        <time>2021-08-20T12:48:20Z</time>
      </trkpt>
      <trkpt lat="46.76409" lon="5.58123">
        <ele>260.2</ele>
        <time>2021-08-20T12:48:29Z</time>
      </trkpt>
      <trkpt lat="46.76408" lon="5.58132">
        <ele>260.2</ele>
        <time>2021-08-20T12:48:30Z</time>
      </trkpt>
      <trkpt lat="46.76405" lon="5.58215">
        <ele>260.8</ele>
        <time>2021-08-20T12:48:39Z</time>
      </trkpt>
      <trkpt lat="46.76406" lon="5.58234">
        <ele>261.2</ele>
        <time>2021-08-20T12:48:41Z</time>
      </trkpt>
      <trkpt lat="46.76406" lon="5.58243">
        <ele>261.2</ele>
        <time>2021-08-20T12:48:42Z</time>
      </trkpt>
      <trkpt lat="46.76414" lon="5.58308">
        <ele>261.8</ele>
        <time>2021-08-20T12:48:49Z</time>
      </trkpt>
      <trkpt lat="46.76425" lon="5.58372">
        <ele>262.6</ele>
        <time>2021-08-20T12:48:56Z</time>
      </trkpt>
      <trkpt lat="46.76429" lon="5.58408">
        <ele>262.6</ele>
        <time>2021-08-20T12:49:00Z</time>
      </trkpt>
      <trkpt lat="46.76435" lon="5.58482">
        <ele>263.2</ele>
        <time>2021-08-20T12:49:08Z</time>
      </trkpt>
      <trkpt lat="46.7644" lon="5.58565">
        <ele>263.4</ele>
        <time>2021-08-20T12:49:17Z</time>
      </trkpt>
      <trkpt lat="46.76441" lon="5.58575">
        <ele>263.6</ele>
        <time>2021-08-20T12:49:18Z</time>
      </trkpt>
      <trkpt lat="46.76441" lon="5.58658">
        <ele>264.2</ele>
        <time>2021-08-20T12:49:26Z</time>
      </trkpt>
      <trkpt lat="46.76441" lon="5.58668">
        <ele>264.2</ele>
        <time>2021-08-20T12:49:27Z</time>
      </trkpt>
      <trkpt lat="46.76437" lon="5.58727">
        <ele>264.8</ele>
        <time>2021-08-20T12:49:33Z</time>
      </trkpt>
      <trkpt lat="46.76434" lon="5.58776">
        <ele>265.6</ele>
        <time>2021-08-20T12:49:38Z</time>
      </trkpt>
      <trkpt lat="46.76428" lon="5.58852">
        <ele>265.2</ele>
        <time>2021-08-20T12:49:46Z</time>
      </trkpt>
      <trkpt lat="46.76422" lon="5.58935">
        <ele>265.2</ele>
        <time>2021-08-20T12:49:55Z</time>
      </trkpt>
      <trkpt lat="46.76422" lon="5.58945">
        <ele>265.4</ele>
        <time>2021-08-20T12:49:56Z</time>
      </trkpt>
      <trkpt lat="46.76415" lon="5.59026">
        <ele>265.6</ele>
        <time>2021-08-20T12:50:05Z</time>
      </trkpt>
      <trkpt lat="46.76414" lon="5.59035">
        <ele>265.8</ele>
        <time>2021-08-20T12:50:06Z</time>
      </trkpt>
      <trkpt lat="46.76412" lon="5.59074">
        <ele>266</ele>
        <time>2021-08-20T12:50:10Z</time>
      </trkpt>
      <trkpt lat="46.76406" lon="5.59145">
        <ele>265.8</ele>
        <time>2021-08-20T12:50:17Z</time>
      </trkpt>
      <trkpt lat="46.764" lon="5.59229">
        <ele>265.8</ele>
        <time>2021-08-20T12:50:25Z</time>
      </trkpt>
      <trkpt lat="46.76399" lon="5.5925">
        <ele>265.8</ele>
        <time>2021-08-20T12:50:27Z</time>
      </trkpt>
      <trkpt lat="46.76393" lon="5.59337">
        <ele>265.8</ele>
        <time>2021-08-20T12:50:35Z</time>
      </trkpt>
      <trkpt lat="46.76391" lon="5.59368">
        <ele>265.6</ele>
        <time>2021-08-20T12:50:38Z</time>
      </trkpt>
      <trkpt lat="46.76386" lon="5.59454">
        <ele>265.8</ele>
        <time>2021-08-20T12:50:46Z</time>
      </trkpt>
      <trkpt lat="46.76384" lon="5.59476">
        <ele>265.8</ele>
        <time>2021-08-20T12:50:48Z</time>
      </trkpt>
      <trkpt lat="46.76377" lon="5.59562">
        <ele>265.2</ele>
        <time>2021-08-20T12:50:56Z</time>
      </trkpt>
      <trkpt lat="46.76367" lon="5.59648">
        <ele>265.2</ele>
        <time>2021-08-20T12:51:04Z</time>
      </trkpt>
      <trkpt lat="46.76362" lon="5.59679">
        <ele>265.2</ele>
        <time>2021-08-20T12:51:07Z</time>
      </trkpt>
      <trkpt lat="46.76358" lon="5.597">
        <ele>265</ele>
        <time>2021-08-20T12:51:09Z</time>
      </trkpt>
      <trkpt lat="46.76344" lon="5.5976">
        <ele>264.8</ele>
        <time>2021-08-20T12:51:15Z</time>
      </trkpt>
      <trkpt lat="46.76332" lon="5.59803">
        <ele>265.6</ele>
        <time>2021-08-20T12:51:20Z</time>
      </trkpt>
      <trkpt lat="46.76313" lon="5.59861">
        <ele>265.6</ele>
        <time>2021-08-20T12:51:26Z</time>
      </trkpt>
      <trkpt lat="46.76285" lon="5.5994">
        <ele>264.4</ele>
        <time>2021-08-20T12:51:34Z</time>
      </trkpt>
      <trkpt lat="46.76253" lon="5.60014">
        <ele>264.8</ele>
        <time>2021-08-20T12:51:42Z</time>
      </trkpt>
      <trkpt lat="46.76245" lon="5.60032">
        <ele>264.8</ele>
        <time>2021-08-20T12:51:44Z</time>
      </trkpt>
      <trkpt lat="46.76212" lon="5.60101">
        <ele>265.2</ele>
        <time>2021-08-20T12:51:52Z</time>
      </trkpt>
      <trkpt lat="46.76208" lon="5.6011">
        <ele>265.2</ele>
        <time>2021-08-20T12:51:53Z</time>
      </trkpt>
      <trkpt lat="46.762" lon="5.60126">
        <ele>265.4</ele>
        <time>2021-08-20T12:51:55Z</time>
      </trkpt>
      <trkpt lat="46.7617" lon="5.60185">
        <ele>265.8</ele>
        <time>2021-08-20T12:52:02Z</time>
      </trkpt>
      <trkpt lat="46.76132" lon="5.60255">
        <ele>266</ele>
        <time>2021-08-20T12:52:10Z</time>
      </trkpt>
      <trkpt lat="46.76127" lon="5.60265">
        <ele>265.8</ele>
        <time>2021-08-20T12:52:11Z</time>
      </trkpt>
      <trkpt lat="46.761" lon="5.60318">
        <ele>264.4</ele>
        <time>2021-08-20T12:52:16Z</time>
      </trkpt>
      <trkpt lat="46.76089" lon="5.6034">
        <ele>264</ele>
        <time>2021-08-20T12:52:18Z</time>
      </trkpt>
      <trkpt lat="46.76069" lon="5.60386">
        <ele>263.4</ele>
        <time>2021-08-20T12:52:22Z</time>
      </trkpt>
      <trkpt lat="46.7606" lon="5.6041">
        <ele>262.8</ele>
        <time>2021-08-20T12:52:24Z</time>
      </trkpt>
      <trkpt lat="46.76048" lon="5.60446">
        <ele>261.6</ele>
        <time>2021-08-20T12:52:27Z</time>
      </trkpt>
      <trkpt lat="46.76041" lon="5.6047">
        <ele>261</ele>
        <time>2021-08-20T12:52:29Z</time>
      </trkpt>
      <trkpt lat="46.76036" lon="5.60494">
        <ele>260.6</ele>
        <time>2021-08-20T12:52:31Z</time>
      </trkpt>
      <trkpt lat="46.76021" lon="5.60563">
        <ele>259.8</ele>
        <time>2021-08-20T12:52:37Z</time>
      </trkpt>
      <trkpt lat="46.76005" lon="5.6064">
        <ele>260.2</ele>
        <time>2021-08-20T12:52:44Z</time>
      </trkpt>
      <trkpt lat="46.76003" lon="5.60651">
        <ele>260.4</ele>
        <time>2021-08-20T12:52:45Z</time>
      </trkpt>
      <trkpt lat="46.7598" lon="5.6072">
        <ele>260.6</ele>
        <time>2021-08-20T12:52:52Z</time>
      </trkpt>
      <trkpt lat="46.75953" lon="5.60768">
        <ele>260.6</ele>
        <time>2021-08-20T12:52:58Z</time>
      </trkpt>
      <trkpt lat="46.75913" lon="5.60821">
        <ele>261.4</ele>
        <time>2021-08-20T12:53:06Z</time>
      </trkpt>
      <trkpt lat="46.75898" lon="5.60838">
        <ele>261.8</ele>
        <time>2021-08-20T12:53:09Z</time>
      </trkpt>
      <trkpt lat="46.75862" lon="5.60874">
        <ele>262.4</ele>
        <time>2021-08-20T12:53:16Z</time>
      </trkpt>
      <trkpt lat="46.75813" lon="5.60918">
        <ele>262.8</ele>
        <time>2021-08-20T12:53:25Z</time>
      </trkpt>
      <trkpt lat="46.75801" lon="5.60927">
        <ele>262.8</ele>
        <time>2021-08-20T12:53:27Z</time>
      </trkpt>
      <trkpt lat="46.75795" lon="5.60933">
        <ele>263</ele>
        <time>2021-08-20T12:53:28Z</time>
      </trkpt>
      <trkpt lat="46.75754" lon="5.60964">
        <ele>263</ele>
        <time>2021-08-20T12:53:35Z</time>
      </trkpt>
      <trkpt lat="46.75716" lon="5.60992">
        <ele>263.6</ele>
        <time>2021-08-20T12:53:42Z</time>
      </trkpt>
      <trkpt lat="46.757" lon="5.61004">
        <ele>264</ele>
        <time>2021-08-20T12:53:45Z</time>
      </trkpt>
      <trkpt lat="46.75663" lon="5.61036">
        <ele>264.6</ele>
        <time>2021-08-20T12:53:52Z</time>
      </trkpt>
      <trkpt lat="46.75637" lon="5.6106">
        <ele>265</ele>
        <time>2021-08-20T12:53:57Z</time>
      </trkpt>
      <trkpt lat="46.7561" lon="5.61086">
        <ele>266</ele>
        <time>2021-08-20T12:54:02Z</time>
      </trkpt>
      <trkpt lat="46.75564" lon="5.61133">
        <ele>266.8</ele>
        <time>2021-08-20T12:54:11Z</time>
      </trkpt>
      <trkpt lat="46.75543" lon="5.61155">
        <ele>267</ele>
        <time>2021-08-20T12:54:16Z</time>
      </trkpt>
      <trkpt lat="46.7554" lon="5.6116">
        <ele>267</ele>
        <time>2021-08-20T12:54:17Z</time>
      </trkpt>
      <trkpt lat="46.75539" lon="5.61171">
        <ele>267.2</ele>
        <time>2021-08-20T12:54:19Z</time>
      </trkpt>
      <trkpt lat="46.7555" lon="5.61188">
        <ele>267.2</ele>
        <time>2021-08-20T12:54:22Z</time>
      </trkpt>
      <trkpt lat="46.7557" lon="5.61214">
        <ele>267.2</ele>
        <time>2021-08-20T12:54:26Z</time>
      </trkpt>
      <trkpt lat="46.75611" lon="5.61265">
        <ele>266.8</ele>
        <time>2021-08-20T12:54:34Z</time>
      </trkpt>
      <trkpt lat="46.7565" lon="5.6132">
        <ele>266.6</ele>
        <time>2021-08-20T12:54:42Z</time>
      </trkpt>
      <trkpt lat="46.75654" lon="5.61327">
        <ele>266.4</ele>
        <time>2021-08-20T12:54:43Z</time>
      </trkpt>
      <trkpt lat="46.75687" lon="5.6138">
        <ele>266</ele>
        <time>2021-08-20T12:54:50Z</time>
      </trkpt>
      <trkpt lat="46.75704" lon="5.61411">
        <ele>265.8</ele>
        <time>2021-08-20T12:54:54Z</time>
      </trkpt>
      <trkpt lat="46.75739" lon="5.61476">
        <ele>265.2</ele>
        <time>2021-08-20T12:55:02Z</time>
      </trkpt>
      <trkpt lat="46.75744" lon="5.61483">
        <ele>265.2</ele>
        <time>2021-08-20T12:55:03Z</time>
      </trkpt>
      <trkpt lat="46.7578" lon="5.61547">
        <ele>265.6</ele>
        <time>2021-08-20T12:55:12Z</time>
      </trkpt>
      <trkpt lat="46.75795" lon="5.61568">
        <ele>265.8</ele>
        <time>2021-08-20T12:55:15Z</time>
      </trkpt>
      <trkpt lat="46.75807" lon="5.61579">
        <ele>265.8</ele>
        <time>2021-08-20T12:55:17Z</time>
      </trkpt>
      <trkpt lat="46.7583" lon="5.61603">
        <ele>265.4</ele>
        <time>2021-08-20T12:55:21Z</time>
      </trkpt>
      <trkpt lat="46.75835" lon="5.61611">
        <ele>265.4</ele>
        <time>2021-08-20T12:55:22Z</time>
      </trkpt>
      <trkpt lat="46.75856" lon="5.61656">
        <ele>265.2</ele>
        <time>2021-08-20T12:55:28Z</time>
      </trkpt>
      <trkpt lat="46.75872" lon="5.61694">
        <ele>266.6</ele>
        <time>2021-08-20T12:55:34Z</time>
      </trkpt>
      <trkpt lat="46.75873" lon="5.61699">
        <ele>266.8</ele>
        <time>2021-08-20T12:55:35Z</time>
      </trkpt>
      <trkpt lat="46.75878" lon="5.6171">
        <ele>267.4</ele>
        <time>2021-08-20T12:55:37Z</time>
      </trkpt>
      <trkpt lat="46.75881" lon="5.61719">
        <ele>268.4</ele>
        <time>2021-08-20T12:55:39Z</time>
      </trkpt>
      <trkpt lat="46.75882" lon="5.61723">
        <ele>268.8</ele>
        <time>2021-08-20T12:55:40Z</time>
      </trkpt>
      <trkpt lat="46.75885" lon="5.61732">
        <ele>269.8</ele>
        <time>2021-08-20T12:55:42Z</time>
      </trkpt>
      <trkpt lat="46.75887" lon="5.61743">
        <ele>270.6</ele>
        <time>2021-08-20T12:55:44Z</time>
      </trkpt>
      <trkpt lat="46.7589" lon="5.61752">
        <ele>271</ele>
        <time>2021-08-20T12:55:46Z</time>
      </trkpt>
      <trkpt lat="46.75891" lon="5.61757">
        <ele>271.4</ele>
        <time>2021-08-20T12:55:47Z</time>
      </trkpt>
      <trkpt lat="46.7589" lon="5.61779">
        <ele>272.6</ele>
        <time>2021-08-20T12:55:51Z</time>
      </trkpt>
      <trkpt lat="46.75889" lon="5.61783">
        <ele>272.8</ele>
        <time>2021-08-20T12:55:52Z</time>
      </trkpt>
      <trkpt lat="46.75883" lon="5.6179">
        <ele>273.6</ele>
        <time>2021-08-20T12:55:54Z</time>
      </trkpt>
      <trkpt lat="46.75876" lon="5.61796">
        <ele>274</ele>
        <time>2021-08-20T12:55:56Z</time>
      </trkpt>
      <trkpt lat="46.75864" lon="5.61801">
        <ele>274.6</ele>
        <time>2021-08-20T12:55:59Z</time>
      </trkpt>
      <trkpt lat="46.75848" lon="5.61803">
        <ele>275.6</ele>
        <time>2021-08-20T12:56:03Z</time>
      </trkpt>
      <trkpt lat="46.75843" lon="5.61804">
        <ele>275.6</ele>
        <time>2021-08-20T12:56:04Z</time>
      </trkpt>
      <trkpt lat="46.75829" lon="5.61805">
        <ele>276.6</ele>
        <time>2021-08-20T12:56:08Z</time>
      </trkpt>
      <trkpt lat="46.75824" lon="5.61805">
        <ele>277</ele>
        <time>2021-08-20T12:56:09Z</time>
      </trkpt>
      <trkpt lat="46.75805" lon="5.61805">
        <ele>277.8</ele>
        <time>2021-08-20T12:56:14Z</time>
      </trkpt>
      <trkpt lat="46.75794" lon="5.61806">
        <ele>278.6</ele>
        <time>2021-08-20T12:56:17Z</time>
      </trkpt>
      <trkpt lat="46.75786" lon="5.61806">
        <ele>279</ele>
        <time>2021-08-20T12:56:19Z</time>
      </trkpt>
      <trkpt lat="46.75762" lon="5.61807">
        <ele>279.8</ele>
        <time>2021-08-20T12:56:25Z</time>
      </trkpt>
      <trkpt lat="46.75758" lon="5.61807">
        <ele>280</ele>
        <time>2021-08-20T12:56:26Z</time>
      </trkpt>
      <trkpt lat="46.75739" lon="5.61807">
        <ele>281</ele>
        <time>2021-08-20T12:56:31Z</time>
      </trkpt>
      <trkpt lat="46.75728" lon="5.61806">
        <ele>281.4</ele>
        <time>2021-08-20T12:56:34Z</time>
      </trkpt>
      <trkpt lat="46.7572" lon="5.61805">
        <ele>281.8</ele>
        <time>2021-08-20T12:56:36Z</time>
      </trkpt>
      <trkpt lat="46.75712" lon="5.61805">
        <ele>282.2</ele>
        <time>2021-08-20T12:56:38Z</time>
      </trkpt>
      <trkpt lat="46.75689" lon="5.61803">
        <ele>283</ele>
        <time>2021-08-20T12:56:44Z</time>
      </trkpt>
      <trkpt lat="46.75685" lon="5.61803">
        <ele>283.2</ele>
        <time>2021-08-20T12:56:45Z</time>
      </trkpt>
      <trkpt lat="46.75664" lon="5.61806">
        <ele>284.2</ele>
        <time>2021-08-20T12:56:50Z</time>
      </trkpt>
      <trkpt lat="46.75656" lon="5.61808">
        <ele>284.8</ele>
        <time>2021-08-20T12:56:52Z</time>
      </trkpt>
      <trkpt lat="46.7564" lon="5.61811">
        <ele>285.4</ele>
        <time>2021-08-20T12:56:56Z</time>
      </trkpt>
      <trkpt lat="46.75612" lon="5.61817">
        <ele>286.4</ele>
        <time>2021-08-20T12:57:03Z</time>
      </trkpt>
      <trkpt lat="46.75604" lon="5.61819">
        <ele>286.8</ele>
        <time>2021-08-20T12:57:05Z</time>
      </trkpt>
      <trkpt lat="46.75588" lon="5.61826">
        <ele>287.4</ele>
        <time>2021-08-20T12:57:09Z</time>
      </trkpt>
      <trkpt lat="46.75582" lon="5.61833">
        <ele>287.4</ele>
        <time>2021-08-20T12:57:11Z</time>
      </trkpt>
      <trkpt lat="46.75578" lon="5.61844">
        <ele>288</ele>
        <time>2021-08-20T12:57:13Z</time>
      </trkpt>
      <trkpt lat="46.75579" lon="5.61855">
        <ele>288.2</ele>
        <time>2021-08-20T12:57:15Z</time>
      </trkpt>
      <trkpt lat="46.75584" lon="5.61864">
        <ele>288.8</ele>
        <time>2021-08-20T12:57:17Z</time>
      </trkpt>
      <trkpt lat="46.75588" lon="5.61867">
        <ele>288.8</ele>
        <time>2021-08-20T12:57:18Z</time>
      </trkpt>
      <trkpt lat="46.75592" lon="5.61868">
        <ele>289</ele>
        <time>2021-08-20T12:57:19Z</time>
      </trkpt>
      <trkpt lat="46.75601" lon="5.61867">
        <ele>289.2</ele>
        <time>2021-08-20T12:57:21Z</time>
      </trkpt>
      <trkpt lat="46.75605" lon="5.61865">
        <ele>289.4</ele>
        <time>2021-08-20T12:57:22Z</time>
      </trkpt>
      <trkpt lat="46.75612" lon="5.6186">
        <ele>289.8</ele>
        <time>2021-08-20T12:57:24Z</time>
      </trkpt>
      <trkpt lat="46.75629" lon="5.61852">
        <ele>290.2</ele>
        <time>2021-08-20T12:57:28Z</time>
      </trkpt>
      <trkpt lat="46.75633" lon="5.61851">
        <ele>290.4</ele>
        <time>2021-08-20T12:57:29Z</time>
      </trkpt>
      <trkpt lat="46.75642" lon="5.61849">
        <ele>290.8</ele>
        <time>2021-08-20T12:57:31Z</time>
      </trkpt>
      <trkpt lat="46.75646" lon="5.61849">
        <ele>290.8</ele>
        <time>2021-08-20T12:57:32Z</time>
      </trkpt>
      <trkpt lat="46.75664" lon="5.61848">
        <ele>291.8</ele>
        <time>2021-08-20T12:57:36Z</time>
      </trkpt>
      <trkpt lat="46.75672" lon="5.61848">
        <ele>292.2</ele>
        <time>2021-08-20T12:57:38Z</time>
      </trkpt>
      <trkpt lat="46.75691" lon="5.61852">
        <ele>293</ele>
        <time>2021-08-20T12:57:43Z</time>
      </trkpt>
      <trkpt lat="46.75699" lon="5.61856">
        <ele>293.6</ele>
        <time>2021-08-20T12:57:45Z</time>
      </trkpt>
      <trkpt lat="46.75709" lon="5.61866">
        <ele>294.2</ele>
        <time>2021-08-20T12:57:48Z</time>
      </trkpt>
      <trkpt lat="46.75728" lon="5.61884">
        <ele>295</ele>
        <time>2021-08-20T12:57:53Z</time>
      </trkpt>
      <trkpt lat="46.75731" lon="5.61888">
        <ele>295.2</ele>
        <time>2021-08-20T12:57:54Z</time>
      </trkpt>
      <trkpt lat="46.75748" lon="5.61907">
        <ele>296.4</ele>
        <time>2021-08-20T12:57:59Z</time>
      </trkpt>
      <trkpt lat="46.75758" lon="5.6192">
        <ele>297.2</ele>
        <time>2021-08-20T12:58:02Z</time>
      </trkpt>
      <trkpt lat="46.75764" lon="5.61929">
        <ele>297.8</ele>
        <time>2021-08-20T12:58:04Z</time>
      </trkpt>
      <trkpt lat="46.75777" lon="5.61947">
        <ele>298.8</ele>
        <time>2021-08-20T12:58:08Z</time>
      </trkpt>
      <trkpt lat="46.75779" lon="5.61952">
        <ele>299</ele>
        <time>2021-08-20T12:58:09Z</time>
      </trkpt>
      <trkpt lat="46.75782" lon="5.61957">
        <ele>299.2</ele>
        <time>2021-08-20T12:58:10Z</time>
      </trkpt>
      <trkpt lat="46.75794" lon="5.61983">
        <ele>300.2</ele>
        <time>2021-08-20T12:58:15Z</time>
      </trkpt>
      <trkpt lat="46.758" lon="5.62">
        <ele>301.2</ele>
        <time>2021-08-20T12:58:18Z</time>
      </trkpt>
      <trkpt lat="46.75803" lon="5.62011">
        <ele>301.6</ele>
        <time>2021-08-20T12:58:20Z</time>
      </trkpt>
      <trkpt lat="46.75812" lon="5.62039">
        <ele>302.6</ele>
        <time>2021-08-20T12:58:25Z</time>
      </trkpt>
      <trkpt lat="46.75815" lon="5.6205">
        <ele>302.8</ele>
        <time>2021-08-20T12:58:27Z</time>
      </trkpt>
      <trkpt lat="46.75819" lon="5.62067">
        <ele>303.6</ele>
        <time>2021-08-20T12:58:30Z</time>
      </trkpt>
      <trkpt lat="46.75825" lon="5.62091">
        <ele>304.4</ele>
        <time>2021-08-20T12:58:34Z</time>
      </trkpt>
      <trkpt lat="46.75828" lon="5.62102">
        <ele>304.8</ele>
        <time>2021-08-20T12:58:36Z</time>
      </trkpt>
      <trkpt lat="46.75833" lon="5.62125">
        <ele>305.2</ele>
        <time>2021-08-20T12:58:40Z</time>
      </trkpt>
      <trkpt lat="46.7584" lon="5.62148">
        <ele>305.8</ele>
        <time>2021-08-20T12:58:44Z</time>
      </trkpt>
      <trkpt lat="46.75841" lon="5.62153">
        <ele>306</ele>
        <time>2021-08-20T12:58:45Z</time>
      </trkpt>
      <trkpt lat="46.75848" lon="5.6218">
        <ele>307</ele>
        <time>2021-08-20T12:58:50Z</time>
      </trkpt>
      <trkpt lat="46.75854" lon="5.62203">
        <ele>308</ele>
        <time>2021-08-20T12:58:54Z</time>
      </trkpt>
      <trkpt lat="46.75856" lon="5.62214">
        <ele>308.6</ele>
        <time>2021-08-20T12:58:56Z</time>
      </trkpt>
      <trkpt lat="46.75859" lon="5.62225">
        <ele>309.2</ele>
        <time>2021-08-20T12:58:58Z</time>
      </trkpt>
      <trkpt lat="46.75867" lon="5.62263">
        <ele>310.4</ele>
        <time>2021-08-20T12:59:05Z</time>
      </trkpt>
      <trkpt lat="46.75868" lon="5.62269">
        <ele>310.6</ele>
        <time>2021-08-20T12:59:06Z</time>
      </trkpt>
      <trkpt lat="46.75873" lon="5.62297">
        <ele>311.4</ele>
        <time>2021-08-20T12:59:11Z</time>
      </trkpt>
      <trkpt lat="46.75876" lon="5.62313">
        <ele>312.4</ele>
        <time>2021-08-20T12:59:14Z</time>
      </trkpt>
      <trkpt lat="46.75877" lon="5.62319">
        <ele>312.4</ele>
        <time>2021-08-20T12:59:15Z</time>
      </trkpt>
      <trkpt lat="46.7588" lon="5.62342">
        <ele>313.6</ele>
        <time>2021-08-20T12:59:19Z</time>
      </trkpt>
      <trkpt lat="46.75882" lon="5.62358">
        <ele>314.2</ele>
        <time>2021-08-20T12:59:22Z</time>
      </trkpt>
      <trkpt lat="46.75884" lon="5.62375">
        <ele>314.8</ele>
        <time>2021-08-20T12:59:25Z</time>
      </trkpt>
      <trkpt lat="46.75887" lon="5.62397">
        <ele>315.8</ele>
        <time>2021-08-20T12:59:29Z</time>
      </trkpt>
      <trkpt lat="46.75889" lon="5.62414">
        <ele>316.6</ele>
        <time>2021-08-20T12:59:32Z</time>
      </trkpt>
      <trkpt lat="46.7589" lon="5.62425">
        <ele>316.8</ele>
        <time>2021-08-20T12:59:34Z</time>
      </trkpt>
      <trkpt lat="46.75893" lon="5.62453">
        <ele>318.2</ele>
        <time>2021-08-20T12:59:39Z</time>
      </trkpt>
      <trkpt lat="46.75896" lon="5.62476">
        <ele>318.6</ele>
        <time>2021-08-20T12:59:43Z</time>
      </trkpt>
      <trkpt lat="46.75898" lon="5.62499">
        <ele>319.6</ele>
        <time>2021-08-20T12:59:47Z</time>
      </trkpt>
      <trkpt lat="46.75902" lon="5.62529">
        <ele>320.4</ele>
        <time>2021-08-20T12:59:52Z</time>
      </trkpt>
      <trkpt lat="46.75903" lon="5.62541">
        <ele>321</ele>
        <time>2021-08-20T12:59:54Z</time>
      </trkpt>
      <trkpt lat="46.75904" lon="5.62552">
        <ele>321.4</ele>
        <time>2021-08-20T12:59:56Z</time>
      </trkpt>
      <trkpt lat="46.75907" lon="5.62581">
        <ele>322.8</ele>
        <time>2021-08-20T13:00:01Z</time>
      </trkpt>
      <trkpt lat="46.75911" lon="5.62616">
        <ele>324.2</ele>
        <time>2021-08-20T13:00:07Z</time>
      </trkpt>
      <trkpt lat="46.75912" lon="5.62635">
        <ele>325.2</ele>
        <time>2021-08-20T13:00:10Z</time>
      </trkpt>
      <trkpt lat="46.75912" lon="5.62639">
        <ele>325.4</ele>
        <time>2021-08-20T13:00:11Z</time>
      </trkpt>
      <trkpt lat="46.75915" lon="5.62662">
        <ele>326.4</ele>
        <time>2021-08-20T13:00:15Z</time>
      </trkpt>
      <trkpt lat="46.75915" lon="5.62673">
        <ele>326.8</ele>
        <time>2021-08-20T13:00:17Z</time>
      </trkpt>
      <trkpt lat="46.75918" lon="5.62696">
        <ele>327.4</ele>
        <time>2021-08-20T13:00:21Z</time>
      </trkpt>
      <trkpt lat="46.75923" lon="5.62719">
        <ele>328.6</ele>
        <time>2021-08-20T13:00:25Z</time>
      </trkpt>
      <trkpt lat="46.75924" lon="5.62726">
        <ele>329.2</ele>
        <time>2021-08-20T13:00:26Z</time>
      </trkpt>
      <trkpt lat="46.75928" lon="5.62743">
        <ele>329.8</ele>
        <time>2021-08-20T13:00:29Z</time>
      </trkpt>
      <trkpt lat="46.7593" lon="5.62756">
        <ele>330.2</ele>
        <time>2021-08-20T13:00:31Z</time>
      </trkpt>
      <trkpt lat="46.75934" lon="5.62771">
        <ele>331</ele>
        <time>2021-08-20T13:00:34Z</time>
      </trkpt>
      <trkpt lat="46.7594" lon="5.62793">
        <ele>332</ele>
        <time>2021-08-20T13:00:38Z</time>
      </trkpt>
      <trkpt lat="46.75944" lon="5.62802">
        <ele>332.4</ele>
        <time>2021-08-20T13:00:40Z</time>
      </trkpt>
      <trkpt lat="46.75953" lon="5.62821">
        <ele>333.2</ele>
        <time>2021-08-20T13:00:44Z</time>
      </trkpt>
      <trkpt lat="46.75962" lon="5.62839">
        <ele>334</ele>
        <time>2021-08-20T13:00:48Z</time>
      </trkpt>
      <trkpt lat="46.75965" lon="5.62844">
        <ele>334.2</ele>
        <time>2021-08-20T13:00:49Z</time>
      </trkpt>
      <trkpt lat="46.75977" lon="5.62873">
        <ele>335.4</ele>
        <time>2021-08-20T13:00:55Z</time>
      </trkpt>
      <trkpt lat="46.75978" lon="5.62878">
        <ele>335.6</ele>
        <time>2021-08-20T13:00:56Z</time>
      </trkpt>
      <trkpt lat="46.75984" lon="5.62905">
        <ele>336.4</ele>
        <time>2021-08-20T13:01:01Z</time>
      </trkpt>
      <trkpt lat="46.75987" lon="5.62927">
        <ele>337</ele>
        <time>2021-08-20T13:01:05Z</time>
      </trkpt>
      <trkpt lat="46.75989" lon="5.62943">
        <ele>337.4</ele>
        <time>2021-08-20T13:01:08Z</time>
      </trkpt>
      <trkpt lat="46.75994" lon="5.62975">
        <ele>338.2</ele>
        <time>2021-08-20T13:01:14Z</time>
      </trkpt>
      <trkpt lat="46.75995" lon="5.62982">
        <ele>338.6</ele>
        <time>2021-08-20T13:01:15Z</time>
      </trkpt>
      <trkpt lat="46.76001" lon="5.63007">
        <ele>339.6</ele>
        <time>2021-08-20T13:01:20Z</time>
      </trkpt>
      <trkpt lat="46.76002" lon="5.63013">
        <ele>339.8</ele>
        <time>2021-08-20T13:01:21Z</time>
      </trkpt>
      <trkpt lat="46.76011" lon="5.63042">
        <ele>341</ele>
        <time>2021-08-20T13:01:27Z</time>
      </trkpt>
      <trkpt lat="46.76017" lon="5.63056">
        <ele>341.6</ele>
        <time>2021-08-20T13:01:30Z</time>
      </trkpt>
      <trkpt lat="46.76022" lon="5.63065">
        <ele>342.2</ele>
        <time>2021-08-20T13:01:32Z</time>
      </trkpt>
      <trkpt lat="46.76037" lon="5.63092">
        <ele>343.4</ele>
        <time>2021-08-20T13:01:38Z</time>
      </trkpt>
      <trkpt lat="46.76051" lon="5.63115">
        <ele>344.8</ele>
        <time>2021-08-20T13:01:43Z</time>
      </trkpt>
      <trkpt lat="46.76068" lon="5.63145">
        <ele>345.6</ele>
        <time>2021-08-20T13:01:49Z</time>
      </trkpt>
      <trkpt lat="46.76071" lon="5.6315">
        <ele>345.8</ele>
        <time>2021-08-20T13:01:50Z</time>
      </trkpt>
      <trkpt lat="46.76078" lon="5.63166">
        <ele>346</ele>
        <time>2021-08-20T13:01:53Z</time>
      </trkpt>
      <trkpt lat="46.7608" lon="5.63178">
        <ele>346.4</ele>
        <time>2021-08-20T13:01:55Z</time>
      </trkpt>
      <trkpt lat="46.76082" lon="5.63201">
        <ele>347</ele>
        <time>2021-08-20T13:01:59Z</time>
      </trkpt>
      <trkpt lat="46.76083" lon="5.63208">
        <ele>347.2</ele>
        <time>2021-08-20T13:02:00Z</time>
      </trkpt>
      <trkpt lat="46.76086" lon="5.63218">
        <ele>347.6</ele>
        <time>2021-08-20T13:02:02Z</time>
      </trkpt>
      <trkpt lat="46.76093" lon="5.63235">
        <ele>348</ele>
        <time>2021-08-20T13:02:05Z</time>
      </trkpt>
      <trkpt lat="46.76101" lon="5.63249">
        <ele>348.6</ele>
        <time>2021-08-20T13:02:08Z</time>
      </trkpt>
      <trkpt lat="46.76112" lon="5.63261">
        <ele>349.2</ele>
        <time>2021-08-20T13:02:11Z</time>
      </trkpt>
      <trkpt lat="46.7613" lon="5.63279">
        <ele>350.2</ele>
        <time>2021-08-20T13:02:16Z</time>
      </trkpt>
      <trkpt lat="46.76156" lon="5.63292">
        <ele>351</ele>
        <time>2021-08-20T13:02:22Z</time>
      </trkpt>
      <trkpt lat="46.76159" lon="5.63293">
        <ele>351.2</ele>
        <time>2021-08-20T13:02:23Z</time>
      </trkpt>
      <trkpt lat="46.76163" lon="5.63295">
        <ele>351.4</ele>
        <time>2021-08-20T13:02:24Z</time>
      </trkpt>
      <trkpt lat="46.76185" lon="5.63304">
        <ele>352</ele>
        <time>2021-08-20T13:02:29Z</time>
      </trkpt>
      <trkpt lat="46.76193" lon="5.63309">
        <ele>352.2</ele>
        <time>2021-08-20T13:02:31Z</time>
      </trkpt>
      <trkpt lat="46.76197" lon="5.63312">
        <ele>352.4</ele>
        <time>2021-08-20T13:02:32Z</time>
      </trkpt>
      <trkpt lat="46.76208" lon="5.63322">
        <ele>353.2</ele>
        <time>2021-08-20T13:02:35Z</time>
      </trkpt>
      <trkpt lat="46.76211" lon="5.63326">
        <ele>353.2</ele>
        <time>2021-08-20T13:02:36Z</time>
      </trkpt>
      <trkpt lat="46.76215" lon="5.6333">
        <ele>353.6</ele>
        <time>2021-08-20T13:02:37Z</time>
      </trkpt>
      <trkpt lat="46.76229" lon="5.63351">
        <ele>354.8</ele>
        <time>2021-08-20T13:02:42Z</time>
      </trkpt>
      <trkpt lat="46.76241" lon="5.63367">
        <ele>355.6</ele>
        <time>2021-08-20T13:02:46Z</time>
      </trkpt>
      <trkpt lat="46.76244" lon="5.63371">
        <ele>355.8</ele>
        <time>2021-08-20T13:02:47Z</time>
      </trkpt>
      <trkpt lat="46.76248" lon="5.63374">
        <ele>355.8</ele>
        <time>2021-08-20T13:02:48Z</time>
      </trkpt>
      <trkpt lat="46.76265" lon="5.63392">
        <ele>357.2</ele>
        <time>2021-08-20T13:02:53Z</time>
      </trkpt>
      <trkpt lat="46.76269" lon="5.63395">
        <ele>357.4</ele>
        <time>2021-08-20T13:02:54Z</time>
      </trkpt>
      <trkpt lat="46.76273" lon="5.63399">
        <ele>357.4</ele>
        <time>2021-08-20T13:02:55Z</time>
      </trkpt>
      <trkpt lat="46.76282" lon="5.63412">
        <ele>357.8</ele>
        <time>2021-08-20T13:02:58Z</time>
      </trkpt>
      <trkpt lat="46.76284" lon="5.63417">
        <ele>357.8</ele>
        <time>2021-08-20T13:02:59Z</time>
      </trkpt>
      <trkpt lat="46.7629" lon="5.63428">
        <ele>358.2</ele>
        <time>2021-08-20T13:03:01Z</time>
      </trkpt>
      <trkpt lat="46.76292" lon="5.63434">
        <ele>358.2</ele>
        <time>2021-08-20T13:03:02Z</time>
      </trkpt>
      <trkpt lat="46.76298" lon="5.63453">
        <ele>358.6</ele>
        <time>2021-08-20T13:03:05Z</time>
      </trkpt>
      <trkpt lat="46.76313" lon="5.63493">
        <ele>359.2</ele>
        <time>2021-08-20T13:03:11Z</time>
      </trkpt>
      <trkpt lat="46.76318" lon="5.63502">
        <ele>359.4</ele>
        <time>2021-08-20T13:03:13Z</time>
      </trkpt>
      <trkpt lat="46.76332" lon="5.63529">
        <ele>360.4</ele>
        <time>2021-08-20T13:03:18Z</time>
      </trkpt>
      <trkpt lat="46.76335" lon="5.6354">
        <ele>360.8</ele>
        <time>2021-08-20T13:03:20Z</time>
      </trkpt>
      <trkpt lat="46.7634" lon="5.63558">
        <ele>361.6</ele>
        <time>2021-08-20T13:03:23Z</time>
      </trkpt>
      <trkpt lat="46.7635" lon="5.63581">
        <ele>362.8</ele>
        <time>2021-08-20T13:03:27Z</time>
      </trkpt>
      <trkpt lat="46.76358" lon="5.63597">
        <ele>363.2</ele>
        <time>2021-08-20T13:03:30Z</time>
      </trkpt>
      <trkpt lat="46.76368" lon="5.63609">
        <ele>363.8</ele>
        <time>2021-08-20T13:03:33Z</time>
      </trkpt>
      <trkpt lat="46.7638" lon="5.63617">
        <ele>364.4</ele>
        <time>2021-08-20T13:03:36Z</time>
      </trkpt>
      <trkpt lat="46.76388" lon="5.6362">
        <ele>364.6</ele>
        <time>2021-08-20T13:03:38Z</time>
      </trkpt>
      <trkpt lat="46.76392" lon="5.63621">
        <ele>364.6</ele>
        <time>2021-08-20T13:03:39Z</time>
      </trkpt>
      <trkpt lat="46.76397" lon="5.63622">
        <ele>365.2</ele>
        <time>2021-08-20T13:03:40Z</time>
      </trkpt>
      <trkpt lat="46.76414" lon="5.63619">
        <ele>365.8</ele>
        <time>2021-08-20T13:03:44Z</time>
      </trkpt>
      <trkpt lat="46.76427" lon="5.63616">
        <ele>366.2</ele>
        <time>2021-08-20T13:03:47Z</time>
      </trkpt>
      <trkpt lat="46.76444" lon="5.63619">
        <ele>366.8</ele>
        <time>2021-08-20T13:03:51Z</time>
      </trkpt>
      <trkpt lat="46.76474" lon="5.63623">
        <ele>368</ele>
        <time>2021-08-20T13:03:58Z</time>
      </trkpt>
      <trkpt lat="46.76487" lon="5.63625">
        <ele>368.4</ele>
        <time>2021-08-20T13:04:01Z</time>
      </trkpt>
      <trkpt lat="46.76504" lon="5.63633">
        <ele>369.4</ele>
        <time>2021-08-20T13:04:06Z</time>
      </trkpt>
      <trkpt lat="46.76507" lon="5.63635">
        <ele>369.6</ele>
        <time>2021-08-20T13:04:07Z</time>
      </trkpt>
      <trkpt lat="46.76515" lon="5.63656">
        <ele>370.6</ele>
        <time>2021-08-20T13:04:11Z</time>
      </trkpt>
      <trkpt lat="46.76514" lon="5.63667">
        <ele>371</ele>
        <time>2021-08-20T13:04:13Z</time>
      </trkpt>
      <trkpt lat="46.76511" lon="5.63671">
        <ele>371</ele>
        <time>2021-08-20T13:04:14Z</time>
      </trkpt>
      <trkpt lat="46.76508" lon="5.63675">
        <ele>371.2</ele>
        <time>2021-08-20T13:04:15Z</time>
      </trkpt>
      <trkpt lat="46.76504" lon="5.63678">
        <ele>371.2</ele>
        <time>2021-08-20T13:04:16Z</time>
      </trkpt>
      <trkpt lat="46.765" lon="5.6368">
        <ele>371.4</ele>
        <time>2021-08-20T13:04:17Z</time>
      </trkpt>
      <trkpt lat="46.76496" lon="5.63681">
        <ele>371.6</ele>
        <time>2021-08-20T13:04:18Z</time>
      </trkpt>
      <trkpt lat="46.76492" lon="5.63682">
        <ele>371.6</ele>
        <time>2021-08-20T13:04:19Z</time>
      </trkpt>
      <trkpt lat="46.7648" lon="5.63685">
        <ele>372.2</ele>
        <time>2021-08-20T13:04:22Z</time>
      </trkpt>
      <trkpt lat="46.76471" lon="5.63686">
        <ele>372.6</ele>
        <time>2021-08-20T13:04:24Z</time>
      </trkpt>
      <trkpt lat="46.76462" lon="5.63689">
        <ele>373</ele>
        <time>2021-08-20T13:04:26Z</time>
      </trkpt>
      <trkpt lat="46.7645" lon="5.63692">
        <ele>373.6</ele>
        <time>2021-08-20T13:04:29Z</time>
      </trkpt>
      <trkpt lat="46.76435" lon="5.63694">
        <ele>375</ele>
        <time>2021-08-20T13:04:33Z</time>
      </trkpt>
      <trkpt lat="46.76426" lon="5.63695">
        <ele>375.2</ele>
        <time>2021-08-20T13:04:35Z</time>
      </trkpt>
      <trkpt lat="46.76412" lon="5.63691">
        <ele>376</ele>
        <time>2021-08-20T13:04:39Z</time>
      </trkpt>
      <trkpt lat="46.76407" lon="5.63688">
        <ele>376.4</ele>
        <time>2021-08-20T13:04:40Z</time>
      </trkpt>
      <trkpt lat="46.76398" lon="5.63682">
        <ele>377.2</ele>
        <time>2021-08-20T13:04:43Z</time>
      </trkpt>
      <trkpt lat="46.7638" lon="5.63668">
        <ele>378.4</ele>
        <time>2021-08-20T13:04:48Z</time>
      </trkpt>
      <trkpt lat="46.76368" lon="5.63653">
        <ele>379.6</ele>
        <time>2021-08-20T13:04:52Z</time>
      </trkpt>
      <trkpt lat="46.76366" lon="5.6365">
        <ele>380</ele>
        <time>2021-08-20T13:04:53Z</time>
      </trkpt>
      <trkpt lat="46.76354" lon="5.63636">
        <ele>380.6</ele>
        <time>2021-08-20T13:04:57Z</time>
      </trkpt>
      <trkpt lat="46.76352" lon="5.63634">
        <ele>380.8</ele>
        <time>2021-08-20T13:04:58Z</time>
      </trkpt>
      <trkpt lat="46.76339" lon="5.63621">
        <ele>381.8</ele>
        <time>2021-08-20T13:05:02Z</time>
      </trkpt>
      <trkpt lat="46.76326" lon="5.63609">
        <ele>383</ele>
        <time>2021-08-20T13:05:06Z</time>
      </trkpt>
      <trkpt lat="46.76323" lon="5.63607">
        <ele>383.2</ele>
        <time>2021-08-20T13:05:07Z</time>
      </trkpt>
      <trkpt lat="46.76296" lon="5.63593">
        <ele>384.2</ele>
        <time>2021-08-20T13:05:14Z</time>
      </trkpt>
      <trkpt lat="46.76268" lon="5.63583">
        <ele>385.4</ele>
        <time>2021-08-20T13:05:21Z</time>
      </trkpt>
      <trkpt lat="46.7626" lon="5.63579">
        <ele>386</ele>
        <time>2021-08-20T13:05:23Z</time>
      </trkpt>
      <trkpt lat="46.76253" lon="5.63575">
        <ele>386.8</ele>
        <time>2021-08-20T13:05:25Z</time>
      </trkpt>
      <trkpt lat="46.76238" lon="5.63564">
        <ele>387.4</ele>
        <time>2021-08-20T13:05:29Z</time>
      </trkpt>
      <trkpt lat="46.76231" lon="5.63559">
        <ele>387.8</ele>
        <time>2021-08-20T13:05:31Z</time>
      </trkpt>
      <trkpt lat="46.76228" lon="5.63556">
        <ele>388</ele>
        <time>2021-08-20T13:05:32Z</time>
      </trkpt>
      <trkpt lat="46.76222" lon="5.6355">
        <ele>388.2</ele>
        <time>2021-08-20T13:05:34Z</time>
      </trkpt>
      <trkpt lat="46.76215" lon="5.6354">
        <ele>389</ele>
        <time>2021-08-20T13:05:36Z</time>
      </trkpt>
      <trkpt lat="46.76213" lon="5.63535">
        <ele>389.4</ele>
        <time>2021-08-20T13:05:37Z</time>
      </trkpt>
      <trkpt lat="46.76208" lon="5.63524">
        <ele>390</ele>
        <time>2021-08-20T13:05:39Z</time>
      </trkpt>
      <trkpt lat="46.76205" lon="5.63514">
        <ele>390.4</ele>
        <time>2021-08-20T13:05:41Z</time>
      </trkpt>
      <trkpt lat="46.76202" lon="5.63503">
        <ele>390.8</ele>
        <time>2021-08-20T13:05:43Z</time>
      </trkpt>
      <trkpt lat="46.762" lon="5.63498">
        <ele>391</ele>
        <time>2021-08-20T13:05:44Z</time>
      </trkpt>
      <trkpt lat="46.76196" lon="5.63493">
        <ele>391.2</ele>
        <time>2021-08-20T13:05:45Z</time>
      </trkpt>
      <trkpt lat="46.76184" lon="5.63476">
        <ele>391.8</ele>
        <time>2021-08-20T13:05:49Z</time>
      </trkpt>
      <trkpt lat="46.76176" lon="5.6347">
        <ele>391.8</ele>
        <time>2021-08-20T13:05:51Z</time>
      </trkpt>
      <trkpt lat="46.76168" lon="5.63464">
        <ele>392</ele>
        <time>2021-08-20T13:05:53Z</time>
      </trkpt>
      <trkpt lat="46.76135" lon="5.63446">
        <ele>392.6</ele>
        <time>2021-08-20T13:06:00Z</time>
      </trkpt>
      <trkpt lat="46.76111" lon="5.63434">
        <ele>393.2</ele>
        <time>2021-08-20T13:06:05Z</time>
      </trkpt>
      <trkpt lat="46.76079" lon="5.63422">
        <ele>394</ele>
        <time>2021-08-20T13:06:12Z</time>
      </trkpt>
      <trkpt lat="46.76071" lon="5.6342">
        <ele>394.4</ele>
        <time>2021-08-20T13:06:14Z</time>
      </trkpt>
      <trkpt lat="46.76048" lon="5.63418">
        <ele>395.2</ele>
        <time>2021-08-20T13:06:19Z</time>
      </trkpt>
      <trkpt lat="46.76039" lon="5.63417">
        <ele>395.6</ele>
        <time>2021-08-20T13:06:21Z</time>
      </trkpt>
      <trkpt lat="46.76005" lon="5.63414">
        <ele>396.8</ele>
        <time>2021-08-20T13:06:28Z</time>
      </trkpt>
      <trkpt lat="46.75982" lon="5.63408">
        <ele>397.8</ele>
        <time>2021-08-20T13:06:33Z</time>
      </trkpt>
      <trkpt lat="46.75973" lon="5.63406">
        <ele>398.4</ele>
        <time>2021-08-20T13:06:35Z</time>
      </trkpt>
      <trkpt lat="46.75961" lon="5.63398">
        <ele>399</ele>
        <time>2021-08-20T13:06:38Z</time>
      </trkpt>
      <trkpt lat="46.75947" lon="5.63388">
        <ele>399.6</ele>
        <time>2021-08-20T13:06:42Z</time>
      </trkpt>
      <trkpt lat="46.7594" lon="5.63382">
        <ele>400.2</ele>
        <time>2021-08-20T13:06:44Z</time>
      </trkpt>
      <trkpt lat="46.75927" lon="5.63368">
        <ele>401.2</ele>
        <time>2021-08-20T13:06:48Z</time>
      </trkpt>
      <trkpt lat="46.75924" lon="5.63365">
        <ele>401.4</ele>
        <time>2021-08-20T13:06:49Z</time>
      </trkpt>
      <trkpt lat="46.7591" lon="5.63352">
        <ele>402.6</ele>
        <time>2021-08-20T13:06:54Z</time>
      </trkpt>
      <trkpt lat="46.75907" lon="5.63349">
        <ele>402.6</ele>
        <time>2021-08-20T13:06:55Z</time>
      </trkpt>
      <trkpt lat="46.75894" lon="5.63334">
        <ele>403.6</ele>
        <time>2021-08-20T13:06:59Z</time>
      </trkpt>
      <trkpt lat="46.75884" lon="5.63325">
        <ele>404.2</ele>
        <time>2021-08-20T13:07:02Z</time>
      </trkpt>
      <trkpt lat="46.75875" lon="5.63316">
        <ele>404.8</ele>
        <time>2021-08-20T13:07:05Z</time>
      </trkpt>
      <trkpt lat="46.75866" lon="5.63307">
        <ele>405.6</ele>
        <time>2021-08-20T13:07:08Z</time>
      </trkpt>
      <trkpt lat="46.7586" lon="5.63302">
        <ele>405.8</ele>
        <time>2021-08-20T13:07:10Z</time>
      </trkpt>
      <trkpt lat="46.7585" lon="5.63294">
        <ele>407</ele>
        <time>2021-08-20T13:07:13Z</time>
      </trkpt>
      <trkpt lat="46.7584" lon="5.63285">
        <ele>407.6</ele>
        <time>2021-08-20T13:07:16Z</time>
      </trkpt>
      <trkpt lat="46.75831" lon="5.63275">
        <ele>408</ele>
        <time>2021-08-20T13:07:19Z</time>
      </trkpt>
      <trkpt lat="46.75819" lon="5.63264">
        <ele>409.2</ele>
        <time>2021-08-20T13:07:23Z</time>
      </trkpt>
      <trkpt lat="46.75815" lon="5.63261">
        <ele>409.4</ele>
        <time>2021-08-20T13:07:24Z</time>
      </trkpt>
      <trkpt lat="46.75806" lon="5.63253">
        <ele>410.4</ele>
        <time>2021-08-20T13:07:27Z</time>
      </trkpt>
      <trkpt lat="46.75787" lon="5.63242">
        <ele>411.4</ele>
        <time>2021-08-20T13:07:33Z</time>
      </trkpt>
      <trkpt lat="46.75767" lon="5.63231">
        <ele>412.4</ele>
        <time>2021-08-20T13:07:39Z</time>
      </trkpt>
      <trkpt lat="46.75764" lon="5.63229">
        <ele>412.8</ele>
        <time>2021-08-20T13:07:40Z</time>
      </trkpt>
      <trkpt lat="46.75754" lon="5.63222">
        <ele>413.6</ele>
        <time>2021-08-20T13:07:43Z</time>
      </trkpt>
      <trkpt lat="46.75739" lon="5.63209">
        <ele>414.6</ele>
        <time>2021-08-20T13:07:48Z</time>
      </trkpt>
      <trkpt lat="46.75728" lon="5.63193">
        <ele>415.4</ele>
        <time>2021-08-20T13:07:53Z</time>
      </trkpt>
      <trkpt lat="46.75725" lon="5.63189">
        <ele>415.8</ele>
        <time>2021-08-20T13:07:54Z</time>
      </trkpt>
      <trkpt lat="46.75718" lon="5.6318">
        <ele>416.6</ele>
        <time>2021-08-20T13:07:57Z</time>
      </trkpt>
      <trkpt lat="46.75709" lon="5.63163">
        <ele>417.8</ele>
        <time>2021-08-20T13:08:01Z</time>
      </trkpt>
      <trkpt lat="46.75707" lon="5.63159">
        <ele>418.2</ele>
        <time>2021-08-20T13:08:02Z</time>
      </trkpt>
      <trkpt lat="46.75703" lon="5.63149">
        <ele>419</ele>
        <time>2021-08-20T13:08:04Z</time>
      </trkpt>
      <trkpt lat="46.75699" lon="5.63135">
        <ele>419.8</ele>
        <time>2021-08-20T13:08:07Z</time>
      </trkpt>
      <trkpt lat="46.75697" lon="5.63131">
        <ele>420.2</ele>
        <time>2021-08-20T13:08:08Z</time>
      </trkpt>
      <trkpt lat="46.75687" lon="5.63112">
        <ele>421</ele>
        <time>2021-08-20T13:08:13Z</time>
      </trkpt>
      <trkpt lat="46.75685" lon="5.63108">
        <ele>421.4</ele>
        <time>2021-08-20T13:08:14Z</time>
      </trkpt>
      <trkpt lat="46.7568" lon="5.63093">
        <ele>422.2</ele>
        <time>2021-08-20T13:08:16Z</time>
      </trkpt>
      <trkpt lat="46.75676" lon="5.63061">
        <ele>423.4</ele>
        <time>2021-08-20T13:08:21Z</time>
      </trkpt>
      <trkpt lat="46.75674" lon="5.63054">
        <ele>423.6</ele>
        <time>2021-08-20T13:08:22Z</time>
      </trkpt>
      <trkpt lat="46.75667" lon="5.63028">
        <ele>423.6</ele>
        <time>2021-08-20T13:08:26Z</time>
      </trkpt>
      <trkpt lat="46.75662" lon="5.63012">
        <ele>424</ele>
        <time>2021-08-20T13:08:29Z</time>
      </trkpt>
      <trkpt lat="46.7566" lon="5.63005">
        <ele>424</ele>
        <time>2021-08-20T13:08:31Z</time>
      </trkpt>
      <trkpt lat="46.7566" lon="5.62998">
        <ele>424.4</ele>
        <time>2021-08-20T13:08:32Z</time>
      </trkpt>
      <trkpt lat="46.75641" lon="5.62975">
        <ele>425.8</ele>
        <time>2021-08-20T13:08:37Z</time>
      </trkpt>
      <trkpt lat="46.75621" lon="5.62952">
        <ele>426.8</ele>
        <time>2021-08-20T13:08:43Z</time>
      </trkpt>
      <trkpt lat="46.75602" lon="5.62922">
        <ele>428.2</ele>
        <time>2021-08-20T13:08:50Z</time>
      </trkpt>
      <trkpt lat="46.75589" lon="5.62895">
        <ele>429.2</ele>
        <time>2021-08-20T13:08:55Z</time>
      </trkpt>
      <trkpt lat="46.75587" lon="5.62883">
        <ele>429.6</ele>
        <time>2021-08-20T13:08:57Z</time>
      </trkpt>
      <trkpt lat="46.75584" lon="5.6286">
        <ele>430.4</ele>
        <time>2021-08-20T13:09:01Z</time>
      </trkpt>
      <trkpt lat="46.75583" lon="5.62849">
        <ele>430.8</ele>
        <time>2021-08-20T13:09:03Z</time>
      </trkpt>
      <trkpt lat="46.75581" lon="5.62842">
        <ele>431.2</ele>
        <time>2021-08-20T13:09:04Z</time>
      </trkpt>
      <trkpt lat="46.7558" lon="5.62837">
        <ele>431.4</ele>
        <time>2021-08-20T13:09:05Z</time>
      </trkpt>
      <trkpt lat="46.75578" lon="5.62816">
        <ele>432.4</ele>
        <time>2021-08-20T13:09:09Z</time>
      </trkpt>
      <trkpt lat="46.75579" lon="5.62811">
        <ele>432.6</ele>
        <time>2021-08-20T13:09:10Z</time>
      </trkpt>
      <trkpt lat="46.75579" lon="5.62794">
        <ele>433.8</ele>
        <time>2021-08-20T13:09:13Z</time>
      </trkpt>
      <trkpt lat="46.75579" lon="5.62788">
        <ele>434</ele>
        <time>2021-08-20T13:09:14Z</time>
      </trkpt>
      <trkpt lat="46.75582" lon="5.62766">
        <ele>435</ele>
        <time>2021-08-20T13:09:18Z</time>
      </trkpt>
      <trkpt lat="46.75584" lon="5.62751">
        <ele>435.8</ele>
        <time>2021-08-20T13:09:21Z</time>
      </trkpt>
      <trkpt lat="46.75585" lon="5.62746">
        <ele>435.8</ele>
        <time>2021-08-20T13:09:22Z</time>
      </trkpt>
      <trkpt lat="46.75591" lon="5.62727">
        <ele>437</ele>
        <time>2021-08-20T13:09:26Z</time>
      </trkpt>
      <trkpt lat="46.75597" lon="5.62713">
        <ele>437.4</ele>
        <time>2021-08-20T13:09:29Z</time>
      </trkpt>
      <trkpt lat="46.75604" lon="5.62704">
        <ele>438.2</ele>
        <time>2021-08-20T13:09:32Z</time>
      </trkpt>
      <trkpt lat="46.7561" lon="5.62701">
        <ele>438.8</ele>
        <time>2021-08-20T13:09:34Z</time>
      </trkpt>
      <trkpt lat="46.75619" lon="5.62699">
        <ele>439.2</ele>
        <time>2021-08-20T13:09:37Z</time>
      </trkpt>
      <trkpt lat="46.75633" lon="5.62701">
        <ele>440.2</ele>
        <time>2021-08-20T13:09:41Z</time>
      </trkpt>
      <trkpt lat="46.75635" lon="5.62702">
        <ele>440.4</ele>
        <time>2021-08-20T13:09:42Z</time>
      </trkpt>
      <trkpt lat="46.75655" lon="5.62706">
        <ele>441.2</ele>
        <time>2021-08-20T13:09:48Z</time>
      </trkpt>
      <trkpt lat="46.75659" lon="5.62706">
        <ele>441.6</ele>
        <time>2021-08-20T13:09:49Z</time>
      </trkpt>
      <trkpt lat="46.75666" lon="5.62707">
        <ele>441.8</ele>
        <time>2021-08-20T13:09:51Z</time>
      </trkpt>
      <trkpt lat="46.75684" lon="5.62709">
        <ele>442.6</ele>
        <time>2021-08-20T13:09:56Z</time>
      </trkpt>
      <trkpt lat="46.75698" lon="5.6271">
        <ele>443.4</ele>
        <time>2021-08-20T13:10:00Z</time>
      </trkpt>
      <trkpt lat="46.75705" lon="5.62708">
        <ele>443.8</ele>
        <time>2021-08-20T13:10:02Z</time>
      </trkpt>
      <trkpt lat="46.75721" lon="5.62699">
        <ele>445</ele>
        <time>2021-08-20T13:10:07Z</time>
      </trkpt>
      <trkpt lat="46.75724" lon="5.6269">
        <ele>445.4</ele>
        <time>2021-08-20T13:10:09Z</time>
      </trkpt>
      <trkpt lat="46.75724" lon="5.62685">
        <ele>445.8</ele>
        <time>2021-08-20T13:10:10Z</time>
      </trkpt>
      <trkpt lat="46.75723" lon="5.62681">
        <ele>445.8</ele>
        <time>2021-08-20T13:10:11Z</time>
      </trkpt>
      <trkpt lat="46.75719" lon="5.62678">
        <ele>446.2</ele>
        <time>2021-08-20T13:10:12Z</time>
      </trkpt>
      <trkpt lat="46.75716" lon="5.62675">
        <ele>446.2</ele>
        <time>2021-08-20T13:10:13Z</time>
      </trkpt>
      <trkpt lat="46.75695" lon="5.62667">
        <ele>447</ele>
        <time>2021-08-20T13:10:19Z</time>
      </trkpt>
      <trkpt lat="46.75692" lon="5.62664">
        <ele>447.2</ele>
        <time>2021-08-20T13:10:20Z</time>
      </trkpt>
      <trkpt lat="46.75681" lon="5.62652">
        <ele>448.2</ele>
        <time>2021-08-20T13:10:24Z</time>
      </trkpt>
      <trkpt lat="46.75672" lon="5.62642">
        <ele>448.8</ele>
        <time>2021-08-20T13:10:27Z</time>
      </trkpt>
      <trkpt lat="46.75663" lon="5.62633">
        <ele>449.2</ele>
        <time>2021-08-20T13:10:30Z</time>
      </trkpt>
      <trkpt lat="46.75645" lon="5.62613">
        <ele>450.4</ele>
        <time>2021-08-20T13:10:36Z</time>
      </trkpt>
      <trkpt lat="46.75637" lon="5.62606">
        <ele>450.8</ele>
        <time>2021-08-20T13:10:38Z</time>
      </trkpt>
      <trkpt lat="46.75617" lon="5.62587">
        <ele>451.6</ele>
        <time>2021-08-20T13:10:43Z</time>
      </trkpt>
      <trkpt lat="46.75608" lon="5.62578">
        <ele>451.6</ele>
        <time>2021-08-20T13:10:45Z</time>
      </trkpt>
      <trkpt lat="46.75599" lon="5.62568">
        <ele>451.6</ele>
        <time>2021-08-20T13:10:47Z</time>
      </trkpt>
      <trkpt lat="46.75588" lon="5.62564">
        <ele>451.6</ele>
        <time>2021-08-20T13:10:49Z</time>
      </trkpt>
      <trkpt lat="46.75564" lon="5.62569">
        <ele>451.4</ele>
        <time>2021-08-20T13:10:53Z</time>
      </trkpt>
      <trkpt lat="46.75559" lon="5.62571">
        <ele>451.4</ele>
        <time>2021-08-20T13:10:54Z</time>
      </trkpt>
      <trkpt lat="46.75538" lon="5.62575">
        <ele>451.6</ele>
        <time>2021-08-20T13:10:58Z</time>
      </trkpt>
      <trkpt lat="46.75525" lon="5.62579">
        <ele>452</ele>
        <time>2021-08-20T13:11:01Z</time>
      </trkpt>
      <trkpt lat="46.75517" lon="5.62584">
        <ele>452.6</ele>
        <time>2021-08-20T13:11:03Z</time>
      </trkpt>
      <trkpt lat="46.75513" lon="5.62586">
        <ele>452.8</ele>
        <time>2021-08-20T13:11:04Z</time>
      </trkpt>
      <trkpt lat="46.7551" lon="5.62589">
        <ele>453</ele>
        <time>2021-08-20T13:11:05Z</time>
      </trkpt>
      <trkpt lat="46.75499" lon="5.62594">
        <ele>453.6</ele>
        <time>2021-08-20T13:11:08Z</time>
      </trkpt>
      <trkpt lat="46.75497" lon="5.62596">
        <ele>453.8</ele>
        <time>2021-08-20T13:11:09Z</time>
      </trkpt>
      <trkpt lat="46.75495" lon="5.62599">
        <ele>454.2</ele>
        <time>2021-08-20T13:11:10Z</time>
      </trkpt>
      <trkpt lat="46.75493" lon="5.62603">
        <ele>454.8</ele>
        <time>2021-08-20T13:11:12Z</time>
      </trkpt>
      <trkpt lat="46.75492" lon="5.62604">
        <ele>455.2</ele>
        <time>2021-08-20T13:11:13Z</time>
      </trkpt>
      <trkpt lat="46.75492" lon="5.62604">
        <ele>455.4</ele>
        <time>2021-08-20T13:11:15Z</time>
      </trkpt>
      <trkpt lat="46.75486" lon="5.62608">
        <ele>455.4</ele>
        <time>2021-08-20T13:12:31Z</time>
      </trkpt>
      <trkpt lat="46.7547" lon="5.62625">
        <ele>456</ele>
        <time>2021-08-20T13:12:36Z</time>
      </trkpt>
      <trkpt lat="46.75466" lon="5.62628">
        <ele>456.2</ele>
        <time>2021-08-20T13:12:37Z</time>
      </trkpt>
      <trkpt lat="46.75461" lon="5.62631">
        <ele>456.4</ele>
        <time>2021-08-20T13:12:38Z</time>
      </trkpt>
      <trkpt lat="46.75448" lon="5.62642">
        <ele>457.2</ele>
        <time>2021-08-20T13:12:41Z</time>
      </trkpt>
      <trkpt lat="46.75444" lon="5.62645">
        <ele>457.6</ele>
        <time>2021-08-20T13:12:42Z</time>
      </trkpt>
      <trkpt lat="46.75436" lon="5.6265">
        <ele>458</ele>
        <time>2021-08-20T13:12:44Z</time>
      </trkpt>
      <trkpt lat="46.75424" lon="5.62661">
        <ele>459</ele>
        <time>2021-08-20T13:12:47Z</time>
      </trkpt>
      <trkpt lat="46.75417" lon="5.62667">
        <ele>459.6</ele>
        <time>2021-08-20T13:12:49Z</time>
      </trkpt>
      <trkpt lat="46.75413" lon="5.62669">
        <ele>459.8</ele>
        <time>2021-08-20T13:12:50Z</time>
      </trkpt>
      <trkpt lat="46.7541" lon="5.62671">
        <ele>460.2</ele>
        <time>2021-08-20T13:12:51Z</time>
      </trkpt>
      <trkpt lat="46.75396" lon="5.6268">
        <ele>461</ele>
        <time>2021-08-20T13:12:55Z</time>
      </trkpt>
      <trkpt lat="46.75393" lon="5.62683">
        <ele>461.4</ele>
        <time>2021-08-20T13:12:56Z</time>
      </trkpt>
      <trkpt lat="46.75382" lon="5.62696">
        <ele>462.8</ele>
        <time>2021-08-20T13:13:00Z</time>
      </trkpt>
      <trkpt lat="46.75375" lon="5.62707">
        <ele>463.8</ele>
        <time>2021-08-20T13:13:03Z</time>
      </trkpt>
      <trkpt lat="46.75371" lon="5.62714">
        <ele>464.4</ele>
        <time>2021-08-20T13:13:05Z</time>
      </trkpt>
      <trkpt lat="46.75365" lon="5.62729">
        <ele>465.2</ele>
        <time>2021-08-20T13:13:08Z</time>
      </trkpt>
      <trkpt lat="46.75362" lon="5.62758">
        <ele>466</ele>
        <time>2021-08-20T13:13:13Z</time>
      </trkpt>
      <trkpt lat="46.75363" lon="5.62764">
        <ele>466</ele>
        <time>2021-08-20T13:13:14Z</time>
      </trkpt>
      <trkpt lat="46.75364" lon="5.6277">
        <ele>466</ele>
        <time>2021-08-20T13:13:15Z</time>
      </trkpt>
      <trkpt lat="46.75374" lon="5.62801">
        <ele>466.4</ele>
        <time>2021-08-20T13:13:20Z</time>
      </trkpt>
      <trkpt lat="46.75375" lon="5.62807">
        <ele>466.6</ele>
        <time>2021-08-20T13:13:21Z</time>
      </trkpt>
      <trkpt lat="46.75376" lon="5.62815">
        <ele>466.8</ele>
        <time>2021-08-20T13:13:22Z</time>
      </trkpt>
      <trkpt lat="46.75386" lon="5.62845">
        <ele>467.2</ele>
        <time>2021-08-20T13:13:27Z</time>
      </trkpt>
      <trkpt lat="46.75394" lon="5.62864">
        <ele>467.4</ele>
        <time>2021-08-20T13:13:30Z</time>
      </trkpt>
      <trkpt lat="46.75399" lon="5.62878">
        <ele>467.4</ele>
        <time>2021-08-20T13:13:32Z</time>
      </trkpt>
      <trkpt lat="46.75401" lon="5.62886">
        <ele>467.4</ele>
        <time>2021-08-20T13:13:33Z</time>
      </trkpt>
      <trkpt lat="46.75404" lon="5.629">
        <ele>467.4</ele>
        <time>2021-08-20T13:13:35Z</time>
      </trkpt>
      <trkpt lat="46.75408" lon="5.62925">
        <ele>467.6</ele>
        <time>2021-08-20T13:13:38Z</time>
      </trkpt>
      <trkpt lat="46.7541" lon="5.62943">
        <ele>467.6</ele>
        <time>2021-08-20T13:13:40Z</time>
      </trkpt>
      <trkpt lat="46.7542" lon="5.62987">
        <ele>467.2</ele>
        <time>2021-08-20T13:13:45Z</time>
      </trkpt>
      <trkpt lat="46.75442" lon="5.63041">
        <ele>467</ele>
        <time>2021-08-20T13:13:51Z</time>
      </trkpt>
      <trkpt lat="46.75475" lon="5.63104">
        <ele>467</ele>
        <time>2021-08-20T13:13:59Z</time>
      </trkpt>
      <trkpt lat="46.75478" lon="5.63112">
        <ele>467.2</ele>
        <time>2021-08-20T13:14:00Z</time>
      </trkpt>
      <trkpt lat="46.75486" lon="5.63137">
        <ele>467.8</ele>
        <time>2021-08-20T13:14:03Z</time>
      </trkpt>
      <trkpt lat="46.75496" lon="5.63176">
        <ele>468.8</ele>
        <time>2021-08-20T13:14:08Z</time>
      </trkpt>
      <trkpt lat="46.75501" lon="5.63199">
        <ele>469.8</ele>
        <time>2021-08-20T13:14:11Z</time>
      </trkpt>
      <trkpt lat="46.75503" lon="5.63206">
        <ele>470</ele>
        <time>2021-08-20T13:14:12Z</time>
      </trkpt>
      <trkpt lat="46.75513" lon="5.63252">
        <ele>471.2</ele>
        <time>2021-08-20T13:14:18Z</time>
      </trkpt>
      <trkpt lat="46.75514" lon="5.6326">
        <ele>471.2</ele>
        <time>2021-08-20T13:14:19Z</time>
      </trkpt>
      <trkpt lat="46.75518" lon="5.63317">
        <ele>472</ele>
        <time>2021-08-20T13:14:26Z</time>
      </trkpt>
      <trkpt lat="46.75518" lon="5.63325">
        <ele>472.2</ele>
        <time>2021-08-20T13:14:27Z</time>
      </trkpt>
      <trkpt lat="46.75517" lon="5.63381">
        <ele>472.8</ele>
        <time>2021-08-20T13:14:34Z</time>
      </trkpt>
      <trkpt lat="46.75518" lon="5.6342">
        <ele>473.2</ele>
        <time>2021-08-20T13:14:39Z</time>
      </trkpt>
      <trkpt lat="46.7552" lon="5.63446">
        <ele>473.2</ele>
        <time>2021-08-20T13:14:42Z</time>
      </trkpt>
      <trkpt lat="46.75526" lon="5.63501">
        <ele>473.2</ele>
        <time>2021-08-20T13:14:48Z</time>
      </trkpt>
      <trkpt lat="46.75534" lon="5.63572">
        <ele>473</ele>
        <time>2021-08-20T13:14:55Z</time>
      </trkpt>
      <trkpt lat="46.75542" lon="5.63652">
        <ele>473.4</ele>
        <time>2021-08-20T13:15:03Z</time>
      </trkpt>
      <trkpt lat="46.75543" lon="5.63661">
        <ele>473.4</ele>
        <time>2021-08-20T13:15:04Z</time>
      </trkpt>
      <trkpt lat="46.75544" lon="5.63671">
        <ele>473.4</ele>
        <time>2021-08-20T13:15:05Z</time>
      </trkpt>
      <trkpt lat="46.75555" lon="5.63726">
        <ele>473.2</ele>
        <time>2021-08-20T13:15:11Z</time>
      </trkpt>
      <trkpt lat="46.75569" lon="5.6381">
        <ele>473.2</ele>
        <time>2021-08-20T13:15:20Z</time>
      </trkpt>
      <trkpt lat="46.75577" lon="5.63861">
        <ele>474.2</ele>
        <time>2021-08-20T13:15:26Z</time>
      </trkpt>
      <trkpt lat="46.7558" lon="5.63876">
        <ele>474.6</ele>
        <time>2021-08-20T13:15:28Z</time>
      </trkpt>
      <trkpt lat="46.75586" lon="5.63898">
        <ele>475.4</ele>
        <time>2021-08-20T13:15:31Z</time>
      </trkpt>
      <trkpt lat="46.75594" lon="5.63918">
        <ele>476</ele>
        <time>2021-08-20T13:15:34Z</time>
      </trkpt>
      <trkpt lat="46.75605" lon="5.63933">
        <ele>476.6</ele>
        <time>2021-08-20T13:15:37Z</time>
      </trkpt>
      <trkpt lat="46.75616" lon="5.63948">
        <ele>477.4</ele>
        <time>2021-08-20T13:15:40Z</time>
      </trkpt>
      <trkpt lat="46.7562" lon="5.63952">
        <ele>477.6</ele>
        <time>2021-08-20T13:15:41Z</time>
      </trkpt>
      <trkpt lat="46.75636" lon="5.63968">
        <ele>478.8</ele>
        <time>2021-08-20T13:15:45Z</time>
      </trkpt>
      <trkpt lat="46.75644" lon="5.63976">
        <ele>479</ele>
        <time>2021-08-20T13:15:47Z</time>
      </trkpt>
      <trkpt lat="46.75652" lon="5.63985">
        <ele>479.8</ele>
        <time>2021-08-20T13:15:49Z</time>
      </trkpt>
      <trkpt lat="46.75668" lon="5.64">
        <ele>481</ele>
        <time>2021-08-20T13:15:53Z</time>
      </trkpt>
      <trkpt lat="46.75684" lon="5.64015">
        <ele>481.4</ele>
        <time>2021-08-20T13:15:57Z</time>
      </trkpt>
      <trkpt lat="46.75702" lon="5.6403">
        <ele>482</ele>
        <time>2021-08-20T13:16:01Z</time>
      </trkpt>
      <trkpt lat="46.75707" lon="5.64034">
        <ele>482.2</ele>
        <time>2021-08-20T13:16:02Z</time>
      </trkpt>
      <trkpt lat="46.75719" lon="5.64048">
        <ele>482.6</ele>
        <time>2021-08-20T13:16:05Z</time>
      </trkpt>
      <trkpt lat="46.75732" lon="5.6406">
        <ele>483</ele>
        <time>2021-08-20T13:16:08Z</time>
      </trkpt>
      <trkpt lat="46.75737" lon="5.64065">
        <ele>483.2</ele>
        <time>2021-08-20T13:16:09Z</time>
      </trkpt>
      <trkpt lat="46.75763" lon="5.64096">
        <ele>484</ele>
        <time>2021-08-20T13:16:15Z</time>
      </trkpt>
      <trkpt lat="46.75767" lon="5.64101">
        <ele>484.2</ele>
        <time>2021-08-20T13:16:16Z</time>
      </trkpt>
      <trkpt lat="46.75799" lon="5.64148">
        <ele>484.6</ele>
        <time>2021-08-20T13:16:24Z</time>
      </trkpt>
      <trkpt lat="46.75818" lon="5.64188">
        <ele>485.4</ele>
        <time>2021-08-20T13:16:30Z</time>
      </trkpt>
      <trkpt lat="46.7582" lon="5.64195">
        <ele>485.6</ele>
        <time>2021-08-20T13:16:31Z</time>
      </trkpt>
      <trkpt lat="46.75831" lon="5.64222">
        <ele>485.8</ele>
        <time>2021-08-20T13:16:35Z</time>
      </trkpt>
      <trkpt lat="46.7584" lon="5.64241">
        <ele>486.2</ele>
        <time>2021-08-20T13:16:38Z</time>
      </trkpt>
      <trkpt lat="46.75847" lon="5.64255">
        <ele>486.4</ele>
        <time>2021-08-20T13:16:40Z</time>
      </trkpt>
      <trkpt lat="46.75869" lon="5.64294">
        <ele>486.2</ele>
        <time>2021-08-20T13:16:46Z</time>
      </trkpt>
      <trkpt lat="46.75884" lon="5.64322">
        <ele>486</ele>
        <time>2021-08-20T13:16:50Z</time>
      </trkpt>
      <trkpt lat="46.75892" lon="5.64338">
        <ele>485.4</ele>
        <time>2021-08-20T13:16:52Z</time>
      </trkpt>
      <trkpt lat="46.75896" lon="5.64346">
        <ele>485.2</ele>
        <time>2021-08-20T13:16:53Z</time>
      </trkpt>
      <trkpt lat="46.75919" lon="5.6439">
        <ele>484.6</ele>
        <time>2021-08-20T13:16:58Z</time>
      </trkpt>
      <trkpt lat="46.75932" lon="5.64419">
        <ele>484</ele>
        <time>2021-08-20T13:17:01Z</time>
      </trkpt>
      <trkpt lat="46.75949" lon="5.64457">
        <ele>483.4</ele>
        <time>2021-08-20T13:17:05Z</time>
      </trkpt>
      <trkpt lat="46.75971" lon="5.64526">
        <ele>483</ele>
        <time>2021-08-20T13:17:12Z</time>
      </trkpt>
      <trkpt lat="46.75988" lon="5.64607">
        <ele>482.4</ele>
        <time>2021-08-20T13:17:20Z</time>
      </trkpt>
      <trkpt lat="46.75996" lon="5.64656">
        <ele>482.4</ele>
        <time>2021-08-20T13:17:25Z</time>
      </trkpt>
      <trkpt lat="46.76001" lon="5.64675">
        <ele>482.8</ele>
        <time>2021-08-20T13:17:27Z</time>
      </trkpt>
      <trkpt lat="46.76016" lon="5.64751">
        <ele>483</ele>
        <time>2021-08-20T13:17:35Z</time>
      </trkpt>
      <trkpt lat="46.76022" lon="5.64778">
        <ele>483.2</ele>
        <time>2021-08-20T13:17:38Z</time>
      </trkpt>
      <trkpt lat="46.76034" lon="5.64837">
        <ele>483.8</ele>
        <time>2021-08-20T13:17:45Z</time>
      </trkpt>
      <trkpt lat="46.76038" lon="5.64852">
        <ele>484</ele>
        <time>2021-08-20T13:17:47Z</time>
      </trkpt>
      <trkpt lat="46.76044" lon="5.64882">
        <ele>484.6</ele>
        <time>2021-08-20T13:17:51Z</time>
      </trkpt>
      <trkpt lat="46.76048" lon="5.64897">
        <ele>485</ele>
        <time>2021-08-20T13:17:53Z</time>
      </trkpt>
      <trkpt lat="46.76054" lon="5.64918">
        <ele>486</ele>
        <time>2021-08-20T13:17:56Z</time>
      </trkpt>
      <trkpt lat="46.76063" lon="5.64944">
        <ele>486.8</ele>
        <time>2021-08-20T13:18:00Z</time>
      </trkpt>
      <trkpt lat="46.76066" lon="5.64957">
        <ele>487.4</ele>
        <time>2021-08-20T13:18:02Z</time>
      </trkpt>
      <trkpt lat="46.76069" lon="5.64986">
        <ele>488</ele>
        <time>2021-08-20T13:18:06Z</time>
      </trkpt>
      <trkpt lat="46.76069" lon="5.65001">
        <ele>488.4</ele>
        <time>2021-08-20T13:18:08Z</time>
      </trkpt>
      <trkpt lat="46.76069" lon="5.65008">
        <ele>488.4</ele>
        <time>2021-08-20T13:18:09Z</time>
      </trkpt>
      <trkpt lat="46.76066" lon="5.65036">
        <ele>489.2</ele>
        <time>2021-08-20T13:18:13Z</time>
      </trkpt>
      <trkpt lat="46.76065" lon="5.65042">
        <ele>489.4</ele>
        <time>2021-08-20T13:18:14Z</time>
      </trkpt>
      <trkpt lat="46.76061" lon="5.65076">
        <ele>490.6</ele>
        <time>2021-08-20T13:18:19Z</time>
      </trkpt>
      <trkpt lat="46.7606" lon="5.65083">
        <ele>490.6</ele>
        <time>2021-08-20T13:18:20Z</time>
      </trkpt>
      <trkpt lat="46.76058" lon="5.65096">
        <ele>491</ele>
        <time>2021-08-20T13:18:22Z</time>
      </trkpt>
      <trkpt lat="46.76055" lon="5.65116">
        <ele>491.4</ele>
        <time>2021-08-20T13:18:25Z</time>
      </trkpt>
      <trkpt lat="46.76051" lon="5.65159">
        <ele>492.4</ele>
        <time>2021-08-20T13:18:32Z</time>
      </trkpt>
      <trkpt lat="46.7605" lon="5.65171">
        <ele>492.8</ele>
        <time>2021-08-20T13:18:34Z</time>
      </trkpt>
      <trkpt lat="46.76047" lon="5.65201">
        <ele>493.4</ele>
        <time>2021-08-20T13:18:39Z</time>
      </trkpt>
      <trkpt lat="46.76045" lon="5.65247">
        <ele>494.4</ele>
        <time>2021-08-20T13:18:47Z</time>
      </trkpt>
      <trkpt lat="46.76045" lon="5.65253">
        <ele>494.8</ele>
        <time>2021-08-20T13:18:48Z</time>
      </trkpt>
      <trkpt lat="46.76044" lon="5.65282">
        <ele>496</ele>
        <time>2021-08-20T13:18:53Z</time>
      </trkpt>
      <trkpt lat="46.76043" lon="5.65299">
        <ele>496.6</ele>
        <time>2021-08-20T13:18:56Z</time>
      </trkpt>
      <trkpt lat="46.76043" lon="5.65323">
        <ele>497.2</ele>
        <time>2021-08-20T13:19:00Z</time>
      </trkpt>
      <trkpt lat="46.76042" lon="5.65357">
        <ele>498.2</ele>
        <time>2021-08-20T13:19:06Z</time>
      </trkpt>
      <trkpt lat="46.76041" lon="5.65363">
        <ele>498.6</ele>
        <time>2021-08-20T13:19:07Z</time>
      </trkpt>
      <trkpt lat="46.7604" lon="5.65407">
        <ele>499.4</ele>
        <time>2021-08-20T13:19:14Z</time>
      </trkpt>
      <trkpt lat="46.7604" lon="5.65428">
        <ele>499.6</ele>
        <time>2021-08-20T13:19:17Z</time>
      </trkpt>
      <trkpt lat="46.76039" lon="5.65485">
        <ele>500.4</ele>
        <time>2021-08-20T13:19:25Z</time>
      </trkpt>
      <trkpt lat="46.7604" lon="5.65499">
        <ele>500.6</ele>
        <time>2021-08-20T13:19:27Z</time>
      </trkpt>
      <trkpt lat="46.7604" lon="5.65535">
        <ele>501.6</ele>
        <time>2021-08-20T13:19:32Z</time>
      </trkpt>
      <trkpt lat="46.76039" lon="5.65548">
        <ele>502.2</ele>
        <time>2021-08-20T13:19:34Z</time>
      </trkpt>
      <trkpt lat="46.76039" lon="5.65581">
        <ele>502.8</ele>
        <time>2021-08-20T13:19:39Z</time>
      </trkpt>
      <trkpt lat="46.76039" lon="5.656">
        <ele>503.8</ele>
        <time>2021-08-20T13:19:42Z</time>
      </trkpt>
      <trkpt lat="46.76039" lon="5.65606">
        <ele>504</ele>
        <time>2021-08-20T13:19:43Z</time>
      </trkpt>
      <trkpt lat="46.7604" lon="5.65624">
        <ele>504.6</ele>
        <time>2021-08-20T13:19:46Z</time>
      </trkpt>
      <trkpt lat="46.76041" lon="5.65636">
        <ele>505</ele>
        <time>2021-08-20T13:19:48Z</time>
      </trkpt>
      <trkpt lat="46.76042" lon="5.65642">
        <ele>505.6</ele>
        <time>2021-08-20T13:19:49Z</time>
      </trkpt>
      <trkpt lat="46.76044" lon="5.65647">
        <ele>505.8</ele>
        <time>2021-08-20T13:19:50Z</time>
      </trkpt>
      <trkpt lat="46.76044" lon="5.65652">
        <ele>506.2</ele>
        <time>2021-08-20T13:19:51Z</time>
      </trkpt>
      <trkpt lat="46.76048" lon="5.65668">
        <ele>506.8</ele>
        <time>2021-08-20T13:19:54Z</time>
      </trkpt>
      <trkpt lat="46.76055" lon="5.65681">
        <ele>507.4</ele>
        <time>2021-08-20T13:19:57Z</time>
      </trkpt>
      <trkpt lat="46.7606" lon="5.65691">
        <ele>508</ele>
        <time>2021-08-20T13:19:59Z</time>
      </trkpt>
      <trkpt lat="46.76068" lon="5.65703">
        <ele>508.6</ele>
        <time>2021-08-20T13:20:02Z</time>
      </trkpt>
      <trkpt lat="46.76073" lon="5.6571">
        <ele>509.4</ele>
        <time>2021-08-20T13:20:04Z</time>
      </trkpt>
      <trkpt lat="46.76082" lon="5.6572">
        <ele>510.6</ele>
        <time>2021-08-20T13:20:07Z</time>
      </trkpt>
      <trkpt lat="46.76098" lon="5.65737">
        <ele>512</ele>
        <time>2021-08-20T13:20:12Z</time>
      </trkpt>
      <trkpt lat="46.76101" lon="5.6574">
        <ele>512.2</ele>
        <time>2021-08-20T13:20:13Z</time>
      </trkpt>
      <trkpt lat="46.76111" lon="5.6575">
        <ele>512.8</ele>
        <time>2021-08-20T13:20:16Z</time>
      </trkpt>
      <trkpt lat="46.76124" lon="5.65762">
        <ele>513.4</ele>
        <time>2021-08-20T13:20:20Z</time>
      </trkpt>
      <trkpt lat="46.76136" lon="5.65775">
        <ele>513.8</ele>
        <time>2021-08-20T13:20:24Z</time>
      </trkpt>
      <trkpt lat="46.76142" lon="5.6578">
        <ele>514</ele>
        <time>2021-08-20T13:20:26Z</time>
      </trkpt>
      <trkpt lat="46.7615" lon="5.65789">
        <ele>514.8</ele>
        <time>2021-08-20T13:20:29Z</time>
      </trkpt>
      <trkpt lat="46.76164" lon="5.658">
        <ele>516</ele>
        <time>2021-08-20T13:20:33Z</time>
      </trkpt>
      <trkpt lat="46.76184" lon="5.65815">
        <ele>517</ele>
        <time>2021-08-20T13:20:39Z</time>
      </trkpt>
      <trkpt lat="46.76194" lon="5.65822">
        <ele>517.4</ele>
        <time>2021-08-20T13:20:42Z</time>
      </trkpt>
      <trkpt lat="46.76207" lon="5.6583">
        <ele>517.8</ele>
        <time>2021-08-20T13:20:45Z</time>
      </trkpt>
      <trkpt lat="46.7622" lon="5.65837">
        <ele>519</ele>
        <time>2021-08-20T13:20:48Z</time>
      </trkpt>
      <trkpt lat="46.76225" lon="5.6584">
        <ele>519.4</ele>
        <time>2021-08-20T13:20:49Z</time>
      </trkpt>
      <trkpt lat="46.7624" lon="5.65854">
        <ele>520</ele>
        <time>2021-08-20T13:20:53Z</time>
      </trkpt>
      <trkpt lat="46.76245" lon="5.65862">
        <ele>520.4</ele>
        <time>2021-08-20T13:20:55Z</time>
      </trkpt>
      <trkpt lat="46.76253" lon="5.65875">
        <ele>521.2</ele>
        <time>2021-08-20T13:20:58Z</time>
      </trkpt>
      <trkpt lat="46.7626" lon="5.65889">
        <ele>522</ele>
        <time>2021-08-20T13:21:01Z</time>
      </trkpt>
      <trkpt lat="46.76265" lon="5.65897">
        <ele>522.6</ele>
        <time>2021-08-20T13:21:03Z</time>
      </trkpt>
      <trkpt lat="46.76273" lon="5.65911">
        <ele>523.4</ele>
        <time>2021-08-20T13:21:06Z</time>
      </trkpt>
      <trkpt lat="46.76275" lon="5.65915">
        <ele>523.6</ele>
        <time>2021-08-20T13:21:07Z</time>
      </trkpt>
      <trkpt lat="46.76286" lon="5.65932">
        <ele>524.4</ele>
        <time>2021-08-20T13:21:11Z</time>
      </trkpt>
      <trkpt lat="46.76292" lon="5.6594">
        <ele>524.4</ele>
        <time>2021-08-20T13:21:13Z</time>
      </trkpt>
      <trkpt lat="46.763" lon="5.65954">
        <ele>525.2</ele>
        <time>2021-08-20T13:21:16Z</time>
      </trkpt>
      <trkpt lat="46.76302" lon="5.65958">
        <ele>525.6</ele>
        <time>2021-08-20T13:21:17Z</time>
      </trkpt>
      <trkpt lat="46.76317" lon="5.65977">
        <ele>526.4</ele>
        <time>2021-08-20T13:21:22Z</time>
      </trkpt>
      <trkpt lat="46.7632" lon="5.6598">
        <ele>526.6</ele>
        <time>2021-08-20T13:21:23Z</time>
      </trkpt>
      <trkpt lat="46.76333" lon="5.65993">
        <ele>527.8</ele>
        <time>2021-08-20T13:21:27Z</time>
      </trkpt>
      <trkpt lat="46.76336" lon="5.65997">
        <ele>528</ele>
        <time>2021-08-20T13:21:28Z</time>
      </trkpt>
      <trkpt lat="46.76348" lon="5.66006">
        <ele>528.6</ele>
        <time>2021-08-20T13:21:31Z</time>
      </trkpt>
      <trkpt lat="46.76351" lon="5.6601">
        <ele>528.8</ele>
        <time>2021-08-20T13:21:32Z</time>
      </trkpt>
      <trkpt lat="46.76354" lon="5.66014">
        <ele>529</ele>
        <time>2021-08-20T13:21:33Z</time>
      </trkpt>
      <trkpt lat="46.76357" lon="5.66019">
        <ele>529.4</ele>
        <time>2021-08-20T13:21:34Z</time>
      </trkpt>
      <trkpt lat="46.76365" lon="5.66026">
        <ele>530</ele>
        <time>2021-08-20T13:21:36Z</time>
      </trkpt>
      <trkpt lat="46.7637" lon="5.66028">
        <ele>530</ele>
        <time>2021-08-20T13:21:37Z</time>
      </trkpt>
      <trkpt lat="46.76372" lon="5.66032">
        <ele>530.2</ele>
        <time>2021-08-20T13:21:38Z</time>
      </trkpt>
      <trkpt lat="46.76383" lon="5.66047">
        <ele>530.6</ele>
        <time>2021-08-20T13:21:42Z</time>
      </trkpt>
      <trkpt lat="46.76388" lon="5.66056">
        <ele>531</ele>
        <time>2021-08-20T13:21:44Z</time>
      </trkpt>
      <trkpt lat="46.76396" lon="5.66069">
        <ele>531.4</ele>
        <time>2021-08-20T13:21:47Z</time>
      </trkpt>
      <trkpt lat="46.76406" lon="5.6609">
        <ele>532</ele>
        <time>2021-08-20T13:21:51Z</time>
      </trkpt>
      <trkpt lat="46.76409" lon="5.66095">
        <ele>532.2</ele>
        <time>2021-08-20T13:21:52Z</time>
      </trkpt>
      <trkpt lat="46.76415" lon="5.66104">
        <ele>532.8</ele>
        <time>2021-08-20T13:21:54Z</time>
      </trkpt>
      <trkpt lat="46.76418" lon="5.66108">
        <ele>533.2</ele>
        <time>2021-08-20T13:21:55Z</time>
      </trkpt>
      <trkpt lat="46.7642" lon="5.66113">
        <ele>533.2</ele>
        <time>2021-08-20T13:21:56Z</time>
      </trkpt>
      <trkpt lat="46.76423" lon="5.66118">
        <ele>533.4</ele>
        <time>2021-08-20T13:21:57Z</time>
      </trkpt>
      <trkpt lat="46.76429" lon="5.66127">
        <ele>533.8</ele>
        <time>2021-08-20T13:21:59Z</time>
      </trkpt>
      <trkpt lat="46.76432" lon="5.66131">
        <ele>534.2</ele>
        <time>2021-08-20T13:22:00Z</time>
      </trkpt>
      <trkpt lat="46.7644" lon="5.66145">
        <ele>534.8</ele>
        <time>2021-08-20T13:22:03Z</time>
      </trkpt>
      <trkpt lat="46.76444" lon="5.66155">
        <ele>535.2</ele>
        <time>2021-08-20T13:22:05Z</time>
      </trkpt>
      <trkpt lat="46.76449" lon="5.66164">
        <ele>535.8</ele>
        <time>2021-08-20T13:22:07Z</time>
      </trkpt>
      <trkpt lat="46.76455" lon="5.66171">
        <ele>536.6</ele>
        <time>2021-08-20T13:22:09Z</time>
      </trkpt>
      <trkpt lat="46.7647" lon="5.66185">
        <ele>537.6</ele>
        <time>2021-08-20T13:22:13Z</time>
      </trkpt>
      <trkpt lat="46.76473" lon="5.66189">
        <ele>537.8</ele>
        <time>2021-08-20T13:22:14Z</time>
      </trkpt>
      <trkpt lat="46.76491" lon="5.66213">
        <ele>538.8</ele>
        <time>2021-08-20T13:22:20Z</time>
      </trkpt>
      <trkpt lat="46.76494" lon="5.66217">
        <ele>539</ele>
        <time>2021-08-20T13:22:21Z</time>
      </trkpt>
      <trkpt lat="46.76507" lon="5.66233">
        <ele>539.8</ele>
        <time>2021-08-20T13:22:25Z</time>
      </trkpt>
      <trkpt lat="46.76513" lon="5.66241">
        <ele>539.8</ele>
        <time>2021-08-20T13:22:27Z</time>
      </trkpt>
      <trkpt lat="46.76516" lon="5.66246">
        <ele>540.2</ele>
        <time>2021-08-20T13:22:28Z</time>
      </trkpt>
      <trkpt lat="46.76523" lon="5.66254">
        <ele>540.6</ele>
        <time>2021-08-20T13:22:30Z</time>
      </trkpt>
      <trkpt lat="46.76529" lon="5.66263">
        <ele>541.2</ele>
        <time>2021-08-20T13:22:32Z</time>
      </trkpt>
      <trkpt lat="46.76532" lon="5.66273">
        <ele>541.4</ele>
        <time>2021-08-20T13:22:34Z</time>
      </trkpt>
      <trkpt lat="46.76542" lon="5.66299">
        <ele>542.6</ele>
        <time>2021-08-20T13:22:39Z</time>
      </trkpt>
      <trkpt lat="46.76546" lon="5.66308">
        <ele>543</ele>
        <time>2021-08-20T13:22:41Z</time>
      </trkpt>
      <trkpt lat="46.76552" lon="5.66323">
        <ele>543.6</ele>
        <time>2021-08-20T13:22:44Z</time>
      </trkpt>
      <trkpt lat="46.76557" lon="5.66333">
        <ele>544</ele>
        <time>2021-08-20T13:22:46Z</time>
      </trkpt>
      <trkpt lat="46.76562" lon="5.66343">
        <ele>544.8</ele>
        <time>2021-08-20T13:22:48Z</time>
      </trkpt>
      <trkpt lat="46.76564" lon="5.66348">
        <ele>545.4</ele>
        <time>2021-08-20T13:22:49Z</time>
      </trkpt>
      <trkpt lat="46.76568" lon="5.66359">
        <ele>545.8</ele>
        <time>2021-08-20T13:22:51Z</time>
      </trkpt>
      <trkpt lat="46.76569" lon="5.66364">
        <ele>546</ele>
        <time>2021-08-20T13:22:52Z</time>
      </trkpt>
      <trkpt lat="46.76583" lon="5.66392">
        <ele>547</ele>
        <time>2021-08-20T13:22:58Z</time>
      </trkpt>
      <trkpt lat="46.76586" lon="5.66395">
        <ele>547.2</ele>
        <time>2021-08-20T13:22:59Z</time>
      </trkpt>
      <trkpt lat="46.76599" lon="5.66412">
        <ele>548.2</ele>
        <time>2021-08-20T13:23:03Z</time>
      </trkpt>
      <trkpt lat="46.76608" lon="5.66422">
        <ele>548.8</ele>
        <time>2021-08-20T13:23:06Z</time>
      </trkpt>
      <trkpt lat="46.76614" lon="5.6643">
        <ele>549.2</ele>
        <time>2021-08-20T13:23:08Z</time>
      </trkpt>
      <trkpt lat="46.76616" lon="5.66434">
        <ele>549.6</ele>
        <time>2021-08-20T13:23:09Z</time>
      </trkpt>
      <trkpt lat="46.76622" lon="5.66443">
        <ele>549.8</ele>
        <time>2021-08-20T13:23:11Z</time>
      </trkpt>
      <trkpt lat="46.76626" lon="5.66447">
        <ele>550</ele>
        <time>2021-08-20T13:23:12Z</time>
      </trkpt>
      <trkpt lat="46.76629" lon="5.66451">
        <ele>550</ele>
        <time>2021-08-20T13:23:13Z</time>
      </trkpt>
      <trkpt lat="46.76632" lon="5.66462">
        <ele>550.4</ele>
        <time>2021-08-20T13:23:15Z</time>
      </trkpt>
      <trkpt lat="46.76634" lon="5.66468">
        <ele>550.8</ele>
        <time>2021-08-20T13:23:16Z</time>
      </trkpt>
      <trkpt lat="46.76637" lon="5.66479">
        <ele>551.2</ele>
        <time>2021-08-20T13:23:18Z</time>
      </trkpt>
      <trkpt lat="46.76638" lon="5.66485">
        <ele>551.4</ele>
        <time>2021-08-20T13:23:19Z</time>
      </trkpt>
      <trkpt lat="46.76639" lon="5.66491">
        <ele>551.4</ele>
        <time>2021-08-20T13:23:20Z</time>
      </trkpt>
      <trkpt lat="46.7664" lon="5.66498">
        <ele>552</ele>
        <time>2021-08-20T13:23:21Z</time>
      </trkpt>
      <trkpt lat="46.76641" lon="5.66504">
        <ele>552.2</ele>
        <time>2021-08-20T13:23:22Z</time>
      </trkpt>
      <trkpt lat="46.76639" lon="5.6651">
        <ele>552.2</ele>
        <time>2021-08-20T13:23:23Z</time>
      </trkpt>
      <trkpt lat="46.76638" lon="5.66517">
        <ele>552.4</ele>
        <time>2021-08-20T13:23:24Z</time>
      </trkpt>
      <trkpt lat="46.76636" lon="5.6653">
        <ele>553</ele>
        <time>2021-08-20T13:23:26Z</time>
      </trkpt>
      <trkpt lat="46.76635" lon="5.66538">
        <ele>553.2</ele>
        <time>2021-08-20T13:23:27Z</time>
      </trkpt>
      <trkpt lat="46.76633" lon="5.66552">
        <ele>554</ele>
        <time>2021-08-20T13:23:29Z</time>
      </trkpt>
      <trkpt lat="46.76627" lon="5.66561">
        <ele>554.4</ele>
        <time>2021-08-20T13:23:31Z</time>
      </trkpt>
      <trkpt lat="46.76621" lon="5.6657">
        <ele>554.6</ele>
        <time>2021-08-20T13:23:33Z</time>
      </trkpt>
      <trkpt lat="46.7661" lon="5.66585">
        <ele>555.8</ele>
        <time>2021-08-20T13:23:37Z</time>
      </trkpt>
      <trkpt lat="46.76604" lon="5.66589">
        <ele>556.6</ele>
        <time>2021-08-20T13:23:39Z</time>
      </trkpt>
      <trkpt lat="46.76603" lon="5.66591">
        <ele>557</ele>
        <time>2021-08-20T13:23:40Z</time>
      </trkpt>
      <trkpt lat="46.76598" lon="5.66597">
        <ele>557.4</ele>
        <time>2021-08-20T13:23:42Z</time>
      </trkpt>
      <trkpt lat="46.76594" lon="5.666">
        <ele>557.4</ele>
        <time>2021-08-20T13:23:43Z</time>
      </trkpt>
      <trkpt lat="46.76587" lon="5.66608">
        <ele>557.8</ele>
        <time>2021-08-20T13:23:45Z</time>
      </trkpt>
      <trkpt lat="46.76579" lon="5.66615">
        <ele>558</ele>
        <time>2021-08-20T13:23:47Z</time>
      </trkpt>
      <trkpt lat="46.76564" lon="5.66626">
        <ele>558.6</ele>
        <time>2021-08-20T13:23:50Z</time>
      </trkpt>
      <trkpt lat="46.76559" lon="5.66631">
        <ele>558.6</ele>
        <time>2021-08-20T13:23:51Z</time>
      </trkpt>
      <trkpt lat="46.76524" lon="5.66659">
        <ele>558.6</ele>
        <time>2021-08-20T13:23:57Z</time>
      </trkpt>
      <trkpt lat="46.76498" lon="5.6668">
        <ele>558.4</ele>
        <time>2021-08-20T13:24:01Z</time>
      </trkpt>
      <trkpt lat="46.76493" lon="5.66687">
        <ele>558.4</ele>
        <time>2021-08-20T13:24:02Z</time>
      </trkpt>
      <trkpt lat="46.76481" lon="5.66704">
        <ele>558.2</ele>
        <time>2021-08-20T13:24:04Z</time>
      </trkpt>
      <trkpt lat="46.76471" lon="5.66726">
        <ele>557.6</ele>
        <time>2021-08-20T13:24:06Z</time>
      </trkpt>
      <trkpt lat="46.76467" lon="5.66738">
        <ele>557.6</ele>
        <time>2021-08-20T13:24:07Z</time>
      </trkpt>
      <trkpt lat="46.76457" lon="5.66775">
        <ele>556.2</ele>
        <time>2021-08-20T13:24:10Z</time>
      </trkpt>
      <trkpt lat="46.76455" lon="5.66817">
        <ele>554.8</ele>
        <time>2021-08-20T13:24:13Z</time>
      </trkpt>
      <trkpt lat="46.76456" lon="5.66831">
        <ele>554.6</ele>
        <time>2021-08-20T13:24:14Z</time>
      </trkpt>
      <trkpt lat="46.76458" lon="5.66892">
        <ele>553.8</ele>
        <time>2021-08-20T13:24:18Z</time>
      </trkpt>
      <trkpt lat="46.76458" lon="5.6692">
        <ele>552.4</ele>
        <time>2021-08-20T13:24:20Z</time>
      </trkpt>
      <trkpt lat="46.7646" lon="5.66935">
        <ele>552.2</ele>
        <time>2021-08-20T13:24:21Z</time>
      </trkpt>
      <trkpt lat="46.76461" lon="5.66949">
        <ele>551.4</ele>
        <time>2021-08-20T13:24:22Z</time>
      </trkpt>
      <trkpt lat="46.76468" lon="5.67002">
        <ele>550.4</ele>
        <time>2021-08-20T13:24:26Z</time>
      </trkpt>
      <trkpt lat="46.7647" lon="5.67014">
        <ele>550.4</ele>
        <time>2021-08-20T13:24:27Z</time>
      </trkpt>
      <trkpt lat="46.76481" lon="5.67077">
        <ele>549.4</ele>
        <time>2021-08-20T13:24:32Z</time>
      </trkpt>
      <trkpt lat="46.76483" lon="5.6709">
        <ele>549</ele>
        <time>2021-08-20T13:24:33Z</time>
      </trkpt>
      <trkpt lat="46.76496" lon="5.67152">
        <ele>548</ele>
        <time>2021-08-20T13:24:38Z</time>
      </trkpt>
      <trkpt lat="46.76497" lon="5.67164">
        <ele>547.8</ele>
        <time>2021-08-20T13:24:39Z</time>
      </trkpt>
      <trkpt lat="46.76508" lon="5.67234">
        <ele>547.2</ele>
        <time>2021-08-20T13:24:44Z</time>
      </trkpt>
      <trkpt lat="46.76511" lon="5.67245">
        <ele>547</ele>
        <time>2021-08-20T13:24:45Z</time>
      </trkpt>
      <trkpt lat="46.76514" lon="5.67258">
        <ele>546.8</ele>
        <time>2021-08-20T13:24:46Z</time>
      </trkpt>
      <trkpt lat="46.76518" lon="5.67271">
        <ele>546.4</ele>
        <time>2021-08-20T13:24:47Z</time>
      </trkpt>
      <trkpt lat="46.76525" lon="5.67307">
        <ele>545.6</ele>
        <time>2021-08-20T13:24:50Z</time>
      </trkpt>
      <trkpt lat="46.76529" lon="5.67333">
        <ele>544.6</ele>
        <time>2021-08-20T13:24:52Z</time>
      </trkpt>
      <trkpt lat="46.76531" lon="5.6735">
        <ele>544.4</ele>
        <time>2021-08-20T13:24:53Z</time>
      </trkpt>
      <trkpt lat="46.76539" lon="5.67405">
        <ele>543.2</ele>
        <time>2021-08-20T13:24:57Z</time>
      </trkpt>
      <trkpt lat="46.76542" lon="5.67431">
        <ele>543.2</ele>
        <time>2021-08-20T13:24:59Z</time>
      </trkpt>
      <trkpt lat="46.7655" lon="5.67501">
        <ele>543.2</ele>
        <time>2021-08-20T13:25:05Z</time>
      </trkpt>
      <trkpt lat="46.76559" lon="5.67564">
        <ele>543.6</ele>
        <time>2021-08-20T13:25:11Z</time>
      </trkpt>
      <trkpt lat="46.76568" lon="5.67606">
        <ele>544.2</ele>
        <time>2021-08-20T13:25:15Z</time>
      </trkpt>
      <trkpt lat="46.76574" lon="5.67627">
        <ele>544.4</ele>
        <time>2021-08-20T13:25:17Z</time>
      </trkpt>
      <trkpt lat="46.7659" lon="5.677">
        <ele>543.4</ele>
        <time>2021-08-20T13:25:23Z</time>
      </trkpt>
      <trkpt lat="46.76592" lon="5.67713">
        <ele>543</ele>
        <time>2021-08-20T13:25:24Z</time>
      </trkpt>
      <trkpt lat="46.766" lon="5.67784">
        <ele>541.8</ele>
        <time>2021-08-20T13:25:29Z</time>
      </trkpt>
      <trkpt lat="46.76605" lon="5.67828">
        <ele>540</ele>
        <time>2021-08-20T13:25:32Z</time>
      </trkpt>
      <trkpt lat="46.76608" lon="5.67857">
        <ele>538.8</ele>
        <time>2021-08-20T13:25:34Z</time>
      </trkpt>
      <trkpt lat="46.76611" lon="5.67904">
        <ele>538.2</ele>
        <time>2021-08-20T13:25:37Z</time>
      </trkpt>
      <trkpt lat="46.76612" lon="5.67918">
        <ele>537.8</ele>
        <time>2021-08-20T13:25:38Z</time>
      </trkpt>
      <trkpt lat="46.76613" lon="5.67931">
        <ele>537.8</ele>
        <time>2021-08-20T13:25:39Z</time>
      </trkpt>
      <trkpt lat="46.76617" lon="5.67984">
        <ele>537.4</ele>
        <time>2021-08-20T13:25:43Z</time>
      </trkpt>
      <trkpt lat="46.7662" lon="5.68054">
        <ele>537.4</ele>
        <time>2021-08-20T13:25:49Z</time>
      </trkpt>
      <trkpt lat="46.76619" lon="5.68138">
        <ele>537.4</ele>
        <time>2021-08-20T13:25:56Z</time>
      </trkpt>
      <trkpt lat="46.76619" lon="5.6815">
        <ele>537.4</ele>
        <time>2021-08-20T13:25:57Z</time>
      </trkpt>
      <trkpt lat="46.76622" lon="5.68231">
        <ele>537.2</ele>
        <time>2021-08-20T13:26:04Z</time>
      </trkpt>
      <trkpt lat="46.7663" lon="5.68279">
        <ele>536.6</ele>
        <time>2021-08-20T13:26:08Z</time>
      </trkpt>
      <trkpt lat="46.76634" lon="5.68305">
        <ele>536.4</ele>
        <time>2021-08-20T13:26:10Z</time>
      </trkpt>
      <trkpt lat="46.7664" lon="5.68347">
        <ele>535.2</ele>
        <time>2021-08-20T13:26:13Z</time>
      </trkpt>
      <trkpt lat="46.76642" lon="5.68389">
        <ele>534</ele>
        <time>2021-08-20T13:26:16Z</time>
      </trkpt>
      <trkpt lat="46.76641" lon="5.68417">
        <ele>532.8</ele>
        <time>2021-08-20T13:26:18Z</time>
      </trkpt>
      <trkpt lat="46.76641" lon="5.68469">
        <ele>531.8</ele>
        <time>2021-08-20T13:26:22Z</time>
      </trkpt>
      <trkpt lat="46.76641" lon="5.68482">
        <ele>531.6</ele>
        <time>2021-08-20T13:26:23Z</time>
      </trkpt>
      <trkpt lat="46.7664" lon="5.68565">
        <ele>532.6</ele>
        <time>2021-08-20T13:26:30Z</time>
      </trkpt>
      <trkpt lat="46.76641" lon="5.68609">
        <ele>533</ele>
        <time>2021-08-20T13:26:34Z</time>
      </trkpt>
      <trkpt lat="46.76641" lon="5.68639">
        <ele>533.4</ele>
        <time>2021-08-20T13:26:37Z</time>
      </trkpt>
      <trkpt lat="46.76641" lon="5.68699">
        <ele>534</ele>
        <time>2021-08-20T13:26:43Z</time>
      </trkpt>
      <trkpt lat="46.76641" lon="5.68708">
        <ele>534.2</ele>
        <time>2021-08-20T13:26:44Z</time>
      </trkpt>
      <trkpt lat="46.76641" lon="5.68774">
        <ele>535.2</ele>
        <time>2021-08-20T13:26:51Z</time>
      </trkpt>
      <trkpt lat="46.76641" lon="5.68784">
        <ele>535.2</ele>
        <time>2021-08-20T13:26:52Z</time>
      </trkpt>
      <trkpt lat="46.76641" lon="5.6883">
        <ele>536.2</ele>
        <time>2021-08-20T13:26:57Z</time>
      </trkpt>
      <trkpt lat="46.7664" lon="5.68866">
        <ele>536.6</ele>
        <time>2021-08-20T13:27:01Z</time>
      </trkpt>
      <trkpt lat="46.7664" lon="5.68891">
        <ele>537</ele>
        <time>2021-08-20T13:27:04Z</time>
      </trkpt>
      <trkpt lat="46.7664" lon="5.68932">
        <ele>538</ele>
        <time>2021-08-20T13:27:09Z</time>
      </trkpt>
      <trkpt lat="46.7664" lon="5.6894">
        <ele>538</ele>
        <time>2021-08-20T13:27:10Z</time>
      </trkpt>
      <trkpt lat="46.76644" lon="5.68988">
        <ele>539.2</ele>
        <time>2021-08-20T13:27:16Z</time>
      </trkpt>
      <trkpt lat="46.76648" lon="5.69037">
        <ele>540.4</ele>
        <time>2021-08-20T13:27:22Z</time>
      </trkpt>
      <trkpt lat="46.76649" lon="5.69044">
        <ele>540.6</ele>
        <time>2021-08-20T13:27:23Z</time>
      </trkpt>
      <trkpt lat="46.76652" lon="5.69076">
        <ele>541</ele>
        <time>2021-08-20T13:27:27Z</time>
      </trkpt>
      <trkpt lat="46.76653" lon="5.69092">
        <ele>541.4</ele>
        <time>2021-08-20T13:27:29Z</time>
      </trkpt>
      <trkpt lat="46.76657" lon="5.69123">
        <ele>542.4</ele>
        <time>2021-08-20T13:27:33Z</time>
      </trkpt>
      <trkpt lat="46.76662" lon="5.69161">
        <ele>542.6</ele>
        <time>2021-08-20T13:27:38Z</time>
      </trkpt>
      <trkpt lat="46.76669" lon="5.69225">
        <ele>543.6</ele>
        <time>2021-08-20T13:27:46Z</time>
      </trkpt>
      <trkpt lat="46.76671" lon="5.69233">
        <ele>543.8</ele>
        <time>2021-08-20T13:27:47Z</time>
      </trkpt>
      <trkpt lat="46.7668" lon="5.69288">
        <ele>543.8</ele>
        <time>2021-08-20T13:27:53Z</time>
      </trkpt>
      <trkpt lat="46.76689" lon="5.69328">
        <ele>542.8</ele>
        <time>2021-08-20T13:27:57Z</time>
      </trkpt>
      <trkpt lat="46.76694" lon="5.69352">
        <ele>542.6</ele>
        <time>2021-08-20T13:27:59Z</time>
      </trkpt>
      <trkpt lat="46.76695" lon="5.69374">
        <ele>542.2</ele>
        <time>2021-08-20T13:28:01Z</time>
      </trkpt>
      <trkpt lat="46.76684" lon="5.69395">
        <ele>541.8</ele>
        <time>2021-08-20T13:28:03Z</time>
      </trkpt>
      <trkpt lat="46.76676" lon="5.69401">
        <ele>541.4</ele>
        <time>2021-08-20T13:28:04Z</time>
      </trkpt>
      <trkpt lat="46.76659" lon="5.69409">
        <ele>540.6</ele>
        <time>2021-08-20T13:28:06Z</time>
      </trkpt>
      <trkpt lat="46.7665" lon="5.69413">
        <ele>540</ele>
        <time>2021-08-20T13:28:07Z</time>
      </trkpt>
      <trkpt lat="46.76622" lon="5.69427">
        <ele>538.6</ele>
        <time>2021-08-20T13:28:10Z</time>
      </trkpt>
      <trkpt lat="46.76592" lon="5.69445">
        <ele>537.4</ele>
        <time>2021-08-20T13:28:13Z</time>
      </trkpt>
      <trkpt lat="46.7656" lon="5.6947">
        <ele>536.4</ele>
        <time>2021-08-20T13:28:17Z</time>
      </trkpt>
      <trkpt lat="46.76544" lon="5.69483">
        <ele>536</ele>
        <time>2021-08-20T13:28:19Z</time>
      </trkpt>
      <trkpt lat="46.76527" lon="5.69496">
        <ele>535.2</ele>
        <time>2021-08-20T13:28:21Z</time>
      </trkpt>
      <trkpt lat="46.7651" lon="5.69502">
        <ele>534.4</ele>
        <time>2021-08-20T13:28:23Z</time>
      </trkpt>
      <trkpt lat="46.76501" lon="5.69504">
        <ele>534</ele>
        <time>2021-08-20T13:28:24Z</time>
      </trkpt>
      <trkpt lat="46.76474" lon="5.69504">
        <ele>533.4</ele>
        <time>2021-08-20T13:28:27Z</time>
      </trkpt>
      <trkpt lat="46.76444" lon="5.69503">
        <ele>533</ele>
        <time>2021-08-20T13:28:30Z</time>
      </trkpt>
      <trkpt lat="46.76408" lon="5.69499">
        <ele>532.2</ele>
        <time>2021-08-20T13:28:34Z</time>
      </trkpt>
      <trkpt lat="46.76371" lon="5.69495">
        <ele>531.8</ele>
        <time>2021-08-20T13:28:38Z</time>
      </trkpt>
      <trkpt lat="46.76336" lon="5.69494">
        <ele>531.4</ele>
        <time>2021-08-20T13:28:42Z</time>
      </trkpt>
      <trkpt lat="46.76285" lon="5.69499">
        <ele>531.2</ele>
        <time>2021-08-20T13:28:48Z</time>
      </trkpt>
      <trkpt lat="46.76237" lon="5.69519">
        <ele>531.4</ele>
        <time>2021-08-20T13:28:54Z</time>
      </trkpt>
      <trkpt lat="46.76186" lon="5.69532">
        <ele>531.4</ele>
        <time>2021-08-20T13:29:00Z</time>
      </trkpt>
      <trkpt lat="46.76145" lon="5.69537">
        <ele>530.8</ele>
        <time>2021-08-20T13:29:05Z</time>
      </trkpt>
      <trkpt lat="46.76105" lon="5.69541">
        <ele>531</ele>
        <time>2021-08-20T13:29:10Z</time>
      </trkpt>
      <trkpt lat="46.76044" lon="5.69542">
        <ele>530.8</ele>
        <time>2021-08-20T13:29:17Z</time>
      </trkpt>
      <trkpt lat="46.76034" lon="5.69542">
        <ele>530.6</ele>
        <time>2021-08-20T13:29:18Z</time>
      </trkpt>
      <trkpt lat="46.76027" lon="5.69541">
        <ele>530.6</ele>
        <time>2021-08-20T13:29:19Z</time>
      </trkpt>
      <trkpt lat="46.75963" lon="5.69548">
        <ele>530</ele>
        <time>2021-08-20T13:29:26Z</time>
      </trkpt>
      <trkpt lat="46.75943" lon="5.69552">
        <ele>529.4</ele>
        <time>2021-08-20T13:29:28Z</time>
      </trkpt>
      <trkpt lat="46.75917" lon="5.69557">
        <ele>528.8</ele>
        <time>2021-08-20T13:29:31Z</time>
      </trkpt>
      <trkpt lat="46.75906" lon="5.6956">
        <ele>528.4</ele>
        <time>2021-08-20T13:29:32Z</time>
      </trkpt>
      <trkpt lat="46.75881" lon="5.69573">
        <ele>527.4</ele>
        <time>2021-08-20T13:29:35Z</time>
      </trkpt>
      <trkpt lat="46.75872" lon="5.69578">
        <ele>527.4</ele>
        <time>2021-08-20T13:29:36Z</time>
      </trkpt>
      <trkpt lat="46.7583" lon="5.69602">
        <ele>526.8</ele>
        <time>2021-08-20T13:29:41Z</time>
      </trkpt>
      <trkpt lat="46.7578" lon="5.69614">
        <ele>526.6</ele>
        <time>2021-08-20T13:29:47Z</time>
      </trkpt>
      <trkpt lat="46.75733" lon="5.69613">
        <ele>527.6</ele>
        <time>2021-08-20T13:29:53Z</time>
      </trkpt>
      <trkpt lat="46.75717" lon="5.69611">
        <ele>528.2</ele>
        <time>2021-08-20T13:29:55Z</time>
      </trkpt>
      <trkpt lat="46.75702" lon="5.6961">
        <ele>528.6</ele>
        <time>2021-08-20T13:29:57Z</time>
      </trkpt>
      <trkpt lat="46.75677" lon="5.6961">
        <ele>528.8</ele>
        <time>2021-08-20T13:30:00Z</time>
      </trkpt>
      <trkpt lat="46.75641" lon="5.69614">
        <ele>529.2</ele>
        <time>2021-08-20T13:30:05Z</time>
      </trkpt>
      <trkpt lat="46.75634" lon="5.69615">
        <ele>529.4</ele>
        <time>2021-08-20T13:30:06Z</time>
      </trkpt>
      <trkpt lat="46.75591" lon="5.69625">
        <ele>530.2</ele>
        <time>2021-08-20T13:30:12Z</time>
      </trkpt>
      <trkpt lat="46.75583" lon="5.69626">
        <ele>530.6</ele>
        <time>2021-08-20T13:30:13Z</time>
      </trkpt>
      <trkpt lat="46.75532" lon="5.69622">
        <ele>529</ele>
        <time>2021-08-20T13:30:19Z</time>
      </trkpt>
      <trkpt lat="46.75487" lon="5.69609">
        <ele>528.2</ele>
        <time>2021-08-20T13:30:24Z</time>
      </trkpt>
      <trkpt lat="46.75478" lon="5.69605">
        <ele>528</ele>
        <time>2021-08-20T13:30:25Z</time>
      </trkpt>
      <trkpt lat="46.75436" lon="5.69586">
        <ele>527</ele>
        <time>2021-08-20T13:30:30Z</time>
      </trkpt>
      <trkpt lat="46.75423" lon="5.69577">
        <ele>527</ele>
        <time>2021-08-20T13:30:32Z</time>
      </trkpt>
      <trkpt lat="46.75395" lon="5.69553">
        <ele>526.8</ele>
        <time>2021-08-20T13:30:36Z</time>
      </trkpt>
      <trkpt lat="46.75345" lon="5.69512">
        <ele>526.4</ele>
        <time>2021-08-20T13:30:43Z</time>
      </trkpt>
      <trkpt lat="46.75337" lon="5.69505">
        <ele>526.4</ele>
        <time>2021-08-20T13:30:44Z</time>
      </trkpt>
      <trkpt lat="46.75301" lon="5.69488">
        <ele>526.8</ele>
        <time>2021-08-20T13:30:49Z</time>
      </trkpt>
      <trkpt lat="46.75279" lon="5.69485">
        <ele>527</ele>
        <time>2021-08-20T13:30:52Z</time>
      </trkpt>
      <trkpt lat="46.7524" lon="5.69484">
        <ele>527.4</ele>
        <time>2021-08-20T13:30:57Z</time>
      </trkpt>
      <trkpt lat="46.75185" lon="5.69481">
        <ele>527.8</ele>
        <time>2021-08-20T13:31:04Z</time>
      </trkpt>
      <trkpt lat="46.75178" lon="5.6948">
        <ele>528</ele>
        <time>2021-08-20T13:31:05Z</time>
      </trkpt>
      <trkpt lat="46.75119" lon="5.69478">
        <ele>528.8</ele>
        <time>2021-08-20T13:31:13Z</time>
      </trkpt>
      <trkpt lat="46.75098" lon="5.69479">
        <ele>529.2</ele>
        <time>2021-08-20T13:31:16Z</time>
      </trkpt>
      <trkpt lat="46.75041" lon="5.69478">
        <ele>530</ele>
        <time>2021-08-20T13:31:24Z</time>
      </trkpt>
      <trkpt lat="46.75034" lon="5.69477">
        <ele>530.4</ele>
        <time>2021-08-20T13:31:25Z</time>
      </trkpt>
      <trkpt lat="46.75013" lon="5.69474">
        <ele>531.4</ele>
        <time>2021-08-20T13:31:28Z</time>
      </trkpt>
      <trkpt lat="46.7499" lon="5.69471">
        <ele>531.6</ele>
        <time>2021-08-20T13:31:31Z</time>
      </trkpt>
      <trkpt lat="46.74975" lon="5.69474">
        <ele>531.6</ele>
        <time>2021-08-20T13:31:33Z</time>
      </trkpt>
      <trkpt lat="46.74968" lon="5.69479">
        <ele>531.6</ele>
        <time>2021-08-20T13:31:34Z</time>
      </trkpt>
      <trkpt lat="46.74961" lon="5.69485">
        <ele>531.4</ele>
        <time>2021-08-20T13:31:35Z</time>
      </trkpt>
      <trkpt lat="46.7495" lon="5.69502">
        <ele>531</ele>
        <time>2021-08-20T13:31:37Z</time>
      </trkpt>
      <trkpt lat="46.74917" lon="5.69552">
        <ele>530.8</ele>
        <time>2021-08-20T13:31:43Z</time>
      </trkpt>
      <trkpt lat="46.74902" lon="5.69561">
        <ele>530.6</ele>
        <time>2021-08-20T13:31:45Z</time>
      </trkpt>
      <trkpt lat="46.74894" lon="5.69562">
        <ele>530.6</ele>
        <time>2021-08-20T13:31:46Z</time>
      </trkpt>
      <trkpt lat="46.74885" lon="5.69562">
        <ele>530.4</ele>
        <time>2021-08-20T13:31:47Z</time>
      </trkpt>
      <trkpt lat="46.74869" lon="5.69557">
        <ele>530.4</ele>
        <time>2021-08-20T13:31:49Z</time>
      </trkpt>
      <trkpt lat="46.74861" lon="5.69553">
        <ele>530.2</ele>
        <time>2021-08-20T13:31:50Z</time>
      </trkpt>
      <trkpt lat="46.74814" lon="5.69529">
        <ele>530.2</ele>
        <time>2021-08-20T13:31:56Z</time>
      </trkpt>
      <trkpt lat="46.74806" lon="5.69527">
        <ele>530.4</ele>
        <time>2021-08-20T13:31:57Z</time>
      </trkpt>
      <trkpt lat="46.74763" lon="5.69523">
        <ele>530.2</ele>
        <time>2021-08-20T13:32:02Z</time>
      </trkpt>
      <trkpt lat="46.74738" lon="5.69526">
        <ele>530.2</ele>
        <time>2021-08-20T13:32:05Z</time>
      </trkpt>
      <trkpt lat="46.74729" lon="5.69531">
        <ele>530.2</ele>
        <time>2021-08-20T13:32:06Z</time>
      </trkpt>
      <trkpt lat="46.74722" lon="5.69536">
        <ele>530.2</ele>
        <time>2021-08-20T13:32:07Z</time>
      </trkpt>
      <trkpt lat="46.7471" lon="5.69549">
        <ele>530.4</ele>
        <time>2021-08-20T13:32:09Z</time>
      </trkpt>
      <trkpt lat="46.74666" lon="5.69604">
        <ele>531.2</ele>
        <time>2021-08-20T13:32:16Z</time>
      </trkpt>
      <trkpt lat="46.74659" lon="5.69611">
        <ele>531.2</ele>
        <time>2021-08-20T13:32:17Z</time>
      </trkpt>
      <trkpt lat="46.74638" lon="5.69634">
        <ele>530.8</ele>
        <time>2021-08-20T13:32:20Z</time>
      </trkpt>
      <trkpt lat="46.7463" lon="5.69639">
        <ele>530.6</ele>
        <time>2021-08-20T13:32:21Z</time>
      </trkpt>
      <trkpt lat="46.74621" lon="5.69643">
        <ele>530.6</ele>
        <time>2021-08-20T13:32:22Z</time>
      </trkpt>
      <trkpt lat="46.74603" lon="5.69646">
        <ele>530.6</ele>
        <time>2021-08-20T13:32:24Z</time>
      </trkpt>
      <trkpt lat="46.74567" lon="5.69639">
        <ele>530.2</ele>
        <time>2021-08-20T13:32:28Z</time>
      </trkpt>
      <trkpt lat="46.74506" lon="5.6962">
        <ele>530.4</ele>
        <time>2021-08-20T13:32:35Z</time>
      </trkpt>
      <trkpt lat="46.74492" lon="5.69617">
        <ele>530.4</ele>
        <time>2021-08-20T13:32:37Z</time>
      </trkpt>
      <trkpt lat="46.74454" lon="5.69612">
        <ele>531.4</ele>
        <time>2021-08-20T13:32:42Z</time>
      </trkpt>
      <trkpt lat="46.74446" lon="5.69611">
        <ele>531.6</ele>
        <time>2021-08-20T13:32:43Z</time>
      </trkpt>
      <trkpt lat="46.74388" lon="5.6961">
        <ele>531.4</ele>
        <time>2021-08-20T13:32:50Z</time>
      </trkpt>
      <trkpt lat="46.74333" lon="5.69611">
        <ele>531.6</ele>
        <time>2021-08-20T13:32:57Z</time>
      </trkpt>
      <trkpt lat="46.74316" lon="5.69611">
        <ele>532</ele>
        <time>2021-08-20T13:32:59Z</time>
      </trkpt>
      <trkpt lat="46.74286" lon="5.69612">
        <ele>532.4</ele>
        <time>2021-08-20T13:33:03Z</time>
      </trkpt>
      <trkpt lat="46.74231" lon="5.69611">
        <ele>532.6</ele>
        <time>2021-08-20T13:33:10Z</time>
      </trkpt>
      <trkpt lat="46.74216" lon="5.69606">
        <ele>532.8</ele>
        <time>2021-08-20T13:33:12Z</time>
      </trkpt>
      <trkpt lat="46.74204" lon="5.696">
        <ele>533.2</ele>
        <time>2021-08-20T13:33:14Z</time>
      </trkpt>
      <trkpt lat="46.74185" lon="5.69589">
        <ele>533.4</ele>
        <time>2021-08-20T13:33:16Z</time>
      </trkpt>
      <trkpt lat="46.7415" lon="5.69565">
        <ele>533.6</ele>
        <time>2021-08-20T13:33:21Z</time>
      </trkpt>
      <trkpt lat="46.74136" lon="5.69557">
        <ele>533.6</ele>
        <time>2021-08-20T13:33:23Z</time>
      </trkpt>
      <trkpt lat="46.74121" lon="5.69553">
        <ele>533.8</ele>
        <time>2021-08-20T13:33:25Z</time>
      </trkpt>
      <trkpt lat="46.74066" lon="5.69547">
        <ele>534</ele>
        <time>2021-08-20T13:33:32Z</time>
      </trkpt>
      <trkpt lat="46.74058" lon="5.69547">
        <ele>534.2</ele>
        <time>2021-08-20T13:33:34Z</time>
      </trkpt>
      <trkpt lat="46.73998" lon="5.6955">
        <ele>534.4</ele>
        <time>2021-08-20T13:33:41Z</time>
      </trkpt>
      <trkpt lat="46.7397" lon="5.69559">
        <ele>534.6</ele>
        <time>2021-08-20T13:33:45Z</time>
      </trkpt>
      <trkpt lat="46.73949" lon="5.6957">
        <ele>535.2</ele>
        <time>2021-08-20T13:33:48Z</time>
      </trkpt>
      <trkpt lat="46.73913" lon="5.69604">
        <ele>535.4</ele>
        <time>2021-08-20T13:33:54Z</time>
      </trkpt>
      <trkpt lat="46.7388" lon="5.69651">
        <ele>535.2</ele>
        <time>2021-08-20T13:34:00Z</time>
      </trkpt>
      <trkpt lat="46.73875" lon="5.69656">
        <ele>535</ele>
        <time>2021-08-20T13:34:01Z</time>
      </trkpt>
      <trkpt lat="46.73868" lon="5.69663">
        <ele>535</ele>
        <time>2021-08-20T13:34:02Z</time>
      </trkpt>
      <trkpt lat="46.73855" lon="5.6967">
        <ele>535</ele>
        <time>2021-08-20T13:34:04Z</time>
      </trkpt>
      <trkpt lat="46.73847" lon="5.69672">
        <ele>534.8</ele>
        <time>2021-08-20T13:34:05Z</time>
      </trkpt>
      <trkpt lat="46.73788" lon="5.6969">
        <ele>534.8</ele>
        <time>2021-08-20T13:34:14Z</time>
      </trkpt>
      <trkpt lat="46.73765" lon="5.69713">
        <ele>534.8</ele>
        <time>2021-08-20T13:34:17Z</time>
      </trkpt>
      <trkpt lat="46.73733" lon="5.69753">
        <ele>535.8</ele>
        <time>2021-08-20T13:34:23Z</time>
      </trkpt>
      <trkpt lat="46.73702" lon="5.69791">
        <ele>536.8</ele>
        <time>2021-08-20T13:34:29Z</time>
      </trkpt>
      <trkpt lat="46.73698" lon="5.69798">
        <ele>536.8</ele>
        <time>2021-08-20T13:34:30Z</time>
      </trkpt>
      <trkpt lat="46.73688" lon="5.69822">
        <ele>537.2</ele>
        <time>2021-08-20T13:34:33Z</time>
      </trkpt>
      <trkpt lat="46.73679" lon="5.69835">
        <ele>537.4</ele>
        <time>2021-08-20T13:34:35Z</time>
      </trkpt>
      <trkpt lat="46.73667" lon="5.69848">
        <ele>537.4</ele>
        <time>2021-08-20T13:34:37Z</time>
      </trkpt>
      <trkpt lat="46.73636" lon="5.69881">
        <ele>536.6</ele>
        <time>2021-08-20T13:34:43Z</time>
      </trkpt>
      <trkpt lat="46.73623" lon="5.69896">
        <ele>536.4</ele>
        <time>2021-08-20T13:34:44Z</time>
      </trkpt>
      <trkpt lat="46.73612" lon="5.69915">
        <ele>536.2</ele>
        <time>2021-08-20T13:34:46Z</time>
      </trkpt>
      <trkpt lat="46.73606" lon="5.69924">
        <ele>535.6</ele>
        <time>2021-08-20T13:34:47Z</time>
      </trkpt>
      <trkpt lat="46.736" lon="5.69932">
        <ele>534.8</ele>
        <time>2021-08-20T13:34:49Z</time>
      </trkpt>
      <trkpt lat="46.73585" lon="5.69945">
        <ele>534.6</ele>
        <time>2021-08-20T13:34:50Z</time>
      </trkpt>
      <trkpt lat="46.73577" lon="5.69948">
        <ele>534.4</ele>
        <time>2021-08-20T13:34:51Z</time>
      </trkpt>
      <trkpt lat="46.7356" lon="5.69951">
        <ele>534</ele>
        <time>2021-08-20T13:34:53Z</time>
      </trkpt>
      <trkpt lat="46.7355" lon="5.69949">
        <ele>533.6</ele>
        <time>2021-08-20T13:34:54Z</time>
      </trkpt>
      <trkpt lat="46.73542" lon="5.69944">
        <ele>533.4</ele>
        <time>2021-08-20T13:34:55Z</time>
      </trkpt>
      <trkpt lat="46.73532" lon="5.6993">
        <ele>533.2</ele>
        <time>2021-08-20T13:34:57Z</time>
      </trkpt>
      <trkpt lat="46.73523" lon="5.69913">
        <ele>533.2</ele>
        <time>2021-08-20T13:34:59Z</time>
      </trkpt>
      <trkpt lat="46.73514" lon="5.69908">
        <ele>533.2</ele>
        <time>2021-08-20T13:35:01Z</time>
      </trkpt>
      <trkpt lat="46.73505" lon="5.69914">
        <ele>533</ele>
        <time>2021-08-20T13:35:03Z</time>
      </trkpt>
      <trkpt lat="46.73501" lon="5.6992">
        <ele>533</ele>
        <time>2021-08-20T13:35:04Z</time>
      </trkpt>
      <trkpt lat="46.73498" lon="5.69927">
        <ele>533</ele>
        <time>2021-08-20T13:35:05Z</time>
      </trkpt>
      <trkpt lat="46.73481" lon="5.69965">
        <ele>533</ele>
        <time>2021-08-20T13:35:10Z</time>
      </trkpt>
      <trkpt lat="46.73473" lon="5.69992">
        <ele>533</ele>
        <time>2021-08-20T13:35:13Z</time>
      </trkpt>
      <trkpt lat="46.73468" lon="5.7001">
        <ele>533.6</ele>
        <time>2021-08-20T13:35:15Z</time>
      </trkpt>
      <trkpt lat="46.7346" lon="5.70033">
        <ele>534</ele>
        <time>2021-08-20T13:35:18Z</time>
      </trkpt>
      <trkpt lat="46.7345" lon="5.70043">
        <ele>534.4</ele>
        <time>2021-08-20T13:35:20Z</time>
      </trkpt>
      <trkpt lat="46.7344" lon="5.70054">
        <ele>534.4</ele>
        <time>2021-08-20T13:35:22Z</time>
      </trkpt>
      <trkpt lat="46.73436" lon="5.70059">
        <ele>534.4</ele>
        <time>2021-08-20T13:35:24Z</time>
      </trkpt>
      <trkpt lat="46.73429" lon="5.70075">
        <ele>534.4</ele>
        <time>2021-08-20T13:35:25Z</time>
      </trkpt>
      <trkpt lat="46.73426" lon="5.70084">
        <ele>534.4</ele>
        <time>2021-08-20T13:35:26Z</time>
      </trkpt>
      <trkpt lat="46.73417" lon="5.70108">
        <ele>534.6</ele>
        <time>2021-08-20T13:35:29Z</time>
      </trkpt>
      <trkpt lat="46.73411" lon="5.70125">
        <ele>534.6</ele>
        <time>2021-08-20T13:35:31Z</time>
      </trkpt>
      <trkpt lat="46.73396" lon="5.70179">
        <ele>535</ele>
        <time>2021-08-20T13:35:37Z</time>
      </trkpt>
      <trkpt lat="46.73372" lon="5.70258">
        <ele>534.6</ele>
        <time>2021-08-20T13:35:45Z</time>
      </trkpt>
      <trkpt lat="46.73372" lon="5.70258">
        <ele>534.4</ele>
        <time>2021-08-20T13:35:46Z</time>
      </trkpt>
      <trkpt lat="46.73366" lon="5.70279">
        <ele>534.4</ele>
        <time>2021-08-20T13:35:47Z</time>
      </trkpt>
      <trkpt lat="46.7336" lon="5.70312">
        <ele>534</ele>
        <time>2021-08-20T13:35:50Z</time>
      </trkpt>
      <trkpt lat="46.73355" lon="5.70333">
        <ele>533.8</ele>
        <time>2021-08-20T13:35:52Z</time>
      </trkpt>
      <trkpt lat="46.73345" lon="5.70351">
        <ele>533.6</ele>
        <time>2021-08-20T13:35:54Z</time>
      </trkpt>
      <trkpt lat="46.73338" lon="5.70358">
        <ele>533.4</ele>
        <time>2021-08-20T13:35:56Z</time>
      </trkpt>
      <trkpt lat="46.73302" lon="5.70385">
        <ele>533.2</ele>
        <time>2021-08-20T13:36:00Z</time>
      </trkpt>
      <trkpt lat="46.73248" lon="5.70418">
        <ele>532.2</ele>
        <time>2021-08-20T13:36:07Z</time>
      </trkpt>
      <trkpt lat="46.7324" lon="5.70422">
        <ele>532.2</ele>
        <time>2021-08-20T13:36:08Z</time>
      </trkpt>
      <trkpt lat="46.73215" lon="5.70432">
        <ele>531.4</ele>
        <time>2021-08-20T13:36:11Z</time>
      </trkpt>
      <trkpt lat="46.73206" lon="5.70438">
        <ele>531.2</ele>
        <time>2021-08-20T13:36:12Z</time>
      </trkpt>
      <trkpt lat="46.73199" lon="5.70444">
        <ele>531</ele>
        <time>2021-08-20T13:36:13Z</time>
      </trkpt>
      <trkpt lat="46.7316" lon="5.70478">
        <ele>530.6</ele>
        <time>2021-08-20T13:36:18Z</time>
      </trkpt>
      <trkpt lat="46.73143" lon="5.70486">
        <ele>530.2</ele>
        <time>2021-08-20T13:36:21Z</time>
      </trkpt>
      <trkpt lat="46.7312" lon="5.70493">
        <ele>530</ele>
        <time>2021-08-20T13:36:23Z</time>
      </trkpt>
      <trkpt lat="46.73113" lon="5.70496">
        <ele>530</ele>
        <time>2021-08-20T13:36:24Z</time>
      </trkpt>
      <trkpt lat="46.731" lon="5.70507">
        <ele>530</ele>
        <time>2021-08-20T13:36:26Z</time>
      </trkpt>
      <trkpt lat="46.73091" lon="5.70522">
        <ele>530.2</ele>
        <time>2021-08-20T13:36:28Z</time>
      </trkpt>
      <trkpt lat="46.73088" lon="5.70531">
        <ele>530.4</ele>
        <time>2021-08-20T13:36:29Z</time>
      </trkpt>
      <trkpt lat="46.7308" lon="5.7056">
        <ele>531.2</ele>
        <time>2021-08-20T13:36:32Z</time>
      </trkpt>
      <trkpt lat="46.73072" lon="5.7059">
        <ele>531.8</ele>
        <time>2021-08-20T13:36:36Z</time>
      </trkpt>
      <trkpt lat="46.73061" lon="5.7063">
        <ele>532.2</ele>
        <time>2021-08-20T13:36:39Z</time>
      </trkpt>
      <trkpt lat="46.73049" lon="5.70671">
        <ele>532.6</ele>
        <time>2021-08-20T13:36:43Z</time>
      </trkpt>
      <trkpt lat="46.7302" lon="5.70749">
        <ele>532.8</ele>
        <time>2021-08-20T13:36:51Z</time>
      </trkpt>
      <trkpt lat="46.73016" lon="5.70758">
        <ele>532.8</ele>
        <time>2021-08-20T13:36:52Z</time>
      </trkpt>
      <trkpt lat="46.72985" lon="5.70805">
        <ele>532.2</ele>
        <time>2021-08-20T13:36:58Z</time>
      </trkpt>
      <trkpt lat="46.72941" lon="5.70858">
        <ele>532.8</ele>
        <time>2021-08-20T13:37:06Z</time>
      </trkpt>
      <trkpt lat="46.72907" lon="5.7089">
        <ele>533.2</ele>
        <time>2021-08-20T13:37:12Z</time>
      </trkpt>
      <trkpt lat="46.72901" lon="5.70896">
        <ele>533.2</ele>
        <time>2021-08-20T13:37:13Z</time>
      </trkpt>
      <trkpt lat="46.72864" lon="5.70928">
        <ele>534</ele>
        <time>2021-08-20T13:37:20Z</time>
      </trkpt>
      <trkpt lat="46.72853" lon="5.70933">
        <ele>534</ele>
        <time>2021-08-20T13:37:21Z</time>
      </trkpt>
      <trkpt lat="46.72853" lon="5.70933">
        <ele>534</ele>
        <time>2021-08-20T13:37:22Z</time>
      </trkpt>
      <trkpt lat="46.72837" lon="5.70932">
        <ele>534</ele>
        <time>2021-08-20T13:37:23Z</time>
      </trkpt>
      <trkpt lat="46.72824" lon="5.70923">
        <ele>534.2</ele>
        <time>2021-08-20T13:37:25Z</time>
      </trkpt>
      <trkpt lat="46.72818" lon="5.70916">
        <ele>534.2</ele>
        <time>2021-08-20T13:37:26Z</time>
      </trkpt>
      <trkpt lat="46.72813" lon="5.70909">
        <ele>534.2</ele>
        <time>2021-08-20T13:37:27Z</time>
      </trkpt>
      <trkpt lat="46.72808" lon="5.709">
        <ele>534.4</ele>
        <time>2021-08-20T13:37:28Z</time>
      </trkpt>
      <trkpt lat="46.72792" lon="5.70869">
        <ele>534.4</ele>
        <time>2021-08-20T13:37:32Z</time>
      </trkpt>
      <trkpt lat="46.72768" lon="5.70815">
        <ele>535.2</ele>
        <time>2021-08-20T13:37:39Z</time>
      </trkpt>
      <trkpt lat="46.72765" lon="5.70807">
        <ele>535.6</ele>
        <time>2021-08-20T13:37:40Z</time>
      </trkpt>
      <trkpt lat="46.72748" lon="5.70778">
        <ele>535.6</ele>
        <time>2021-08-20T13:37:44Z</time>
      </trkpt>
      <trkpt lat="46.72748" lon="5.70778">
        <ele>535.8</ele>
        <time>2021-08-20T13:37:45Z</time>
      </trkpt>
      <trkpt lat="46.72736" lon="5.70767">
        <ele>535.8</ele>
        <time>2021-08-20T13:37:46Z</time>
      </trkpt>
      <trkpt lat="46.7272" lon="5.70764">
        <ele>535.8</ele>
        <time>2021-08-20T13:37:48Z</time>
      </trkpt>
      <trkpt lat="46.7267" lon="5.7077">
        <ele>534.6</ele>
        <time>2021-08-20T13:37:54Z</time>
      </trkpt>
      <trkpt lat="46.72662" lon="5.70772">
        <ele>534.4</ele>
        <time>2021-08-20T13:37:55Z</time>
      </trkpt>
      <trkpt lat="46.72613" lon="5.70772">
        <ele>533.6</ele>
        <time>2021-08-20T13:38:01Z</time>
      </trkpt>
      <trkpt lat="46.72581" lon="5.7077">
        <ele>533.2</ele>
        <time>2021-08-20T13:38:05Z</time>
      </trkpt>
      <trkpt lat="46.72557" lon="5.70775">
        <ele>533</ele>
        <time>2021-08-20T13:38:08Z</time>
      </trkpt>
      <trkpt lat="46.72501" lon="5.70785">
        <ele>533.2</ele>
        <time>2021-08-20T13:38:15Z</time>
      </trkpt>
      <trkpt lat="46.72455" lon="5.70784">
        <ele>533.4</ele>
        <time>2021-08-20T13:38:22Z</time>
      </trkpt>
      <trkpt lat="46.72417" lon="5.70787">
        <ele>533.8</ele>
        <time>2021-08-20T13:38:27Z</time>
      </trkpt>
      <trkpt lat="46.72359" lon="5.70791">
        <ele>534.4</ele>
        <time>2021-08-20T13:38:34Z</time>
      </trkpt>
      <trkpt lat="46.72351" lon="5.70793">
        <ele>534.4</ele>
        <time>2021-08-20T13:38:35Z</time>
      </trkpt>
      <trkpt lat="46.72338" lon="5.70803">
        <ele>534.4</ele>
        <time>2021-08-20T13:38:37Z</time>
      </trkpt>
      <trkpt lat="46.72304" lon="5.70833">
        <ele>535.2</ele>
        <time>2021-08-20T13:38:43Z</time>
      </trkpt>
      <trkpt lat="46.72293" lon="5.70842">
        <ele>535.8</ele>
        <time>2021-08-20T13:38:45Z</time>
      </trkpt>
      <trkpt lat="46.72275" lon="5.70856">
        <ele>536.8</ele>
        <time>2021-08-20T13:38:48Z</time>
      </trkpt>
      <trkpt lat="46.7227" lon="5.70861">
        <ele>537</ele>
        <time>2021-08-20T13:38:49Z</time>
      </trkpt>
      <trkpt lat="46.72263" lon="5.70867">
        <ele>537.2</ele>
        <time>2021-08-20T13:38:50Z</time>
      </trkpt>
      <trkpt lat="46.72225" lon="5.70887">
        <ele>537.4</ele>
        <time>2021-08-20T13:38:55Z</time>
      </trkpt>
      <trkpt lat="46.72169" lon="5.709">
        <ele>536.4</ele>
        <time>2021-08-20T13:39:02Z</time>
      </trkpt>
      <trkpt lat="46.72124" lon="5.70901">
        <ele>536</ele>
        <time>2021-08-20T13:39:08Z</time>
      </trkpt>
      <trkpt lat="46.72089" lon="5.70881">
        <ele>536</ele>
        <time>2021-08-20T13:39:13Z</time>
      </trkpt>
      <trkpt lat="46.72047" lon="5.70843">
        <ele>536.6</ele>
        <time>2021-08-20T13:39:20Z</time>
      </trkpt>
      <trkpt lat="46.72005" lon="5.70812">
        <ele>538</ele>
        <time>2021-08-20T13:39:27Z</time>
      </trkpt>
      <trkpt lat="46.71987" lon="5.70801">
        <ele>538.4</ele>
        <time>2021-08-20T13:39:30Z</time>
      </trkpt>
      <trkpt lat="46.71963" lon="5.70794">
        <ele>538.8</ele>
        <time>2021-08-20T13:39:34Z</time>
      </trkpt>
      <trkpt lat="46.71951" lon="5.70793">
        <ele>539.2</ele>
        <time>2021-08-20T13:39:36Z</time>
      </trkpt>
      <trkpt lat="46.71903" lon="5.70794">
        <ele>540.4</ele>
        <time>2021-08-20T13:39:44Z</time>
      </trkpt>
      <trkpt lat="46.71886" lon="5.70796">
        <ele>540.8</ele>
        <time>2021-08-20T13:39:47Z</time>
      </trkpt>
      <trkpt lat="46.71875" lon="5.70801">
        <ele>541</ele>
        <time>2021-08-20T13:39:49Z</time>
      </trkpt>
      <trkpt lat="46.71863" lon="5.70809">
        <ele>541.6</ele>
        <time>2021-08-20T13:39:51Z</time>
      </trkpt>
      <trkpt lat="46.71844" lon="5.70825">
        <ele>541.8</ele>
        <time>2021-08-20T13:39:54Z</time>
      </trkpt>
      <trkpt lat="46.71806" lon="5.70862">
        <ele>541.6</ele>
        <time>2021-08-20T13:40:01Z</time>
      </trkpt>
      <trkpt lat="46.71782" lon="5.70892">
        <ele>541.6</ele>
        <time>2021-08-20T13:40:06Z</time>
      </trkpt>
      <trkpt lat="46.71778" lon="5.70898">
        <ele>541.8</ele>
        <time>2021-08-20T13:40:07Z</time>
      </trkpt>
      <trkpt lat="46.71757" lon="5.70914">
        <ele>542.4</ele>
        <time>2021-08-20T13:40:11Z</time>
      </trkpt>
      <trkpt lat="46.71752" lon="5.70917">
        <ele>542.8</ele>
        <time>2021-08-20T13:40:12Z</time>
      </trkpt>
      <trkpt lat="46.7173" lon="5.70929">
        <ele>544</ele>
        <time>2021-08-20T13:40:16Z</time>
      </trkpt>
      <trkpt lat="46.71719" lon="5.70937">
        <ele>544.4</ele>
        <time>2021-08-20T13:40:18Z</time>
      </trkpt>
      <trkpt lat="46.71692" lon="5.70962">
        <ele>545</ele>
        <time>2021-08-20T13:40:23Z</time>
      </trkpt>
      <trkpt lat="46.71687" lon="5.70967">
        <ele>545</ele>
        <time>2021-08-20T13:40:24Z</time>
      </trkpt>
      <trkpt lat="46.7167" lon="5.70978">
        <ele>545.2</ele>
        <time>2021-08-20T13:40:27Z</time>
      </trkpt>
      <trkpt lat="46.71658" lon="5.7098">
        <ele>545.2</ele>
        <time>2021-08-20T13:40:29Z</time>
      </trkpt>
      <trkpt lat="46.71631" lon="5.70973">
        <ele>545.8</ele>
        <time>2021-08-20T13:40:34Z</time>
      </trkpt>
      <trkpt lat="46.71626" lon="5.70971">
        <ele>546.4</ele>
        <time>2021-08-20T13:40:35Z</time>
      </trkpt>
      <trkpt lat="46.71585" lon="5.70956">
        <ele>547.6</ele>
        <time>2021-08-20T13:40:42Z</time>
      </trkpt>
      <trkpt lat="46.71558" lon="5.70945">
        <ele>547.8</ele>
        <time>2021-08-20T13:40:47Z</time>
      </trkpt>
      <trkpt lat="46.71549" lon="5.70938">
        <ele>548</ele>
        <time>2021-08-20T13:40:49Z</time>
      </trkpt>
      <trkpt lat="46.71541" lon="5.70928">
        <ele>548.4</ele>
        <time>2021-08-20T13:40:51Z</time>
      </trkpt>
      <trkpt lat="46.71535" lon="5.70916">
        <ele>548.6</ele>
        <time>2021-08-20T13:40:53Z</time>
      </trkpt>
      <trkpt lat="46.71525" lon="5.70889">
        <ele>549.6</ele>
        <time>2021-08-20T13:40:57Z</time>
      </trkpt>
      <trkpt lat="46.7152" lon="5.70876">
        <ele>549.8</ele>
        <time>2021-08-20T13:40:59Z</time>
      </trkpt>
      <trkpt lat="46.71517" lon="5.70871">
        <ele>550</ele>
        <time>2021-08-20T13:41:00Z</time>
      </trkpt>
      <trkpt lat="46.71513" lon="5.70865">
        <ele>550.2</ele>
        <time>2021-08-20T13:41:01Z</time>
      </trkpt>
      <trkpt lat="46.71503" lon="5.70856">
        <ele>550.6</ele>
        <time>2021-08-20T13:41:04Z</time>
      </trkpt>
      <trkpt lat="46.71499" lon="5.70853">
        <ele>551.2</ele>
        <time>2021-08-20T13:41:05Z</time>
      </trkpt>
      <trkpt lat="46.71487" lon="5.70844">
        <ele>551.8</ele>
        <time>2021-08-20T13:41:08Z</time>
      </trkpt>
      <trkpt lat="46.71461" lon="5.70828">
        <ele>553.4</ele>
        <time>2021-08-20T13:41:14Z</time>
      </trkpt>
      <trkpt lat="46.71447" lon="5.70822">
        <ele>554.4</ele>
        <time>2021-08-20T13:41:17Z</time>
      </trkpt>
      <trkpt lat="46.71441" lon="5.7082">
        <ele>554.6</ele>
        <time>2021-08-20T13:41:18Z</time>
      </trkpt>
      <trkpt lat="46.71431" lon="5.70819">
        <ele>555</ele>
        <time>2021-08-20T13:41:20Z</time>
      </trkpt>
      <trkpt lat="46.71419" lon="5.70819">
        <ele>555.4</ele>
        <time>2021-08-20T13:41:22Z</time>
      </trkpt>
      <trkpt lat="46.71409" lon="5.70823">
        <ele>555.8</ele>
        <time>2021-08-20T13:41:24Z</time>
      </trkpt>
      <trkpt lat="46.71403" lon="5.70827">
        <ele>555.8</ele>
        <time>2021-08-20T13:41:25Z</time>
      </trkpt>
      <trkpt lat="46.71398" lon="5.70831">
        <ele>556</ele>
        <time>2021-08-20T13:41:26Z</time>
      </trkpt>
      <trkpt lat="46.71385" lon="5.70844">
        <ele>556.4</ele>
        <time>2021-08-20T13:41:29Z</time>
      </trkpt>
      <trkpt lat="46.71385" lon="5.70844">
        <ele>556.6</ele>
        <time>2021-08-20T13:41:30Z</time>
      </trkpt>
      <trkpt lat="46.71369" lon="5.7087">
        <ele>557.8</ele>
        <time>2021-08-20T13:41:34Z</time>
      </trkpt>
      <trkpt lat="46.71365" lon="5.70882">
        <ele>558.8</ele>
        <time>2021-08-20T13:41:36Z</time>
      </trkpt>
      <trkpt lat="46.71363" lon="5.70889">
        <ele>559</ele>
        <time>2021-08-20T13:41:37Z</time>
      </trkpt>
      <trkpt lat="46.71362" lon="5.70895">
        <ele>559.2</ele>
        <time>2021-08-20T13:41:38Z</time>
      </trkpt>
      <trkpt lat="46.7136" lon="5.70916">
        <ele>559.8</ele>
        <time>2021-08-20T13:41:41Z</time>
      </trkpt>
      <trkpt lat="46.71358" lon="5.70932">
        <ele>560.8</ele>
        <time>2021-08-20T13:41:43Z</time>
      </trkpt>
      <trkpt lat="46.71355" lon="5.70947">
        <ele>561</ele>
        <time>2021-08-20T13:41:45Z</time>
      </trkpt>
      <trkpt lat="46.71351" lon="5.70964">
        <ele>561.2</ele>
        <time>2021-08-20T13:41:47Z</time>
      </trkpt>
      <trkpt lat="46.71338" lon="5.7101">
        <ele>561.4</ele>
        <time>2021-08-20T13:41:52Z</time>
      </trkpt>
      <trkpt lat="46.71318" lon="5.71069">
        <ele>560.6</ele>
        <time>2021-08-20T13:41:58Z</time>
      </trkpt>
      <trkpt lat="46.71305" lon="5.71124">
        <ele>558.8</ele>
        <time>2021-08-20T13:42:03Z</time>
      </trkpt>
      <trkpt lat="46.71303" lon="5.71134">
        <ele>558</ele>
        <time>2021-08-20T13:42:04Z</time>
      </trkpt>
      <trkpt lat="46.71299" lon="5.71153">
        <ele>557.6</ele>
        <time>2021-08-20T13:42:06Z</time>
      </trkpt>
      <trkpt lat="46.71291" lon="5.71182">
        <ele>557.2</ele>
        <time>2021-08-20T13:42:09Z</time>
      </trkpt>
      <trkpt lat="46.71267" lon="5.71247">
        <ele>557.2</ele>
        <time>2021-08-20T13:42:16Z</time>
      </trkpt>
      <trkpt lat="46.71243" lon="5.71294">
        <ele>557.2</ele>
        <time>2021-08-20T13:42:22Z</time>
      </trkpt>
      <trkpt lat="46.71227" lon="5.71313">
        <ele>557.8</ele>
        <time>2021-08-20T13:42:25Z</time>
      </trkpt>
      <trkpt lat="46.71222" lon="5.71317">
        <ele>557.8</ele>
        <time>2021-08-20T13:42:26Z</time>
      </trkpt>
      <trkpt lat="46.71217" lon="5.7132">
        <ele>558</ele>
        <time>2021-08-20T13:42:27Z</time>
      </trkpt>
      <trkpt lat="46.71206" lon="5.71324">
        <ele>558.8</ele>
        <time>2021-08-20T13:42:29Z</time>
      </trkpt>
      <trkpt lat="46.712" lon="5.71326">
        <ele>559</ele>
        <time>2021-08-20T13:42:30Z</time>
      </trkpt>
      <trkpt lat="46.71182" lon="5.71332">
        <ele>559.8</ele>
        <time>2021-08-20T13:42:33Z</time>
      </trkpt>
      <trkpt lat="46.71162" lon="5.71339">
        <ele>560.2</ele>
        <time>2021-08-20T13:42:36Z</time>
      </trkpt>
      <trkpt lat="46.71134" lon="5.7135">
        <ele>560.6</ele>
        <time>2021-08-20T13:42:40Z</time>
      </trkpt>
      <trkpt lat="46.71123" lon="5.71359">
        <ele>560.8</ele>
        <time>2021-08-20T13:42:42Z</time>
      </trkpt>
      <trkpt lat="46.71106" lon="5.71384">
        <ele>560.8</ele>
        <time>2021-08-20T13:42:46Z</time>
      </trkpt>
      <trkpt lat="46.71091" lon="5.71418">
        <ele>561.6</ele>
        <time>2021-08-20T13:42:51Z</time>
      </trkpt>
      <trkpt lat="46.71088" lon="5.71424">
        <ele>561.8</ele>
        <time>2021-08-20T13:42:52Z</time>
      </trkpt>
      <trkpt lat="46.71078" lon="5.71449">
        <ele>563</ele>
        <time>2021-08-20T13:42:56Z</time>
      </trkpt>
      <trkpt lat="46.71072" lon="5.7146">
        <ele>563.6</ele>
        <time>2021-08-20T13:42:58Z</time>
      </trkpt>
      <trkpt lat="46.71068" lon="5.71465">
        <ele>564.2</ele>
        <time>2021-08-20T13:42:59Z</time>
      </trkpt>
      <trkpt lat="46.71061" lon="5.71475">
        <ele>565</ele>
        <time>2021-08-20T13:43:01Z</time>
      </trkpt>
      <trkpt lat="46.71057" lon="5.71479">
        <ele>565.4</ele>
        <time>2021-08-20T13:43:02Z</time>
      </trkpt>
      <trkpt lat="46.71049" lon="5.71485">
        <ele>566</ele>
        <time>2021-08-20T13:43:04Z</time>
      </trkpt>
      <trkpt lat="46.71043" lon="5.71488">
        <ele>566</ele>
        <time>2021-08-20T13:43:05Z</time>
      </trkpt>
      <trkpt lat="46.71032" lon="5.71491">
        <ele>566.6</ele>
        <time>2021-08-20T13:43:07Z</time>
      </trkpt>
      <trkpt lat="46.71021" lon="5.71492">
        <ele>567</ele>
        <time>2021-08-20T13:43:09Z</time>
      </trkpt>
      <trkpt lat="46.70992" lon="5.71489">
        <ele>567.4</ele>
        <time>2021-08-20T13:43:14Z</time>
      </trkpt>
      <trkpt lat="46.70986" lon="5.7149">
        <ele>567.6</ele>
        <time>2021-08-20T13:43:15Z</time>
      </trkpt>
      <trkpt lat="46.70978" lon="5.71492">
        <ele>567.6</ele>
        <time>2021-08-20T13:43:16Z</time>
      </trkpt>
      <trkpt lat="46.70965" lon="5.71501">
        <ele>567.8</ele>
        <time>2021-08-20T13:43:18Z</time>
      </trkpt>
      <trkpt lat="46.70958" lon="5.71505">
        <ele>567.8</ele>
        <time>2021-08-20T13:43:19Z</time>
      </trkpt>
      <trkpt lat="46.70917" lon="5.71543">
        <ele>568.2</ele>
        <time>2021-08-20T13:43:26Z</time>
      </trkpt>
      <trkpt lat="46.709" lon="5.71572">
        <ele>568.4</ele>
        <time>2021-08-20T13:43:30Z</time>
      </trkpt>
      <trkpt lat="46.70891" lon="5.71592">
        <ele>568.8</ele>
        <time>2021-08-20T13:43:32Z</time>
      </trkpt>
      <trkpt lat="46.70888" lon="5.71601">
        <ele>569</ele>
        <time>2021-08-20T13:43:33Z</time>
      </trkpt>
      <trkpt lat="46.70884" lon="5.7162">
        <ele>569.4</ele>
        <time>2021-08-20T13:43:35Z</time>
      </trkpt>
      <trkpt lat="46.7088" lon="5.71658">
        <ele>570.4</ele>
        <time>2021-08-20T13:43:39Z</time>
      </trkpt>
      <trkpt lat="46.70876" lon="5.71675">
        <ele>571.2</ele>
        <time>2021-08-20T13:43:41Z</time>
      </trkpt>
      <trkpt lat="46.70871" lon="5.71691">
        <ele>572.2</ele>
        <time>2021-08-20T13:43:43Z</time>
      </trkpt>
      <trkpt lat="46.70862" lon="5.71703">
        <ele>572.8</ele>
        <time>2021-08-20T13:43:45Z</time>
      </trkpt>
      <trkpt lat="46.70858" lon="5.71707">
        <ele>573.2</ele>
        <time>2021-08-20T13:43:46Z</time>
      </trkpt>
      <trkpt lat="46.70851" lon="5.71711">
        <ele>573.4</ele>
        <time>2021-08-20T13:43:47Z</time>
      </trkpt>
      <trkpt lat="46.70845" lon="5.71713">
        <ele>573.6</ele>
        <time>2021-08-20T13:43:48Z</time>
      </trkpt>
      <trkpt lat="46.70839" lon="5.71713">
        <ele>573.6</ele>
        <time>2021-08-20T13:43:49Z</time>
      </trkpt>
      <trkpt lat="46.70816" lon="5.71707">
        <ele>573.8</ele>
        <time>2021-08-20T13:43:52Z</time>
      </trkpt>
      <trkpt lat="46.70801" lon="5.717">
        <ele>573.8</ele>
        <time>2021-08-20T13:43:54Z</time>
      </trkpt>
      <trkpt lat="46.70778" lon="5.71686">
        <ele>573.8</ele>
        <time>2021-08-20T13:43:57Z</time>
      </trkpt>
      <trkpt lat="46.70737" lon="5.71671">
        <ele>573</ele>
        <time>2021-08-20T13:44:02Z</time>
      </trkpt>
      <trkpt lat="46.70719" lon="5.71674">
        <ele>572.8</ele>
        <time>2021-08-20T13:44:04Z</time>
      </trkpt>
      <trkpt lat="46.70701" lon="5.71682">
        <ele>572.4</ele>
        <time>2021-08-20T13:44:06Z</time>
      </trkpt>
      <trkpt lat="46.70692" lon="5.71687">
        <ele>572.2</ele>
        <time>2021-08-20T13:44:07Z</time>
      </trkpt>
      <trkpt lat="46.70656" lon="5.71708">
        <ele>571</ele>
        <time>2021-08-20T13:44:11Z</time>
      </trkpt>
      <trkpt lat="46.70648" lon="5.71714">
        <ele>570.4</ele>
        <time>2021-08-20T13:44:12Z</time>
      </trkpt>
      <trkpt lat="46.7064" lon="5.7172">
        <ele>570.4</ele>
        <time>2021-08-20T13:44:13Z</time>
      </trkpt>
      <trkpt lat="46.70628" lon="5.71739">
        <ele>569.8</ele>
        <time>2021-08-20T13:44:15Z</time>
      </trkpt>
      <trkpt lat="46.70611" lon="5.71791">
        <ele>568.6</ele>
        <time>2021-08-20T13:44:19Z</time>
      </trkpt>
      <trkpt lat="46.70595" lon="5.71855">
        <ele>567.4</ele>
        <time>2021-08-20T13:44:24Z</time>
      </trkpt>
      <trkpt lat="46.70592" lon="5.71871">
        <ele>567.2</ele>
        <time>2021-08-20T13:44:25Z</time>
      </trkpt>
      <trkpt lat="46.70579" lon="5.71922">
        <ele>566.6</ele>
        <time>2021-08-20T13:44:29Z</time>
      </trkpt>
      <trkpt lat="46.70568" lon="5.71944">
        <ele>566.4</ele>
        <time>2021-08-20T13:44:31Z</time>
      </trkpt>
      <trkpt lat="46.7053" lon="5.72006">
        <ele>566.2</ele>
        <time>2021-08-20T13:44:37Z</time>
      </trkpt>
      <trkpt lat="46.70497" lon="5.72042">
        <ele>566</ele>
        <time>2021-08-20T13:44:42Z</time>
      </trkpt>
      <trkpt lat="46.70467" lon="5.72067">
        <ele>567.4</ele>
        <time>2021-08-20T13:44:47Z</time>
      </trkpt>
      <trkpt lat="46.70461" lon="5.72072">
        <ele>567.6</ele>
        <time>2021-08-20T13:44:48Z</time>
      </trkpt>
      <trkpt lat="46.7045" lon="5.72083">
        <ele>568</ele>
        <time>2021-08-20T13:44:50Z</time>
      </trkpt>
      <trkpt lat="46.70445" lon="5.7209">
        <ele>568.8</ele>
        <time>2021-08-20T13:44:51Z</time>
      </trkpt>
      <trkpt lat="46.70441" lon="5.72097">
        <ele>569.6</ele>
        <time>2021-08-20T13:44:52Z</time>
      </trkpt>
      <trkpt lat="46.70436" lon="5.72105">
        <ele>570</ele>
        <time>2021-08-20T13:44:53Z</time>
      </trkpt>
      <trkpt lat="46.7041" lon="5.72144">
        <ele>571</ele>
        <time>2021-08-20T13:44:58Z</time>
      </trkpt>
      <trkpt lat="46.70383" lon="5.72182">
        <ele>571.8</ele>
        <time>2021-08-20T13:45:04Z</time>
      </trkpt>
      <trkpt lat="46.70379" lon="5.72188">
        <ele>572.4</ele>
        <time>2021-08-20T13:45:05Z</time>
      </trkpt>
      <trkpt lat="46.70364" lon="5.72205">
        <ele>573.4</ele>
        <time>2021-08-20T13:45:08Z</time>
      </trkpt>
      <trkpt lat="46.70359" lon="5.72211">
        <ele>573.4</ele>
        <time>2021-08-20T13:45:09Z</time>
      </trkpt>
      <trkpt lat="46.70318" lon="5.72258">
        <ele>573.8</ele>
        <time>2021-08-20T13:45:16Z</time>
      </trkpt>
      <trkpt lat="46.70272" lon="5.7231">
        <ele>572.8</ele>
        <time>2021-08-20T13:45:23Z</time>
      </trkpt>
      <trkpt lat="46.70248" lon="5.72339">
        <ele>572</ele>
        <time>2021-08-20T13:45:26Z</time>
      </trkpt>
      <trkpt lat="46.70226" lon="5.72366">
        <ele>570.6</ele>
        <time>2021-08-20T13:45:29Z</time>
      </trkpt>
      <trkpt lat="46.70221" lon="5.72373">
        <ele>570.4</ele>
        <time>2021-08-20T13:45:30Z</time>
      </trkpt>
      <trkpt lat="46.70209" lon="5.72393">
        <ele>569.4</ele>
        <time>2021-08-20T13:45:32Z</time>
      </trkpt>
      <trkpt lat="46.70196" lon="5.72413">
        <ele>568.8</ele>
        <time>2021-08-20T13:45:34Z</time>
      </trkpt>
      <trkpt lat="46.70182" lon="5.72427">
        <ele>568.6</ele>
        <time>2021-08-20T13:45:36Z</time>
      </trkpt>
      <trkpt lat="46.70167" lon="5.72435">
        <ele>568.8</ele>
        <time>2021-08-20T13:45:38Z</time>
      </trkpt>
      <trkpt lat="46.70149" lon="5.7244">
        <ele>569</ele>
        <time>2021-08-20T13:45:40Z</time>
      </trkpt>
      <trkpt lat="46.70141" lon="5.72439">
        <ele>569</ele>
        <time>2021-08-20T13:45:41Z</time>
      </trkpt>
      <trkpt lat="46.70118" lon="5.7243">
        <ele>569.4</ele>
        <time>2021-08-20T13:45:44Z</time>
      </trkpt>
      <trkpt lat="46.70109" lon="5.72424">
        <ele>569.4</ele>
        <time>2021-08-20T13:45:45Z</time>
      </trkpt>
      <trkpt lat="46.70104" lon="5.72419">
        <ele>569.6</ele>
        <time>2021-08-20T13:45:46Z</time>
      </trkpt>
      <trkpt lat="46.70084" lon="5.72394">
        <ele>570.4</ele>
        <time>2021-08-20T13:45:49Z</time>
      </trkpt>
      <trkpt lat="46.70078" lon="5.72386">
        <ele>570.6</ele>
        <time>2021-08-20T13:45:50Z</time>
      </trkpt>
      <trkpt lat="46.70062" lon="5.72369">
        <ele>570.8</ele>
        <time>2021-08-20T13:45:53Z</time>
      </trkpt>
      <trkpt lat="46.70055" lon="5.72365">
        <ele>571</ele>
        <time>2021-08-20T13:45:54Z</time>
      </trkpt>
      <trkpt lat="46.70048" lon="5.72361">
        <ele>571</ele>
        <time>2021-08-20T13:45:55Z</time>
      </trkpt>
      <trkpt lat="46.70029" lon="5.72354">
        <ele>571.6</ele>
        <time>2021-08-20T13:45:58Z</time>
      </trkpt>
      <trkpt lat="46.70024" lon="5.72354">
        <ele>571.6</ele>
        <time>2021-08-20T13:45:59Z</time>
      </trkpt>
      <trkpt lat="46.70011" lon="5.72355">
        <ele>572</ele>
        <time>2021-08-20T13:46:01Z</time>
      </trkpt>
      <trkpt lat="46.70004" lon="5.72358">
        <ele>572.2</ele>
        <time>2021-08-20T13:46:02Z</time>
      </trkpt>
      <trkpt lat="46.69978" lon="5.72375">
        <ele>573</ele>
        <time>2021-08-20T13:46:07Z</time>
      </trkpt>
      <trkpt lat="46.69966" lon="5.72386">
        <ele>574.4</ele>
        <time>2021-08-20T13:46:10Z</time>
      </trkpt>
      <trkpt lat="46.69954" lon="5.724">
        <ele>575.6</ele>
        <time>2021-08-20T13:46:13Z</time>
      </trkpt>
      <trkpt lat="46.69947" lon="5.7241">
        <ele>576.4</ele>
        <time>2021-08-20T13:46:15Z</time>
      </trkpt>
      <trkpt lat="46.69941" lon="5.72424">
        <ele>576.8</ele>
        <time>2021-08-20T13:46:17Z</time>
      </trkpt>
      <trkpt lat="46.69933" lon="5.72453">
        <ele>577.8</ele>
        <time>2021-08-20T13:46:21Z</time>
      </trkpt>
      <trkpt lat="46.69927" lon="5.72471">
        <ele>578.4</ele>
        <time>2021-08-20T13:46:24Z</time>
      </trkpt>
      <trkpt lat="46.69924" lon="5.72479">
        <ele>578.6</ele>
        <time>2021-08-20T13:46:25Z</time>
      </trkpt>
      <trkpt lat="46.69916" lon="5.72489">
        <ele>578.6</ele>
        <time>2021-08-20T13:46:27Z</time>
      </trkpt>
      <trkpt lat="46.69913" lon="5.72492">
        <ele>578.6</ele>
        <time>2021-08-20T13:46:28Z</time>
      </trkpt>
      <trkpt lat="46.69899" lon="5.72504">
        <ele>579</ele>
        <time>2021-08-20T13:46:31Z</time>
      </trkpt>
      <trkpt lat="46.69883" lon="5.72519">
        <ele>579.6</ele>
        <time>2021-08-20T13:46:35Z</time>
      </trkpt>
      <trkpt lat="46.69877" lon="5.72527">
        <ele>580</ele>
        <time>2021-08-20T13:46:37Z</time>
      </trkpt>
      <trkpt lat="46.69858" lon="5.72557">
        <ele>581.2</ele>
        <time>2021-08-20T13:46:43Z</time>
      </trkpt>
      <trkpt lat="46.69834" lon="5.72591">
        <ele>582.4</ele>
        <time>2021-08-20T13:46:50Z</time>
      </trkpt>
      <trkpt lat="46.69831" lon="5.72594">
        <ele>582.4</ele>
        <time>2021-08-20T13:46:51Z</time>
      </trkpt>
      <trkpt lat="46.69823" lon="5.72601">
        <ele>583.2</ele>
        <time>2021-08-20T13:46:53Z</time>
      </trkpt>
      <trkpt lat="46.69819" lon="5.72604">
        <ele>583.4</ele>
        <time>2021-08-20T13:46:54Z</time>
      </trkpt>
      <trkpt lat="46.69816" lon="5.72606">
        <ele>583.8</ele>
        <time>2021-08-20T13:46:55Z</time>
      </trkpt>
      <trkpt lat="46.69812" lon="5.7261">
        <ele>584</ele>
        <time>2021-08-20T13:46:56Z</time>
      </trkpt>
      <trkpt lat="46.69805" lon="5.72618">
        <ele>584.6</ele>
        <time>2021-08-20T13:46:58Z</time>
      </trkpt>
      <trkpt lat="46.69798" lon="5.72626">
        <ele>585.6</ele>
        <time>2021-08-20T13:47:00Z</time>
      </trkpt>
      <trkpt lat="46.69796" lon="5.7263">
        <ele>586</ele>
        <time>2021-08-20T13:47:01Z</time>
      </trkpt>
      <trkpt lat="46.69793" lon="5.72636">
        <ele>586.4</ele>
        <time>2021-08-20T13:47:02Z</time>
      </trkpt>
      <trkpt lat="46.69791" lon="5.72641">
        <ele>586.6</ele>
        <time>2021-08-20T13:47:03Z</time>
      </trkpt>
      <trkpt lat="46.69783" lon="5.72656">
        <ele>587</ele>
        <time>2021-08-20T13:47:06Z</time>
      </trkpt>
      <trkpt lat="46.6977" lon="5.72676">
        <ele>587.6</ele>
        <time>2021-08-20T13:47:10Z</time>
      </trkpt>
      <trkpt lat="46.69763" lon="5.72686">
        <ele>588</ele>
        <time>2021-08-20T13:47:12Z</time>
      </trkpt>
      <trkpt lat="46.69742" lon="5.72717">
        <ele>589.2</ele>
        <time>2021-08-20T13:47:18Z</time>
      </trkpt>
      <trkpt lat="46.69738" lon="5.72723">
        <ele>589.2</ele>
        <time>2021-08-20T13:47:19Z</time>
      </trkpt>
      <trkpt lat="46.69732" lon="5.72732">
        <ele>589</ele>
        <time>2021-08-20T13:47:21Z</time>
      </trkpt>
      <trkpt lat="46.69729" lon="5.72733">
        <ele>589</ele>
        <time>2021-08-20T13:47:22Z</time>
      </trkpt>
      <trkpt lat="46.69727" lon="5.72732">
        <ele>589</ele>
        <time>2021-08-20T13:47:23Z</time>
      </trkpt>
      <trkpt lat="46.69721" lon="5.72724">
        <ele>588.8</ele>
        <time>2021-08-20T13:47:25Z</time>
      </trkpt>
      <trkpt lat="46.69718" lon="5.72718">
        <ele>588.8</ele>
        <time>2021-08-20T13:47:26Z</time>
      </trkpt>
      <trkpt lat="46.69707" lon="5.72702">
        <ele>588.2</ele>
        <time>2021-08-20T13:47:29Z</time>
      </trkpt>
      <trkpt lat="46.69686" lon="5.72675">
        <ele>587.2</ele>
        <time>2021-08-20T13:47:34Z</time>
      </trkpt>
      <trkpt lat="46.69682" lon="5.72672">
        <ele>587.2</ele>
        <time>2021-08-20T13:47:35Z</time>
      </trkpt>
      <trkpt lat="46.69677" lon="5.72669">
        <ele>587.2</ele>
        <time>2021-08-20T13:47:36Z</time>
      </trkpt>
      <trkpt lat="46.69671" lon="5.72663">
        <ele>587.2</ele>
        <time>2021-08-20T13:47:39Z</time>
      </trkpt>
      <trkpt lat="46.6967" lon="5.72652">
        <ele>587.2</ele>
        <time>2021-08-20T13:47:43Z</time>
      </trkpt>
      <trkpt lat="46.69667" lon="5.72644">
        <ele>587.2</ele>
        <time>2021-08-20T13:47:46Z</time>
      </trkpt>
      <trkpt lat="46.69665" lon="5.72644">
        <ele>587.2</ele>
        <time>2021-08-20T13:47:47Z</time>
      </trkpt>
      <trkpt lat="46.69661" lon="5.72659">
        <ele>587</ele>
        <time>2021-08-20T13:47:50Z</time>
      </trkpt>
      <trkpt lat="46.69659" lon="5.72665">
        <ele>586.8</ele>
        <time>2021-08-20T13:47:51Z</time>
      </trkpt>
      <trkpt lat="46.69651" lon="5.72671">
        <ele>586.6</ele>
        <time>2021-08-20T13:47:53Z</time>
      </trkpt>
      <trkpt lat="46.69622" lon="5.7268">
        <ele>587</ele>
        <time>2021-08-20T13:47:59Z</time>
      </trkpt>
      <trkpt lat="46.69613" lon="5.72681">
        <ele>587</ele>
        <time>2021-08-20T13:48:01Z</time>
      </trkpt>
      <trkpt lat="46.69609" lon="5.72682">
        <ele>587.2</ele>
        <time>2021-08-20T13:48:02Z</time>
      </trkpt>
      <trkpt lat="46.6958" lon="5.72688">
        <ele>588.2</ele>
        <time>2021-08-20T13:48:08Z</time>
      </trkpt>
      <trkpt lat="46.69556" lon="5.72695">
        <ele>589.4</ele>
        <time>2021-08-20T13:48:13Z</time>
      </trkpt>
      <trkpt lat="46.69535" lon="5.727">
        <ele>590.2</ele>
        <time>2021-08-20T13:48:17Z</time>
      </trkpt>
      <trkpt lat="46.6953" lon="5.72701">
        <ele>590.6</ele>
        <time>2021-08-20T13:48:18Z</time>
      </trkpt>
      <trkpt lat="46.69524" lon="5.72702">
        <ele>590.6</ele>
        <time>2021-08-20T13:48:19Z</time>
      </trkpt>
      <trkpt lat="46.69494" lon="5.7271">
        <ele>591</ele>
        <time>2021-08-20T13:48:24Z</time>
      </trkpt>
      <trkpt lat="46.69488" lon="5.72712">
        <ele>591.6</ele>
        <time>2021-08-20T13:48:25Z</time>
      </trkpt>
      <trkpt lat="46.69444" lon="5.72724">
        <ele>592.2</ele>
        <time>2021-08-20T13:48:32Z</time>
      </trkpt>
      <trkpt lat="46.69397" lon="5.72736">
        <ele>590.4</ele>
        <time>2021-08-20T13:48:40Z</time>
      </trkpt>
      <trkpt lat="46.69368" lon="5.72743">
        <ele>589.2</ele>
        <time>2021-08-20T13:48:45Z</time>
      </trkpt>
      <trkpt lat="46.69328" lon="5.72754">
        <ele>589.2</ele>
        <time>2021-08-20T13:48:51Z</time>
      </trkpt>
      <trkpt lat="46.6927" lon="5.7277">
        <ele>589</ele>
        <time>2021-08-20T13:48:59Z</time>
      </trkpt>
      <trkpt lat="46.69215" lon="5.72785">
        <ele>589.2</ele>
        <time>2021-08-20T13:49:07Z</time>
      </trkpt>
      <trkpt lat="46.69195" lon="5.72789">
        <ele>589.6</ele>
        <time>2021-08-20T13:49:10Z</time>
      </trkpt>
      <trkpt lat="46.69159" lon="5.72799">
        <ele>590.2</ele>
        <time>2021-08-20T13:49:16Z</time>
      </trkpt>
      <trkpt lat="46.69154" lon="5.728">
        <ele>590.4</ele>
        <time>2021-08-20T13:49:17Z</time>
      </trkpt>
      <trkpt lat="46.69127" lon="5.72808">
        <ele>591.6</ele>
        <time>2021-08-20T13:49:22Z</time>
      </trkpt>
      <trkpt lat="46.69122" lon="5.72809">
        <ele>592</ele>
        <time>2021-08-20T13:49:23Z</time>
      </trkpt>
      <trkpt lat="46.69117" lon="5.72809">
        <ele>592.8</ele>
        <time>2021-08-20T13:49:24Z</time>
      </trkpt>
      <trkpt lat="46.69102" lon="5.72811">
        <ele>593.4</ele>
        <time>2021-08-20T13:49:27Z</time>
      </trkpt>
      <trkpt lat="46.69091" lon="5.72813">
        <ele>594</ele>
        <time>2021-08-20T13:49:29Z</time>
      </trkpt>
      <trkpt lat="46.69074" lon="5.72812">
        <ele>594.8</ele>
        <time>2021-08-20T13:49:32Z</time>
      </trkpt>
      <trkpt lat="46.69068" lon="5.72811">
        <ele>595.2</ele>
        <time>2021-08-20T13:49:33Z</time>
      </trkpt>
      <trkpt lat="46.69063" lon="5.7281">
        <ele>595.2</ele>
        <time>2021-08-20T13:49:34Z</time>
      </trkpt>
      <trkpt lat="46.69029" lon="5.72798">
        <ele>596</ele>
        <time>2021-08-20T13:49:39Z</time>
      </trkpt>
      <trkpt lat="46.69009" lon="5.72787">
        <ele>595.2</ele>
        <time>2021-08-20T13:49:42Z</time>
      </trkpt>
      <trkpt lat="46.68996" lon="5.72777">
        <ele>594.6</ele>
        <time>2021-08-20T13:49:44Z</time>
      </trkpt>
      <trkpt lat="46.68944" lon="5.72735">
        <ele>594.2</ele>
        <time>2021-08-20T13:49:52Z</time>
      </trkpt>
      <trkpt lat="46.68938" lon="5.72729">
        <ele>594.2</ele>
        <time>2021-08-20T13:49:53Z</time>
      </trkpt>
      <trkpt lat="46.68912" lon="5.72706">
        <ele>594</ele>
        <time>2021-08-20T13:49:57Z</time>
      </trkpt>
      <trkpt lat="46.68897" lon="5.72694">
        <ele>594</ele>
        <time>2021-08-20T13:49:59Z</time>
      </trkpt>
      <trkpt lat="46.68878" lon="5.72677">
        <ele>593.8</ele>
        <time>2021-08-20T13:50:02Z</time>
      </trkpt>
      <trkpt lat="46.68864" lon="5.72664">
        <ele>593.6</ele>
        <time>2021-08-20T13:50:04Z</time>
      </trkpt>
      <trkpt lat="46.68838" lon="5.72641">
        <ele>592.6</ele>
        <time>2021-08-20T13:50:08Z</time>
      </trkpt>
      <trkpt lat="46.68816" lon="5.72625">
        <ele>592.6</ele>
        <time>2021-08-20T13:50:11Z</time>
      </trkpt>
      <trkpt lat="46.68774" lon="5.726">
        <ele>592.4</ele>
        <time>2021-08-20T13:50:17Z</time>
      </trkpt>
      <trkpt lat="46.68766" lon="5.72596">
        <ele>592.8</ele>
        <time>2021-08-20T13:50:18Z</time>
      </trkpt>
      <trkpt lat="46.68736" lon="5.7258">
        <ele>592.4</ele>
        <time>2021-08-20T13:50:22Z</time>
      </trkpt>
      <trkpt lat="46.68697" lon="5.72558">
        <ele>591.8</ele>
        <time>2021-08-20T13:50:27Z</time>
      </trkpt>
      <trkpt lat="46.6869" lon="5.72554">
        <ele>591.6</ele>
        <time>2021-08-20T13:50:28Z</time>
      </trkpt>
      <trkpt lat="46.6868" lon="5.72548">
        <ele>591.4</ele>
        <time>2021-08-20T13:50:29Z</time>
      </trkpt>
      <trkpt lat="46.68659" lon="5.72535">
        <ele>590.2</ele>
        <time>2021-08-20T13:50:32Z</time>
      </trkpt>
      <trkpt lat="46.68606" lon="5.72504">
        <ele>591</ele>
        <time>2021-08-20T13:50:39Z</time>
      </trkpt>
      <trkpt lat="46.6859" lon="5.72496">
        <ele>592</ele>
        <time>2021-08-20T13:50:41Z</time>
      </trkpt>
      <trkpt lat="46.68557" lon="5.72479">
        <ele>591.4</ele>
        <time>2021-08-20T13:50:45Z</time>
      </trkpt>
      <trkpt lat="46.68541" lon="5.72471">
        <ele>591.4</ele>
        <time>2021-08-20T13:50:47Z</time>
      </trkpt>
      <trkpt lat="46.6849" lon="5.7244">
        <ele>591.6</ele>
        <time>2021-08-20T13:50:54Z</time>
      </trkpt>
      <trkpt lat="46.68483" lon="5.72435">
        <ele>591.6</ele>
        <time>2021-08-20T13:50:55Z</time>
      </trkpt>
      <trkpt lat="46.68432" lon="5.72397">
        <ele>592.2</ele>
        <time>2021-08-20T13:51:02Z</time>
      </trkpt>
      <trkpt lat="46.68394" lon="5.72379">
        <ele>592</ele>
        <time>2021-08-20T13:51:07Z</time>
      </trkpt>
      <trkpt lat="46.68347" lon="5.72373">
        <ele>592.2</ele>
        <time>2021-08-20T13:51:13Z</time>
      </trkpt>
      <trkpt lat="46.68314" lon="5.72377">
        <ele>591.6</ele>
        <time>2021-08-20T13:51:17Z</time>
      </trkpt>
      <trkpt lat="46.68291" lon="5.72383">
        <ele>591.4</ele>
        <time>2021-08-20T13:51:20Z</time>
      </trkpt>
      <trkpt lat="46.68252" lon="5.72398">
        <ele>590.6</ele>
        <time>2021-08-20T13:51:25Z</time>
      </trkpt>
      <trkpt lat="46.68245" lon="5.72401">
        <ele>590.6</ele>
        <time>2021-08-20T13:51:26Z</time>
      </trkpt>
      <trkpt lat="46.68207" lon="5.72415">
        <ele>590.6</ele>
        <time>2021-08-20T13:51:31Z</time>
      </trkpt>
      <trkpt lat="46.68169" lon="5.72425">
        <ele>590.4</ele>
        <time>2021-08-20T13:51:36Z</time>
      </trkpt>
      <trkpt lat="46.68161" lon="5.72426">
        <ele>590.6</ele>
        <time>2021-08-20T13:51:37Z</time>
      </trkpt>
      <trkpt lat="46.68146" lon="5.72426">
        <ele>590.4</ele>
        <time>2021-08-20T13:51:39Z</time>
      </trkpt>
      <trkpt lat="46.68115" lon="5.72422">
        <ele>589.6</ele>
        <time>2021-08-20T13:51:43Z</time>
      </trkpt>
      <trkpt lat="46.68082" lon="5.72413">
        <ele>589.6</ele>
        <time>2021-08-20T13:51:47Z</time>
      </trkpt>
      <trkpt lat="46.68074" lon="5.7241">
        <ele>589.6</ele>
        <time>2021-08-20T13:51:48Z</time>
      </trkpt>
      <trkpt lat="46.68052" lon="5.72401">
        <ele>589.2</ele>
        <time>2021-08-20T13:51:51Z</time>
      </trkpt>
      <trkpt lat="46.68022" lon="5.72389">
        <ele>589.4</ele>
        <time>2021-08-20T13:51:55Z</time>
      </trkpt>
      <trkpt lat="46.68007" lon="5.72381">
        <ele>589.2</ele>
        <time>2021-08-20T13:51:57Z</time>
      </trkpt>
      <trkpt lat="46.67984" lon="5.72366">
        <ele>589.2</ele>
        <time>2021-08-20T13:52:00Z</time>
      </trkpt>
      <trkpt lat="46.67942" lon="5.72339">
        <ele>590</ele>
        <time>2021-08-20T13:52:06Z</time>
      </trkpt>
      <trkpt lat="46.67908" lon="5.72317">
        <ele>590</ele>
        <time>2021-08-20T13:52:11Z</time>
      </trkpt>
      <trkpt lat="46.67895" lon="5.72306">
        <ele>590</ele>
        <time>2021-08-20T13:52:13Z</time>
      </trkpt>
      <trkpt lat="46.67874" lon="5.72292">
        <ele>589.2</ele>
        <time>2021-08-20T13:52:16Z</time>
      </trkpt>
      <trkpt lat="46.6785" lon="5.72274">
        <ele>589.2</ele>
        <time>2021-08-20T13:52:19Z</time>
      </trkpt>
      <trkpt lat="46.67842" lon="5.72267">
        <ele>589.2</ele>
        <time>2021-08-20T13:52:20Z</time>
      </trkpt>
      <trkpt lat="46.67835" lon="5.72262">
        <ele>589</ele>
        <time>2021-08-20T13:52:21Z</time>
      </trkpt>
      <trkpt lat="46.67814" lon="5.72246">
        <ele>588.8</ele>
        <time>2021-08-20T13:52:24Z</time>
      </trkpt>
      <trkpt lat="46.67772" lon="5.72214">
        <ele>588.2</ele>
        <time>2021-08-20T13:52:30Z</time>
      </trkpt>
      <trkpt lat="46.67764" lon="5.7221">
        <ele>587.8</ele>
        <time>2021-08-20T13:52:31Z</time>
      </trkpt>
      <trkpt lat="46.67712" lon="5.72179">
        <ele>587.4</ele>
        <time>2021-08-20T13:52:38Z</time>
      </trkpt>
      <trkpt lat="46.67663" lon="5.72152">
        <ele>588.4</ele>
        <time>2021-08-20T13:52:45Z</time>
      </trkpt>
      <trkpt lat="46.67609" lon="5.7213">
        <ele>588.2</ele>
        <time>2021-08-20T13:52:52Z</time>
      </trkpt>
      <trkpt lat="46.67562" lon="5.72124">
        <ele>587.4</ele>
        <time>2021-08-20T13:52:58Z</time>
      </trkpt>
      <trkpt lat="46.67531" lon="5.7212">
        <ele>587.2</ele>
        <time>2021-08-20T13:53:02Z</time>
      </trkpt>
      <trkpt lat="46.67475" lon="5.72112">
        <ele>587</ele>
        <time>2021-08-20T13:53:09Z</time>
      </trkpt>
      <trkpt lat="46.67458" lon="5.7211">
        <ele>586.8</ele>
        <time>2021-08-20T13:53:11Z</time>
      </trkpt>
      <trkpt lat="46.67451" lon="5.72109">
        <ele>586.6</ele>
        <time>2021-08-20T13:53:12Z</time>
      </trkpt>
      <trkpt lat="46.67412" lon="5.72112">
        <ele>586.4</ele>
        <time>2021-08-20T13:53:17Z</time>
      </trkpt>
      <trkpt lat="46.67359" lon="5.72117">
        <ele>585.8</ele>
        <time>2021-08-20T13:53:24Z</time>
      </trkpt>
      <trkpt lat="46.67344" lon="5.72118">
        <ele>585.6</ele>
        <time>2021-08-20T13:53:26Z</time>
      </trkpt>
      <trkpt lat="46.67313" lon="5.72122">
        <ele>585.2</ele>
        <time>2021-08-20T13:53:30Z</time>
      </trkpt>
      <trkpt lat="46.67268" lon="5.72131">
        <ele>585.2</ele>
        <time>2021-08-20T13:53:36Z</time>
      </trkpt>
      <trkpt lat="46.67208" lon="5.72138">
        <ele>585</ele>
        <time>2021-08-20T13:53:44Z</time>
      </trkpt>
      <trkpt lat="46.672" lon="5.72139">
        <ele>585</ele>
        <time>2021-08-20T13:53:45Z</time>
      </trkpt>
      <trkpt lat="46.67146" lon="5.7214">
        <ele>585.4</ele>
        <time>2021-08-20T13:53:52Z</time>
      </trkpt>
      <trkpt lat="46.67091" lon="5.7214">
        <ele>585.2</ele>
        <time>2021-08-20T13:53:59Z</time>
      </trkpt>
      <trkpt lat="46.67031" lon="5.72136">
        <ele>584.4</ele>
        <time>2021-08-20T13:54:07Z</time>
      </trkpt>
      <trkpt lat="46.66987" lon="5.72133">
        <ele>584.6</ele>
        <time>2021-08-20T13:54:13Z</time>
      </trkpt>
      <trkpt lat="46.66942" lon="5.72142">
        <ele>584.8</ele>
        <time>2021-08-20T13:54:19Z</time>
      </trkpt>
      <trkpt lat="46.66887" lon="5.72147">
        <ele>584.8</ele>
        <time>2021-08-20T13:54:26Z</time>
      </trkpt>
      <trkpt lat="46.66848" lon="5.72143">
        <ele>584.8</ele>
        <time>2021-08-20T13:54:31Z</time>
      </trkpt>
      <trkpt lat="46.66803" lon="5.72137">
        <ele>585</ele>
        <time>2021-08-20T13:54:37Z</time>
      </trkpt>
      <trkpt lat="46.66765" lon="5.72131">
        <ele>584.4</ele>
        <time>2021-08-20T13:54:42Z</time>
      </trkpt>
      <trkpt lat="46.6675" lon="5.72123">
        <ele>584.4</ele>
        <time>2021-08-20T13:54:44Z</time>
      </trkpt>
      <trkpt lat="46.66737" lon="5.7211">
        <ele>584.2</ele>
        <time>2021-08-20T13:54:46Z</time>
      </trkpt>
      <trkpt lat="46.66732" lon="5.72102">
        <ele>584.2</ele>
        <time>2021-08-20T13:54:47Z</time>
      </trkpt>
      <trkpt lat="46.6672" lon="5.72087">
        <ele>584.2</ele>
        <time>2021-08-20T13:54:49Z</time>
      </trkpt>
      <trkpt lat="46.66715" lon="5.72081">
        <ele>584</ele>
        <time>2021-08-20T13:54:50Z</time>
      </trkpt>
      <trkpt lat="46.66708" lon="5.72076">
        <ele>584</ele>
        <time>2021-08-20T13:54:51Z</time>
      </trkpt>
      <trkpt lat="46.66701" lon="5.72072">
        <ele>583.8</ele>
        <time>2021-08-20T13:54:52Z</time>
      </trkpt>
      <trkpt lat="46.66664" lon="5.72059">
        <ele>584</ele>
        <time>2021-08-20T13:54:57Z</time>
      </trkpt>
      <trkpt lat="46.6661" lon="5.72049">
        <ele>584</ele>
        <time>2021-08-20T13:55:04Z</time>
      </trkpt>
      <trkpt lat="46.66596" lon="5.72046">
        <ele>583.6</ele>
        <time>2021-08-20T13:55:06Z</time>
      </trkpt>
      <trkpt lat="46.66552" lon="5.72039">
        <ele>583.4</ele>
        <time>2021-08-20T13:55:12Z</time>
      </trkpt>
      <trkpt lat="46.66506" lon="5.72031">
        <ele>583</ele>
        <time>2021-08-20T13:55:18Z</time>
      </trkpt>
      <trkpt lat="46.66485" lon="5.72026">
        <ele>582.8</ele>
        <time>2021-08-20T13:55:21Z</time>
      </trkpt>
      <trkpt lat="46.6647" lon="5.72023">
        <ele>582.4</ele>
        <time>2021-08-20T13:55:23Z</time>
      </trkpt>
      <trkpt lat="46.66432" lon="5.72009">
        <ele>582.2</ele>
        <time>2021-08-20T13:55:28Z</time>
      </trkpt>
      <trkpt lat="46.66392" lon="5.71991">
        <ele>582.4</ele>
        <time>2021-08-20T13:55:33Z</time>
      </trkpt>
      <trkpt lat="46.66385" lon="5.71987">
        <ele>582.8</ele>
        <time>2021-08-20T13:55:34Z</time>
      </trkpt>
      <trkpt lat="46.66378" lon="5.71981">
        <ele>582.8</ele>
        <time>2021-08-20T13:55:35Z</time>
      </trkpt>
      <trkpt lat="46.66365" lon="5.71966">
        <ele>582.8</ele>
        <time>2021-08-20T13:55:37Z</time>
      </trkpt>
      <trkpt lat="46.66359" lon="5.71957">
        <ele>582.8</ele>
        <time>2021-08-20T13:55:38Z</time>
      </trkpt>
      <trkpt lat="46.66326" lon="5.71911">
        <ele>582.4</ele>
        <time>2021-08-20T13:55:44Z</time>
      </trkpt>
      <trkpt lat="46.66286" lon="5.71876">
        <ele>582.4</ele>
        <time>2021-08-20T13:55:50Z</time>
      </trkpt>
      <trkpt lat="46.66239" lon="5.71838">
        <ele>581.6</ele>
        <time>2021-08-20T13:55:57Z</time>
      </trkpt>
      <trkpt lat="46.66221" lon="5.71822">
        <ele>581.4</ele>
        <time>2021-08-20T13:56:00Z</time>
      </trkpt>
      <trkpt lat="46.66209" lon="5.71813">
        <ele>581.4</ele>
        <time>2021-08-20T13:56:02Z</time>
      </trkpt>
      <trkpt lat="46.66161" lon="5.71776">
        <ele>582</ele>
        <time>2021-08-20T13:56:10Z</time>
      </trkpt>
      <trkpt lat="46.66124" lon="5.71752">
        <ele>582.2</ele>
        <time>2021-08-20T13:56:16Z</time>
      </trkpt>
      <trkpt lat="46.66118" lon="5.71747">
        <ele>582.2</ele>
        <time>2021-08-20T13:56:17Z</time>
      </trkpt>
      <trkpt lat="46.66108" lon="5.71731">
        <ele>582</ele>
        <time>2021-08-20T13:56:19Z</time>
      </trkpt>
      <trkpt lat="46.66104" lon="5.71708">
        <ele>581</ele>
        <time>2021-08-20T13:56:21Z</time>
      </trkpt>
      <trkpt lat="46.66103" lon="5.71696">
        <ele>580.6</ele>
        <time>2021-08-20T13:56:22Z</time>
      </trkpt>
      <trkpt lat="46.66101" lon="5.71684">
        <ele>580.2</ele>
        <time>2021-08-20T13:56:23Z</time>
      </trkpt>
      <trkpt lat="46.66095" lon="5.71658">
        <ele>579</ele>
        <time>2021-08-20T13:56:25Z</time>
      </trkpt>
      <trkpt lat="46.66091" lon="5.71644">
        <ele>578.4</ele>
        <time>2021-08-20T13:56:26Z</time>
      </trkpt>
      <trkpt lat="46.66083" lon="5.71616">
        <ele>577.4</ele>
        <time>2021-08-20T13:56:28Z</time>
      </trkpt>
      <trkpt lat="46.66075" lon="5.71587">
        <ele>576.2</ele>
        <time>2021-08-20T13:56:30Z</time>
      </trkpt>
      <trkpt lat="46.66072" lon="5.71571">
        <ele>575.6</ele>
        <time>2021-08-20T13:56:31Z</time>
      </trkpt>
      <trkpt lat="46.6607" lon="5.71555">
        <ele>574.6</ele>
        <time>2021-08-20T13:56:32Z</time>
      </trkpt>
      <trkpt lat="46.66068" lon="5.71539">
        <ele>573.4</ele>
        <time>2021-08-20T13:56:33Z</time>
      </trkpt>
      <trkpt lat="46.66067" lon="5.71522">
        <ele>573</ele>
        <time>2021-08-20T13:56:34Z</time>
      </trkpt>
      <trkpt lat="46.66068" lon="5.71506">
        <ele>572.6</ele>
        <time>2021-08-20T13:56:35Z</time>
      </trkpt>
      <trkpt lat="46.6607" lon="5.71489">
        <ele>572.2</ele>
        <time>2021-08-20T13:56:36Z</time>
      </trkpt>
      <trkpt lat="46.66073" lon="5.71473">
        <ele>570.8</ele>
        <time>2021-08-20T13:56:37Z</time>
      </trkpt>
      <trkpt lat="46.66078" lon="5.71457">
        <ele>570.2</ele>
        <time>2021-08-20T13:56:38Z</time>
      </trkpt>
      <trkpt lat="46.66083" lon="5.71442">
        <ele>568.8</ele>
        <time>2021-08-20T13:56:39Z</time>
      </trkpt>
      <trkpt lat="46.66097" lon="5.71414">
        <ele>567.4</ele>
        <time>2021-08-20T13:56:41Z</time>
      </trkpt>
      <trkpt lat="46.66105" lon="5.71402">
        <ele>566.8</ele>
        <time>2021-08-20T13:56:42Z</time>
      </trkpt>
      <trkpt lat="46.66122" lon="5.71381">
        <ele>565.2</ele>
        <time>2021-08-20T13:56:44Z</time>
      </trkpt>
      <trkpt lat="46.6614" lon="5.7136">
        <ele>563.8</ele>
        <time>2021-08-20T13:56:46Z</time>
      </trkpt>
      <trkpt lat="46.66157" lon="5.71339">
        <ele>563.2</ele>
        <time>2021-08-20T13:56:48Z</time>
      </trkpt>
      <trkpt lat="46.66173" lon="5.71319">
        <ele>562.4</ele>
        <time>2021-08-20T13:56:50Z</time>
      </trkpt>
      <trkpt lat="46.66198" lon="5.7129">
        <ele>560.8</ele>
        <time>2021-08-20T13:56:53Z</time>
      </trkpt>
      <trkpt lat="46.66214" lon="5.71272">
        <ele>560.4</ele>
        <time>2021-08-20T13:56:55Z</time>
      </trkpt>
      <trkpt lat="46.6625" lon="5.71228">
        <ele>559.6</ele>
        <time>2021-08-20T13:57:00Z</time>
      </trkpt>
      <trkpt lat="46.66257" lon="5.7122">
        <ele>559.4</ele>
        <time>2021-08-20T13:57:01Z</time>
      </trkpt>
      <trkpt lat="46.66305" lon="5.71163">
        <ele>559.6</ele>
        <time>2021-08-20T13:57:08Z</time>
      </trkpt>
      <trkpt lat="46.66312" lon="5.71154">
        <ele>559.4</ele>
        <time>2021-08-20T13:57:09Z</time>
      </trkpt>
      <trkpt lat="46.66359" lon="5.71099">
        <ele>559.4</ele>
        <time>2021-08-20T13:57:16Z</time>
      </trkpt>
      <trkpt lat="46.66371" lon="5.71084">
        <ele>559.4</ele>
        <time>2021-08-20T13:57:18Z</time>
      </trkpt>
      <trkpt lat="46.66415" lon="5.71033">
        <ele>560</ele>
        <time>2021-08-20T13:57:25Z</time>
      </trkpt>
      <trkpt lat="46.66427" lon="5.71017">
        <ele>560.2</ele>
        <time>2021-08-20T13:57:27Z</time>
      </trkpt>
      <trkpt lat="46.66458" lon="5.7098">
        <ele>560.6</ele>
        <time>2021-08-20T13:57:32Z</time>
      </trkpt>
      <trkpt lat="46.6647" lon="5.70965">
        <ele>560.8</ele>
        <time>2021-08-20T13:57:34Z</time>
      </trkpt>
      <trkpt lat="46.66514" lon="5.70912">
        <ele>561</ele>
        <time>2021-08-20T13:57:41Z</time>
      </trkpt>
      <trkpt lat="46.66547" lon="5.7088">
        <ele>560.6</ele>
        <time>2021-08-20T13:57:46Z</time>
      </trkpt>
      <trkpt lat="46.66555" lon="5.70875">
        <ele>560.6</ele>
        <time>2021-08-20T13:57:47Z</time>
      </trkpt>
      <trkpt lat="46.66603" lon="5.70854">
        <ele>560.2</ele>
        <time>2021-08-20T13:57:53Z</time>
      </trkpt>
      <trkpt lat="46.66663" lon="5.70833">
        <ele>559.8</ele>
        <time>2021-08-20T13:58:00Z</time>
      </trkpt>
      <trkpt lat="46.66697" lon="5.70829">
        <ele>559.4</ele>
        <time>2021-08-20T13:58:04Z</time>
      </trkpt>
      <trkpt lat="46.66714" lon="5.70828">
        <ele>559.4</ele>
        <time>2021-08-20T13:58:06Z</time>
      </trkpt>
      <trkpt lat="46.66729" lon="5.70826">
        <ele>559.2</ele>
        <time>2021-08-20T13:58:08Z</time>
      </trkpt>
      <trkpt lat="46.66768" lon="5.70823">
        <ele>559.4</ele>
        <time>2021-08-20T13:58:13Z</time>
      </trkpt>
      <trkpt lat="46.66829" lon="5.70819">
        <ele>560.4</ele>
        <time>2021-08-20T13:58:21Z</time>
      </trkpt>
      <trkpt lat="46.6687" lon="5.70815">
        <ele>561.6</ele>
        <time>2021-08-20T13:58:26Z</time>
      </trkpt>
      <trkpt lat="46.66878" lon="5.70814">
        <ele>561.4</ele>
        <time>2021-08-20T13:58:27Z</time>
      </trkpt>
      <trkpt lat="46.66931" lon="5.70809">
        <ele>560.2</ele>
        <time>2021-08-20T13:58:33Z</time>
      </trkpt>
      <trkpt lat="46.66992" lon="5.70804">
        <ele>559.2</ele>
        <time>2021-08-20T13:58:40Z</time>
      </trkpt>
      <trkpt lat="46.67008" lon="5.70798">
        <ele>559.2</ele>
        <time>2021-08-20T13:58:42Z</time>
      </trkpt>
      <trkpt lat="46.67015" lon="5.70792">
        <ele>559.2</ele>
        <time>2021-08-20T13:58:43Z</time>
      </trkpt>
      <trkpt lat="46.67022" lon="5.70784">
        <ele>559.2</ele>
        <time>2021-08-20T13:58:44Z</time>
      </trkpt>
      <trkpt lat="46.67026" lon="5.70773">
        <ele>558.8</ele>
        <time>2021-08-20T13:58:45Z</time>
      </trkpt>
      <trkpt lat="46.67027" lon="5.7076">
        <ele>558.8</ele>
        <time>2021-08-20T13:58:46Z</time>
      </trkpt>
      <trkpt lat="46.67026" lon="5.70733">
        <ele>558.4</ele>
        <time>2021-08-20T13:58:48Z</time>
      </trkpt>
      <trkpt lat="46.67024" lon="5.70707">
        <ele>557.6</ele>
        <time>2021-08-20T13:58:50Z</time>
      </trkpt>
      <trkpt lat="46.6702" lon="5.70681">
        <ele>556.6</ele>
        <time>2021-08-20T13:58:52Z</time>
      </trkpt>
      <trkpt lat="46.67018" lon="5.70668">
        <ele>556.4</ele>
        <time>2021-08-20T13:58:53Z</time>
      </trkpt>
      <trkpt lat="46.67009" lon="5.7061">
        <ele>555.4</ele>
        <time>2021-08-20T13:58:57Z</time>
      </trkpt>
      <trkpt lat="46.67006" lon="5.70596">
        <ele>555.2</ele>
        <time>2021-08-20T13:58:58Z</time>
      </trkpt>
      <trkpt lat="46.66993" lon="5.70553">
        <ele>554.2</ele>
        <time>2021-08-20T13:59:01Z</time>
      </trkpt>
      <trkpt lat="46.66983" lon="5.70525">
        <ele>553.2</ele>
        <time>2021-08-20T13:59:03Z</time>
      </trkpt>
      <trkpt lat="46.66968" lon="5.70482">
        <ele>551.2</ele>
        <time>2021-08-20T13:59:06Z</time>
      </trkpt>
      <trkpt lat="46.66954" lon="5.70438">
        <ele>550.2</ele>
        <time>2021-08-20T13:59:09Z</time>
      </trkpt>
      <trkpt lat="46.66949" lon="5.70423">
        <ele>549.6</ele>
        <time>2021-08-20T13:59:10Z</time>
      </trkpt>
      <trkpt lat="46.66944" lon="5.70409">
        <ele>549</ele>
        <time>2021-08-20T13:59:11Z</time>
      </trkpt>
      <trkpt lat="46.66932" lon="5.70381">
        <ele>548</ele>
        <time>2021-08-20T13:59:13Z</time>
      </trkpt>
      <trkpt lat="46.66926" lon="5.70368">
        <ele>547.6</ele>
        <time>2021-08-20T13:59:14Z</time>
      </trkpt>
      <trkpt lat="46.66918" lon="5.70355">
        <ele>546.8</ele>
        <time>2021-08-20T13:59:15Z</time>
      </trkpt>
      <trkpt lat="46.66893" lon="5.7032">
        <ele>545.6</ele>
        <time>2021-08-20T13:59:18Z</time>
      </trkpt>
      <trkpt lat="46.66884" lon="5.7031">
        <ele>545.4</ele>
        <time>2021-08-20T13:59:19Z</time>
      </trkpt>
      <trkpt lat="46.66839" lon="5.70259">
        <ele>543.8</ele>
        <time>2021-08-20T13:59:24Z</time>
      </trkpt>
      <trkpt lat="46.66812" lon="5.70229">
        <ele>542.4</ele>
        <time>2021-08-20T13:59:27Z</time>
      </trkpt>
      <trkpt lat="46.66787" lon="5.70194">
        <ele>541</ele>
        <time>2021-08-20T13:59:30Z</time>
      </trkpt>
      <trkpt lat="46.6678" lon="5.70182">
        <ele>540.6</ele>
        <time>2021-08-20T13:59:31Z</time>
      </trkpt>
      <trkpt lat="46.66766" lon="5.70155">
        <ele>539.8</ele>
        <time>2021-08-20T13:59:33Z</time>
      </trkpt>
      <trkpt lat="46.66745" lon="5.70115">
        <ele>538.6</ele>
        <time>2021-08-20T13:59:36Z</time>
      </trkpt>
      <trkpt lat="46.66739" lon="5.70101">
        <ele>538.4</ele>
        <time>2021-08-20T13:59:37Z</time>
      </trkpt>
      <trkpt lat="46.66729" lon="5.70071">
        <ele>537.2</ele>
        <time>2021-08-20T13:59:39Z</time>
      </trkpt>
      <trkpt lat="46.66721" lon="5.7004">
        <ele>536.6</ele>
        <time>2021-08-20T13:59:41Z</time>
      </trkpt>
      <trkpt lat="46.66716" lon="5.70008">
        <ele>536</ele>
        <time>2021-08-20T13:59:43Z</time>
      </trkpt>
      <trkpt lat="46.66713" lon="5.69975">
        <ele>534.8</ele>
        <time>2021-08-20T13:59:45Z</time>
      </trkpt>
      <trkpt lat="46.66717" lon="5.69911">
        <ele>533.8</ele>
        <time>2021-08-20T13:59:49Z</time>
      </trkpt>
      <trkpt lat="46.66728" lon="5.69834">
        <ele>532.8</ele>
        <time>2021-08-20T13:59:54Z</time>
      </trkpt>
      <trkpt lat="46.66733" lon="5.69803">
        <ele>531.8</ele>
        <time>2021-08-20T13:59:56Z</time>
      </trkpt>
      <trkpt lat="46.66735" lon="5.69788">
        <ele>531.4</ele>
        <time>2021-08-20T13:59:57Z</time>
      </trkpt>
      <trkpt lat="46.66739" lon="5.69759">
        <ele>530.6</ele>
        <time>2021-08-20T13:59:59Z</time>
      </trkpt>
      <trkpt lat="46.66747" lon="5.69704">
        <ele>529.6</ele>
        <time>2021-08-20T14:00:03Z</time>
      </trkpt>
      <trkpt lat="46.6675" lon="5.69691">
        <ele>528.8</ele>
        <time>2021-08-20T14:00:04Z</time>
      </trkpt>
      <trkpt lat="46.66752" lon="5.69678">
        <ele>528.4</ele>
        <time>2021-08-20T14:00:05Z</time>
      </trkpt>
      <trkpt lat="46.66759" lon="5.69642">
        <ele>527.4</ele>
        <time>2021-08-20T14:00:08Z</time>
      </trkpt>
      <trkpt lat="46.66758" lon="5.69632">
        <ele>527</ele>
        <time>2021-08-20T14:00:09Z</time>
      </trkpt>
      <trkpt lat="46.66755" lon="5.69622">
        <ele>527</ele>
        <time>2021-08-20T14:00:10Z</time>
      </trkpt>
      <trkpt lat="46.66749" lon="5.69613">
        <ele>526.8</ele>
        <time>2021-08-20T14:00:11Z</time>
      </trkpt>
      <trkpt lat="46.66719" lon="5.69584">
        <ele>526.4</ele>
        <time>2021-08-20T14:00:15Z</time>
      </trkpt>
      <trkpt lat="46.6671" lon="5.69576">
        <ele>526</ele>
        <time>2021-08-20T14:00:16Z</time>
      </trkpt>
      <trkpt lat="46.66684" lon="5.69554">
        <ele>524.8</ele>
        <time>2021-08-20T14:00:19Z</time>
      </trkpt>
      <trkpt lat="46.66675" lon="5.69548">
        <ele>524.2</ele>
        <time>2021-08-20T14:00:20Z</time>
      </trkpt>
      <trkpt lat="46.66659" lon="5.69536">
        <ele>523.4</ele>
        <time>2021-08-20T14:00:22Z</time>
      </trkpt>
      <trkpt lat="46.66637" lon="5.69516">
        <ele>523</ele>
        <time>2021-08-20T14:00:25Z</time>
      </trkpt>
      <trkpt lat="46.66623" lon="5.69501">
        <ele>522.8</ele>
        <time>2021-08-20T14:00:27Z</time>
      </trkpt>
      <trkpt lat="46.66611" lon="5.69483">
        <ele>522.8</ele>
        <time>2021-08-20T14:00:29Z</time>
      </trkpt>
      <trkpt lat="46.66583" lon="5.69432">
        <ele>522.2</ele>
        <time>2021-08-20T14:00:34Z</time>
      </trkpt>
      <trkpt lat="46.66567" lon="5.69404">
        <ele>522</ele>
        <time>2021-08-20T14:00:37Z</time>
      </trkpt>
      <trkpt lat="46.66527" lon="5.69349">
        <ele>522.2</ele>
        <time>2021-08-20T14:00:44Z</time>
      </trkpt>
      <trkpt lat="46.66522" lon="5.69342">
        <ele>522.2</ele>
        <time>2021-08-20T14:00:45Z</time>
      </trkpt>
      <trkpt lat="46.66486" lon="5.69291">
        <ele>523</ele>
        <time>2021-08-20T14:00:52Z</time>
      </trkpt>
      <trkpt lat="46.66481" lon="5.69283">
        <ele>523.2</ele>
        <time>2021-08-20T14:00:53Z</time>
      </trkpt>
      <trkpt lat="46.66451" lon="5.69234">
        <ele>523.4</ele>
        <time>2021-08-20T14:00:59Z</time>
      </trkpt>
      <trkpt lat="46.66416" lon="5.69161">
        <ele>523.4</ele>
        <time>2021-08-20T14:01:07Z</time>
      </trkpt>
      <trkpt lat="46.66383" lon="5.69115">
        <ele>522.6</ele>
        <time>2021-08-20T14:01:13Z</time>
      </trkpt>
      <trkpt lat="46.66349" lon="5.69075">
        <ele>523</ele>
        <time>2021-08-20T14:01:19Z</time>
      </trkpt>
      <trkpt lat="46.66319" lon="5.6904">
        <ele>523.6</ele>
        <time>2021-08-20T14:01:25Z</time>
      </trkpt>
      <trkpt lat="46.66309" lon="5.69028">
        <ele>524.4</ele>
        <time>2021-08-20T14:01:27Z</time>
      </trkpt>
      <trkpt lat="46.66299" lon="5.69014">
        <ele>524.8</ele>
        <time>2021-08-20T14:01:29Z</time>
      </trkpt>
      <trkpt lat="46.66266" lon="5.68972">
        <ele>525</ele>
        <time>2021-08-20T14:01:35Z</time>
      </trkpt>
      <trkpt lat="46.66227" lon="5.68935">
        <ele>524.8</ele>
        <time>2021-08-20T14:01:41Z</time>
      </trkpt>
      <trkpt lat="46.66181" lon="5.68901">
        <ele>523</ele>
        <time>2021-08-20T14:01:47Z</time>
      </trkpt>
      <trkpt lat="46.66151" lon="5.68876">
        <ele>521.8</ele>
        <time>2021-08-20T14:01:51Z</time>
      </trkpt>
      <trkpt lat="46.66145" lon="5.68869">
        <ele>521.6</ele>
        <time>2021-08-20T14:01:52Z</time>
      </trkpt>
      <trkpt lat="46.66117" lon="5.68826">
        <ele>521</ele>
        <time>2021-08-20T14:01:57Z</time>
      </trkpt>
      <trkpt lat="46.66098" lon="5.68803">
        <ele>520.8</ele>
        <time>2021-08-20T14:02:00Z</time>
      </trkpt>
      <trkpt lat="46.66071" lon="5.68775">
        <ele>520.4</ele>
        <time>2021-08-20T14:02:04Z</time>
      </trkpt>
      <trkpt lat="46.66056" lon="5.68766">
        <ele>520.4</ele>
        <time>2021-08-20T14:02:06Z</time>
      </trkpt>
      <trkpt lat="46.66048" lon="5.68764">
        <ele>520.4</ele>
        <time>2021-08-20T14:02:07Z</time>
      </trkpt>
      <trkpt lat="46.66041" lon="5.68764">
        <ele>520.6</ele>
        <time>2021-08-20T14:02:08Z</time>
      </trkpt>
      <trkpt lat="46.66017" lon="5.68769">
        <ele>520.6</ele>
        <time>2021-08-20T14:02:11Z</time>
      </trkpt>
      <trkpt lat="46.65993" lon="5.6877">
        <ele>520</ele>
        <time>2021-08-20T14:02:14Z</time>
      </trkpt>
      <trkpt lat="46.65984" lon="5.68768">
        <ele>519.8</ele>
        <time>2021-08-20T14:02:15Z</time>
      </trkpt>
      <trkpt lat="46.65942" lon="5.68746">
        <ele>519.6</ele>
        <time>2021-08-20T14:02:20Z</time>
      </trkpt>
      <trkpt lat="46.65921" lon="5.68729">
        <ele>519.4</ele>
        <time>2021-08-20T14:02:23Z</time>
      </trkpt>
      <trkpt lat="46.65905" lon="5.68723">
        <ele>519</ele>
        <time>2021-08-20T14:02:25Z</time>
      </trkpt>
      <trkpt lat="46.65872" lon="5.68719">
        <ele>518.6</ele>
        <time>2021-08-20T14:02:29Z</time>
      </trkpt>
      <trkpt lat="46.65857" lon="5.68717">
        <ele>518.6</ele>
        <time>2021-08-20T14:02:31Z</time>
      </trkpt>
      <trkpt lat="46.65821" lon="5.68715">
        <ele>518.6</ele>
        <time>2021-08-20T14:02:36Z</time>
      </trkpt>
      <trkpt lat="46.65782" lon="5.68711">
        <ele>519.6</ele>
        <time>2021-08-20T14:02:41Z</time>
      </trkpt>
      <trkpt lat="46.65758" lon="5.68706">
        <ele>519.6</ele>
        <time>2021-08-20T14:02:44Z</time>
      </trkpt>
      <trkpt lat="46.65708" lon="5.68689">
        <ele>518.8</ele>
        <time>2021-08-20T14:02:50Z</time>
      </trkpt>
      <trkpt lat="46.65693" lon="5.68679">
        <ele>518.4</ele>
        <time>2021-08-20T14:02:52Z</time>
      </trkpt>
      <trkpt lat="46.65671" lon="5.6866">
        <ele>517.6</ele>
        <time>2021-08-20T14:02:55Z</time>
      </trkpt>
      <trkpt lat="46.65658" lon="5.68646">
        <ele>517.4</ele>
        <time>2021-08-20T14:02:57Z</time>
      </trkpt>
      <trkpt lat="46.65634" lon="5.68617">
        <ele>517.2</ele>
        <time>2021-08-20T14:03:01Z</time>
      </trkpt>
      <trkpt lat="46.65618" lon="5.68597">
        <ele>517.2</ele>
        <time>2021-08-20T14:03:04Z</time>
      </trkpt>
      <trkpt lat="46.65606" lon="5.68586">
        <ele>517.2</ele>
        <time>2021-08-20T14:03:06Z</time>
      </trkpt>
      <trkpt lat="46.65573" lon="5.68568">
        <ele>518</ele>
        <time>2021-08-20T14:03:11Z</time>
      </trkpt>
      <trkpt lat="46.65568" lon="5.68563">
        <ele>518</ele>
        <time>2021-08-20T14:03:12Z</time>
      </trkpt>
      <trkpt lat="46.65562" lon="5.68559">
        <ele>518.4</ele>
        <time>2021-08-20T14:03:13Z</time>
      </trkpt>
      <trkpt lat="46.65552" lon="5.68549">
        <ele>519.4</ele>
        <time>2021-08-20T14:03:15Z</time>
      </trkpt>
      <trkpt lat="46.65539" lon="5.68533">
        <ele>520.4</ele>
        <time>2021-08-20T14:03:18Z</time>
      </trkpt>
      <trkpt lat="46.65534" lon="5.68527">
        <ele>520.8</ele>
        <time>2021-08-20T14:03:19Z</time>
      </trkpt>
      <trkpt lat="46.65514" lon="5.68506">
        <ele>521.6</ele>
        <time>2021-08-20T14:03:23Z</time>
      </trkpt>
      <trkpt lat="46.65499" lon="5.68494">
        <ele>521.8</ele>
        <time>2021-08-20T14:03:26Z</time>
      </trkpt>
      <trkpt lat="46.6549" lon="5.68486">
        <ele>522</ele>
        <time>2021-08-20T14:03:28Z</time>
      </trkpt>
      <trkpt lat="46.65486" lon="5.68481">
        <ele>522.2</ele>
        <time>2021-08-20T14:03:29Z</time>
      </trkpt>
      <trkpt lat="46.65457" lon="5.68439">
        <ele>522.2</ele>
        <time>2021-08-20T14:03:36Z</time>
      </trkpt>
      <trkpt lat="46.65453" lon="5.68433">
        <ele>522.2</ele>
        <time>2021-08-20T14:03:37Z</time>
      </trkpt>
      <trkpt lat="46.65432" lon="5.68409">
        <ele>521.8</ele>
        <time>2021-08-20T14:03:41Z</time>
      </trkpt>
      <trkpt lat="46.65425" lon="5.68402">
        <ele>521.6</ele>
        <time>2021-08-20T14:03:42Z</time>
      </trkpt>
      <trkpt lat="46.65406" lon="5.68391">
        <ele>521.4</ele>
        <time>2021-08-20T14:03:45Z</time>
      </trkpt>
      <trkpt lat="46.65379" lon="5.68379">
        <ele>521.2</ele>
        <time>2021-08-20T14:03:49Z</time>
      </trkpt>
      <trkpt lat="46.65369" lon="5.68368">
        <ele>521</ele>
        <time>2021-08-20T14:03:51Z</time>
      </trkpt>
      <trkpt lat="46.65365" lon="5.68363">
        <ele>520.8</ele>
        <time>2021-08-20T14:03:52Z</time>
      </trkpt>
      <trkpt lat="46.6536" lon="5.68358">
        <ele>520.8</ele>
        <time>2021-08-20T14:03:53Z</time>
      </trkpt>
      <trkpt lat="46.65356" lon="5.68355">
        <ele>520.4</ele>
        <time>2021-08-20T14:03:54Z</time>
      </trkpt>
      <trkpt lat="46.65351" lon="5.68354">
        <ele>520.2</ele>
        <time>2021-08-20T14:03:55Z</time>
      </trkpt>
      <trkpt lat="46.65348" lon="5.68352">
        <ele>520.2</ele>
        <time>2021-08-20T14:03:56Z</time>
      </trkpt>
      <trkpt lat="46.65341" lon="5.68343">
        <ele>519.6</ele>
        <time>2021-08-20T14:03:59Z</time>
      </trkpt>
      <trkpt lat="46.6534" lon="5.68338">
        <ele>519.4</ele>
        <time>2021-08-20T14:04:00Z</time>
      </trkpt>
      <trkpt lat="46.65342" lon="5.68328">
        <ele>519</ele>
        <time>2021-08-20T14:04:02Z</time>
      </trkpt>
      <trkpt lat="46.65354" lon="5.68308">
        <ele>519</ele>
        <time>2021-08-20T14:04:07Z</time>
      </trkpt>
      <trkpt lat="46.65366" lon="5.68287">
        <ele>519.2</ele>
        <time>2021-08-20T14:04:12Z</time>
      </trkpt>
      <trkpt lat="46.65366" lon="5.68281">
        <ele>519.6</ele>
        <time>2021-08-20T14:04:13Z</time>
      </trkpt>
      <trkpt lat="46.6537" lon="5.68253">
        <ele>520.8</ele>
        <time>2021-08-20T14:04:17Z</time>
      </trkpt>
      <trkpt lat="46.65372" lon="5.68233">
        <ele>521.6</ele>
        <time>2021-08-20T14:04:20Z</time>
      </trkpt>
      <trkpt lat="46.65372" lon="5.68227">
        <ele>521.6</ele>
        <time>2021-08-20T14:04:21Z</time>
      </trkpt>
      <trkpt lat="46.65369" lon="5.68221">
        <ele>521.8</ele>
        <time>2021-08-20T14:04:22Z</time>
      </trkpt>
      <trkpt lat="46.6536" lon="5.68216">
        <ele>521.8</ele>
        <time>2021-08-20T14:04:24Z</time>
      </trkpt>
      <trkpt lat="46.65335" lon="5.68213">
        <ele>521.6</ele>
        <time>2021-08-20T14:04:28Z</time>
      </trkpt>
      <trkpt lat="46.653" lon="5.68212">
        <ele>520.6</ele>
        <time>2021-08-20T14:04:33Z</time>
      </trkpt>
      <trkpt lat="46.65293" lon="5.68209">
        <ele>520.2</ele>
        <time>2021-08-20T14:04:34Z</time>
      </trkpt>
      <trkpt lat="46.65286" lon="5.68204">
        <ele>520</ele>
        <time>2021-08-20T14:04:35Z</time>
      </trkpt>
      <trkpt lat="46.65277" lon="5.68187">
        <ele>519.2</ele>
        <time>2021-08-20T14:04:37Z</time>
      </trkpt>
      <trkpt lat="46.65271" lon="5.68143">
        <ele>518.2</ele>
        <time>2021-08-20T14:04:41Z</time>
      </trkpt>
      <trkpt lat="46.65268" lon="5.68132">
        <ele>518</ele>
        <time>2021-08-20T14:04:42Z</time>
      </trkpt>
      <trkpt lat="46.65262" lon="5.68112">
        <ele>518</ele>
        <time>2021-08-20T14:04:44Z</time>
      </trkpt>
      <trkpt lat="46.65258" lon="5.68102">
        <ele>517.8</ele>
        <time>2021-08-20T14:04:45Z</time>
      </trkpt>
      <trkpt lat="46.65253" lon="5.68094">
        <ele>517.8</ele>
        <time>2021-08-20T14:04:46Z</time>
      </trkpt>
      <trkpt lat="46.65234" lon="5.68073">
        <ele>517.8</ele>
        <time>2021-08-20T14:04:49Z</time>
      </trkpt>
      <trkpt lat="46.65182" lon="5.68021">
        <ele>518</ele>
        <time>2021-08-20T14:04:57Z</time>
      </trkpt>
      <trkpt lat="46.65154" lon="5.67997">
        <ele>517</ele>
        <time>2021-08-20T14:05:01Z</time>
      </trkpt>
      <trkpt lat="46.65139" lon="5.67983">
        <ele>517</ele>
        <time>2021-08-20T14:05:03Z</time>
      </trkpt>
      <trkpt lat="46.65108" lon="5.67957">
        <ele>516</ele>
        <time>2021-08-20T14:05:07Z</time>
      </trkpt>
      <trkpt lat="46.651" lon="5.67951">
        <ele>515.8</ele>
        <time>2021-08-20T14:05:08Z</time>
      </trkpt>
      <trkpt lat="46.65043" lon="5.67917">
        <ele>515.2</ele>
        <time>2021-08-20T14:05:15Z</time>
      </trkpt>
      <trkpt lat="46.65035" lon="5.67912">
        <ele>515</ele>
        <time>2021-08-20T14:05:16Z</time>
      </trkpt>
      <trkpt lat="46.65018" lon="5.67901">
        <ele>514.8</ele>
        <time>2021-08-20T14:05:18Z</time>
      </trkpt>
      <trkpt lat="46.64971" lon="5.6786">
        <ele>514.6</ele>
        <time>2021-08-20T14:05:24Z</time>
      </trkpt>
      <trkpt lat="46.64956" lon="5.67845">
        <ele>514</ele>
        <time>2021-08-20T14:05:26Z</time>
      </trkpt>
      <trkpt lat="46.64919" lon="5.67807">
        <ele>513.8</ele>
        <time>2021-08-20T14:05:31Z</time>
      </trkpt>
      <trkpt lat="46.64904" lon="5.6779">
        <ele>513.4</ele>
        <time>2021-08-20T14:05:33Z</time>
      </trkpt>
      <trkpt lat="46.64854" lon="5.67739">
        <ele>513.4</ele>
        <time>2021-08-20T14:05:40Z</time>
      </trkpt>
      <trkpt lat="46.64834" lon="5.67717">
        <ele>513.4</ele>
        <time>2021-08-20T14:05:43Z</time>
      </trkpt>
      <trkpt lat="46.6479" lon="5.67668">
        <ele>514.2</ele>
        <time>2021-08-20T14:05:50Z</time>
      </trkpt>
      <trkpt lat="46.64777" lon="5.67656">
        <ele>514.2</ele>
        <time>2021-08-20T14:05:52Z</time>
      </trkpt>
      <trkpt lat="46.64733" lon="5.67621">
        <ele>514</ele>
        <time>2021-08-20T14:05:58Z</time>
      </trkpt>
      <trkpt lat="46.64689" lon="5.6757">
        <ele>514</ele>
        <time>2021-08-20T14:06:05Z</time>
      </trkpt>
      <trkpt lat="46.64683" lon="5.67562">
        <ele>514</ele>
        <time>2021-08-20T14:06:06Z</time>
      </trkpt>
      <trkpt lat="46.64637" lon="5.67509">
        <ele>514.4</ele>
        <time>2021-08-20T14:06:14Z</time>
      </trkpt>
      <trkpt lat="46.64598" lon="5.67462">
        <ele>514.8</ele>
        <time>2021-08-20T14:06:21Z</time>
      </trkpt>
      <trkpt lat="46.64586" lon="5.67448">
        <ele>515</ele>
        <time>2021-08-20T14:06:23Z</time>
      </trkpt>
      <trkpt lat="46.6458" lon="5.67443">
        <ele>515</ele>
        <time>2021-08-20T14:06:24Z</time>
      </trkpt>
      <trkpt lat="46.64553" lon="5.67425">
        <ele>515.2</ele>
        <time>2021-08-20T14:06:28Z</time>
      </trkpt>
      <trkpt lat="46.64497" lon="5.67398">
        <ele>515</ele>
        <time>2021-08-20T14:06:36Z</time>
      </trkpt>
      <trkpt lat="46.6449" lon="5.67395">
        <ele>515</ele>
        <time>2021-08-20T14:06:37Z</time>
      </trkpt>
      <trkpt lat="46.64448" lon="5.67374">
        <ele>515</ele>
        <time>2021-08-20T14:06:43Z</time>
      </trkpt>
      <trkpt lat="46.6441" lon="5.67357">
        <ele>515.6</ele>
        <time>2021-08-20T14:06:49Z</time>
      </trkpt>
      <trkpt lat="46.64394" lon="5.67346">
        <ele>516.6</ele>
        <time>2021-08-20T14:06:52Z</time>
      </trkpt>
      <trkpt lat="46.64379" lon="5.67331">
        <ele>517.4</ele>
        <time>2021-08-20T14:06:55Z</time>
      </trkpt>
      <trkpt lat="46.64361" lon="5.67302">
        <ele>517.8</ele>
        <time>2021-08-20T14:06:59Z</time>
      </trkpt>
      <trkpt lat="46.64353" lon="5.67287">
        <ele>517.6</ele>
        <time>2021-08-20T14:07:01Z</time>
      </trkpt>
      <trkpt lat="46.64325" lon="5.67238">
        <ele>517</ele>
        <time>2021-08-20T14:07:07Z</time>
      </trkpt>
      <trkpt lat="46.64316" lon="5.6722">
        <ele>516.8</ele>
        <time>2021-08-20T14:07:09Z</time>
      </trkpt>
      <trkpt lat="46.64296" lon="5.67188">
        <ele>516.6</ele>
        <time>2021-08-20T14:07:13Z</time>
      </trkpt>
      <trkpt lat="46.64277" lon="5.67146">
        <ele>516.8</ele>
        <time>2021-08-20T14:07:18Z</time>
      </trkpt>
      <trkpt lat="46.64253" lon="5.67098">
        <ele>517.6</ele>
        <time>2021-08-20T14:07:24Z</time>
      </trkpt>
      <trkpt lat="46.64245" lon="5.67082">
        <ele>517.8</ele>
        <time>2021-08-20T14:07:26Z</time>
      </trkpt>
      <trkpt lat="46.6423" lon="5.67054">
        <ele>518.2</ele>
        <time>2021-08-20T14:07:30Z</time>
      </trkpt>
      <trkpt lat="46.64227" lon="5.67048">
        <ele>518.4</ele>
        <time>2021-08-20T14:07:31Z</time>
      </trkpt>
      <trkpt lat="46.6422" lon="5.67036">
        <ele>518.8</ele>
        <time>2021-08-20T14:07:33Z</time>
      </trkpt>
      <trkpt lat="46.64217" lon="5.6703">
        <ele>519.2</ele>
        <time>2021-08-20T14:07:34Z</time>
      </trkpt>
      <trkpt lat="46.64207" lon="5.67007">
        <ele>520</ele>
        <time>2021-08-20T14:07:38Z</time>
      </trkpt>
      <trkpt lat="46.64205" lon="5.67001">
        <ele>520.4</ele>
        <time>2021-08-20T14:07:39Z</time>
      </trkpt>
      <trkpt lat="46.64203" lon="5.66995">
        <ele>520.6</ele>
        <time>2021-08-20T14:07:40Z</time>
      </trkpt>
      <trkpt lat="46.64202" lon="5.66989">
        <ele>521</ele>
        <time>2021-08-20T14:07:41Z</time>
      </trkpt>
      <trkpt lat="46.642" lon="5.66979">
        <ele>521.4</ele>
        <time>2021-08-20T14:07:43Z</time>
      </trkpt>
      <trkpt lat="46.64198" lon="5.66973">
        <ele>521.6</ele>
        <time>2021-08-20T14:07:44Z</time>
      </trkpt>
      <trkpt lat="46.64197" lon="5.66967">
        <ele>522</ele>
        <time>2021-08-20T14:07:45Z</time>
      </trkpt>
      <trkpt lat="46.64192" lon="5.66937">
        <ele>523.2</ele>
        <time>2021-08-20T14:07:49Z</time>
      </trkpt>
      <trkpt lat="46.64189" lon="5.66916">
        <ele>524.4</ele>
        <time>2021-08-20T14:07:52Z</time>
      </trkpt>
      <trkpt lat="46.64188" lon="5.66908">
        <ele>524.6</ele>
        <time>2021-08-20T14:07:53Z</time>
      </trkpt>
      <trkpt lat="46.64186" lon="5.66893">
        <ele>525</ele>
        <time>2021-08-20T14:07:55Z</time>
      </trkpt>
      <trkpt lat="46.64184" lon="5.66886">
        <ele>525</ele>
        <time>2021-08-20T14:07:56Z</time>
      </trkpt>
      <trkpt lat="46.64181" lon="5.66871">
        <ele>525.4</ele>
        <time>2021-08-20T14:07:58Z</time>
      </trkpt>
      <trkpt lat="46.64177" lon="5.66844">
        <ele>526.4</ele>
        <time>2021-08-20T14:08:02Z</time>
      </trkpt>
      <trkpt lat="46.64176" lon="5.66835">
        <ele>526.6</ele>
        <time>2021-08-20T14:08:03Z</time>
      </trkpt>
      <trkpt lat="46.64167" lon="5.66785">
        <ele>527.2</ele>
        <time>2021-08-20T14:08:09Z</time>
      </trkpt>
      <trkpt lat="46.64164" lon="5.66768">
        <ele>527.4</ele>
        <time>2021-08-20T14:08:11Z</time>
      </trkpt>
      <trkpt lat="46.64158" lon="5.66726">
        <ele>528.8</ele>
        <time>2021-08-20T14:08:16Z</time>
      </trkpt>
      <trkpt lat="46.64156" lon="5.66718">
        <ele>528.8</ele>
        <time>2021-08-20T14:08:17Z</time>
      </trkpt>
      <trkpt lat="46.64144" lon="5.66638">
        <ele>529.4</ele>
        <time>2021-08-20T14:08:27Z</time>
      </trkpt>
      <trkpt lat="46.6414" lon="5.66605">
        <ele>529.6</ele>
        <time>2021-08-20T14:08:31Z</time>
      </trkpt>
      <trkpt lat="46.64134" lon="5.66571">
        <ele>529.8</ele>
        <time>2021-08-20T14:08:35Z</time>
      </trkpt>
      <trkpt lat="46.64123" lon="5.66504">
        <ele>530.4</ele>
        <time>2021-08-20T14:08:43Z</time>
      </trkpt>
      <trkpt lat="46.64118" lon="5.66471">
        <ele>530.8</ele>
        <time>2021-08-20T14:08:47Z</time>
      </trkpt>
      <trkpt lat="46.64112" lon="5.66427">
        <ele>530.8</ele>
        <time>2021-08-20T14:08:52Z</time>
      </trkpt>
      <trkpt lat="46.64105" lon="5.66377">
        <ele>530.6</ele>
        <time>2021-08-20T14:08:57Z</time>
      </trkpt>
      <trkpt lat="46.6409" lon="5.66313">
        <ele>530.2</ele>
        <time>2021-08-20T14:09:03Z</time>
      </trkpt>
      <trkpt lat="46.64085" lon="5.66303">
        <ele>530.2</ele>
        <time>2021-08-20T14:09:04Z</time>
      </trkpt>
      <trkpt lat="46.64074" lon="5.66287">
        <ele>529.8</ele>
        <time>2021-08-20T14:09:06Z</time>
      </trkpt>
      <trkpt lat="46.64067" lon="5.6628">
        <ele>529.6</ele>
        <time>2021-08-20T14:09:07Z</time>
      </trkpt>
      <trkpt lat="46.6406" lon="5.66275">
        <ele>529.6</ele>
        <time>2021-08-20T14:09:08Z</time>
      </trkpt>
      <trkpt lat="46.64051" lon="5.6627">
        <ele>529.6</ele>
        <time>2021-08-20T14:09:09Z</time>
      </trkpt>
      <trkpt lat="46.64005" lon="5.66247">
        <ele>528.6</ele>
        <time>2021-08-20T14:09:14Z</time>
      </trkpt>
      <trkpt lat="46.63987" lon="5.66233">
        <ele>528</ele>
        <time>2021-08-20T14:09:16Z</time>
      </trkpt>
      <trkpt lat="46.63979" lon="5.66225">
        <ele>527.6</ele>
        <time>2021-08-20T14:09:17Z</time>
      </trkpt>
      <trkpt lat="46.63971" lon="5.66215">
        <ele>527.4</ele>
        <time>2021-08-20T14:09:18Z</time>
      </trkpt>
      <trkpt lat="46.63965" lon="5.66203">
        <ele>527</ele>
        <time>2021-08-20T14:09:19Z</time>
      </trkpt>
      <trkpt lat="46.6396" lon="5.66191">
        <ele>526.4</ele>
        <time>2021-08-20T14:09:20Z</time>
      </trkpt>
      <trkpt lat="46.6395" lon="5.66168">
        <ele>525.8</ele>
        <time>2021-08-20T14:09:22Z</time>
      </trkpt>
      <trkpt lat="46.63938" lon="5.66149">
        <ele>525.4</ele>
        <time>2021-08-20T14:09:24Z</time>
      </trkpt>
      <trkpt lat="46.63932" lon="5.66141">
        <ele>525.4</ele>
        <time>2021-08-20T14:09:25Z</time>
      </trkpt>
      <trkpt lat="46.63902" lon="5.66121">
        <ele>525.6</ele>
        <time>2021-08-20T14:09:29Z</time>
      </trkpt>
      <trkpt lat="46.63862" lon="5.66095">
        <ele>526.6</ele>
        <time>2021-08-20T14:09:35Z</time>
      </trkpt>
      <trkpt lat="46.63833" lon="5.66067">
        <ele>528</ele>
        <time>2021-08-20T14:09:40Z</time>
      </trkpt>
      <trkpt lat="46.63827" lon="5.66061">
        <ele>528</ele>
        <time>2021-08-20T14:09:41Z</time>
      </trkpt>
      <trkpt lat="46.63808" lon="5.6604">
        <ele>529.2</ele>
        <time>2021-08-20T14:09:45Z</time>
      </trkpt>
      <trkpt lat="46.63795" lon="5.66021">
        <ele>530</ele>
        <time>2021-08-20T14:09:48Z</time>
      </trkpt>
      <trkpt lat="46.63791" lon="5.66015">
        <ele>530.4</ele>
        <time>2021-08-20T14:09:49Z</time>
      </trkpt>
      <trkpt lat="46.6377" lon="5.65992">
        <ele>531.4</ele>
        <time>2021-08-20T14:09:54Z</time>
      </trkpt>
      <trkpt lat="46.63745" lon="5.65973">
        <ele>532.4</ele>
        <time>2021-08-20T14:09:59Z</time>
      </trkpt>
      <trkpt lat="46.63741" lon="5.65968">
        <ele>532.6</ele>
        <time>2021-08-20T14:10:00Z</time>
      </trkpt>
      <trkpt lat="46.63738" lon="5.65963">
        <ele>532.6</ele>
        <time>2021-08-20T14:10:01Z</time>
      </trkpt>
      <trkpt lat="46.63733" lon="5.65951">
        <ele>532.8</ele>
        <time>2021-08-20T14:10:03Z</time>
      </trkpt>
      <trkpt lat="46.6373" lon="5.65945">
        <ele>533</ele>
        <time>2021-08-20T14:10:04Z</time>
      </trkpt>
      <trkpt lat="46.63718" lon="5.65926">
        <ele>533.4</ele>
        <time>2021-08-20T14:10:07Z</time>
      </trkpt>
      <trkpt lat="46.6371" lon="5.65916">
        <ele>533.6</ele>
        <time>2021-08-20T14:10:09Z</time>
      </trkpt>
      <trkpt lat="46.63706" lon="5.65911">
        <ele>533.8</ele>
        <time>2021-08-20T14:10:10Z</time>
      </trkpt>
      <trkpt lat="46.63673" lon="5.65878">
        <ele>534.4</ele>
        <time>2021-08-20T14:10:16Z</time>
      </trkpt>
      <trkpt lat="46.63658" lon="5.65857">
        <ele>534.2</ele>
        <time>2021-08-20T14:10:19Z</time>
      </trkpt>
      <trkpt lat="46.63654" lon="5.65847">
        <ele>534</ele>
        <time>2021-08-20T14:10:20Z</time>
      </trkpt>
      <trkpt lat="46.63645" lon="5.65804">
        <ele>533.8</ele>
        <time>2021-08-20T14:10:25Z</time>
      </trkpt>
      <trkpt lat="46.63642" lon="5.65742">
        <ele>534.2</ele>
        <time>2021-08-20T14:10:32Z</time>
      </trkpt>
      <trkpt lat="46.63636" lon="5.657">
        <ele>534.4</ele>
        <time>2021-08-20T14:10:36Z</time>
      </trkpt>
      <trkpt lat="46.63631" lon="5.6568">
        <ele>534.2</ele>
        <time>2021-08-20T14:10:38Z</time>
      </trkpt>
      <trkpt lat="46.63621" lon="5.65642">
        <ele>532.6</ele>
        <time>2021-08-20T14:10:41Z</time>
      </trkpt>
      <trkpt lat="46.63616" lon="5.65629">
        <ele>532.2</ele>
        <time>2021-08-20T14:10:42Z</time>
      </trkpt>
      <trkpt lat="46.63603" lon="5.65607">
        <ele>531.4</ele>
        <time>2021-08-20T14:10:44Z</time>
      </trkpt>
      <trkpt lat="46.63595" lon="5.65598">
        <ele>530.6</ele>
        <time>2021-08-20T14:10:45Z</time>
      </trkpt>
      <trkpt lat="46.63587" lon="5.65588">
        <ele>529.6</ele>
        <time>2021-08-20T14:10:46Z</time>
      </trkpt>
      <trkpt lat="46.6357" lon="5.65568">
        <ele>527.8</ele>
        <time>2021-08-20T14:10:48Z</time>
      </trkpt>
      <trkpt lat="46.63563" lon="5.65556">
        <ele>527.6</ele>
        <time>2021-08-20T14:10:49Z</time>
      </trkpt>
      <trkpt lat="46.63557" lon="5.65543">
        <ele>526.6</ele>
        <time>2021-08-20T14:10:50Z</time>
      </trkpt>
      <trkpt lat="46.6355" lon="5.65515">
        <ele>525.8</ele>
        <time>2021-08-20T14:10:52Z</time>
      </trkpt>
      <trkpt lat="46.63548" lon="5.655">
        <ele>525.4</ele>
        <time>2021-08-20T14:10:53Z</time>
      </trkpt>
      <trkpt lat="46.63544" lon="5.6547">
        <ele>525</ele>
        <time>2021-08-20T14:10:55Z</time>
      </trkpt>
      <trkpt lat="46.63535" lon="5.65445">
        <ele>524.4</ele>
        <time>2021-08-20T14:10:57Z</time>
      </trkpt>
      <trkpt lat="46.63529" lon="5.65434">
        <ele>524.4</ele>
        <time>2021-08-20T14:10:58Z</time>
      </trkpt>
      <trkpt lat="46.63504" lon="5.65388">
        <ele>524.2</ele>
        <time>2021-08-20T14:11:03Z</time>
      </trkpt>
      <trkpt lat="46.63495" lon="5.65369">
        <ele>525.4</ele>
        <time>2021-08-20T14:11:05Z</time>
      </trkpt>
      <trkpt lat="46.63487" lon="5.65355">
        <ele>526.4</ele>
        <time>2021-08-20T14:11:07Z</time>
      </trkpt>
      <trkpt lat="46.63479" lon="5.6534">
        <ele>526.8</ele>
        <time>2021-08-20T14:11:09Z</time>
      </trkpt>
      <trkpt lat="46.63468" lon="5.65315">
        <ele>527.4</ele>
        <time>2021-08-20T14:11:12Z</time>
      </trkpt>
      <trkpt lat="46.63463" lon="5.65298">
        <ele>527.8</ele>
        <time>2021-08-20T14:11:14Z</time>
      </trkpt>
      <trkpt lat="46.63461" lon="5.65286">
        <ele>528</ele>
        <time>2021-08-20T14:11:15Z</time>
      </trkpt>
      <trkpt lat="46.63461" lon="5.65279">
        <ele>528.2</ele>
        <time>2021-08-20T14:11:16Z</time>
      </trkpt>
      <trkpt lat="46.63463" lon="5.65259">
        <ele>528.8</ele>
        <time>2021-08-20T14:11:18Z</time>
      </trkpt>
      <trkpt lat="46.63464" lon="5.6525">
        <ele>528.8</ele>
        <time>2021-08-20T14:11:19Z</time>
      </trkpt>
      <trkpt lat="46.63472" lon="5.6523">
        <ele>529.4</ele>
        <time>2021-08-20T14:11:22Z</time>
      </trkpt>
      <trkpt lat="46.63475" lon="5.65224">
        <ele>529.6</ele>
        <time>2021-08-20T14:11:23Z</time>
      </trkpt>
      <trkpt lat="46.63478" lon="5.65216">
        <ele>530</ele>
        <time>2021-08-20T14:11:24Z</time>
      </trkpt>
      <trkpt lat="46.63491" lon="5.65186">
        <ele>531</ele>
        <time>2021-08-20T14:11:28Z</time>
      </trkpt>
      <trkpt lat="46.63499" lon="5.65163">
        <ele>531.4</ele>
        <time>2021-08-20T14:11:31Z</time>
      </trkpt>
      <trkpt lat="46.6352" lon="5.65104">
        <ele>531.6</ele>
        <time>2021-08-20T14:11:38Z</time>
      </trkpt>
      <trkpt lat="46.6355" lon="5.65029">
        <ele>531.8</ele>
        <time>2021-08-20T14:11:47Z</time>
      </trkpt>
      <trkpt lat="46.6356" lon="5.65007">
        <ele>532</ele>
        <time>2021-08-20T14:11:50Z</time>
      </trkpt>
      <trkpt lat="46.63575" lon="5.64974">
        <ele>533.2</ele>
        <time>2021-08-20T14:11:55Z</time>
      </trkpt>
      <trkpt lat="46.63587" lon="5.64941">
        <ele>534.6</ele>
        <time>2021-08-20T14:12:00Z</time>
      </trkpt>
      <trkpt lat="46.63594" lon="5.6492">
        <ele>535.6</ele>
        <time>2021-08-20T14:12:03Z</time>
      </trkpt>
      <trkpt lat="46.63617" lon="5.64867">
        <ele>536.4</ele>
        <time>2021-08-20T14:12:11Z</time>
      </trkpt>
      <trkpt lat="46.63619" lon="5.64859">
        <ele>536.6</ele>
        <time>2021-08-20T14:12:12Z</time>
      </trkpt>
      <trkpt lat="46.6362" lon="5.64851">
        <ele>536.6</ele>
        <time>2021-08-20T14:12:13Z</time>
      </trkpt>
      <trkpt lat="46.63621" lon="5.64843">
        <ele>536.8</ele>
        <time>2021-08-20T14:12:14Z</time>
      </trkpt>
      <trkpt lat="46.63621" lon="5.64833">
        <ele>536.8</ele>
        <time>2021-08-20T14:12:15Z</time>
      </trkpt>
      <trkpt lat="46.63616" lon="5.64787">
        <ele>537.2</ele>
        <time>2021-08-20T14:12:20Z</time>
      </trkpt>
      <trkpt lat="46.63601" lon="5.64733">
        <ele>537.4</ele>
        <time>2021-08-20T14:12:26Z</time>
      </trkpt>
      <trkpt lat="46.63578" lon="5.64665">
        <ele>537.6</ele>
        <time>2021-08-20T14:12:34Z</time>
      </trkpt>
      <trkpt lat="46.63576" lon="5.64656">
        <ele>537.6</ele>
        <time>2021-08-20T14:12:35Z</time>
      </trkpt>
      <trkpt lat="46.63559" lon="5.64597">
        <ele>538.6</ele>
        <time>2021-08-20T14:12:42Z</time>
      </trkpt>
      <trkpt lat="46.63555" lon="5.64579">
        <ele>539</ele>
        <time>2021-08-20T14:12:44Z</time>
      </trkpt>
      <trkpt lat="46.63548" lon="5.64545">
        <ele>540</ele>
        <time>2021-08-20T14:12:48Z</time>
      </trkpt>
      <trkpt lat="46.63546" lon="5.64528">
        <ele>540.2</ele>
        <time>2021-08-20T14:12:50Z</time>
      </trkpt>
      <trkpt lat="46.6354" lon="5.64485">
        <ele>541</ele>
        <time>2021-08-20T14:12:55Z</time>
      </trkpt>
      <trkpt lat="46.63536" lon="5.64449">
        <ele>541.2</ele>
        <time>2021-08-20T14:12:59Z</time>
      </trkpt>
      <trkpt lat="46.63527" lon="5.64365">
        <ele>541</ele>
        <time>2021-08-20T14:13:08Z</time>
      </trkpt>
      <trkpt lat="46.63524" lon="5.64337">
        <ele>541.2</ele>
        <time>2021-08-20T14:13:11Z</time>
      </trkpt>
      <trkpt lat="46.63518" lon="5.6431">
        <ele>541.2</ele>
        <time>2021-08-20T14:13:14Z</time>
      </trkpt>
      <trkpt lat="46.63506" lon="5.64272">
        <ele>541.2</ele>
        <time>2021-08-20T14:13:19Z</time>
      </trkpt>
      <trkpt lat="46.63502" lon="5.64257">
        <ele>541.4</ele>
        <time>2021-08-20T14:13:21Z</time>
      </trkpt>
      <trkpt lat="46.63497" lon="5.64241">
        <ele>541.4</ele>
        <time>2021-08-20T14:13:23Z</time>
      </trkpt>
      <trkpt lat="46.63493" lon="5.64233">
        <ele>541.2</ele>
        <time>2021-08-20T14:13:24Z</time>
      </trkpt>
      <trkpt lat="46.63458" lon="5.64167">
        <ele>540.6</ele>
        <time>2021-08-20T14:13:32Z</time>
      </trkpt>
      <trkpt lat="46.63436" lon="5.64125">
        <ele>540.2</ele>
        <time>2021-08-20T14:13:37Z</time>
      </trkpt>
      <trkpt lat="46.63432" lon="5.64119">
        <ele>540</ele>
        <time>2021-08-20T14:13:38Z</time>
      </trkpt>
      <trkpt lat="46.63429" lon="5.64116">
        <ele>540</ele>
        <time>2021-08-20T14:13:39Z</time>
      </trkpt>
      <trkpt lat="46.63425" lon="5.64114">
        <ele>540</ele>
        <time>2021-08-20T14:13:41Z</time>
      </trkpt>
      <trkpt lat="46.63424" lon="5.64114">
        <ele>540</ele>
        <time>2021-08-20T14:13:43Z</time>
      </trkpt>
      <trkpt lat="46.63421" lon="5.64112">
        <ele>540.4</ele>
        <time>2021-08-20T14:13:52Z</time>
      </trkpt>
      <trkpt lat="46.63415" lon="5.64123">
        <ele>540</ele>
        <time>2021-08-20T14:13:56Z</time>
      </trkpt>
      <trkpt lat="46.63401" lon="5.64149">
        <ele>540</ele>
        <time>2021-08-20T14:14:01Z</time>
      </trkpt>
      <trkpt lat="46.63375" lon="5.64191">
        <ele>540.2</ele>
        <time>2021-08-20T14:14:07Z</time>
      </trkpt>
      <trkpt lat="46.63341" lon="5.6424">
        <ele>540.4</ele>
        <time>2021-08-20T14:14:14Z</time>
      </trkpt>
      <trkpt lat="46.63316" lon="5.64254">
        <ele>540.4</ele>
        <time>2021-08-20T14:14:18Z</time>
      </trkpt>
      <trkpt lat="46.63282" lon="5.64278">
        <ele>540.6</ele>
        <time>2021-08-20T14:14:24Z</time>
      </trkpt>
      <trkpt lat="46.6325" lon="5.64316">
        <ele>541.4</ele>
        <time>2021-08-20T14:14:30Z</time>
      </trkpt>
      <trkpt lat="46.63238" lon="5.64325">
        <ele>541.8</ele>
        <time>2021-08-20T14:14:32Z</time>
      </trkpt>
      <trkpt lat="46.63224" lon="5.64331">
        <ele>542</ele>
        <time>2021-08-20T14:14:34Z</time>
      </trkpt>
      <trkpt lat="46.63196" lon="5.6433">
        <ele>542</ele>
        <time>2021-08-20T14:14:38Z</time>
      </trkpt>
      <trkpt lat="46.63177" lon="5.64328">
        <ele>542.2</ele>
        <time>2021-08-20T14:14:41Z</time>
      </trkpt>
      <trkpt lat="46.63166" lon="5.64329">
        <ele>542.6</ele>
        <time>2021-08-20T14:14:43Z</time>
      </trkpt>
      <trkpt lat="46.63155" lon="5.64331">
        <ele>543.4</ele>
        <time>2021-08-20T14:14:45Z</time>
      </trkpt>
      <trkpt lat="46.63138" lon="5.64334">
        <ele>544.4</ele>
        <time>2021-08-20T14:14:48Z</time>
      </trkpt>
      <trkpt lat="46.63127" lon="5.64337">
        <ele>544.8</ele>
        <time>2021-08-20T14:14:50Z</time>
      </trkpt>
      <trkpt lat="46.63104" lon="5.64342">
        <ele>545.6</ele>
        <time>2021-08-20T14:14:54Z</time>
      </trkpt>
      <trkpt lat="46.63099" lon="5.64343">
        <ele>545.8</ele>
        <time>2021-08-20T14:14:55Z</time>
      </trkpt>
      <trkpt lat="46.63093" lon="5.64343">
        <ele>546.2</ele>
        <time>2021-08-20T14:14:56Z</time>
      </trkpt>
      <trkpt lat="46.63087" lon="5.64342">
        <ele>546.4</ele>
        <time>2021-08-20T14:14:57Z</time>
      </trkpt>
      <trkpt lat="46.63081" lon="5.6434">
        <ele>547</ele>
        <time>2021-08-20T14:14:58Z</time>
      </trkpt>
      <trkpt lat="46.63061" lon="5.64336">
        <ele>547.4</ele>
        <time>2021-08-20T14:15:01Z</time>
      </trkpt>
      <trkpt lat="46.63013" lon="5.64327">
        <ele>546.6</ele>
        <time>2021-08-20T14:15:07Z</time>
      </trkpt>
      <trkpt lat="46.62994" lon="5.64325">
        <ele>546</ele>
        <time>2021-08-20T14:15:09Z</time>
      </trkpt>
      <trkpt lat="46.62975" lon="5.64322">
        <ele>544.2</ele>
        <time>2021-08-20T14:15:11Z</time>
      </trkpt>
      <trkpt lat="46.62955" lon="5.64318">
        <ele>543.4</ele>
        <time>2021-08-20T14:15:13Z</time>
      </trkpt>
      <trkpt lat="46.62945" lon="5.64317">
        <ele>543</ele>
        <time>2021-08-20T14:15:14Z</time>
      </trkpt>
      <trkpt lat="46.62915" lon="5.64311">
        <ele>542</ele>
        <time>2021-08-20T14:15:17Z</time>
      </trkpt>
      <trkpt lat="46.62904" lon="5.6431">
        <ele>540.8</ele>
        <time>2021-08-20T14:15:18Z</time>
      </trkpt>
      <trkpt lat="46.62863" lon="5.64303">
        <ele>539.8</ele>
        <time>2021-08-20T14:15:22Z</time>
      </trkpt>
      <trkpt lat="46.62852" lon="5.64302">
        <ele>539.6</ele>
        <time>2021-08-20T14:15:23Z</time>
      </trkpt>
      <trkpt lat="46.62812" lon="5.64295">
        <ele>538.6</ele>
        <time>2021-08-20T14:15:27Z</time>
      </trkpt>
      <trkpt lat="46.62783" lon="5.64288">
        <ele>538.2</ele>
        <time>2021-08-20T14:15:30Z</time>
      </trkpt>
      <trkpt lat="46.62744" lon="5.64267">
        <ele>537.6</ele>
        <time>2021-08-20T14:15:34Z</time>
      </trkpt>
      <trkpt lat="46.62716" lon="5.64248">
        <ele>536.6</ele>
        <time>2021-08-20T14:15:37Z</time>
      </trkpt>
      <trkpt lat="46.62696" lon="5.64239">
        <ele>536</ele>
        <time>2021-08-20T14:15:39Z</time>
      </trkpt>
      <trkpt lat="46.62657" lon="5.64232">
        <ele>535.4</ele>
        <time>2021-08-20T14:15:43Z</time>
      </trkpt>
      <trkpt lat="46.62605" lon="5.6423">
        <ele>535.8</ele>
        <time>2021-08-20T14:15:49Z</time>
      </trkpt>
      <trkpt lat="46.62577" lon="5.6423">
        <ele>536.6</ele>
        <time>2021-08-20T14:15:53Z</time>
      </trkpt>
      <trkpt lat="46.62564" lon="5.6423">
        <ele>537.2</ele>
        <time>2021-08-20T14:15:55Z</time>
      </trkpt>
      <trkpt lat="46.6255" lon="5.64229">
        <ele>537.6</ele>
        <time>2021-08-20T14:15:57Z</time>
      </trkpt>
      <trkpt lat="46.62538" lon="5.64225">
        <ele>538.2</ele>
        <time>2021-08-20T14:15:59Z</time>
      </trkpt>
      <trkpt lat="46.62533" lon="5.64222">
        <ele>538.6</ele>
        <time>2021-08-20T14:16:00Z</time>
      </trkpt>
      <trkpt lat="46.62528" lon="5.64218">
        <ele>538.8</ele>
        <time>2021-08-20T14:16:01Z</time>
      </trkpt>
      <trkpt lat="46.62514" lon="5.64206">
        <ele>540</ele>
        <time>2021-08-20T14:16:04Z</time>
      </trkpt>
      <trkpt lat="46.62509" lon="5.64201">
        <ele>540.6</ele>
        <time>2021-08-20T14:16:05Z</time>
      </trkpt>
      <trkpt lat="46.625" lon="5.64191">
        <ele>541.2</ele>
        <time>2021-08-20T14:16:07Z</time>
      </trkpt>
      <trkpt lat="46.62491" lon="5.64181">
        <ele>542.2</ele>
        <time>2021-08-20T14:16:09Z</time>
      </trkpt>
      <trkpt lat="46.62469" lon="5.6416">
        <ele>543.4</ele>
        <time>2021-08-20T14:16:14Z</time>
      </trkpt>
      <trkpt lat="46.6246" lon="5.64152">
        <ele>544</ele>
        <time>2021-08-20T14:16:16Z</time>
      </trkpt>
      <trkpt lat="46.62441" lon="5.64135">
        <ele>544.4</ele>
        <time>2021-08-20T14:16:20Z</time>
      </trkpt>
      <trkpt lat="46.62417" lon="5.64112">
        <ele>545.6</ele>
        <time>2021-08-20T14:16:25Z</time>
      </trkpt>
      <trkpt lat="46.62382" lon="5.64086">
        <ele>545.8</ele>
        <time>2021-08-20T14:16:31Z</time>
      </trkpt>
      <trkpt lat="46.6234" lon="5.64062">
        <ele>545.4</ele>
        <time>2021-08-20T14:16:38Z</time>
      </trkpt>
      <trkpt lat="46.62301" lon="5.64047">
        <ele>544.6</ele>
        <time>2021-08-20T14:16:43Z</time>
      </trkpt>
      <trkpt lat="46.62286" lon="5.64047">
        <ele>544.4</ele>
        <time>2021-08-20T14:16:45Z</time>
      </trkpt>
      <trkpt lat="46.62264" lon="5.6405">
        <ele>544.4</ele>
        <time>2021-08-20T14:16:48Z</time>
      </trkpt>
      <trkpt lat="46.62244" lon="5.64058">
        <ele>544.8</ele>
        <time>2021-08-20T14:16:51Z</time>
      </trkpt>
      <trkpt lat="46.62225" lon="5.6407">
        <ele>545.6</ele>
        <time>2021-08-20T14:16:54Z</time>
      </trkpt>
      <trkpt lat="46.62183" lon="5.64097">
        <ele>546.4</ele>
        <time>2021-08-20T14:17:00Z</time>
      </trkpt>
      <trkpt lat="46.62167" lon="5.64101">
        <ele>546.2</ele>
        <time>2021-08-20T14:17:02Z</time>
      </trkpt>
      <trkpt lat="46.6215" lon="5.64101">
        <ele>546.2</ele>
        <time>2021-08-20T14:17:04Z</time>
      </trkpt>
      <trkpt lat="46.62095" lon="5.64105">
        <ele>545.6</ele>
        <time>2021-08-20T14:17:11Z</time>
      </trkpt>
      <trkpt lat="46.62042" lon="5.64124">
        <ele>546.2</ele>
        <time>2021-08-20T14:17:18Z</time>
      </trkpt>
      <trkpt lat="46.62013" lon="5.6413">
        <ele>547</ele>
        <time>2021-08-20T14:17:22Z</time>
      </trkpt>
      <trkpt lat="46.61994" lon="5.64133">
        <ele>547.6</ele>
        <time>2021-08-20T14:17:25Z</time>
      </trkpt>
      <trkpt lat="46.61976" lon="5.64133">
        <ele>548.2</ele>
        <time>2021-08-20T14:17:28Z</time>
      </trkpt>
      <trkpt lat="46.61957" lon="5.64134">
        <ele>549</ele>
        <time>2021-08-20T14:17:31Z</time>
      </trkpt>
      <trkpt lat="46.61945" lon="5.64135">
        <ele>549.6</ele>
        <time>2021-08-20T14:17:33Z</time>
      </trkpt>
      <trkpt lat="46.61921" lon="5.64138">
        <ele>550.6</ele>
        <time>2021-08-20T14:17:37Z</time>
      </trkpt>
      <trkpt lat="46.61901" lon="5.6414">
        <ele>551.4</ele>
        <time>2021-08-20T14:17:40Z</time>
      </trkpt>
      <trkpt lat="46.61888" lon="5.64142">
        <ele>551.8</ele>
        <time>2021-08-20T14:17:42Z</time>
      </trkpt>
      <trkpt lat="46.61868" lon="5.64143">
        <ele>552</ele>
        <time>2021-08-20T14:17:45Z</time>
      </trkpt>
      <trkpt lat="46.61849" lon="5.64144">
        <ele>552.6</ele>
        <time>2021-08-20T14:17:48Z</time>
      </trkpt>
      <trkpt lat="46.61837" lon="5.64144">
        <ele>552.8</ele>
        <time>2021-08-20T14:17:50Z</time>
      </trkpt>
      <trkpt lat="46.61815" lon="5.64144">
        <ele>553.8</ele>
        <time>2021-08-20T14:17:54Z</time>
      </trkpt>
      <trkpt lat="46.61773" lon="5.64147">
        <ele>555</ele>
        <time>2021-08-20T14:18:01Z</time>
      </trkpt>
      <trkpt lat="46.61762" lon="5.64147">
        <ele>555</ele>
        <time>2021-08-20T14:18:03Z</time>
      </trkpt>
      <trkpt lat="46.61734" lon="5.64155">
        <ele>556</ele>
        <time>2021-08-20T14:18:08Z</time>
      </trkpt>
      <trkpt lat="46.61728" lon="5.64159">
        <ele>556.2</ele>
        <time>2021-08-20T14:18:09Z</time>
      </trkpt>
      <trkpt lat="46.61723" lon="5.64163">
        <ele>556.4</ele>
        <time>2021-08-20T14:18:10Z</time>
      </trkpt>
      <trkpt lat="46.61708" lon="5.64185">
        <ele>556.6</ele>
        <time>2021-08-20T14:18:13Z</time>
      </trkpt>
      <trkpt lat="46.6167" lon="5.64255">
        <ele>556.2</ele>
        <time>2021-08-20T14:18:21Z</time>
      </trkpt>
      <trkpt lat="46.61654" lon="5.64277">
        <ele>556.2</ele>
        <time>2021-08-20T14:18:24Z</time>
      </trkpt>
      <trkpt lat="46.61641" lon="5.64289">
        <ele>556.2</ele>
        <time>2021-08-20T14:18:26Z</time>
      </trkpt>
      <trkpt lat="46.61628" lon="5.64299">
        <ele>556.4</ele>
        <time>2021-08-20T14:18:28Z</time>
      </trkpt>
      <trkpt lat="46.61614" lon="5.64305">
        <ele>556.4</ele>
        <time>2021-08-20T14:18:30Z</time>
      </trkpt>
      <trkpt lat="46.61576" lon="5.64315">
        <ele>556.4</ele>
        <time>2021-08-20T14:18:35Z</time>
      </trkpt>
      <trkpt lat="46.61569" lon="5.64318">
        <ele>556.4</ele>
        <time>2021-08-20T14:18:36Z</time>
      </trkpt>
      <trkpt lat="46.61553" lon="5.64328">
        <ele>556</ele>
        <time>2021-08-20T14:18:38Z</time>
      </trkpt>
      <trkpt lat="46.61539" lon="5.64342">
        <ele>555.8</ele>
        <time>2021-08-20T14:18:40Z</time>
      </trkpt>
      <trkpt lat="46.61497" lon="5.64387">
        <ele>555</ele>
        <time>2021-08-20T14:18:46Z</time>
      </trkpt>
      <trkpt lat="46.61481" lon="5.64401">
        <ele>554.6</ele>
        <time>2021-08-20T14:18:48Z</time>
      </trkpt>
      <trkpt lat="46.61455" lon="5.64417">
        <ele>553.8</ele>
        <time>2021-08-20T14:18:51Z</time>
      </trkpt>
      <trkpt lat="46.61437" lon="5.64423">
        <ele>553.2</ele>
        <time>2021-08-20T14:18:53Z</time>
      </trkpt>
      <trkpt lat="46.61419" lon="5.64428">
        <ele>552.8</ele>
        <time>2021-08-20T14:18:55Z</time>
      </trkpt>
      <trkpt lat="46.61368" lon="5.64438">
        <ele>552.2</ele>
        <time>2021-08-20T14:19:01Z</time>
      </trkpt>
      <trkpt lat="46.6132" lon="5.64446">
        <ele>552.8</ele>
        <time>2021-08-20T14:19:07Z</time>
      </trkpt>
      <trkpt lat="46.61285" lon="5.64444">
        <ele>553.6</ele>
        <time>2021-08-20T14:19:12Z</time>
      </trkpt>
      <trkpt lat="46.61279" lon="5.64442">
        <ele>554</ele>
        <time>2021-08-20T14:19:13Z</time>
      </trkpt>
      <trkpt lat="46.61256" lon="5.64438">
        <ele>555</ele>
        <time>2021-08-20T14:19:17Z</time>
      </trkpt>
      <trkpt lat="46.61247" lon="5.64435">
        <ele>555.6</ele>
        <time>2021-08-20T14:19:19Z</time>
      </trkpt>
      <trkpt lat="46.61233" lon="5.64429">
        <ele>556</ele>
        <time>2021-08-20T14:19:22Z</time>
      </trkpt>
      <trkpt lat="46.61228" lon="5.64426">
        <ele>556.4</ele>
        <time>2021-08-20T14:19:23Z</time>
      </trkpt>
      <trkpt lat="46.6122" lon="5.64419">
        <ele>556.8</ele>
        <time>2021-08-20T14:19:25Z</time>
      </trkpt>
      <trkpt lat="46.61215" lon="5.64415">
        <ele>557</ele>
        <time>2021-08-20T14:19:26Z</time>
      </trkpt>
      <trkpt lat="46.61211" lon="5.64411">
        <ele>557.4</ele>
        <time>2021-08-20T14:19:27Z</time>
      </trkpt>
      <trkpt lat="46.6119" lon="5.64389">
        <ele>558.2</ele>
        <time>2021-08-20T14:19:32Z</time>
      </trkpt>
      <trkpt lat="46.61182" lon="5.64378">
        <ele>558.4</ele>
        <time>2021-08-20T14:19:34Z</time>
      </trkpt>
      <trkpt lat="46.61179" lon="5.64373">
        <ele>558.4</ele>
        <time>2021-08-20T14:19:35Z</time>
      </trkpt>
      <trkpt lat="46.61175" lon="5.64362">
        <ele>558.6</ele>
        <time>2021-08-20T14:19:37Z</time>
      </trkpt>
      <trkpt lat="46.61172" lon="5.64349">
        <ele>558.6</ele>
        <time>2021-08-20T14:19:39Z</time>
      </trkpt>
      <trkpt lat="46.61171" lon="5.64322">
        <ele>559.6</ele>
        <time>2021-08-20T14:19:43Z</time>
      </trkpt>
      <trkpt lat="46.61172" lon="5.64307">
        <ele>560.4</ele>
        <time>2021-08-20T14:19:45Z</time>
      </trkpt>
      <trkpt lat="46.61172" lon="5.64302">
        <ele>560.8</ele>
        <time>2021-08-20T14:19:46Z</time>
      </trkpt>
      <trkpt lat="46.61175" lon="5.64269">
        <ele>562</ele>
        <time>2021-08-20T14:19:51Z</time>
      </trkpt>
      <trkpt lat="46.61177" lon="5.6425">
        <ele>562.4</ele>
        <time>2021-08-20T14:19:54Z</time>
      </trkpt>
      <trkpt lat="46.61178" lon="5.64232">
        <ele>563.6</ele>
        <time>2021-08-20T14:19:57Z</time>
      </trkpt>
      <trkpt lat="46.61176" lon="5.6422">
        <ele>564.4</ele>
        <time>2021-08-20T14:19:59Z</time>
      </trkpt>
      <trkpt lat="46.61174" lon="5.64214">
        <ele>564.8</ele>
        <time>2021-08-20T14:20:00Z</time>
      </trkpt>
      <trkpt lat="46.61172" lon="5.64209">
        <ele>564.8</ele>
        <time>2021-08-20T14:20:01Z</time>
      </trkpt>
      <trkpt lat="46.61159" lon="5.64193">
        <ele>565.8</ele>
        <time>2021-08-20T14:20:05Z</time>
      </trkpt>
      <trkpt lat="46.61142" lon="5.64175">
        <ele>566.8</ele>
        <time>2021-08-20T14:20:10Z</time>
      </trkpt>
      <trkpt lat="46.61132" lon="5.64164">
        <ele>568</ele>
        <time>2021-08-20T14:20:13Z</time>
      </trkpt>
      <trkpt lat="46.61129" lon="5.6416">
        <ele>568.4</ele>
        <time>2021-08-20T14:20:14Z</time>
      </trkpt>
      <trkpt lat="46.61112" lon="5.64148">
        <ele>568.8</ele>
        <time>2021-08-20T14:20:18Z</time>
      </trkpt>
      <trkpt lat="46.61107" lon="5.64146">
        <ele>569.2</ele>
        <time>2021-08-20T14:20:19Z</time>
      </trkpt>
      <trkpt lat="46.61102" lon="5.64145">
        <ele>569.4</ele>
        <time>2021-08-20T14:20:20Z</time>
      </trkpt>
      <trkpt lat="46.61098" lon="5.64144">
        <ele>569.4</ele>
        <time>2021-08-20T14:20:21Z</time>
      </trkpt>
      <trkpt lat="46.61069" lon="5.64144">
        <ele>570</ele>
        <time>2021-08-20T14:20:26Z</time>
      </trkpt>
      <trkpt lat="46.61043" lon="5.64148">
        <ele>570.2</ele>
        <time>2021-08-20T14:20:30Z</time>
      </trkpt>
      <trkpt lat="46.61037" lon="5.64148">
        <ele>570.2</ele>
        <time>2021-08-20T14:20:31Z</time>
      </trkpt>
      <trkpt lat="46.61024" lon="5.6415">
        <ele>570</ele>
        <time>2021-08-20T14:20:33Z</time>
      </trkpt>
      <trkpt lat="46.6098" lon="5.64154">
        <ele>569</ele>
        <time>2021-08-20T14:20:39Z</time>
      </trkpt>
      <trkpt lat="46.60933" lon="5.64153">
        <ele>568.2</ele>
        <time>2021-08-20T14:20:45Z</time>
      </trkpt>
      <trkpt lat="46.60914" lon="5.64152">
        <ele>568</ele>
        <time>2021-08-20T14:20:47Z</time>
      </trkpt>
      <trkpt lat="46.60874" lon="5.6415">
        <ele>567.2</ele>
        <time>2021-08-20T14:20:52Z</time>
      </trkpt>
      <trkpt lat="46.60866" lon="5.6415">
        <ele>566.8</ele>
        <time>2021-08-20T14:20:53Z</time>
      </trkpt>
      <trkpt lat="46.6084" lon="5.64149">
        <ele>565.8</ele>
        <time>2021-08-20T14:20:56Z</time>
      </trkpt>
      <trkpt lat="46.60811" lon="5.64152">
        <ele>565.4</ele>
        <time>2021-08-20T14:20:59Z</time>
      </trkpt>
      <trkpt lat="46.60769" lon="5.64157">
        <ele>564.6</ele>
        <time>2021-08-20T14:21:04Z</time>
      </trkpt>
      <trkpt lat="46.60745" lon="5.64159">
        <ele>564.6</ele>
        <time>2021-08-20T14:21:07Z</time>
      </trkpt>
      <trkpt lat="46.60703" lon="5.64153">
        <ele>564.8</ele>
        <time>2021-08-20T14:21:12Z</time>
      </trkpt>
      <trkpt lat="46.60689" lon="5.64149">
        <ele>564.8</ele>
        <time>2021-08-20T14:21:14Z</time>
      </trkpt>
      <trkpt lat="46.60649" lon="5.64137">
        <ele>564.8</ele>
        <time>2021-08-20T14:21:19Z</time>
      </trkpt>
      <trkpt lat="46.60616" lon="5.64133">
        <ele>564.8</ele>
        <time>2021-08-20T14:21:23Z</time>
      </trkpt>
      <trkpt lat="46.60607" lon="5.64134">
        <ele>564.8</ele>
        <time>2021-08-20T14:21:24Z</time>
      </trkpt>
      <trkpt lat="46.60561" lon="5.64146">
        <ele>563.6</ele>
        <time>2021-08-20T14:21:29Z</time>
      </trkpt>
      <trkpt lat="46.60532" lon="5.64147">
        <ele>562.4</ele>
        <time>2021-08-20T14:21:32Z</time>
      </trkpt>
      <trkpt lat="46.60512" lon="5.64146">
        <ele>561.4</ele>
        <time>2021-08-20T14:21:34Z</time>
      </trkpt>
      <trkpt lat="46.60502" lon="5.64145">
        <ele>561</ele>
        <time>2021-08-20T14:21:35Z</time>
      </trkpt>
      <trkpt lat="46.60474" lon="5.64142">
        <ele>560</ele>
        <time>2021-08-20T14:21:38Z</time>
      </trkpt>
      <trkpt lat="46.60448" lon="5.64134">
        <ele>559.6</ele>
        <time>2021-08-20T14:21:41Z</time>
      </trkpt>
      <trkpt lat="46.60395" lon="5.64117">
        <ele>559.4</ele>
        <time>2021-08-20T14:21:47Z</time>
      </trkpt>
      <trkpt lat="46.60377" lon="5.64111">
        <ele>559.4</ele>
        <time>2021-08-20T14:21:49Z</time>
      </trkpt>
      <trkpt lat="46.6035" lon="5.64103">
        <ele>559</ele>
        <time>2021-08-20T14:21:52Z</time>
      </trkpt>
      <trkpt lat="46.60298" lon="5.64088">
        <ele>558.4</ele>
        <time>2021-08-20T14:21:58Z</time>
      </trkpt>
      <trkpt lat="46.60264" lon="5.64081">
        <ele>558</ele>
        <time>2021-08-20T14:22:02Z</time>
      </trkpt>
      <trkpt lat="46.6023" lon="5.64079">
        <ele>557.6</ele>
        <time>2021-08-20T14:22:06Z</time>
      </trkpt>
      <trkpt lat="46.60173" lon="5.64076">
        <ele>557.6</ele>
        <time>2021-08-20T14:22:13Z</time>
      </trkpt>
      <trkpt lat="46.60157" lon="5.64073">
        <ele>557.6</ele>
        <time>2021-08-20T14:22:15Z</time>
      </trkpt>
      <trkpt lat="46.60116" lon="5.64067">
        <ele>558.2</ele>
        <time>2021-08-20T14:22:21Z</time>
      </trkpt>
      <trkpt lat="46.60102" lon="5.64065">
        <ele>558.4</ele>
        <time>2021-08-20T14:22:23Z</time>
      </trkpt>
      <trkpt lat="46.6009" lon="5.64056">
        <ele>558.6</ele>
        <time>2021-08-20T14:22:25Z</time>
      </trkpt>
      <trkpt lat="46.60075" lon="5.64042">
        <ele>559.2</ele>
        <time>2021-08-20T14:22:28Z</time>
      </trkpt>
      <trkpt lat="46.60069" lon="5.64039">
        <ele>559.2</ele>
        <time>2021-08-20T14:22:29Z</time>
      </trkpt>
      <trkpt lat="46.60023" lon="5.64022">
        <ele>560</ele>
        <time>2021-08-20T14:22:37Z</time>
      </trkpt>
      <trkpt lat="46.60012" lon="5.6402">
        <ele>560</ele>
        <time>2021-08-20T14:22:39Z</time>
      </trkpt>
      <trkpt lat="46.60006" lon="5.64016">
        <ele>560</ele>
        <time>2021-08-20T14:22:41Z</time>
      </trkpt>
      <trkpt lat="46.60005" lon="5.64013">
        <ele>559.8</ele>
        <time>2021-08-20T14:22:44Z</time>
      </trkpt>
      <trkpt lat="46.60007" lon="5.64005">
        <ele>558.4</ele>
        <time>2021-08-20T14:22:54Z</time>
      </trkpt>
      <trkpt lat="46.60012" lon="5.63994">
        <ele>558.4</ele>
        <time>2021-08-20T14:22:56Z</time>
      </trkpt>
      <trkpt lat="46.60027" lon="5.63966">
        <ele>558.2</ele>
        <time>2021-08-20T14:23:00Z</time>
      </trkpt>
      <trkpt lat="46.60035" lon="5.63949">
        <ele>558.2</ele>
        <time>2021-08-20T14:23:02Z</time>
      </trkpt>
      <trkpt lat="46.60051" lon="5.63917">
        <ele>557.4</ele>
        <time>2021-08-20T14:23:06Z</time>
      </trkpt>
      <trkpt lat="46.60054" lon="5.63909">
        <ele>557.4</ele>
        <time>2021-08-20T14:23:07Z</time>
      </trkpt>
      <trkpt lat="46.60053" lon="5.639">
        <ele>557</ele>
        <time>2021-08-20T14:23:08Z</time>
      </trkpt>
      <trkpt lat="46.6005" lon="5.63891">
        <ele>556.8</ele>
        <time>2021-08-20T14:23:09Z</time>
      </trkpt>
      <trkpt lat="46.6004" lon="5.63878">
        <ele>556.6</ele>
        <time>2021-08-20T14:23:11Z</time>
      </trkpt>
      <trkpt lat="46.60009" lon="5.63846">
        <ele>555.8</ele>
        <time>2021-08-20T14:23:16Z</time>
      </trkpt>
      <trkpt lat="46.59981" lon="5.63819">
        <ele>555.4</ele>
        <time>2021-08-20T14:23:20Z</time>
      </trkpt>
      <trkpt lat="46.59944" lon="5.63782">
        <ele>554.4</ele>
        <time>2021-08-20T14:23:25Z</time>
      </trkpt>
      <trkpt lat="46.59929" lon="5.63765">
        <ele>554</ele>
        <time>2021-08-20T14:23:27Z</time>
      </trkpt>
      <trkpt lat="46.59916" lon="5.63745">
        <ele>553.6</ele>
        <time>2021-08-20T14:23:29Z</time>
      </trkpt>
      <trkpt lat="46.5991" lon="5.63735">
        <ele>553.4</ele>
        <time>2021-08-20T14:23:30Z</time>
      </trkpt>
      <trkpt lat="46.59905" lon="5.63721">
        <ele>553.2</ele>
        <time>2021-08-20T14:23:31Z</time>
      </trkpt>
      <trkpt lat="46.59877" lon="5.63647">
        <ele>552.4</ele>
        <time>2021-08-20T14:23:38Z</time>
      </trkpt>
      <trkpt lat="46.59873" lon="5.63636">
        <ele>552.6</ele>
        <time>2021-08-20T14:23:39Z</time>
      </trkpt>
      <trkpt lat="46.59846" lon="5.63571">
        <ele>552.8</ele>
        <time>2021-08-20T14:23:46Z</time>
      </trkpt>
      <trkpt lat="46.59835" lon="5.63559">
        <ele>553.2</ele>
        <time>2021-08-20T14:23:48Z</time>
      </trkpt>
      <trkpt lat="46.59823" lon="5.6355">
        <ele>553.6</ele>
        <time>2021-08-20T14:23:50Z</time>
      </trkpt>
      <trkpt lat="46.59792" lon="5.63531">
        <ele>554.4</ele>
        <time>2021-08-20T14:23:55Z</time>
      </trkpt>
      <trkpt lat="46.59772" lon="5.63516">
        <ele>554.8</ele>
        <time>2021-08-20T14:23:58Z</time>
      </trkpt>
      <trkpt lat="46.59754" lon="5.63492">
        <ele>554.8</ele>
        <time>2021-08-20T14:24:01Z</time>
      </trkpt>
      <trkpt lat="46.59749" lon="5.63482">
        <ele>554.6</ele>
        <time>2021-08-20T14:24:02Z</time>
      </trkpt>
      <trkpt lat="46.59745" lon="5.63471">
        <ele>554.4</ele>
        <time>2021-08-20T14:24:03Z</time>
      </trkpt>
      <trkpt lat="46.59741" lon="5.63447">
        <ele>554</ele>
        <time>2021-08-20T14:24:05Z</time>
      </trkpt>
      <trkpt lat="46.59742" lon="5.63421">
        <ele>552.8</ele>
        <time>2021-08-20T14:24:07Z</time>
      </trkpt>
      <trkpt lat="46.59745" lon="5.63395">
        <ele>552</ele>
        <time>2021-08-20T14:24:09Z</time>
      </trkpt>
      <trkpt lat="46.59747" lon="5.63383">
        <ele>551.8</ele>
        <time>2021-08-20T14:24:10Z</time>
      </trkpt>
      <trkpt lat="46.59756" lon="5.63316">
        <ele>550.6</ele>
        <time>2021-08-20T14:24:15Z</time>
      </trkpt>
      <trkpt lat="46.59757" lon="5.6329">
        <ele>550</ele>
        <time>2021-08-20T14:24:17Z</time>
      </trkpt>
      <trkpt lat="46.59755" lon="5.63264">
        <ele>549</ele>
        <time>2021-08-20T14:24:19Z</time>
      </trkpt>
      <trkpt lat="46.59751" lon="5.63214">
        <ele>548</ele>
        <time>2021-08-20T14:24:23Z</time>
      </trkpt>
      <trkpt lat="46.59749" lon="5.63141">
        <ele>547.6</ele>
        <time>2021-08-20T14:24:29Z</time>
      </trkpt>
      <trkpt lat="46.59749" lon="5.6312">
        <ele>547.6</ele>
        <time>2021-08-20T14:24:31Z</time>
      </trkpt>
      <trkpt lat="46.59752" lon="5.631">
        <ele>547.8</ele>
        <time>2021-08-20T14:24:33Z</time>
      </trkpt>
      <trkpt lat="46.59753" lon="5.63089">
        <ele>548</ele>
        <time>2021-08-20T14:24:34Z</time>
      </trkpt>
      <trkpt lat="46.59752" lon="5.63059">
        <ele>548</ele>
        <time>2021-08-20T14:24:37Z</time>
      </trkpt>
      <trkpt lat="46.59745" lon="5.63039">
        <ele>548.2</ele>
        <time>2021-08-20T14:24:39Z</time>
      </trkpt>
      <trkpt lat="46.5974" lon="5.63032">
        <ele>548.2</ele>
        <time>2021-08-20T14:24:40Z</time>
      </trkpt>
      <trkpt lat="46.59725" lon="5.63028">
        <ele>548</ele>
        <time>2021-08-20T14:24:42Z</time>
      </trkpt>
      <trkpt lat="46.59717" lon="5.63027">
        <ele>547.6</ele>
        <time>2021-08-20T14:24:43Z</time>
      </trkpt>
      <trkpt lat="46.59693" lon="5.6302">
        <ele>546.8</ele>
        <time>2021-08-20T14:24:46Z</time>
      </trkpt>
      <trkpt lat="46.59673" lon="5.63007">
        <ele>546.2</ele>
        <time>2021-08-20T14:24:49Z</time>
      </trkpt>
      <trkpt lat="46.59664" lon="5.62995">
        <ele>545.8</ele>
        <time>2021-08-20T14:24:51Z</time>
      </trkpt>
      <trkpt lat="46.5966" lon="5.62989">
        <ele>545.8</ele>
        <time>2021-08-20T14:24:52Z</time>
      </trkpt>
      <trkpt lat="46.59644" lon="5.62964">
        <ele>546</ele>
        <time>2021-08-20T14:24:56Z</time>
      </trkpt>
      <trkpt lat="46.59637" lon="5.62953">
        <ele>546</ele>
        <time>2021-08-20T14:24:58Z</time>
      </trkpt>
      <trkpt lat="46.59635" lon="5.62948">
        <ele>546.2</ele>
        <time>2021-08-20T14:24:59Z</time>
      </trkpt>
      <trkpt lat="46.59631" lon="5.6294">
        <ele>546.2</ele>
        <time>2021-08-20T14:25:01Z</time>
      </trkpt>
      <trkpt lat="46.59619" lon="5.62936">
        <ele>546.2</ele>
        <time>2021-08-20T14:25:04Z</time>
      </trkpt>
      <trkpt lat="46.59614" lon="5.62936">
        <ele>546.2</ele>
        <time>2021-08-20T14:25:05Z</time>
      </trkpt>
      <trkpt lat="46.59608" lon="5.62936">
        <ele>546.2</ele>
        <time>2021-08-20T14:25:06Z</time>
      </trkpt>
      <trkpt lat="46.59584" lon="5.62943">
        <ele>546.4</ele>
        <time>2021-08-20T14:25:10Z</time>
      </trkpt>
      <trkpt lat="46.59536" lon="5.62953">
        <ele>546.8</ele>
        <time>2021-08-20T14:25:17Z</time>
      </trkpt>
      <trkpt lat="46.59491" lon="5.6296">
        <ele>547</ele>
        <time>2021-08-20T14:25:23Z</time>
      </trkpt>
      <trkpt lat="46.59441" lon="5.62969">
        <ele>548</ele>
        <time>2021-08-20T14:25:30Z</time>
      </trkpt>
      <trkpt lat="46.59434" lon="5.6297">
        <ele>548</ele>
        <time>2021-08-20T14:25:31Z</time>
      </trkpt>
      <trkpt lat="46.59378" lon="5.62979">
        <ele>548.6</ele>
        <time>2021-08-20T14:25:39Z</time>
      </trkpt>
      <trkpt lat="46.59371" lon="5.62981">
        <ele>548.8</ele>
        <time>2021-08-20T14:25:40Z</time>
      </trkpt>
      <trkpt lat="46.59342" lon="5.62986">
        <ele>549</ele>
        <time>2021-08-20T14:25:44Z</time>
      </trkpt>
      <trkpt lat="46.59312" lon="5.6299">
        <ele>549.2</ele>
        <time>2021-08-20T14:25:48Z</time>
      </trkpt>
      <trkpt lat="46.59257" lon="5.62995">
        <ele>548.8</ele>
        <time>2021-08-20T14:25:55Z</time>
      </trkpt>
      <trkpt lat="46.59198" lon="5.6299">
        <ele>548.2</ele>
        <time>2021-08-20T14:26:02Z</time>
      </trkpt>
      <trkpt lat="46.59181" lon="5.62987">
        <ele>548</ele>
        <time>2021-08-20T14:26:04Z</time>
      </trkpt>
      <trkpt lat="46.59119" lon="5.62978">
        <ele>547.6</ele>
        <time>2021-08-20T14:26:11Z</time>
      </trkpt>
      <trkpt lat="46.59065" lon="5.6297">
        <ele>547.2</ele>
        <time>2021-08-20T14:26:17Z</time>
      </trkpt>
      <trkpt lat="46.59047" lon="5.62968">
        <ele>547</ele>
        <time>2021-08-20T14:26:19Z</time>
      </trkpt>
      <trkpt lat="46.59038" lon="5.62966">
        <ele>546.8</ele>
        <time>2021-08-20T14:26:20Z</time>
      </trkpt>
      <trkpt lat="46.58983" lon="5.62959">
        <ele>546.4</ele>
        <time>2021-08-20T14:26:26Z</time>
      </trkpt>
      <trkpt lat="46.58947" lon="5.62954">
        <ele>546.2</ele>
        <time>2021-08-20T14:26:30Z</time>
      </trkpt>
      <trkpt lat="46.5892" lon="5.6295">
        <ele>545.8</ele>
        <time>2021-08-20T14:26:33Z</time>
      </trkpt>
      <trkpt lat="46.58858" lon="5.62941">
        <ele>545.4</ele>
        <time>2021-08-20T14:26:40Z</time>
      </trkpt>
      <trkpt lat="46.58849" lon="5.6294">
        <ele>545.4</ele>
        <time>2021-08-20T14:26:41Z</time>
      </trkpt>
      <trkpt lat="46.58789" lon="5.62931">
        <ele>545.8</ele>
        <time>2021-08-20T14:26:48Z</time>
      </trkpt>
      <trkpt lat="46.58755" lon="5.62926">
        <ele>545.8</ele>
        <time>2021-08-20T14:26:52Z</time>
      </trkpt>
      <trkpt lat="46.58693" lon="5.6291">
        <ele>545</ele>
        <time>2021-08-20T14:26:59Z</time>
      </trkpt>
      <trkpt lat="46.58639" lon="5.62894">
        <ele>544.2</ele>
        <time>2021-08-20T14:27:05Z</time>
      </trkpt>
      <trkpt lat="46.58611" lon="5.62887">
        <ele>543.8</ele>
        <time>2021-08-20T14:27:08Z</time>
      </trkpt>
      <trkpt lat="46.586" lon="5.62884">
        <ele>543.6</ele>
        <time>2021-08-20T14:27:09Z</time>
      </trkpt>
      <trkpt lat="46.58574" lon="5.62878">
        <ele>543.4</ele>
        <time>2021-08-20T14:27:12Z</time>
      </trkpt>
      <trkpt lat="46.58546" lon="5.6288">
        <ele>543</ele>
        <time>2021-08-20T14:27:15Z</time>
      </trkpt>
      <trkpt lat="46.58507" lon="5.62895">
        <ele>542.8</ele>
        <time>2021-08-20T14:27:19Z</time>
      </trkpt>
      <trkpt lat="46.58498" lon="5.629">
        <ele>542.4</ele>
        <time>2021-08-20T14:27:20Z</time>
      </trkpt>
      <trkpt lat="46.58459" lon="5.6292">
        <ele>541.6</ele>
        <time>2021-08-20T14:27:24Z</time>
      </trkpt>
      <trkpt lat="46.5842" lon="5.62941">
        <ele>540.6</ele>
        <time>2021-08-20T14:27:28Z</time>
      </trkpt>
      <trkpt lat="46.5841" lon="5.62946">
        <ele>540.4</ele>
        <time>2021-08-20T14:27:29Z</time>
      </trkpt>
      <trkpt lat="46.5837" lon="5.62965">
        <ele>539.4</ele>
        <time>2021-08-20T14:27:33Z</time>
      </trkpt>
      <trkpt lat="46.5835" lon="5.62975">
        <ele>538.8</ele>
        <time>2021-08-20T14:27:35Z</time>
      </trkpt>
      <trkpt lat="46.58321" lon="5.62989">
        <ele>538.2</ele>
        <time>2021-08-20T14:27:38Z</time>
      </trkpt>
      <trkpt lat="46.58262" lon="5.63018">
        <ele>537.4</ele>
        <time>2021-08-20T14:27:44Z</time>
      </trkpt>
      <trkpt lat="46.58233" lon="5.63033">
        <ele>537.2</ele>
        <time>2021-08-20T14:27:47Z</time>
      </trkpt>
      <trkpt lat="46.58191" lon="5.63047">
        <ele>536.6</ele>
        <time>2021-08-20T14:27:51Z</time>
      </trkpt>
      <trkpt lat="46.5818" lon="5.63047">
        <ele>536.6</ele>
        <time>2021-08-20T14:27:52Z</time>
      </trkpt>
      <trkpt lat="46.58159" lon="5.63043">
        <ele>536</ele>
        <time>2021-08-20T14:27:54Z</time>
      </trkpt>
      <trkpt lat="46.58138" lon="5.63033">
        <ele>535.4</ele>
        <time>2021-08-20T14:27:56Z</time>
      </trkpt>
      <trkpt lat="46.58129" lon="5.63025">
        <ele>535</ele>
        <time>2021-08-20T14:27:57Z</time>
      </trkpt>
      <trkpt lat="46.5812" lon="5.63016">
        <ele>534.6</ele>
        <time>2021-08-20T14:27:58Z</time>
      </trkpt>
      <trkpt lat="46.58088" lon="5.62975">
        <ele>533.8</ele>
        <time>2021-08-20T14:28:02Z</time>
      </trkpt>
      <trkpt lat="46.5808" lon="5.62964">
        <ele>533.4</ele>
        <time>2021-08-20T14:28:03Z</time>
      </trkpt>
      <trkpt lat="46.58064" lon="5.62944">
        <ele>532.2</ele>
        <time>2021-08-20T14:28:05Z</time>
      </trkpt>
      <trkpt lat="46.58031" lon="5.6291">
        <ele>531.4</ele>
        <time>2021-08-20T14:28:09Z</time>
      </trkpt>
      <trkpt lat="46.58013" lon="5.62895">
        <ele>531</ele>
        <time>2021-08-20T14:28:11Z</time>
      </trkpt>
      <trkpt lat="46.57977" lon="5.62869">
        <ele>530.2</ele>
        <time>2021-08-20T14:28:15Z</time>
      </trkpt>
      <trkpt lat="46.57967" lon="5.62863">
        <ele>529.8</ele>
        <time>2021-08-20T14:28:16Z</time>
      </trkpt>
      <trkpt lat="46.57918" lon="5.62843">
        <ele>529</ele>
        <time>2021-08-20T14:28:21Z</time>
      </trkpt>
      <trkpt lat="46.57898" lon="5.62837">
        <ele>528.6</ele>
        <time>2021-08-20T14:28:23Z</time>
      </trkpt>
      <trkpt lat="46.57847" lon="5.62823">
        <ele>527.6</ele>
        <time>2021-08-20T14:28:28Z</time>
      </trkpt>
      <trkpt lat="46.57827" lon="5.62817">
        <ele>527.2</ele>
        <time>2021-08-20T14:28:30Z</time>
      </trkpt>
      <trkpt lat="46.57783" lon="5.62804">
        <ele>526.6</ele>
        <time>2021-08-20T14:28:34Z</time>
      </trkpt>
      <trkpt lat="46.57743" lon="5.62786">
        <ele>525.6</ele>
        <time>2021-08-20T14:28:38Z</time>
      </trkpt>
      <trkpt lat="46.57733" lon="5.62781">
        <ele>525.2</ele>
        <time>2021-08-20T14:28:39Z</time>
      </trkpt>
      <trkpt lat="46.57681" lon="5.62755">
        <ele>524</ele>
        <time>2021-08-20T14:28:44Z</time>
      </trkpt>
      <trkpt lat="46.57663" lon="5.62746">
        <ele>523.6</ele>
        <time>2021-08-20T14:28:46Z</time>
      </trkpt>
      <trkpt lat="46.57635" lon="5.62732">
        <ele>523</ele>
        <time>2021-08-20T14:28:49Z</time>
      </trkpt>
      <trkpt lat="46.57597" lon="5.62713">
        <ele>522.2</ele>
        <time>2021-08-20T14:28:53Z</time>
      </trkpt>
      <trkpt lat="46.57587" lon="5.62707">
        <ele>521.6</ele>
        <time>2021-08-20T14:28:54Z</time>
      </trkpt>
      <trkpt lat="46.57549" lon="5.62681">
        <ele>520.8</ele>
        <time>2021-08-20T14:28:58Z</time>
      </trkpt>
      <trkpt lat="46.57522" lon="5.62656">
        <ele>519.8</ele>
        <time>2021-08-20T14:29:01Z</time>
      </trkpt>
      <trkpt lat="46.57487" lon="5.62624">
        <ele>518.8</ele>
        <time>2021-08-20T14:29:05Z</time>
      </trkpt>
      <trkpt lat="46.57479" lon="5.62616">
        <ele>518.8</ele>
        <time>2021-08-20T14:29:06Z</time>
      </trkpt>
      <trkpt lat="46.57437" lon="5.62577">
        <ele>518.4</ele>
        <time>2021-08-20T14:29:11Z</time>
      </trkpt>
      <trkpt lat="46.57395" lon="5.62544">
        <ele>518</ele>
        <time>2021-08-20T14:29:16Z</time>
      </trkpt>
      <trkpt lat="46.57359" lon="5.62526">
        <ele>517.6</ele>
        <time>2021-08-20T14:29:20Z</time>
      </trkpt>
      <trkpt lat="46.5734" lon="5.62519">
        <ele>517.6</ele>
        <time>2021-08-20T14:29:22Z</time>
      </trkpt>
      <trkpt lat="46.57285" lon="5.62504">
        <ele>517.6</ele>
        <time>2021-08-20T14:29:28Z</time>
      </trkpt>
      <trkpt lat="46.57259" lon="5.62496">
        <ele>518</ele>
        <time>2021-08-20T14:29:31Z</time>
      </trkpt>
      <trkpt lat="46.57216" lon="5.6249">
        <ele>518.4</ele>
        <time>2021-08-20T14:29:36Z</time>
      </trkpt>
      <trkpt lat="46.57191" lon="5.62493">
        <ele>518.8</ele>
        <time>2021-08-20T14:29:39Z</time>
      </trkpt>
      <trkpt lat="46.57165" lon="5.62497">
        <ele>519</ele>
        <time>2021-08-20T14:29:42Z</time>
      </trkpt>
      <trkpt lat="46.57132" lon="5.62491">
        <ele>519.2</ele>
        <time>2021-08-20T14:29:46Z</time>
      </trkpt>
      <trkpt lat="46.57102" lon="5.62472">
        <ele>519.4</ele>
        <time>2021-08-20T14:29:50Z</time>
      </trkpt>
      <trkpt lat="46.57053" lon="5.62427">
        <ele>519.2</ele>
        <time>2021-08-20T14:29:57Z</time>
      </trkpt>
      <trkpt lat="46.5704" lon="5.62414">
        <ele>519.4</ele>
        <time>2021-08-20T14:29:59Z</time>
      </trkpt>
      <trkpt lat="46.57004" lon="5.62383">
        <ele>519.8</ele>
        <time>2021-08-20T14:30:04Z</time>
      </trkpt>
      <trkpt lat="46.56997" lon="5.62377">
        <ele>519.8</ele>
        <time>2021-08-20T14:30:05Z</time>
      </trkpt>
      <trkpt lat="46.56971" lon="5.62351">
        <ele>520.2</ele>
        <time>2021-08-20T14:30:09Z</time>
      </trkpt>
      <trkpt lat="46.5692" lon="5.62302">
        <ele>520.2</ele>
        <time>2021-08-20T14:30:16Z</time>
      </trkpt>
      <trkpt lat="46.56905" lon="5.62288">
        <ele>520.2</ele>
        <time>2021-08-20T14:30:18Z</time>
      </trkpt>
      <trkpt lat="46.56858" lon="5.62244">
        <ele>519.4</ele>
        <time>2021-08-20T14:30:24Z</time>
      </trkpt>
      <trkpt lat="46.5685" lon="5.62236">
        <ele>519.4</ele>
        <time>2021-08-20T14:30:25Z</time>
      </trkpt>
      <trkpt lat="46.56819" lon="5.62207">
        <ele>518.6</ele>
        <time>2021-08-20T14:30:29Z</time>
      </trkpt>
      <trkpt lat="46.56779" lon="5.6217">
        <ele>518</ele>
        <time>2021-08-20T14:30:34Z</time>
      </trkpt>
      <trkpt lat="46.56754" lon="5.62147">
        <ele>517.6</ele>
        <time>2021-08-20T14:30:37Z</time>
      </trkpt>
      <trkpt lat="46.5672" lon="5.62116">
        <ele>516.2</ele>
        <time>2021-08-20T14:30:41Z</time>
      </trkpt>
      <trkpt lat="46.56703" lon="5.62099">
        <ele>515.8</ele>
        <time>2021-08-20T14:30:43Z</time>
      </trkpt>
      <trkpt lat="46.56669" lon="5.62068">
        <ele>515.2</ele>
        <time>2021-08-20T14:30:47Z</time>
      </trkpt>
      <trkpt lat="46.56629" lon="5.62029">
        <ele>514.4</ele>
        <time>2021-08-20T14:30:52Z</time>
      </trkpt>
      <trkpt lat="46.56582" lon="5.61986">
        <ele>514.6</ele>
        <time>2021-08-20T14:30:58Z</time>
      </trkpt>
      <trkpt lat="46.56568" lon="5.61972">
        <ele>514.8</ele>
        <time>2021-08-20T14:31:00Z</time>
      </trkpt>
      <trkpt lat="46.56519" lon="5.61925">
        <ele>515.4</ele>
        <time>2021-08-20T14:31:07Z</time>
      </trkpt>
      <trkpt lat="46.56473" lon="5.61882">
        <ele>516</ele>
        <time>2021-08-20T14:31:14Z</time>
      </trkpt>
      <trkpt lat="46.56466" lon="5.61876">
        <ele>516.4</ele>
        <time>2021-08-20T14:31:15Z</time>
      </trkpt>
      <trkpt lat="46.56416" lon="5.61827">
        <ele>517</ele>
        <time>2021-08-20T14:31:23Z</time>
      </trkpt>
      <trkpt lat="46.56398" lon="5.61806">
        <ele>517</ele>
        <time>2021-08-20T14:31:26Z</time>
      </trkpt>
      <trkpt lat="46.56357" lon="5.61756">
        <ele>517.4</ele>
        <time>2021-08-20T14:31:33Z</time>
      </trkpt>
      <trkpt lat="46.56346" lon="5.61741">
        <ele>517.8</ele>
        <time>2021-08-20T14:31:35Z</time>
      </trkpt>
      <trkpt lat="46.563" lon="5.61683">
        <ele>518.4</ele>
        <time>2021-08-20T14:31:43Z</time>
      </trkpt>
      <trkpt lat="46.56256" lon="5.61625">
        <ele>518</ele>
        <time>2021-08-20T14:31:51Z</time>
      </trkpt>
      <trkpt lat="46.56217" lon="5.6156">
        <ele>518.4</ele>
        <time>2021-08-20T14:31:59Z</time>
      </trkpt>
      <trkpt lat="46.56213" lon="5.61552">
        <ele>518.4</ele>
        <time>2021-08-20T14:32:00Z</time>
      </trkpt>
      <trkpt lat="46.56209" lon="5.61543">
        <ele>518.6</ele>
        <time>2021-08-20T14:32:01Z</time>
      </trkpt>
      <trkpt lat="46.56181" lon="5.61483">
        <ele>518.6</ele>
        <time>2021-08-20T14:32:08Z</time>
      </trkpt>
      <trkpt lat="46.56148" lon="5.61415">
        <ele>518.6</ele>
        <time>2021-08-20T14:32:16Z</time>
      </trkpt>
      <trkpt lat="46.56119" lon="5.61357">
        <ele>518.8</ele>
        <time>2021-08-20T14:32:23Z</time>
      </trkpt>
      <trkpt lat="46.56088" lon="5.61292">
        <ele>518.8</ele>
        <time>2021-08-20T14:32:31Z</time>
      </trkpt>
      <trkpt lat="46.56085" lon="5.61284">
        <ele>518.8</ele>
        <time>2021-08-20T14:32:32Z</time>
      </trkpt>
      <trkpt lat="46.56058" lon="5.61231">
        <ele>519.6</ele>
        <time>2021-08-20T14:32:39Z</time>
      </trkpt>
      <trkpt lat="46.56029" lon="5.61172">
        <ele>520.2</ele>
        <time>2021-08-20T14:32:47Z</time>
      </trkpt>
      <trkpt lat="46.56006" lon="5.61129">
        <ele>520.6</ele>
        <time>2021-08-20T14:32:53Z</time>
      </trkpt>
      <trkpt lat="46.56003" lon="5.61121">
        <ele>520.8</ele>
        <time>2021-08-20T14:32:54Z</time>
      </trkpt>
      <trkpt lat="46.56" lon="5.61115">
        <ele>521</ele>
        <time>2021-08-20T14:32:55Z</time>
      </trkpt>
      <trkpt lat="46.55976" lon="5.61049">
        <ele>522</ele>
        <time>2021-08-20T14:33:03Z</time>
      </trkpt>
      <trkpt lat="46.55957" lon="5.60974">
        <ele>522.4</ele>
        <time>2021-08-20T14:33:12Z</time>
      </trkpt>
      <trkpt lat="46.55955" lon="5.60963">
        <ele>522.4</ele>
        <time>2021-08-20T14:33:13Z</time>
      </trkpt>
      <trkpt lat="46.55942" lon="5.60911">
        <ele>523</ele>
        <time>2021-08-20T14:33:19Z</time>
      </trkpt>
      <trkpt lat="46.55937" lon="5.60884">
        <ele>523.4</ele>
        <time>2021-08-20T14:33:22Z</time>
      </trkpt>
      <trkpt lat="46.55932" lon="5.60821">
        <ele>523.6</ele>
        <time>2021-08-20T14:33:29Z</time>
      </trkpt>
      <trkpt lat="46.55927" lon="5.60759">
        <ele>524</ele>
        <time>2021-08-20T14:33:36Z</time>
      </trkpt>
      <trkpt lat="46.55909" lon="5.60678">
        <ele>523.6</ele>
        <time>2021-08-20T14:33:44Z</time>
      </trkpt>
      <trkpt lat="46.5589" lon="5.60601">
        <ele>522.2</ele>
        <time>2021-08-20T14:33:51Z</time>
      </trkpt>
      <trkpt lat="46.55885" lon="5.60589">
        <ele>521.8</ele>
        <time>2021-08-20T14:33:52Z</time>
      </trkpt>
      <trkpt lat="46.55876" lon="5.60571">
        <ele>521.4</ele>
        <time>2021-08-20T14:33:54Z</time>
      </trkpt>
      <trkpt lat="46.5587" lon="5.60563">
        <ele>521.4</ele>
        <time>2021-08-20T14:33:55Z</time>
      </trkpt>
      <trkpt lat="46.55863" lon="5.60554">
        <ele>521.2</ele>
        <time>2021-08-20T14:33:56Z</time>
      </trkpt>
      <trkpt lat="46.55847" lon="5.60543">
        <ele>521</ele>
        <time>2021-08-20T14:33:58Z</time>
      </trkpt>
      <trkpt lat="46.55805" lon="5.6053">
        <ele>520</ele>
        <time>2021-08-20T14:34:03Z</time>
      </trkpt>
      <trkpt lat="46.55794" lon="5.60528">
        <ele>519.8</ele>
        <time>2021-08-20T14:34:04Z</time>
      </trkpt>
      <trkpt lat="46.55759" lon="5.60515">
        <ele>518.4</ele>
        <time>2021-08-20T14:34:08Z</time>
      </trkpt>
      <trkpt lat="46.55751" lon="5.60509">
        <ele>518.2</ele>
        <time>2021-08-20T14:34:09Z</time>
      </trkpt>
      <trkpt lat="46.55735" lon="5.60493">
        <ele>517.6</ele>
        <time>2021-08-20T14:34:11Z</time>
      </trkpt>
      <trkpt lat="46.55728" lon="5.60483">
        <ele>517.6</ele>
        <time>2021-08-20T14:34:12Z</time>
      </trkpt>
      <trkpt lat="46.55721" lon="5.60469">
        <ele>517.4</ele>
        <time>2021-08-20T14:34:13Z</time>
      </trkpt>
      <trkpt lat="46.55716" lon="5.60457">
        <ele>517.4</ele>
        <time>2021-08-20T14:34:14Z</time>
      </trkpt>
      <trkpt lat="46.55706" lon="5.60435">
        <ele>516.8</ele>
        <time>2021-08-20T14:34:16Z</time>
      </trkpt>
      <trkpt lat="46.55694" lon="5.60408">
        <ele>516.2</ele>
        <time>2021-08-20T14:34:18Z</time>
      </trkpt>
      <trkpt lat="46.55683" lon="5.60388">
        <ele>515.8</ele>
        <time>2021-08-20T14:34:20Z</time>
      </trkpt>
      <trkpt lat="46.55676" lon="5.60378">
        <ele>515.8</ele>
        <time>2021-08-20T14:34:21Z</time>
      </trkpt>
      <trkpt lat="46.55668" lon="5.60369">
        <ele>515.2</ele>
        <time>2021-08-20T14:34:22Z</time>
      </trkpt>
      <trkpt lat="46.55659" lon="5.60362">
        <ele>515</ele>
        <time>2021-08-20T14:34:23Z</time>
      </trkpt>
      <trkpt lat="46.55648" lon="5.60356">
        <ele>514.8</ele>
        <time>2021-08-20T14:34:24Z</time>
      </trkpt>
      <trkpt lat="46.5561" lon="5.60349">
        <ele>514.4</ele>
        <time>2021-08-20T14:34:28Z</time>
      </trkpt>
      <trkpt lat="46.5558" lon="5.60347">
        <ele>514</ele>
        <time>2021-08-20T14:34:31Z</time>
      </trkpt>
      <trkpt lat="46.55549" lon="5.60345">
        <ele>512.8</ele>
        <time>2021-08-20T14:34:34Z</time>
      </trkpt>
      <trkpt lat="46.55519" lon="5.60341">
        <ele>511.6</ele>
        <time>2021-08-20T14:34:38Z</time>
      </trkpt>
      <trkpt lat="46.55477" lon="5.60328">
        <ele>511</ele>
        <time>2021-08-20T14:34:41Z</time>
      </trkpt>
      <trkpt lat="46.55437" lon="5.60314">
        <ele>510.6</ele>
        <time>2021-08-20T14:34:45Z</time>
      </trkpt>
      <trkpt lat="46.55389" lon="5.60297">
        <ele>509.6</ele>
        <time>2021-08-20T14:34:50Z</time>
      </trkpt>
      <trkpt lat="46.55372" lon="5.6029">
        <ele>509.2</ele>
        <time>2021-08-20T14:34:52Z</time>
      </trkpt>
      <trkpt lat="46.55324" lon="5.60277">
        <ele>508.8</ele>
        <time>2021-08-20T14:34:57Z</time>
      </trkpt>
      <trkpt lat="46.55307" lon="5.60278">
        <ele>508.6</ele>
        <time>2021-08-20T14:34:59Z</time>
      </trkpt>
      <trkpt lat="46.55286" lon="5.60285">
        <ele>508.6</ele>
        <time>2021-08-20T14:35:01Z</time>
      </trkpt>
      <trkpt lat="46.55241" lon="5.60304">
        <ele>508.2</ele>
        <time>2021-08-20T14:35:06Z</time>
      </trkpt>
      <trkpt lat="46.55196" lon="5.60322">
        <ele>507.4</ele>
        <time>2021-08-20T14:35:11Z</time>
      </trkpt>
      <trkpt lat="46.55187" lon="5.60323">
        <ele>507.4</ele>
        <time>2021-08-20T14:35:12Z</time>
      </trkpt>
      <trkpt lat="46.5516" lon="5.60319">
        <ele>506.8</ele>
        <time>2021-08-20T14:35:15Z</time>
      </trkpt>
      <trkpt lat="46.55124" lon="5.60294">
        <ele>506</ele>
        <time>2021-08-20T14:35:19Z</time>
      </trkpt>
      <trkpt lat="46.55119" lon="5.60287">
        <ele>505.8</ele>
        <time>2021-08-20T14:35:20Z</time>
      </trkpt>
      <trkpt lat="46.55112" lon="5.60277">
        <ele>505.6</ele>
        <time>2021-08-20T14:35:21Z</time>
      </trkpt>
      <trkpt lat="46.55099" lon="5.60254">
        <ele>505.4</ele>
        <time>2021-08-20T14:35:23Z</time>
      </trkpt>
      <trkpt lat="46.55064" lon="5.60195">
        <ele>505</ele>
        <time>2021-08-20T14:35:30Z</time>
      </trkpt>
      <trkpt lat="46.5505" lon="5.60179">
        <ele>504.8</ele>
        <time>2021-08-20T14:35:31Z</time>
      </trkpt>
      <trkpt lat="46.55032" lon="5.60165">
        <ele>504.8</ele>
        <time>2021-08-20T14:35:33Z</time>
      </trkpt>
      <trkpt lat="46.55026" lon="5.6016">
        <ele>504.8</ele>
        <time>2021-08-20T14:35:34Z</time>
      </trkpt>
      <trkpt lat="46.54976" lon="5.60129">
        <ele>504.2</ele>
        <time>2021-08-20T14:35:40Z</time>
      </trkpt>
      <trkpt lat="46.54952" lon="5.60107">
        <ele>503.8</ele>
        <time>2021-08-20T14:35:43Z</time>
      </trkpt>
      <trkpt lat="46.54939" lon="5.60093">
        <ele>503.6</ele>
        <time>2021-08-20T14:35:45Z</time>
      </trkpt>
      <trkpt lat="46.54909" lon="5.60061">
        <ele>503.4</ele>
        <time>2021-08-20T14:35:49Z</time>
      </trkpt>
      <trkpt lat="46.54902" lon="5.60056">
        <ele>503.4</ele>
        <time>2021-08-20T14:35:50Z</time>
      </trkpt>
      <trkpt lat="46.54886" lon="5.60047">
        <ele>503.2</ele>
        <time>2021-08-20T14:35:52Z</time>
      </trkpt>
      <trkpt lat="46.54858" lon="5.60037">
        <ele>503.2</ele>
        <time>2021-08-20T14:35:55Z</time>
      </trkpt>
      <trkpt lat="46.54834" lon="5.6003">
        <ele>503</ele>
        <time>2021-08-20T14:35:59Z</time>
      </trkpt>
      <trkpt lat="46.54817" lon="5.60022">
        <ele>502.8</ele>
        <time>2021-08-20T14:36:00Z</time>
      </trkpt>
      <trkpt lat="46.54808" lon="5.60017">
        <ele>502.8</ele>
        <time>2021-08-20T14:36:01Z</time>
      </trkpt>
      <trkpt lat="46.54794" lon="5.60002">
        <ele>502.6</ele>
        <time>2021-08-20T14:36:03Z</time>
      </trkpt>
      <trkpt lat="46.5478" lon="5.59982">
        <ele>502.4</ele>
        <time>2021-08-20T14:36:05Z</time>
      </trkpt>
      <trkpt lat="46.54763" lon="5.59956">
        <ele>501.8</ele>
        <time>2021-08-20T14:36:08Z</time>
      </trkpt>
      <trkpt lat="46.54748" lon="5.59939">
        <ele>501.4</ele>
        <time>2021-08-20T14:36:10Z</time>
      </trkpt>
      <trkpt lat="46.54733" lon="5.59931">
        <ele>501.2</ele>
        <time>2021-08-20T14:36:12Z</time>
      </trkpt>
      <trkpt lat="46.54725" lon="5.59929">
        <ele>501</ele>
        <time>2021-08-20T14:36:13Z</time>
      </trkpt>
      <trkpt lat="46.54715" lon="5.59929">
        <ele>501.2</ele>
        <time>2021-08-20T14:36:14Z</time>
      </trkpt>
      <trkpt lat="46.54698" lon="5.59934">
        <ele>501.2</ele>
        <time>2021-08-20T14:36:16Z</time>
      </trkpt>
      <trkpt lat="46.54654" lon="5.59959">
        <ele>501</ele>
        <time>2021-08-20T14:36:22Z</time>
      </trkpt>
      <trkpt lat="46.54606" lon="5.59979">
        <ele>500.8</ele>
        <time>2021-08-20T14:36:28Z</time>
      </trkpt>
      <trkpt lat="46.54588" lon="5.59981">
        <ele>500.8</ele>
        <time>2021-08-20T14:36:30Z</time>
      </trkpt>
      <trkpt lat="46.54566" lon="5.59979">
        <ele>500.2</ele>
        <time>2021-08-20T14:36:33Z</time>
      </trkpt>
      <trkpt lat="46.54542" lon="5.59973">
        <ele>499.6</ele>
        <time>2021-08-20T14:36:36Z</time>
      </trkpt>
      <trkpt lat="46.54512" lon="5.59962">
        <ele>499</ele>
        <time>2021-08-20T14:36:40Z</time>
      </trkpt>
      <trkpt lat="46.54495" lon="5.59955">
        <ele>498.6</ele>
        <time>2021-08-20T14:36:42Z</time>
      </trkpt>
      <trkpt lat="46.54464" lon="5.59945">
        <ele>497.4</ele>
        <time>2021-08-20T14:36:46Z</time>
      </trkpt>
      <trkpt lat="46.54455" lon="5.59941">
        <ele>497</ele>
        <time>2021-08-20T14:36:47Z</time>
      </trkpt>
      <trkpt lat="46.54426" lon="5.59931">
        <ele>496.4</ele>
        <time>2021-08-20T14:36:51Z</time>
      </trkpt>
      <trkpt lat="46.54416" lon="5.59925">
        <ele>496.2</ele>
        <time>2021-08-20T14:36:53Z</time>
      </trkpt>
      <trkpt lat="46.54411" lon="5.5992">
        <ele>496.4</ele>
        <time>2021-08-20T14:36:56Z</time>
      </trkpt>
      <trkpt lat="46.54411" lon="5.5992">
        <ele>496.4</ele>
        <time>2021-08-20T14:36:57Z</time>
      </trkpt>
      <trkpt lat="46.54409" lon="5.59917">
        <ele>496.2</ele>
        <time>2021-08-20T14:37:11Z</time>
      </trkpt>
      <trkpt lat="46.54405" lon="5.59913">
        <ele>496.2</ele>
        <time>2021-08-20T14:37:13Z</time>
      </trkpt>
      <trkpt lat="46.54395" lon="5.59902">
        <ele>496</ele>
        <time>2021-08-20T14:37:15Z</time>
      </trkpt>
      <trkpt lat="46.54393" lon="5.59895">
        <ele>496</ele>
        <time>2021-08-20T14:37:16Z</time>
      </trkpt>
      <trkpt lat="46.54393" lon="5.59885">
        <ele>495.8</ele>
        <time>2021-08-20T14:37:17Z</time>
      </trkpt>
      <trkpt lat="46.54396" lon="5.59861">
        <ele>495.4</ele>
        <time>2021-08-20T14:37:20Z</time>
      </trkpt>
      <trkpt lat="46.54401" lon="5.59814">
        <ele>495.2</ele>
        <time>2021-08-20T14:37:26Z</time>
      </trkpt>
      <trkpt lat="46.54408" lon="5.59763">
        <ele>496</ele>
        <time>2021-08-20T14:37:33Z</time>
      </trkpt>
      <trkpt lat="46.54417" lon="5.59688">
        <ele>496.4</ele>
        <time>2021-08-20T14:37:43Z</time>
      </trkpt>
      <trkpt lat="46.54418" lon="5.59674">
        <ele>496.8</ele>
        <time>2021-08-20T14:37:45Z</time>
      </trkpt>
      <trkpt lat="46.54424" lon="5.59617">
        <ele>497</ele>
        <time>2021-08-20T14:37:52Z</time>
      </trkpt>
      <trkpt lat="46.54429" lon="5.59579">
        <ele>497.8</ele>
        <time>2021-08-20T14:37:57Z</time>
      </trkpt>
      <trkpt lat="46.54432" lon="5.59549">
        <ele>498.8</ele>
        <time>2021-08-20T14:38:01Z</time>
      </trkpt>
      <trkpt lat="46.54438" lon="5.59499">
        <ele>499.8</ele>
        <time>2021-08-20T14:38:08Z</time>
      </trkpt>
      <trkpt lat="46.54444" lon="5.59447">
        <ele>500.8</ele>
        <time>2021-08-20T14:38:15Z</time>
      </trkpt>
      <trkpt lat="46.54446" lon="5.59434">
        <ele>501.2</ele>
        <time>2021-08-20T14:38:17Z</time>
      </trkpt>
      <trkpt lat="46.5445" lon="5.59397">
        <ele>502</ele>
        <time>2021-08-20T14:38:22Z</time>
      </trkpt>
      <trkpt lat="46.54453" lon="5.59376">
        <ele>502.4</ele>
        <time>2021-08-20T14:38:25Z</time>
      </trkpt>
      <trkpt lat="46.54456" lon="5.59354">
        <ele>502.8</ele>
        <time>2021-08-20T14:38:28Z</time>
      </trkpt>
      <trkpt lat="46.54458" lon="5.5934">
        <ele>503.2</ele>
        <time>2021-08-20T14:38:30Z</time>
      </trkpt>
      <trkpt lat="46.54464" lon="5.59319">
        <ele>503.4</ele>
        <time>2021-08-20T14:38:33Z</time>
      </trkpt>
      <trkpt lat="46.54469" lon="5.59306">
        <ele>504</ele>
        <time>2021-08-20T14:38:35Z</time>
      </trkpt>
      <trkpt lat="46.54474" lon="5.59294">
        <ele>504.4</ele>
        <time>2021-08-20T14:38:37Z</time>
      </trkpt>
      <trkpt lat="46.54484" lon="5.59275">
        <ele>505.2</ele>
        <time>2021-08-20T14:38:40Z</time>
      </trkpt>
      <trkpt lat="46.54489" lon="5.59261">
        <ele>505.4</ele>
        <time>2021-08-20T14:38:42Z</time>
      </trkpt>
      <trkpt lat="46.54492" lon="5.59245">
        <ele>505.4</ele>
        <time>2021-08-20T14:38:44Z</time>
      </trkpt>
      <trkpt lat="46.54494" lon="5.5922">
        <ele>505.6</ele>
        <time>2021-08-20T14:38:47Z</time>
      </trkpt>
      <trkpt lat="46.54499" lon="5.59155">
        <ele>506</ele>
        <time>2021-08-20T14:38:54Z</time>
      </trkpt>
      <trkpt lat="46.54505" lon="5.59111">
        <ele>506.4</ele>
        <time>2021-08-20T14:38:59Z</time>
      </trkpt>
      <trkpt lat="46.54506" lon="5.59103">
        <ele>506.6</ele>
        <time>2021-08-20T14:39:00Z</time>
      </trkpt>
      <trkpt lat="46.54511" lon="5.59037">
        <ele>507.4</ele>
        <time>2021-08-20T14:39:08Z</time>
      </trkpt>
      <trkpt lat="46.54512" lon="5.59029">
        <ele>507.4</ele>
        <time>2021-08-20T14:39:09Z</time>
      </trkpt>
      <trkpt lat="46.54513" lon="5.58985">
        <ele>508.6</ele>
        <time>2021-08-20T14:39:14Z</time>
      </trkpt>
      <trkpt lat="46.54513" lon="5.58957">
        <ele>508.6</ele>
        <time>2021-08-20T14:39:17Z</time>
      </trkpt>
      <trkpt lat="46.54515" lon="5.58879">
        <ele>507.8</ele>
        <time>2021-08-20T14:39:25Z</time>
      </trkpt>
      <trkpt lat="46.54515" lon="5.58869">
        <ele>507.6</ele>
        <time>2021-08-20T14:39:26Z</time>
      </trkpt>
      <trkpt lat="46.54517" lon="5.588">
        <ele>507.4</ele>
        <time>2021-08-20T14:39:33Z</time>
      </trkpt>
      <trkpt lat="46.54519" lon="5.58718">
        <ele>508.6</ele>
        <time>2021-08-20T14:39:42Z</time>
      </trkpt>
      <trkpt lat="46.54519" lon="5.5871">
        <ele>508.6</ele>
        <time>2021-08-20T14:39:43Z</time>
      </trkpt>
      <trkpt lat="46.54526" lon="5.58643">
        <ele>509.6</ele>
        <time>2021-08-20T14:39:50Z</time>
      </trkpt>
      <trkpt lat="46.54535" lon="5.58571">
        <ele>510.2</ele>
        <time>2021-08-20T14:39:57Z</time>
      </trkpt>
      <trkpt lat="46.54542" lon="5.58493">
        <ele>510.2</ele>
        <time>2021-08-20T14:40:05Z</time>
      </trkpt>
      <trkpt lat="46.54543" lon="5.58475">
        <ele>510.4</ele>
        <time>2021-08-20T14:40:07Z</time>
      </trkpt>
      <trkpt lat="46.54542" lon="5.58451">
        <ele>510.8</ele>
        <time>2021-08-20T14:40:10Z</time>
      </trkpt>
      <trkpt lat="46.54541" lon="5.58443">
        <ele>510.8</ele>
        <time>2021-08-20T14:40:11Z</time>
      </trkpt>
      <trkpt lat="46.54539" lon="5.58437">
        <ele>511</ele>
        <time>2021-08-20T14:40:12Z</time>
      </trkpt>
      <trkpt lat="46.54535" lon="5.58431">
        <ele>511.2</ele>
        <time>2021-08-20T14:40:13Z</time>
      </trkpt>
      <trkpt lat="46.54525" lon="5.58425">
        <ele>511.6</ele>
        <time>2021-08-20T14:40:15Z</time>
      </trkpt>
      <trkpt lat="46.54518" lon="5.58423">
        <ele>512</ele>
        <time>2021-08-20T14:40:17Z</time>
      </trkpt>
      <trkpt lat="46.5449" lon="5.58417">
        <ele>512.2</ele>
        <time>2021-08-20T14:40:20Z</time>
      </trkpt>
      <trkpt lat="46.54456" lon="5.58407">
        <ele>511.6</ele>
        <time>2021-08-20T14:40:24Z</time>
      </trkpt>
      <trkpt lat="46.54438" lon="5.58401">
        <ele>511</ele>
        <time>2021-08-20T14:40:26Z</time>
      </trkpt>
      <trkpt lat="46.5443" lon="5.58398">
        <ele>510.8</ele>
        <time>2021-08-20T14:40:27Z</time>
      </trkpt>
      <trkpt lat="46.54396" lon="5.58381">
        <ele>509.6</ele>
        <time>2021-08-20T14:40:31Z</time>
      </trkpt>
      <trkpt lat="46.54354" lon="5.5836">
        <ele>508.4</ele>
        <time>2021-08-20T14:40:36Z</time>
      </trkpt>
      <trkpt lat="46.54336" lon="5.58352">
        <ele>508</ele>
        <time>2021-08-20T14:40:38Z</time>
      </trkpt>
      <trkpt lat="46.54291" lon="5.58329">
        <ele>507</ele>
        <time>2021-08-20T14:40:43Z</time>
      </trkpt>
      <trkpt lat="46.54263" lon="5.58315">
        <ele>506.4</ele>
        <time>2021-08-20T14:40:46Z</time>
      </trkpt>
      <trkpt lat="46.54245" lon="5.58305">
        <ele>506</ele>
        <time>2021-08-20T14:40:48Z</time>
      </trkpt>
      <trkpt lat="46.54203" lon="5.58281">
        <ele>505.2</ele>
        <time>2021-08-20T14:40:53Z</time>
      </trkpt>
      <trkpt lat="46.54196" lon="5.58274">
        <ele>505.2</ele>
        <time>2021-08-20T14:40:54Z</time>
      </trkpt>
      <trkpt lat="46.5419" lon="5.58266">
        <ele>505.4</ele>
        <time>2021-08-20T14:40:55Z</time>
      </trkpt>
      <trkpt lat="46.54181" lon="5.58245">
        <ele>505.8</ele>
        <time>2021-08-20T14:40:57Z</time>
      </trkpt>
      <trkpt lat="46.54173" lon="5.58204">
        <ele>506.2</ele>
        <time>2021-08-20T14:41:01Z</time>
      </trkpt>
      <trkpt lat="46.54162" lon="5.58169">
        <ele>507.2</ele>
        <time>2021-08-20T14:41:05Z</time>
      </trkpt>
      <trkpt lat="46.54159" lon="5.58162">
        <ele>507.6</ele>
        <time>2021-08-20T14:41:06Z</time>
      </trkpt>
      <trkpt lat="46.54155" lon="5.58155">
        <ele>508</ele>
        <time>2021-08-20T14:41:07Z</time>
      </trkpt>
      <trkpt lat="46.54151" lon="5.58149">
        <ele>508.8</ele>
        <time>2021-08-20T14:41:08Z</time>
      </trkpt>
      <trkpt lat="46.54137" lon="5.58132">
        <ele>509.8</ele>
        <time>2021-08-20T14:41:11Z</time>
      </trkpt>
      <trkpt lat="46.54132" lon="5.58127">
        <ele>509.8</ele>
        <time>2021-08-20T14:41:12Z</time>
      </trkpt>
      <trkpt lat="46.54097" lon="5.58089">
        <ele>511</ele>
        <time>2021-08-20T14:41:20Z</time>
      </trkpt>
      <trkpt lat="46.54093" lon="5.58084">
        <ele>511.2</ele>
        <time>2021-08-20T14:41:21Z</time>
      </trkpt>
      <trkpt lat="46.54086" lon="5.58075">
        <ele>512</ele>
        <time>2021-08-20T14:41:23Z</time>
      </trkpt>
      <trkpt lat="46.54075" lon="5.58062">
        <ele>513</ele>
        <time>2021-08-20T14:41:26Z</time>
      </trkpt>
      <trkpt lat="46.54072" lon="5.58057">
        <ele>513.6</ele>
        <time>2021-08-20T14:41:27Z</time>
      </trkpt>
      <trkpt lat="46.54069" lon="5.58053">
        <ele>513.8</ele>
        <time>2021-08-20T14:41:28Z</time>
      </trkpt>
      <trkpt lat="46.54065" lon="5.58049">
        <ele>514.6</ele>
        <time>2021-08-20T14:41:29Z</time>
      </trkpt>
      <trkpt lat="46.54048" lon="5.58033">
        <ele>515.6</ele>
        <time>2021-08-20T14:41:33Z</time>
      </trkpt>
      <trkpt lat="46.54022" lon="5.58015">
        <ele>515.2</ele>
        <time>2021-08-20T14:41:38Z</time>
      </trkpt>
      <trkpt lat="46.53984" lon="5.57994">
        <ele>514.4</ele>
        <time>2021-08-20T14:41:44Z</time>
      </trkpt>
      <trkpt lat="46.53943" lon="5.57984">
        <ele>513.6</ele>
        <time>2021-08-20T14:41:49Z</time>
      </trkpt>
      <trkpt lat="46.53912" lon="5.57979">
        <ele>511.6</ele>
        <time>2021-08-20T14:41:52Z</time>
      </trkpt>
      <trkpt lat="46.539" lon="5.57978">
        <ele>510.8</ele>
        <time>2021-08-20T14:41:53Z</time>
      </trkpt>
      <trkpt lat="46.53877" lon="5.57972">
        <ele>509</ele>
        <time>2021-08-20T14:41:55Z</time>
      </trkpt>
      <trkpt lat="46.53853" lon="5.57965">
        <ele>507.4</ele>
        <time>2021-08-20T14:41:57Z</time>
      </trkpt>
      <trkpt lat="46.5383" lon="5.57958">
        <ele>505.6</ele>
        <time>2021-08-20T14:41:59Z</time>
      </trkpt>
      <trkpt lat="46.53818" lon="5.57954">
        <ele>504.4</ele>
        <time>2021-08-20T14:42:00Z</time>
      </trkpt>
      <trkpt lat="46.53795" lon="5.57947">
        <ele>503.4</ele>
        <time>2021-08-20T14:42:02Z</time>
      </trkpt>
      <trkpt lat="46.53771" lon="5.5794">
        <ele>502.4</ele>
        <time>2021-08-20T14:42:04Z</time>
      </trkpt>
      <trkpt lat="46.53746" lon="5.57933">
        <ele>501.4</ele>
        <time>2021-08-20T14:42:06Z</time>
      </trkpt>
      <trkpt lat="46.5371" lon="5.57923">
        <ele>499.8</ele>
        <time>2021-08-20T14:42:09Z</time>
      </trkpt>
      <trkpt lat="46.53696" lon="5.57918">
        <ele>499.2</ele>
        <time>2021-08-20T14:42:10Z</time>
      </trkpt>
      <trkpt lat="46.53686" lon="5.57915">
        <ele>498.2</ele>
        <time>2021-08-20T14:42:11Z</time>
      </trkpt>
      <trkpt lat="46.5366" lon="5.57907">
        <ele>497</ele>
        <time>2021-08-20T14:42:13Z</time>
      </trkpt>
      <trkpt lat="46.53627" lon="5.57896">
        <ele>495.4</ele>
        <time>2021-08-20T14:42:16Z</time>
      </trkpt>
      <trkpt lat="46.53592" lon="5.57882">
        <ele>494.6</ele>
        <time>2021-08-20T14:42:19Z</time>
      </trkpt>
      <trkpt lat="46.53582" lon="5.57878">
        <ele>494.4</ele>
        <time>2021-08-20T14:42:20Z</time>
      </trkpt>
      <trkpt lat="46.53546" lon="5.5786">
        <ele>493.8</ele>
        <time>2021-08-20T14:42:24Z</time>
      </trkpt>
      <trkpt lat="46.53507" lon="5.5783">
        <ele>494.2</ele>
        <time>2021-08-20T14:42:29Z</time>
      </trkpt>
      <trkpt lat="46.53492" lon="5.57815">
        <ele>495.2</ele>
        <time>2021-08-20T14:42:32Z</time>
      </trkpt>
      <trkpt lat="46.53487" lon="5.57809">
        <ele>495.6</ele>
        <time>2021-08-20T14:42:33Z</time>
      </trkpt>
      <trkpt lat="46.53481" lon="5.57802">
        <ele>496.2</ele>
        <time>2021-08-20T14:42:34Z</time>
      </trkpt>
      <trkpt lat="46.53477" lon="5.57798">
        <ele>496.6</ele>
        <time>2021-08-20T14:42:35Z</time>
      </trkpt>
      <trkpt lat="46.53468" lon="5.57788">
        <ele>497.8</ele>
        <time>2021-08-20T14:42:37Z</time>
      </trkpt>
      <trkpt lat="46.53458" lon="5.5778">
        <ele>498.8</ele>
        <time>2021-08-20T14:42:39Z</time>
      </trkpt>
      <trkpt lat="46.53453" lon="5.57776">
        <ele>499</ele>
        <time>2021-08-20T14:42:40Z</time>
      </trkpt>
      <trkpt lat="46.53428" lon="5.57762">
        <ele>500</ele>
        <time>2021-08-20T14:42:44Z</time>
      </trkpt>
      <trkpt lat="46.53418" lon="5.57758">
        <ele>500.2</ele>
        <time>2021-08-20T14:42:46Z</time>
      </trkpt>
      <trkpt lat="46.53378" lon="5.57747">
        <ele>500.8</ele>
        <time>2021-08-20T14:42:52Z</time>
      </trkpt>
      <trkpt lat="46.5337" lon="5.57745">
        <ele>501</ele>
        <time>2021-08-20T14:42:53Z</time>
      </trkpt>
      <trkpt lat="46.53344" lon="5.57737">
        <ele>501.2</ele>
        <time>2021-08-20T14:42:57Z</time>
      </trkpt>
      <trkpt lat="46.53321" lon="5.57721">
        <ele>502</ele>
        <time>2021-08-20T14:43:01Z</time>
      </trkpt>
      <trkpt lat="46.53315" lon="5.57716">
        <ele>502.2</ele>
        <time>2021-08-20T14:43:02Z</time>
      </trkpt>
      <trkpt lat="46.53301" lon="5.57698">
        <ele>502.6</ele>
        <time>2021-08-20T14:43:05Z</time>
      </trkpt>
      <trkpt lat="46.53294" lon="5.57685">
        <ele>503.2</ele>
        <time>2021-08-20T14:43:07Z</time>
      </trkpt>
      <trkpt lat="46.53289" lon="5.57667">
        <ele>503.2</ele>
        <time>2021-08-20T14:43:09Z</time>
      </trkpt>
      <trkpt lat="46.53286" lon="5.57647">
        <ele>503</ele>
        <time>2021-08-20T14:43:11Z</time>
      </trkpt>
      <trkpt lat="46.53288" lon="5.57603">
        <ele>503</ele>
        <time>2021-08-20T14:43:15Z</time>
      </trkpt>
      <trkpt lat="46.53287" lon="5.57582">
        <ele>503</ele>
        <time>2021-08-20T14:43:17Z</time>
      </trkpt>
      <trkpt lat="46.53282" lon="5.5755">
        <ele>503</ele>
        <time>2021-08-20T14:43:20Z</time>
      </trkpt>
      <trkpt lat="46.53263" lon="5.57481">
        <ele>502.6</ele>
        <time>2021-08-20T14:43:27Z</time>
      </trkpt>
      <trkpt lat="46.53233" lon="5.57435">
        <ele>502.4</ele>
        <time>2021-08-20T14:43:33Z</time>
      </trkpt>
      <trkpt lat="46.53195" lon="5.57395">
        <ele>502.4</ele>
        <time>2021-08-20T14:43:39Z</time>
      </trkpt>
      <trkpt lat="46.53157" lon="5.57363">
        <ele>501.6</ele>
        <time>2021-08-20T14:43:44Z</time>
      </trkpt>
      <trkpt lat="46.53142" lon="5.57351">
        <ele>501.2</ele>
        <time>2021-08-20T14:43:46Z</time>
      </trkpt>
      <trkpt lat="46.53134" lon="5.57346">
        <ele>501</ele>
        <time>2021-08-20T14:43:47Z</time>
      </trkpt>
      <trkpt lat="46.53103" lon="5.5732">
        <ele>500.4</ele>
        <time>2021-08-20T14:43:51Z</time>
      </trkpt>
      <trkpt lat="46.53096" lon="5.57311">
        <ele>500.2</ele>
        <time>2021-08-20T14:43:52Z</time>
      </trkpt>
      <trkpt lat="46.53085" lon="5.57291">
        <ele>500</ele>
        <time>2021-08-20T14:43:54Z</time>
      </trkpt>
      <trkpt lat="46.53075" lon="5.5727">
        <ele>499.6</ele>
        <time>2021-08-20T14:43:56Z</time>
      </trkpt>
      <trkpt lat="46.53052" lon="5.57214">
        <ele>498.6</ele>
        <time>2021-08-20T14:44:01Z</time>
      </trkpt>
      <trkpt lat="46.53039" lon="5.57178">
        <ele>498</ele>
        <time>2021-08-20T14:44:04Z</time>
      </trkpt>
      <trkpt lat="46.53029" lon="5.57154">
        <ele>497.4</ele>
        <time>2021-08-20T14:44:06Z</time>
      </trkpt>
      <trkpt lat="46.5301" lon="5.57105">
        <ele>497</ele>
        <time>2021-08-20T14:44:10Z</time>
      </trkpt>
      <trkpt lat="46.52996" lon="5.57071">
        <ele>496.4</ele>
        <time>2021-08-20T14:44:13Z</time>
      </trkpt>
      <trkpt lat="46.52982" lon="5.5704">
        <ele>496.2</ele>
        <time>2021-08-20T14:44:16Z</time>
      </trkpt>
      <trkpt lat="46.52953" lon="5.56998">
        <ele>496.2</ele>
        <time>2021-08-20T14:44:21Z</time>
      </trkpt>
      <trkpt lat="46.52948" lon="5.56989">
        <ele>496.4</ele>
        <time>2021-08-20T14:44:22Z</time>
      </trkpt>
      <trkpt lat="46.52939" lon="5.56969">
        <ele>496.6</ele>
        <time>2021-08-20T14:44:24Z</time>
      </trkpt>
      <trkpt lat="46.52935" lon="5.56959">
        <ele>496.6</ele>
        <time>2021-08-20T14:44:25Z</time>
      </trkpt>
      <trkpt lat="46.52919" lon="5.56897">
        <ele>496.8</ele>
        <time>2021-08-20T14:44:31Z</time>
      </trkpt>
      <trkpt lat="46.529" lon="5.56815">
        <ele>496.8</ele>
        <time>2021-08-20T14:44:39Z</time>
      </trkpt>
      <trkpt lat="46.52898" lon="5.56805">
        <ele>497</ele>
        <time>2021-08-20T14:44:40Z</time>
      </trkpt>
      <trkpt lat="46.52889" lon="5.56765">
        <ele>497.4</ele>
        <time>2021-08-20T14:44:44Z</time>
      </trkpt>
      <trkpt lat="46.52886" lon="5.56754">
        <ele>497.4</ele>
        <time>2021-08-20T14:44:45Z</time>
      </trkpt>
      <trkpt lat="46.52869" lon="5.56679">
        <ele>497.2</ele>
        <time>2021-08-20T14:44:52Z</time>
      </trkpt>
      <trkpt lat="46.52859" lon="5.56635">
        <ele>496.2</ele>
        <time>2021-08-20T14:44:56Z</time>
      </trkpt>
      <trkpt lat="46.52847" lon="5.5658">
        <ele>495.8</ele>
        <time>2021-08-20T14:45:01Z</time>
      </trkpt>
      <trkpt lat="46.52828" lon="5.56499">
        <ele>495.2</ele>
        <time>2021-08-20T14:45:08Z</time>
      </trkpt>
      <trkpt lat="46.52825" lon="5.56487">
        <ele>495.2</ele>
        <time>2021-08-20T14:45:09Z</time>
      </trkpt>
      <trkpt lat="46.52814" lon="5.56442">
        <ele>493.6</ele>
        <time>2021-08-20T14:45:13Z</time>
      </trkpt>
      <trkpt lat="46.52802" lon="5.56397">
        <ele>493</ele>
        <time>2021-08-20T14:45:17Z</time>
      </trkpt>
      <trkpt lat="46.52784" lon="5.5632">
        <ele>493</ele>
        <time>2021-08-20T14:45:24Z</time>
      </trkpt>
      <trkpt lat="46.52781" lon="5.56309">
        <ele>493.2</ele>
        <time>2021-08-20T14:45:25Z</time>
      </trkpt>
      <trkpt lat="46.52768" lon="5.56252">
        <ele>492.6</ele>
        <time>2021-08-20T14:45:30Z</time>
      </trkpt>
      <trkpt lat="46.52757" lon="5.56208">
        <ele>492.4</ele>
        <time>2021-08-20T14:45:34Z</time>
      </trkpt>
      <trkpt lat="46.52737" lon="5.56128">
        <ele>492.4</ele>
        <time>2021-08-20T14:45:42Z</time>
      </trkpt>
      <trkpt lat="46.52734" lon="5.56119">
        <ele>492.6</ele>
        <time>2021-08-20T14:45:43Z</time>
      </trkpt>
      <trkpt lat="46.52727" lon="5.56093">
        <ele>492.6</ele>
        <time>2021-08-20T14:45:46Z</time>
      </trkpt>
      <trkpt lat="46.52718" lon="5.5608">
        <ele>492.6</ele>
        <time>2021-08-20T14:45:48Z</time>
      </trkpt>
      <trkpt lat="46.52707" lon="5.56078">
        <ele>492.6</ele>
        <time>2021-08-20T14:45:50Z</time>
      </trkpt>
      <trkpt lat="46.52703" lon="5.56078">
        <ele>492.6</ele>
        <time>2021-08-20T14:45:51Z</time>
      </trkpt>
      <trkpt lat="46.52686" lon="5.56086">
        <ele>492.6</ele>
        <time>2021-08-20T14:45:57Z</time>
      </trkpt>
      <trkpt lat="46.52679" lon="5.56086">
        <ele>492.8</ele>
        <time>2021-08-20T14:46:01Z</time>
      </trkpt>
      <trkpt lat="46.52679" lon="5.56087">
        <ele>492.8</ele>
        <time>2021-08-20T14:46:02Z</time>
      </trkpt>
      <trkpt lat="46.52679" lon="5.56087">
        <ele>492.8</ele>
        <time>2021-08-20T14:46:04Z</time>
      </trkpt>
      <trkpt lat="46.52677" lon="5.56089">
        <ele>492.2</ele>
        <time>2021-08-20T14:46:29Z</time>
      </trkpt>
      <trkpt lat="46.52675" lon="5.5609">
        <ele>492.2</ele>
        <time>2021-08-20T14:46:30Z</time>
      </trkpt>
      <trkpt lat="46.5266" lon="5.56099">
        <ele>492.2</ele>
        <time>2021-08-20T14:46:34Z</time>
      </trkpt>
      <trkpt lat="46.52651" lon="5.56104">
        <ele>492</ele>
        <time>2021-08-20T14:46:36Z</time>
      </trkpt>
      <trkpt lat="46.52636" lon="5.56109">
        <ele>492</ele>
        <time>2021-08-20T14:46:39Z</time>
      </trkpt>
      <trkpt lat="46.52622" lon="5.56112">
        <ele>491.8</ele>
        <time>2021-08-20T14:46:42Z</time>
      </trkpt>
      <trkpt lat="46.52616" lon="5.5611">
        <ele>491.8</ele>
        <time>2021-08-20T14:46:44Z</time>
      </trkpt>
      <trkpt lat="46.52615" lon="5.56108">
        <ele>492</ele>
        <time>2021-08-20T14:46:45Z</time>
      </trkpt>
      <trkpt lat="46.52614" lon="5.56102">
        <ele>492</ele>
        <time>2021-08-20T14:46:47Z</time>
      </trkpt>
      <trkpt lat="46.52617" lon="5.56077">
        <ele>491.8</ele>
        <time>2021-08-20T14:46:51Z</time>
      </trkpt>
      <trkpt lat="46.52618" lon="5.5606">
        <ele>491.6</ele>
        <time>2021-08-20T14:46:53Z</time>
      </trkpt>
      <trkpt lat="46.52621" lon="5.56032">
        <ele>491.4</ele>
        <time>2021-08-20T14:46:56Z</time>
      </trkpt>
      <trkpt lat="46.52627" lon="5.55962">
        <ele>491</ele>
        <time>2021-08-20T14:47:03Z</time>
      </trkpt>
      <trkpt lat="46.52634" lon="5.55883">
        <ele>491</ele>
        <time>2021-08-20T14:47:11Z</time>
      </trkpt>
      <trkpt lat="46.52636" lon="5.55854">
        <ele>491</ele>
        <time>2021-08-20T14:47:14Z</time>
      </trkpt>
      <trkpt lat="46.52643" lon="5.55776">
        <ele>491.2</ele>
        <time>2021-08-20T14:47:22Z</time>
      </trkpt>
      <trkpt lat="46.52645" lon="5.55746">
        <ele>491.4</ele>
        <time>2021-08-20T14:47:25Z</time>
      </trkpt>
      <trkpt lat="46.52652" lon="5.55664">
        <ele>491.8</ele>
        <time>2021-08-20T14:47:33Z</time>
      </trkpt>
      <trkpt lat="46.52653" lon="5.55654">
        <ele>491.8</ele>
        <time>2021-08-20T14:47:34Z</time>
      </trkpt>
      <trkpt lat="46.52659" lon="5.55572">
        <ele>491.2</ele>
        <time>2021-08-20T14:47:42Z</time>
      </trkpt>
      <trkpt lat="46.5266" lon="5.55561">
        <ele>491.2</ele>
        <time>2021-08-20T14:47:43Z</time>
      </trkpt>
      <trkpt lat="46.52666" lon="5.55481">
        <ele>491.4</ele>
        <time>2021-08-20T14:47:51Z</time>
      </trkpt>
      <trkpt lat="46.5267" lon="5.5543">
        <ele>491.8</ele>
        <time>2021-08-20T14:47:56Z</time>
      </trkpt>
      <trkpt lat="46.52676" lon="5.55349">
        <ele>492.6</ele>
        <time>2021-08-20T14:48:05Z</time>
      </trkpt>
      <trkpt lat="46.52678" lon="5.55331">
        <ele>492.8</ele>
        <time>2021-08-20T14:48:07Z</time>
      </trkpt>
      <trkpt lat="46.52678" lon="5.55322">
        <ele>493</ele>
        <time>2021-08-20T14:48:08Z</time>
      </trkpt>
      <trkpt lat="46.52684" lon="5.55251">
        <ele>493.6</ele>
        <time>2021-08-20T14:48:16Z</time>
      </trkpt>
      <trkpt lat="46.52691" lon="5.55167">
        <ele>493.8</ele>
        <time>2021-08-20T14:48:25Z</time>
      </trkpt>
      <trkpt lat="46.52692" lon="5.55147">
        <ele>494</ele>
        <time>2021-08-20T14:48:27Z</time>
      </trkpt>
      <trkpt lat="46.52694" lon="5.55128">
        <ele>494</ele>
        <time>2021-08-20T14:48:29Z</time>
      </trkpt>
      <trkpt lat="46.52698" lon="5.55061">
        <ele>494.4</ele>
        <time>2021-08-20T14:48:36Z</time>
      </trkpt>
      <trkpt lat="46.52705" lon="5.5498">
        <ele>495.2</ele>
        <time>2021-08-20T14:48:45Z</time>
      </trkpt>
      <trkpt lat="46.5271" lon="5.54923">
        <ele>496.2</ele>
        <time>2021-08-20T14:48:52Z</time>
      </trkpt>
      <trkpt lat="46.5271" lon="5.54915">
        <ele>496.4</ele>
        <time>2021-08-20T14:48:53Z</time>
      </trkpt>
      <trkpt lat="46.52714" lon="5.54877">
        <ele>497.6</ele>
        <time>2021-08-20T14:48:58Z</time>
      </trkpt>
      <trkpt lat="46.52716" lon="5.54853">
        <ele>498.4</ele>
        <time>2021-08-20T14:49:01Z</time>
      </trkpt>
      <trkpt lat="46.52716" lon="5.54845">
        <ele>498.8</ele>
        <time>2021-08-20T14:49:02Z</time>
      </trkpt>
      <trkpt lat="46.52719" lon="5.548">
        <ele>500</ele>
        <time>2021-08-20T14:49:08Z</time>
      </trkpt>
      <trkpt lat="46.52721" lon="5.54763">
        <ele>500.8</ele>
        <time>2021-08-20T14:49:13Z</time>
      </trkpt>
      <trkpt lat="46.52722" lon="5.54755">
        <ele>501.2</ele>
        <time>2021-08-20T14:49:14Z</time>
      </trkpt>
      <trkpt lat="46.52727" lon="5.54684">
        <ele>502.2</ele>
        <time>2021-08-20T14:49:23Z</time>
      </trkpt>
      <trkpt lat="46.52732" lon="5.5464">
        <ele>503.2</ele>
        <time>2021-08-20T14:49:29Z</time>
      </trkpt>
      <trkpt lat="46.52733" lon="5.54634">
        <ele>503.4</ele>
        <time>2021-08-20T14:49:30Z</time>
      </trkpt>
      <trkpt lat="46.52735" lon="5.54628">
        <ele>503.4</ele>
        <time>2021-08-20T14:49:31Z</time>
      </trkpt>
      <trkpt lat="46.52738" lon="5.54622">
        <ele>503.6</ele>
        <time>2021-08-20T14:49:32Z</time>
      </trkpt>
      <trkpt lat="46.52745" lon="5.54614">
        <ele>503.8</ele>
        <time>2021-08-20T14:49:34Z</time>
      </trkpt>
      <trkpt lat="46.52749" lon="5.54612">
        <ele>504.2</ele>
        <time>2021-08-20T14:49:35Z</time>
      </trkpt>
      <trkpt lat="46.52757" lon="5.5461">
        <ele>504.4</ele>
        <time>2021-08-20T14:49:37Z</time>
      </trkpt>
      <trkpt lat="46.52774" lon="5.54609">
        <ele>505.4</ele>
        <time>2021-08-20T14:49:41Z</time>
      </trkpt>
      <trkpt lat="46.52786" lon="5.54609">
        <ele>506.6</ele>
        <time>2021-08-20T14:49:44Z</time>
      </trkpt>
      <trkpt lat="46.52804" lon="5.54609">
        <ele>508</ele>
        <time>2021-08-20T14:49:48Z</time>
      </trkpt>
      <trkpt lat="46.52832" lon="5.54611">
        <ele>509.2</ele>
        <time>2021-08-20T14:49:55Z</time>
      </trkpt>
      <trkpt lat="46.5284" lon="5.54612">
        <ele>509.8</ele>
        <time>2021-08-20T14:49:57Z</time>
      </trkpt>
      <trkpt lat="46.52848" lon="5.54612">
        <ele>510.2</ele>
        <time>2021-08-20T14:49:59Z</time>
      </trkpt>
      <trkpt lat="46.52864" lon="5.54613">
        <ele>511.2</ele>
        <time>2021-08-20T14:50:03Z</time>
      </trkpt>
      <trkpt lat="46.52885" lon="5.54615">
        <ele>512.2</ele>
        <time>2021-08-20T14:50:08Z</time>
      </trkpt>
      <trkpt lat="46.52889" lon="5.54616">
        <ele>512.4</ele>
        <time>2021-08-20T14:50:09Z</time>
      </trkpt>
      <trkpt lat="46.52911" lon="5.54616">
        <ele>513.2</ele>
        <time>2021-08-20T14:50:14Z</time>
      </trkpt>
      <trkpt lat="46.5292" lon="5.54617">
        <ele>513.4</ele>
        <time>2021-08-20T14:50:16Z</time>
      </trkpt>
      <trkpt lat="46.52953" lon="5.5462">
        <ele>514.4</ele>
        <time>2021-08-20T14:50:23Z</time>
      </trkpt>
      <trkpt lat="46.52958" lon="5.5462">
        <ele>514.8</ele>
        <time>2021-08-20T14:50:24Z</time>
      </trkpt>
      <trkpt lat="46.52992" lon="5.54623">
        <ele>515.6</ele>
        <time>2021-08-20T14:50:31Z</time>
      </trkpt>
      <trkpt lat="46.53002" lon="5.54624">
        <ele>515.8</ele>
        <time>2021-08-20T14:50:33Z</time>
      </trkpt>
      <trkpt lat="46.5303" lon="5.54627">
        <ele>516.8</ele>
        <time>2021-08-20T14:50:39Z</time>
      </trkpt>
      <trkpt lat="46.53043" lon="5.54629">
        <ele>517.2</ele>
        <time>2021-08-20T14:50:42Z</time>
      </trkpt>
      <trkpt lat="46.53057" lon="5.5463">
        <ele>517.8</ele>
        <time>2021-08-20T14:50:45Z</time>
      </trkpt>
      <trkpt lat="46.53071" lon="5.5463">
        <ele>518.2</ele>
        <time>2021-08-20T14:50:48Z</time>
      </trkpt>
      <trkpt lat="46.53076" lon="5.5463">
        <ele>518.4</ele>
        <time>2021-08-20T14:50:49Z</time>
      </trkpt>
      <trkpt lat="46.5309" lon="5.5463">
        <ele>518.8</ele>
        <time>2021-08-20T14:50:52Z</time>
      </trkpt>
      <trkpt lat="46.53114" lon="5.54632">
        <ele>519.6</ele>
        <time>2021-08-20T14:50:57Z</time>
      </trkpt>
      <trkpt lat="46.53132" lon="5.54635">
        <ele>520</ele>
        <time>2021-08-20T14:51:01Z</time>
      </trkpt>
      <trkpt lat="46.53146" lon="5.54637">
        <ele>520.4</ele>
        <time>2021-08-20T14:51:04Z</time>
      </trkpt>
      <trkpt lat="46.53164" lon="5.54643">
        <ele>521</ele>
        <time>2021-08-20T14:51:08Z</time>
      </trkpt>
      <trkpt lat="46.53181" lon="5.54646">
        <ele>522.2</ele>
        <time>2021-08-20T14:51:12Z</time>
      </trkpt>
      <trkpt lat="46.53203" lon="5.54649">
        <ele>523.2</ele>
        <time>2021-08-20T14:51:17Z</time>
      </trkpt>
      <trkpt lat="46.53226" lon="5.54653">
        <ele>524.2</ele>
        <time>2021-08-20T14:51:22Z</time>
      </trkpt>
      <trkpt lat="46.53231" lon="5.54653">
        <ele>524.2</ele>
        <time>2021-08-20T14:51:23Z</time>
      </trkpt>
      <trkpt lat="46.53241" lon="5.54655">
        <ele>524.4</ele>
        <time>2021-08-20T14:51:25Z</time>
      </trkpt>
      <trkpt lat="46.53259" lon="5.54659">
        <ele>525.2</ele>
        <time>2021-08-20T14:51:29Z</time>
      </trkpt>
      <trkpt lat="46.5329" lon="5.54665">
        <ele>526.4</ele>
        <time>2021-08-20T14:51:36Z</time>
      </trkpt>
      <trkpt lat="46.53294" lon="5.54666">
        <ele>526.4</ele>
        <time>2021-08-20T14:51:37Z</time>
      </trkpt>
      <trkpt lat="46.53336" lon="5.54681">
        <ele>527.2</ele>
        <time>2021-08-20T14:51:46Z</time>
      </trkpt>
      <trkpt lat="46.53341" lon="5.54683">
        <ele>527.4</ele>
        <time>2021-08-20T14:51:47Z</time>
      </trkpt>
      <trkpt lat="46.53377" lon="5.54694">
        <ele>528.2</ele>
        <time>2021-08-20T14:51:54Z</time>
      </trkpt>
      <trkpt lat="46.53395" lon="5.547">
        <ele>528.4</ele>
        <time>2021-08-20T14:51:57Z</time>
      </trkpt>
      <trkpt lat="46.53418" lon="5.54708">
        <ele>529.2</ele>
        <time>2021-08-20T14:52:01Z</time>
      </trkpt>
      <trkpt lat="46.53429" lon="5.54712">
        <ele>529.4</ele>
        <time>2021-08-20T14:52:03Z</time>
      </trkpt>
      <trkpt lat="46.53466" lon="5.54724">
        <ele>530.6</ele>
        <time>2021-08-20T14:52:10Z</time>
      </trkpt>
      <trkpt lat="46.53505" lon="5.54736">
        <ele>531.6</ele>
        <time>2021-08-20T14:52:17Z</time>
      </trkpt>
      <trkpt lat="46.53531" lon="5.54745">
        <ele>532.6</ele>
        <time>2021-08-20T14:52:22Z</time>
      </trkpt>
      <trkpt lat="46.53536" lon="5.54747">
        <ele>532.8</ele>
        <time>2021-08-20T14:52:23Z</time>
      </trkpt>
      <trkpt lat="46.5355" lon="5.54751">
        <ele>533.6</ele>
        <time>2021-08-20T14:52:26Z</time>
      </trkpt>
      <trkpt lat="46.53581" lon="5.54762">
        <ele>534.6</ele>
        <time>2021-08-20T14:52:32Z</time>
      </trkpt>
      <trkpt lat="46.53586" lon="5.54764">
        <ele>534.6</ele>
        <time>2021-08-20T14:52:33Z</time>
      </trkpt>
      <trkpt lat="46.53591" lon="5.54766">
        <ele>534.8</ele>
        <time>2021-08-20T14:52:34Z</time>
      </trkpt>
      <trkpt lat="46.53625" lon="5.54776">
        <ele>535.8</ele>
        <time>2021-08-20T14:52:41Z</time>
      </trkpt>
      <trkpt lat="46.5364" lon="5.54781">
        <ele>536.4</ele>
        <time>2021-08-20T14:52:44Z</time>
      </trkpt>
      <trkpt lat="46.53658" lon="5.54787">
        <ele>537</ele>
        <time>2021-08-20T14:52:48Z</time>
      </trkpt>
      <trkpt lat="46.53695" lon="5.548">
        <ele>537.8</ele>
        <time>2021-08-20T14:52:56Z</time>
      </trkpt>
      <trkpt lat="46.537" lon="5.54801">
        <ele>538</ele>
        <time>2021-08-20T14:52:57Z</time>
      </trkpt>
      <trkpt lat="46.53737" lon="5.54816">
        <ele>539</ele>
        <time>2021-08-20T14:53:05Z</time>
      </trkpt>
      <trkpt lat="46.53747" lon="5.54819">
        <ele>539.4</ele>
        <time>2021-08-20T14:53:07Z</time>
      </trkpt>
      <trkpt lat="46.5378" lon="5.54825">
        <ele>540</ele>
        <time>2021-08-20T14:53:14Z</time>
      </trkpt>
      <trkpt lat="46.53784" lon="5.54824">
        <ele>540.2</ele>
        <time>2021-08-20T14:53:15Z</time>
      </trkpt>
      <trkpt lat="46.53822" lon="5.54817">
        <ele>541.4</ele>
        <time>2021-08-20T14:53:22Z</time>
      </trkpt>
      <trkpt lat="46.53828" lon="5.54815">
        <ele>542</ele>
        <time>2021-08-20T14:53:23Z</time>
      </trkpt>
      <trkpt lat="46.53843" lon="5.54812">
        <ele>542.8</ele>
        <time>2021-08-20T14:53:26Z</time>
      </trkpt>
      <trkpt lat="46.53876" lon="5.54804">
        <ele>543.6</ele>
        <time>2021-08-20T14:53:32Z</time>
      </trkpt>
      <trkpt lat="46.53919" lon="5.54788">
        <ele>543.8</ele>
        <time>2021-08-20T14:53:40Z</time>
      </trkpt>
      <trkpt lat="46.53923" lon="5.54785">
        <ele>543.8</ele>
        <time>2021-08-20T14:53:41Z</time>
      </trkpt>
      <trkpt lat="46.53957" lon="5.54756">
        <ele>544.8</ele>
        <time>2021-08-20T14:53:48Z</time>
      </trkpt>
      <trkpt lat="46.53962" lon="5.54751">
        <ele>544.8</ele>
        <time>2021-08-20T14:53:49Z</time>
      </trkpt>
      <trkpt lat="46.53975" lon="5.54738">
        <ele>545</ele>
        <time>2021-08-20T14:53:52Z</time>
      </trkpt>
      <trkpt lat="46.53988" lon="5.54718">
        <ele>545.2</ele>
        <time>2021-08-20T14:53:55Z</time>
      </trkpt>
      <trkpt lat="46.54001" lon="5.54687">
        <ele>545.2</ele>
        <time>2021-08-20T14:53:59Z</time>
      </trkpt>
      <trkpt lat="46.54004" lon="5.54678">
        <ele>545.2</ele>
        <time>2021-08-20T14:54:00Z</time>
      </trkpt>
      <trkpt lat="46.54018" lon="5.54625">
        <ele>544.8</ele>
        <time>2021-08-20T14:54:05Z</time>
      </trkpt>
      <trkpt lat="46.54027" lon="5.54593">
        <ele>543.6</ele>
        <time>2021-08-20T14:54:08Z</time>
      </trkpt>
      <trkpt lat="46.54033" lon="5.54565">
        <ele>543.2</ele>
        <time>2021-08-20T14:54:10Z</time>
      </trkpt>
      <trkpt lat="46.54035" lon="5.54557">
        <ele>543</ele>
        <time>2021-08-20T14:54:11Z</time>
      </trkpt>
      <trkpt lat="46.54037" lon="5.54546">
        <ele>542.6</ele>
        <time>2021-08-20T14:54:12Z</time>
      </trkpt>
      <trkpt lat="46.54056" lon="5.54483">
        <ele>541.8</ele>
        <time>2021-08-20T14:54:17Z</time>
      </trkpt>
      <trkpt lat="46.54069" lon="5.54437">
        <ele>541.6</ele>
        <time>2021-08-20T14:54:21Z</time>
      </trkpt>
      <trkpt lat="46.54089" lon="5.54364">
        <ele>541.2</ele>
        <time>2021-08-20T14:54:27Z</time>
      </trkpt>
      <trkpt lat="46.54094" lon="5.54342">
        <ele>540.4</ele>
        <time>2021-08-20T14:54:29Z</time>
      </trkpt>
      <trkpt lat="46.54108" lon="5.54291">
        <ele>539</ele>
        <time>2021-08-20T14:54:33Z</time>
      </trkpt>
      <trkpt lat="46.54117" lon="5.54261">
        <ele>538</ele>
        <time>2021-08-20T14:54:35Z</time>
      </trkpt>
      <trkpt lat="46.54127" lon="5.54221">
        <ele>536.2</ele>
        <time>2021-08-20T14:54:38Z</time>
      </trkpt>
      <trkpt lat="46.54139" lon="5.54179">
        <ele>535</ele>
        <time>2021-08-20T14:54:41Z</time>
      </trkpt>
      <trkpt lat="46.54146" lon="5.54154">
        <ele>534</ele>
        <time>2021-08-20T14:54:43Z</time>
      </trkpt>
      <trkpt lat="46.54158" lon="5.54109">
        <ele>533.4</ele>
        <time>2021-08-20T14:54:46Z</time>
      </trkpt>
      <trkpt lat="46.54161" lon="5.54098">
        <ele>533</ele>
        <time>2021-08-20T14:54:47Z</time>
      </trkpt>
      <trkpt lat="46.54177" lon="5.54039">
        <ele>531.8</ele>
        <time>2021-08-20T14:54:51Z</time>
      </trkpt>
      <trkpt lat="46.54188" lon="5.54001">
        <ele>530.6</ele>
        <time>2021-08-20T14:54:54Z</time>
      </trkpt>
      <trkpt lat="46.54193" lon="5.53985">
        <ele>530.2</ele>
        <time>2021-08-20T14:54:55Z</time>
      </trkpt>
      <trkpt lat="46.542" lon="5.53948">
        <ele>529.6</ele>
        <time>2021-08-20T14:54:58Z</time>
      </trkpt>
      <trkpt lat="46.54202" lon="5.53935">
        <ele>529.4</ele>
        <time>2021-08-20T14:54:59Z</time>
      </trkpt>
      <trkpt lat="46.54204" lon="5.53868">
        <ele>529</ele>
        <time>2021-08-20T14:55:04Z</time>
      </trkpt>
      <trkpt lat="46.54205" lon="5.53789">
        <ele>528.8</ele>
        <time>2021-08-20T14:55:10Z</time>
      </trkpt>
      <trkpt lat="46.54206" lon="5.53757">
        <ele>528.8</ele>
        <time>2021-08-20T14:55:12Z</time>
      </trkpt>
      <trkpt lat="46.54208" lon="5.53715">
        <ele>528.4</ele>
        <time>2021-08-20T14:55:15Z</time>
      </trkpt>
      <trkpt lat="46.54215" lon="5.53675">
        <ele>528</ele>
        <time>2021-08-20T14:55:18Z</time>
      </trkpt>
      <trkpt lat="46.54223" lon="5.53653">
        <ele>527.4</ele>
        <time>2021-08-20T14:55:20Z</time>
      </trkpt>
      <trkpt lat="46.54235" lon="5.53629">
        <ele>527.2</ele>
        <time>2021-08-20T14:55:22Z</time>
      </trkpt>
      <trkpt lat="46.54267" lon="5.53565">
        <ele>526.4</ele>
        <time>2021-08-20T14:55:28Z</time>
      </trkpt>
      <trkpt lat="46.54277" lon="5.53541">
        <ele>526</ele>
        <time>2021-08-20T14:55:30Z</time>
      </trkpt>
      <trkpt lat="46.54292" lon="5.53493">
        <ele>525</ele>
        <time>2021-08-20T14:55:34Z</time>
      </trkpt>
      <trkpt lat="46.54303" lon="5.53469">
        <ele>524.8</ele>
        <time>2021-08-20T14:55:36Z</time>
      </trkpt>
      <trkpt lat="46.54309" lon="5.53458">
        <ele>524.6</ele>
        <time>2021-08-20T14:55:37Z</time>
      </trkpt>
      <trkpt lat="46.54343" lon="5.53415">
        <ele>524.6</ele>
        <time>2021-08-20T14:55:42Z</time>
      </trkpt>
      <trkpt lat="46.54353" lon="5.53394">
        <ele>524.2</ele>
        <time>2021-08-20T14:55:44Z</time>
      </trkpt>
      <trkpt lat="46.54356" lon="5.53381">
        <ele>523.8</ele>
        <time>2021-08-20T14:55:45Z</time>
      </trkpt>
      <trkpt lat="46.54365" lon="5.5334">
        <ele>522.8</ele>
        <time>2021-08-20T14:55:48Z</time>
      </trkpt>
      <trkpt lat="46.54373" lon="5.53315">
        <ele>522.2</ele>
        <time>2021-08-20T14:55:50Z</time>
      </trkpt>
      <trkpt lat="46.54378" lon="5.53304">
        <ele>522</ele>
        <time>2021-08-20T14:55:51Z</time>
      </trkpt>
      <trkpt lat="46.54384" lon="5.53294">
        <ele>522</ele>
        <time>2021-08-20T14:55:52Z</time>
      </trkpt>
      <trkpt lat="46.54392" lon="5.53285">
        <ele>521.8</ele>
        <time>2021-08-20T14:55:53Z</time>
      </trkpt>
      <trkpt lat="46.544" lon="5.53277">
        <ele>521.8</ele>
        <time>2021-08-20T14:55:54Z</time>
      </trkpt>
      <trkpt lat="46.54418" lon="5.53267">
        <ele>521</ele>
        <time>2021-08-20T14:55:56Z</time>
      </trkpt>
      <trkpt lat="46.54428" lon="5.53263">
        <ele>520</ele>
        <time>2021-08-20T14:55:57Z</time>
      </trkpt>
      <trkpt lat="46.54446" lon="5.53259">
        <ele>518.8</ele>
        <time>2021-08-20T14:55:59Z</time>
      </trkpt>
      <trkpt lat="46.54468" lon="5.53255">
        <ele>517.8</ele>
        <time>2021-08-20T14:56:01Z</time>
      </trkpt>
      <trkpt lat="46.5449" lon="5.5325">
        <ele>516.6</ele>
        <time>2021-08-20T14:56:03Z</time>
      </trkpt>
      <trkpt lat="46.54521" lon="5.53243">
        <ele>515.2</ele>
        <time>2021-08-20T14:56:06Z</time>
      </trkpt>
      <trkpt lat="46.54546" lon="5.53237">
        <ele>513.8</ele>
        <time>2021-08-20T14:56:08Z</time>
      </trkpt>
      <trkpt lat="46.54555" lon="5.53235">
        <ele>512.8</ele>
        <time>2021-08-20T14:56:09Z</time>
      </trkpt>
      <trkpt lat="46.54578" lon="5.53229">
        <ele>511.6</ele>
        <time>2021-08-20T14:56:11Z</time>
      </trkpt>
      <trkpt lat="46.54602" lon="5.53219">
        <ele>511</ele>
        <time>2021-08-20T14:56:13Z</time>
      </trkpt>
      <trkpt lat="46.54613" lon="5.53215">
        <ele>510.2</ele>
        <time>2021-08-20T14:56:14Z</time>
      </trkpt>
      <trkpt lat="46.54633" lon="5.53207">
        <ele>508.4</ele>
        <time>2021-08-20T14:56:16Z</time>
      </trkpt>
      <trkpt lat="46.54657" lon="5.532">
        <ele>507</ele>
        <time>2021-08-20T14:56:18Z</time>
      </trkpt>
      <trkpt lat="46.54668" lon="5.53198">
        <ele>506.4</ele>
        <time>2021-08-20T14:56:19Z</time>
      </trkpt>
      <trkpt lat="46.54692" lon="5.53199">
        <ele>505</ele>
        <time>2021-08-20T14:56:21Z</time>
      </trkpt>
      <trkpt lat="46.54715" lon="5.53202">
        <ele>502.8</ele>
        <time>2021-08-20T14:56:23Z</time>
      </trkpt>
      <trkpt lat="46.54724" lon="5.53203">
        <ele>502.2</ele>
        <time>2021-08-20T14:56:24Z</time>
      </trkpt>
      <trkpt lat="46.54738" lon="5.53204">
        <ele>501.6</ele>
        <time>2021-08-20T14:56:25Z</time>
      </trkpt>
      <trkpt lat="46.54761" lon="5.53203">
        <ele>500.2</ele>
        <time>2021-08-20T14:56:27Z</time>
      </trkpt>
      <trkpt lat="46.54773" lon="5.532">
        <ele>499.4</ele>
        <time>2021-08-20T14:56:28Z</time>
      </trkpt>
      <trkpt lat="46.54784" lon="5.53196">
        <ele>498.8</ele>
        <time>2021-08-20T14:56:29Z</time>
      </trkpt>
      <trkpt lat="46.54805" lon="5.53185">
        <ele>497.8</ele>
        <time>2021-08-20T14:56:31Z</time>
      </trkpt>
      <trkpt lat="46.54826" lon="5.53175">
        <ele>497.2</ele>
        <time>2021-08-20T14:56:33Z</time>
      </trkpt>
      <trkpt lat="46.54847" lon="5.53164">
        <ele>496.4</ele>
        <time>2021-08-20T14:56:35Z</time>
      </trkpt>
      <trkpt lat="46.54866" lon="5.53151">
        <ele>495.6</ele>
        <time>2021-08-20T14:56:37Z</time>
      </trkpt>
      <trkpt lat="46.54884" lon="5.53134">
        <ele>495.4</ele>
        <time>2021-08-20T14:56:39Z</time>
      </trkpt>
      <trkpt lat="46.54903" lon="5.53098">
        <ele>494.6</ele>
        <time>2021-08-20T14:56:42Z</time>
      </trkpt>
      <trkpt lat="46.54916" lon="5.53072">
        <ele>493.8</ele>
        <time>2021-08-20T14:56:44Z</time>
      </trkpt>
      <trkpt lat="46.54941" lon="5.53015">
        <ele>492.4</ele>
        <time>2021-08-20T14:56:48Z</time>
      </trkpt>
      <trkpt lat="46.54951" lon="5.52985">
        <ele>491.6</ele>
        <time>2021-08-20T14:56:50Z</time>
      </trkpt>
      <trkpt lat="46.54954" lon="5.52969">
        <ele>491</ele>
        <time>2021-08-20T14:56:51Z</time>
      </trkpt>
      <trkpt lat="46.54961" lon="5.52936">
        <ele>489.8</ele>
        <time>2021-08-20T14:56:53Z</time>
      </trkpt>
      <trkpt lat="46.54969" lon="5.52904">
        <ele>488.6</ele>
        <time>2021-08-20T14:56:55Z</time>
      </trkpt>
      <trkpt lat="46.54987" lon="5.52862">
        <ele>487.2</ele>
        <time>2021-08-20T14:56:58Z</time>
      </trkpt>
      <trkpt lat="46.54994" lon="5.5285">
        <ele>487</ele>
        <time>2021-08-20T14:56:59Z</time>
      </trkpt>
      <trkpt lat="46.5503" lon="5.52801">
        <ele>486</ele>
        <time>2021-08-20T14:57:04Z</time>
      </trkpt>
      <trkpt lat="46.55057" lon="5.52749">
        <ele>486</ele>
        <time>2021-08-20T14:57:09Z</time>
      </trkpt>
      <trkpt lat="46.55088" lon="5.52674">
        <ele>485.6</ele>
        <time>2021-08-20T14:57:16Z</time>
      </trkpt>
      <trkpt lat="46.55098" lon="5.52645">
        <ele>485.8</ele>
        <time>2021-08-20T14:57:19Z</time>
      </trkpt>
      <trkpt lat="46.551" lon="5.52634">
        <ele>486</ele>
        <time>2021-08-20T14:57:20Z</time>
      </trkpt>
      <trkpt lat="46.55102" lon="5.52625">
        <ele>486.6</ele>
        <time>2021-08-20T14:57:21Z</time>
      </trkpt>
      <trkpt lat="46.551" lon="5.52606">
        <ele>487</ele>
        <time>2021-08-20T14:57:23Z</time>
      </trkpt>
      <trkpt lat="46.55096" lon="5.52589">
        <ele>487.4</ele>
        <time>2021-08-20T14:57:25Z</time>
      </trkpt>
      <trkpt lat="46.55088" lon="5.52567">
        <ele>487.8</ele>
        <time>2021-08-20T14:57:28Z</time>
      </trkpt>
      <trkpt lat="46.55082" lon="5.52547">
        <ele>488.6</ele>
        <time>2021-08-20T14:57:31Z</time>
      </trkpt>
      <trkpt lat="46.55076" lon="5.52529">
        <ele>489.4</ele>
        <time>2021-08-20T14:57:34Z</time>
      </trkpt>
      <trkpt lat="46.55074" lon="5.52524">
        <ele>490</ele>
        <time>2021-08-20T14:57:35Z</time>
      </trkpt>
      <trkpt lat="46.55066" lon="5.52501">
        <ele>491.2</ele>
        <time>2021-08-20T14:57:39Z</time>
      </trkpt>
      <trkpt lat="46.5506" lon="5.52484">
        <ele>491.8</ele>
        <time>2021-08-20T14:57:42Z</time>
      </trkpt>
      <trkpt lat="46.55054" lon="5.52468">
        <ele>492.2</ele>
        <time>2021-08-20T14:57:45Z</time>
      </trkpt>
      <trkpt lat="46.55047" lon="5.52445">
        <ele>493.6</ele>
        <time>2021-08-20T14:57:49Z</time>
      </trkpt>
      <trkpt lat="46.55041" lon="5.52429">
        <ele>494.4</ele>
        <time>2021-08-20T14:57:52Z</time>
      </trkpt>
      <trkpt lat="46.5504" lon="5.52423">
        <ele>494.6</ele>
        <time>2021-08-20T14:57:53Z</time>
      </trkpt>
      <trkpt lat="46.5503" lon="5.52391">
        <ele>495.8</ele>
        <time>2021-08-20T14:57:59Z</time>
      </trkpt>
      <trkpt lat="46.55028" lon="5.52386">
        <ele>496</ele>
        <time>2021-08-20T14:58:00Z</time>
      </trkpt>
      <trkpt lat="46.55018" lon="5.52356">
        <ele>497</ele>
        <time>2021-08-20T14:58:06Z</time>
      </trkpt>
      <trkpt lat="46.55007" lon="5.52328">
        <ele>498</ele>
        <time>2021-08-20T14:58:12Z</time>
      </trkpt>
      <trkpt lat="46.54994" lon="5.52306">
        <ele>499.2</ele>
        <time>2021-08-20T14:58:17Z</time>
      </trkpt>
      <trkpt lat="46.54986" lon="5.52294">
        <ele>500.2</ele>
        <time>2021-08-20T14:58:20Z</time>
      </trkpt>
      <trkpt lat="46.54983" lon="5.52291">
        <ele>500.8</ele>
        <time>2021-08-20T14:58:21Z</time>
      </trkpt>
      <trkpt lat="46.54977" lon="5.52285">
        <ele>501.4</ele>
        <time>2021-08-20T14:58:23Z</time>
      </trkpt>
      <trkpt lat="46.5496" lon="5.52271">
        <ele>502.2</ele>
        <time>2021-08-20T14:58:28Z</time>
      </trkpt>
      <trkpt lat="46.54957" lon="5.52269">
        <ele>502.4</ele>
        <time>2021-08-20T14:58:29Z</time>
      </trkpt>
      <trkpt lat="46.54936" lon="5.52259">
        <ele>503.6</ele>
        <time>2021-08-20T14:58:35Z</time>
      </trkpt>
      <trkpt lat="46.54929" lon="5.52256">
        <ele>504.2</ele>
        <time>2021-08-20T14:58:37Z</time>
      </trkpt>
      <trkpt lat="46.54919" lon="5.52251">
        <ele>504.8</ele>
        <time>2021-08-20T14:58:40Z</time>
      </trkpt>
      <trkpt lat="46.54887" lon="5.52239">
        <ele>505.8</ele>
        <time>2021-08-20T14:58:49Z</time>
      </trkpt>
      <trkpt lat="46.54871" lon="5.52232">
        <ele>507</ele>
        <time>2021-08-20T14:58:53Z</time>
      </trkpt>
      <trkpt lat="46.54852" lon="5.52225">
        <ele>507.8</ele>
        <time>2021-08-20T14:58:58Z</time>
      </trkpt>
      <trkpt lat="46.54848" lon="5.52223">
        <ele>508.4</ele>
        <time>2021-08-20T14:58:59Z</time>
      </trkpt>
      <trkpt lat="46.54827" lon="5.5221">
        <ele>509.4</ele>
        <time>2021-08-20T14:59:05Z</time>
      </trkpt>
      <trkpt lat="46.54816" lon="5.52203">
        <ele>510</ele>
        <time>2021-08-20T14:59:08Z</time>
      </trkpt>
      <trkpt lat="46.54809" lon="5.52199">
        <ele>510.4</ele>
        <time>2021-08-20T14:59:10Z</time>
      </trkpt>
      <trkpt lat="46.54795" lon="5.52188">
        <ele>511.6</ele>
        <time>2021-08-20T14:59:14Z</time>
      </trkpt>
      <trkpt lat="46.5478" lon="5.52173">
        <ele>512.6</ele>
        <time>2021-08-20T14:59:19Z</time>
      </trkpt>
      <trkpt lat="46.54776" lon="5.52171">
        <ele>513</ele>
        <time>2021-08-20T14:59:20Z</time>
      </trkpt>
      <trkpt lat="46.54758" lon="5.52157">
        <ele>514</ele>
        <time>2021-08-20T14:59:25Z</time>
      </trkpt>
      <trkpt lat="46.54743" lon="5.52148">
        <ele>515.2</ele>
        <time>2021-08-20T14:59:29Z</time>
      </trkpt>
      <trkpt lat="46.54739" lon="5.52146">
        <ele>515.4</ele>
        <time>2021-08-20T14:59:30Z</time>
      </trkpt>
      <trkpt lat="46.54723" lon="5.5214">
        <ele>516.4</ele>
        <time>2021-08-20T14:59:34Z</time>
      </trkpt>
      <trkpt lat="46.54714" lon="5.52137">
        <ele>517.4</ele>
        <time>2021-08-20T14:59:36Z</time>
      </trkpt>
      <trkpt lat="46.54698" lon="5.52131">
        <ele>518.4</ele>
        <time>2021-08-20T14:59:40Z</time>
      </trkpt>
      <trkpt lat="46.54694" lon="5.5213">
        <ele>518.6</ele>
        <time>2021-08-20T14:59:41Z</time>
      </trkpt>
      <trkpt lat="46.54675" lon="5.52122">
        <ele>519.8</ele>
        <time>2021-08-20T14:59:46Z</time>
      </trkpt>
      <trkpt lat="46.54664" lon="5.52116">
        <ele>520.6</ele>
        <time>2021-08-20T14:59:49Z</time>
      </trkpt>
      <trkpt lat="46.54657" lon="5.52112">
        <ele>521</ele>
        <time>2021-08-20T14:59:51Z</time>
      </trkpt>
      <trkpt lat="46.54631" lon="5.52094">
        <ele>522</ele>
        <time>2021-08-20T14:59:58Z</time>
      </trkpt>
      <trkpt lat="46.5462" lon="5.52084">
        <ele>523.2</ele>
        <time>2021-08-20T15:00:01Z</time>
      </trkpt>
      <trkpt lat="46.54597" lon="5.5206">
        <ele>524</ele>
        <time>2021-08-20T15:00:07Z</time>
      </trkpt>
      <trkpt lat="46.54589" lon="5.52052">
        <ele>524.2</ele>
        <time>2021-08-20T15:00:09Z</time>
      </trkpt>
      <trkpt lat="46.54571" lon="5.52032">
        <ele>524.6</ele>
        <time>2021-08-20T15:00:13Z</time>
      </trkpt>
      <trkpt lat="46.54531" lon="5.51988">
        <ele>524.8</ele>
        <time>2021-08-20T15:00:21Z</time>
      </trkpt>
      <trkpt lat="46.54487" lon="5.51939">
        <ele>525</ele>
        <time>2021-08-20T15:00:29Z</time>
      </trkpt>
      <trkpt lat="46.5444" lon="5.51886">
        <ele>524.2</ele>
        <time>2021-08-20T15:00:37Z</time>
      </trkpt>
      <trkpt lat="46.54407" lon="5.51851">
        <ele>524.6</ele>
        <time>2021-08-20T15:00:43Z</time>
      </trkpt>
      <trkpt lat="46.54383" lon="5.51823">
        <ele>525.2</ele>
        <time>2021-08-20T15:00:48Z</time>
      </trkpt>
      <trkpt lat="46.54373" lon="5.51814">
        <ele>525.4</ele>
        <time>2021-08-20T15:00:50Z</time>
      </trkpt>
      <trkpt lat="46.54346" lon="5.51789">
        <ele>526.4</ele>
        <time>2021-08-20T15:00:56Z</time>
      </trkpt>
      <trkpt lat="46.54341" lon="5.51785">
        <ele>526.4</ele>
        <time>2021-08-20T15:00:57Z</time>
      </trkpt>
      <trkpt lat="46.54326" lon="5.51777">
        <ele>527.8</ele>
        <time>2021-08-20T15:01:00Z</time>
      </trkpt>
      <trkpt lat="46.54306" lon="5.51768">
        <ele>528.8</ele>
        <time>2021-08-20T15:01:04Z</time>
      </trkpt>
      <trkpt lat="46.54291" lon="5.51761">
        <ele>529.8</ele>
        <time>2021-08-20T15:01:07Z</time>
      </trkpt>
      <trkpt lat="46.54285" lon="5.51759">
        <ele>530</ele>
        <time>2021-08-20T15:01:08Z</time>
      </trkpt>
      <trkpt lat="46.54268" lon="5.51752">
        <ele>530.6</ele>
        <time>2021-08-20T15:01:11Z</time>
      </trkpt>
      <trkpt lat="46.54252" lon="5.51743">
        <ele>530.8</ele>
        <time>2021-08-20T15:01:14Z</time>
      </trkpt>
      <trkpt lat="46.54231" lon="5.51727">
        <ele>531.8</ele>
        <time>2021-08-20T15:01:18Z</time>
      </trkpt>
      <trkpt lat="46.54226" lon="5.51722">
        <ele>532</ele>
        <time>2021-08-20T15:01:19Z</time>
      </trkpt>
      <trkpt lat="46.54188" lon="5.51679">
        <ele>532</ele>
        <time>2021-08-20T15:01:27Z</time>
      </trkpt>
      <trkpt lat="46.54145" lon="5.51627">
        <ele>532.2</ele>
        <time>2021-08-20T15:01:36Z</time>
      </trkpt>
      <trkpt lat="46.54112" lon="5.51585">
        <ele>532.4</ele>
        <time>2021-08-20T15:01:43Z</time>
      </trkpt>
      <trkpt lat="46.54072" lon="5.51534">
        <ele>532.2</ele>
        <time>2021-08-20T15:01:50Z</time>
      </trkpt>
      <trkpt lat="46.54029" lon="5.51483">
        <ele>531.6</ele>
        <time>2021-08-20T15:01:57Z</time>
      </trkpt>
      <trkpt lat="46.53992" lon="5.51438">
        <ele>531.6</ele>
        <time>2021-08-20T15:02:04Z</time>
      </trkpt>
      <trkpt lat="46.53965" lon="5.51408">
        <ele>533.2</ele>
        <time>2021-08-20T15:02:10Z</time>
      </trkpt>
      <trkpt lat="46.53961" lon="5.51403">
        <ele>533.4</ele>
        <time>2021-08-20T15:02:11Z</time>
      </trkpt>
      <trkpt lat="46.53953" lon="5.51395">
        <ele>534.4</ele>
        <time>2021-08-20T15:02:13Z</time>
      </trkpt>
      <trkpt lat="46.53931" lon="5.51372">
        <ele>535.4</ele>
        <time>2021-08-20T15:02:18Z</time>
      </trkpt>
      <trkpt lat="46.53922" lon="5.51363">
        <ele>535.6</ele>
        <time>2021-08-20T15:02:20Z</time>
      </trkpt>
      <trkpt lat="46.53909" lon="5.51349">
        <ele>536.4</ele>
        <time>2021-08-20T15:02:23Z</time>
      </trkpt>
      <trkpt lat="46.53885" lon="5.51322">
        <ele>537.8</ele>
        <time>2021-08-20T15:02:29Z</time>
      </trkpt>
      <trkpt lat="46.53866" lon="5.51299">
        <ele>538.6</ele>
        <time>2021-08-20T15:02:34Z</time>
      </trkpt>
      <trkpt lat="46.53854" lon="5.51286">
        <ele>538.8</ele>
        <time>2021-08-20T15:02:37Z</time>
      </trkpt>
      <trkpt lat="46.53824" lon="5.51249">
        <ele>540</ele>
        <time>2021-08-20T15:02:45Z</time>
      </trkpt>
      <trkpt lat="46.53798" lon="5.51204">
        <ele>540</ele>
        <time>2021-08-20T15:02:52Z</time>
      </trkpt>
      <trkpt lat="46.53771" lon="5.51151">
        <ele>539.8</ele>
        <time>2021-08-20T15:02:58Z</time>
      </trkpt>
      <trkpt lat="46.5374" lon="5.51089">
        <ele>537.8</ele>
        <time>2021-08-20T15:03:04Z</time>
      </trkpt>
      <trkpt lat="46.53729" lon="5.51068">
        <ele>536.4</ele>
        <time>2021-08-20T15:03:06Z</time>
      </trkpt>
      <trkpt lat="46.53713" lon="5.51036">
        <ele>535.2</ele>
        <time>2021-08-20T15:03:09Z</time>
      </trkpt>
      <trkpt lat="46.5368" lon="5.50969">
        <ele>534.4</ele>
        <time>2021-08-20T15:03:15Z</time>
      </trkpt>
      <trkpt lat="46.53674" lon="5.50957">
        <ele>534.2</ele>
        <time>2021-08-20T15:03:16Z</time>
      </trkpt>
      <trkpt lat="46.53668" lon="5.50945">
        <ele>534</ele>
        <time>2021-08-20T15:03:17Z</time>
      </trkpt>
      <trkpt lat="46.53651" lon="5.50911">
        <ele>531.8</ele>
        <time>2021-08-20T15:03:20Z</time>
      </trkpt>
      <trkpt lat="46.5364" lon="5.50888">
        <ele>530.2</ele>
        <time>2021-08-20T15:03:22Z</time>
      </trkpt>
      <trkpt lat="46.53622" lon="5.50853">
        <ele>529.2</ele>
        <time>2021-08-20T15:03:25Z</time>
      </trkpt>
      <trkpt lat="46.53599" lon="5.50805">
        <ele>527.6</ele>
        <time>2021-08-20T15:03:29Z</time>
      </trkpt>
      <trkpt lat="46.53587" lon="5.5078">
        <ele>526.2</ele>
        <time>2021-08-20T15:03:31Z</time>
      </trkpt>
      <trkpt lat="46.5357" lon="5.50744">
        <ele>525</ele>
        <time>2021-08-20T15:03:34Z</time>
      </trkpt>
      <trkpt lat="46.53564" lon="5.50732">
        <ele>525</ele>
        <time>2021-08-20T15:03:35Z</time>
      </trkpt>
      <trkpt lat="46.53529" lon="5.50661">
        <ele>523.4</ele>
        <time>2021-08-20T15:03:41Z</time>
      </trkpt>
      <trkpt lat="46.53511" lon="5.50625">
        <ele>522.2</ele>
        <time>2021-08-20T15:03:44Z</time>
      </trkpt>
      <trkpt lat="46.53476" lon="5.50554">
        <ele>521.4</ele>
        <time>2021-08-20T15:03:50Z</time>
      </trkpt>
      <trkpt lat="46.53471" lon="5.50543">
        <ele>521</ele>
        <time>2021-08-20T15:03:51Z</time>
      </trkpt>
      <trkpt lat="46.5345" lon="5.50499">
        <ele>520.4</ele>
        <time>2021-08-20T15:03:55Z</time>
      </trkpt>
      <trkpt lat="46.53415" lon="5.50429">
        <ele>520.2</ele>
        <time>2021-08-20T15:04:02Z</time>
      </trkpt>
      <trkpt lat="46.53383" lon="5.50366">
        <ele>520.4</ele>
        <time>2021-08-20T15:04:09Z</time>
      </trkpt>
      <trkpt lat="46.53373" lon="5.50347">
        <ele>520.6</ele>
        <time>2021-08-20T15:04:11Z</time>
      </trkpt>
      <trkpt lat="46.5334" lon="5.5028">
        <ele>521.2</ele>
        <time>2021-08-20T15:04:18Z</time>
      </trkpt>
      <trkpt lat="46.5333" lon="5.5026">
        <ele>520.6</ele>
        <time>2021-08-20T15:04:20Z</time>
      </trkpt>
      <trkpt lat="46.53308" lon="5.50216">
        <ele>519.6</ele>
        <time>2021-08-20T15:04:24Z</time>
      </trkpt>
      <trkpt lat="46.53292" lon="5.50183">
        <ele>518.6</ele>
        <time>2021-08-20T15:04:27Z</time>
      </trkpt>
      <trkpt lat="46.53287" lon="5.50172">
        <ele>518.4</ele>
        <time>2021-08-20T15:04:28Z</time>
      </trkpt>
      <trkpt lat="46.53269" lon="5.50137">
        <ele>517</ele>
        <time>2021-08-20T15:04:31Z</time>
      </trkpt>
      <trkpt lat="46.53257" lon="5.50113">
        <ele>515.6</ele>
        <time>2021-08-20T15:04:33Z</time>
      </trkpt>
      <trkpt lat="46.53251" lon="5.501">
        <ele>515.2</ele>
        <time>2021-08-20T15:04:34Z</time>
      </trkpt>
      <trkpt lat="46.53245" lon="5.50087">
        <ele>514.4</ele>
        <time>2021-08-20T15:04:35Z</time>
      </trkpt>
      <trkpt lat="46.53232" lon="5.50061">
        <ele>512.8</ele>
        <time>2021-08-20T15:04:37Z</time>
      </trkpt>
      <trkpt lat="46.53218" lon="5.50034">
        <ele>511.2</ele>
        <time>2021-08-20T15:04:39Z</time>
      </trkpt>
      <trkpt lat="46.53204" lon="5.50006">
        <ele>510.6</ele>
        <time>2021-08-20T15:04:41Z</time>
      </trkpt>
      <trkpt lat="46.53197" lon="5.49991">
        <ele>509.8</ele>
        <time>2021-08-20T15:04:42Z</time>
      </trkpt>
      <trkpt lat="46.53183" lon="5.49961">
        <ele>508.6</ele>
        <time>2021-08-20T15:04:44Z</time>
      </trkpt>
      <trkpt lat="46.53168" lon="5.49931">
        <ele>507</ele>
        <time>2021-08-20T15:04:46Z</time>
      </trkpt>
      <trkpt lat="46.5316" lon="5.49915">
        <ele>506</ele>
        <time>2021-08-20T15:04:47Z</time>
      </trkpt>
      <trkpt lat="46.53152" lon="5.49899">
        <ele>505.6</ele>
        <time>2021-08-20T15:04:48Z</time>
      </trkpt>
      <trkpt lat="46.53145" lon="5.49884">
        <ele>503.6</ele>
        <time>2021-08-20T15:04:49Z</time>
      </trkpt>
      <trkpt lat="46.5313" lon="5.49853">
        <ele>502.4</ele>
        <time>2021-08-20T15:04:51Z</time>
      </trkpt>
      <trkpt lat="46.53102" lon="5.49796">
        <ele>501.2</ele>
        <time>2021-08-20T15:04:55Z</time>
      </trkpt>
      <trkpt lat="46.5307" lon="5.49731">
        <ele>500.4</ele>
        <time>2021-08-20T15:05:00Z</time>
      </trkpt>
      <trkpt lat="46.53064" lon="5.49718">
        <ele>500.2</ele>
        <time>2021-08-20T15:05:01Z</time>
      </trkpt>
      <trkpt lat="46.53032" lon="5.49651">
        <ele>501</ele>
        <time>2021-08-20T15:05:07Z</time>
      </trkpt>
      <trkpt lat="46.53016" lon="5.49624">
        <ele>501.4</ele>
        <time>2021-08-20T15:05:10Z</time>
      </trkpt>
      <trkpt lat="46.53005" lon="5.49609">
        <ele>501.8</ele>
        <time>2021-08-20T15:05:12Z</time>
      </trkpt>
      <trkpt lat="46.52989" lon="5.49587">
        <ele>502.4</ele>
        <time>2021-08-20T15:05:15Z</time>
      </trkpt>
      <trkpt lat="46.52968" lon="5.49562">
        <ele>503.8</ele>
        <time>2021-08-20T15:05:19Z</time>
      </trkpt>
      <trkpt lat="46.52963" lon="5.49557">
        <ele>504</ele>
        <time>2021-08-20T15:05:20Z</time>
      </trkpt>
      <trkpt lat="46.52942" lon="5.49536">
        <ele>504.8</ele>
        <time>2021-08-20T15:05:24Z</time>
      </trkpt>
      <trkpt lat="46.52921" lon="5.49513">
        <ele>506</ele>
        <time>2021-08-20T15:05:28Z</time>
      </trkpt>
      <trkpt lat="46.52881" lon="5.49457">
        <ele>506.8</ele>
        <time>2021-08-20T15:05:36Z</time>
      </trkpt>
      <trkpt lat="46.52842" lon="5.49398">
        <ele>506.8</ele>
        <time>2021-08-20T15:05:44Z</time>
      </trkpt>
      <trkpt lat="46.52837" lon="5.49391">
        <ele>506.6</ele>
        <time>2021-08-20T15:05:45Z</time>
      </trkpt>
      <trkpt lat="46.52796" lon="5.4933">
        <ele>506.6</ele>
        <time>2021-08-20T15:05:53Z</time>
      </trkpt>
      <trkpt lat="46.52791" lon="5.49323">
        <ele>506.6</ele>
        <time>2021-08-20T15:05:54Z</time>
      </trkpt>
      <trkpt lat="46.5275" lon="5.49262">
        <ele>506.4</ele>
        <time>2021-08-20T15:06:02Z</time>
      </trkpt>
      <trkpt lat="46.52745" lon="5.49255">
        <ele>506.4</ele>
        <time>2021-08-20T15:06:03Z</time>
      </trkpt>
      <trkpt lat="46.52731" lon="5.49232">
        <ele>507</ele>
        <time>2021-08-20T15:06:06Z</time>
      </trkpt>
      <trkpt lat="46.52707" lon="5.49198">
        <ele>508</ele>
        <time>2021-08-20T15:06:11Z</time>
      </trkpt>
      <trkpt lat="46.52703" lon="5.49192">
        <ele>508.2</ele>
        <time>2021-08-20T15:06:12Z</time>
      </trkpt>
      <trkpt lat="46.52674" lon="5.49148">
        <ele>509</ele>
        <time>2021-08-20T15:06:19Z</time>
      </trkpt>
      <trkpt lat="46.5267" lon="5.49142">
        <ele>509.2</ele>
        <time>2021-08-20T15:06:20Z</time>
      </trkpt>
      <trkpt lat="46.52654" lon="5.49118">
        <ele>510.4</ele>
        <time>2021-08-20T15:06:24Z</time>
      </trkpt>
      <trkpt lat="46.52639" lon="5.49096">
        <ele>510.8</ele>
        <time>2021-08-20T15:06:28Z</time>
      </trkpt>
      <trkpt lat="46.52624" lon="5.49073">
        <ele>511.6</ele>
        <time>2021-08-20T15:06:32Z</time>
      </trkpt>
      <trkpt lat="46.52607" lon="5.49043">
        <ele>512.4</ele>
        <time>2021-08-20T15:06:37Z</time>
      </trkpt>
      <trkpt lat="46.52601" lon="5.49029">
        <ele>512.6</ele>
        <time>2021-08-20T15:06:39Z</time>
      </trkpt>
      <trkpt lat="46.52599" lon="5.49021">
        <ele>512.8</ele>
        <time>2021-08-20T15:06:40Z</time>
      </trkpt>
      <trkpt lat="46.52595" lon="5.49004">
        <ele>513</ele>
        <time>2021-08-20T15:06:42Z</time>
      </trkpt>
      <trkpt lat="46.52581" lon="5.48932">
        <ele>513.4</ele>
        <time>2021-08-20T15:06:50Z</time>
      </trkpt>
      <trkpt lat="46.52569" lon="5.48861">
        <ele>512.8</ele>
        <time>2021-08-20T15:06:57Z</time>
      </trkpt>
      <trkpt lat="46.52567" lon="5.4884">
        <ele>512.6</ele>
        <time>2021-08-20T15:06:59Z</time>
      </trkpt>
      <trkpt lat="46.52568" lon="5.48818">
        <ele>512.4</ele>
        <time>2021-08-20T15:07:01Z</time>
      </trkpt>
      <trkpt lat="46.5258" lon="5.48746">
        <ele>512</ele>
        <time>2021-08-20T15:07:08Z</time>
      </trkpt>
      <trkpt lat="46.52597" lon="5.48669">
        <ele>512.2</ele>
        <time>2021-08-20T15:07:15Z</time>
      </trkpt>
      <trkpt lat="46.52608" lon="5.48604">
        <ele>512</ele>
        <time>2021-08-20T15:07:21Z</time>
      </trkpt>
      <trkpt lat="46.52613" lon="5.48582">
        <ele>511.6</ele>
        <time>2021-08-20T15:07:23Z</time>
      </trkpt>
      <trkpt lat="46.52623" lon="5.48563">
        <ele>511.4</ele>
        <time>2021-08-20T15:07:25Z</time>
      </trkpt>
      <trkpt lat="46.52641" lon="5.4854">
        <ele>511.2</ele>
        <time>2021-08-20T15:07:28Z</time>
      </trkpt>
      <trkpt lat="46.52645" lon="5.48531">
        <ele>511</ele>
        <time>2021-08-20T15:07:29Z</time>
      </trkpt>
      <trkpt lat="46.52648" lon="5.4852">
        <ele>511</ele>
        <time>2021-08-20T15:07:30Z</time>
      </trkpt>
      <trkpt lat="46.52649" lon="5.48509">
        <ele>510.6</ele>
        <time>2021-08-20T15:07:32Z</time>
      </trkpt>
      <trkpt lat="46.52644" lon="5.48486">
        <ele>510.6</ele>
        <time>2021-08-20T15:07:33Z</time>
      </trkpt>
      <trkpt lat="46.5264" lon="5.48475">
        <ele>510.4</ele>
        <time>2021-08-20T15:07:34Z</time>
      </trkpt>
      <trkpt lat="46.52631" lon="5.48456">
        <ele>509.4</ele>
        <time>2021-08-20T15:07:37Z</time>
      </trkpt>
      <trkpt lat="46.52621" lon="5.4843">
        <ele>509.2</ele>
        <time>2021-08-20T15:07:38Z</time>
      </trkpt>
      <trkpt lat="46.52615" lon="5.48389">
        <ele>508.2</ele>
        <time>2021-08-20T15:07:41Z</time>
      </trkpt>
      <trkpt lat="46.52615" lon="5.48389">
        <ele>507</ele>
        <time>2021-08-20T15:07:42Z</time>
      </trkpt>
      <trkpt lat="46.5261" lon="5.48343">
        <ele>505.8</ele>
        <time>2021-08-20T15:07:44Z</time>
      </trkpt>
      <trkpt lat="46.52605" lon="5.48315">
        <ele>504.6</ele>
        <time>2021-08-20T15:07:46Z</time>
      </trkpt>
      <trkpt lat="46.52597" lon="5.48288">
        <ele>503.6</ele>
        <time>2021-08-20T15:07:48Z</time>
      </trkpt>
      <trkpt lat="46.52592" lon="5.48276">
        <ele>503</ele>
        <time>2021-08-20T15:07:49Z</time>
      </trkpt>
      <trkpt lat="46.52587" lon="5.48264">
        <ele>502.6</ele>
        <time>2021-08-20T15:07:50Z</time>
      </trkpt>
      <trkpt lat="46.5258" lon="5.48254">
        <ele>501.8</ele>
        <time>2021-08-20T15:07:52Z</time>
      </trkpt>
      <trkpt lat="46.52564" lon="5.48236">
        <ele>501.2</ele>
        <time>2021-08-20T15:07:53Z</time>
      </trkpt>
      <trkpt lat="46.52546" lon="5.48222">
        <ele>500.2</ele>
        <time>2021-08-20T15:07:55Z</time>
      </trkpt>
      <trkpt lat="46.52528" lon="5.48208">
        <ele>498.6</ele>
        <time>2021-08-20T15:07:57Z</time>
      </trkpt>
      <trkpt lat="46.52518" lon="5.48202">
        <ele>498.2</ele>
        <time>2021-08-20T15:07:58Z</time>
      </trkpt>
      <trkpt lat="46.52499" lon="5.48191">
        <ele>497</ele>
        <time>2021-08-20T15:08:00Z</time>
      </trkpt>
      <trkpt lat="46.52469" lon="5.48178">
        <ele>495.2</ele>
        <time>2021-08-20T15:08:03Z</time>
      </trkpt>
      <trkpt lat="46.5245" lon="5.48172">
        <ele>494.2</ele>
        <time>2021-08-20T15:08:05Z</time>
      </trkpt>
      <trkpt lat="46.52439" lon="5.4817">
        <ele>493.2</ele>
        <time>2021-08-20T15:08:07Z</time>
      </trkpt>
      <trkpt lat="46.52406" lon="5.48166">
        <ele>492</ele>
        <time>2021-08-20T15:08:09Z</time>
      </trkpt>
      <trkpt lat="46.52385" lon="5.48168">
        <ele>491.2</ele>
        <time>2021-08-20T15:08:11Z</time>
      </trkpt>
      <trkpt lat="46.52385" lon="5.48168">
        <ele>490.6</ele>
        <time>2021-08-20T15:08:12Z</time>
      </trkpt>
      <trkpt lat="46.5236" lon="5.48169">
        <ele>490</ele>
        <time>2021-08-20T15:08:14Z</time>
      </trkpt>
      <trkpt lat="46.52356" lon="5.48163">
        <ele>489.8</ele>
        <time>2021-08-20T15:08:15Z</time>
      </trkpt>
      <trkpt lat="46.52355" lon="5.48157">
        <ele>489.2</ele>
        <time>2021-08-20T15:08:16Z</time>
      </trkpt>
      <trkpt lat="46.52357" lon="5.48153">
        <ele>488.8</ele>
        <time>2021-08-20T15:08:17Z</time>
      </trkpt>
      <trkpt lat="46.52373" lon="5.48148">
        <ele>488.2</ele>
        <time>2021-08-20T15:08:19Z</time>
      </trkpt>
      <trkpt lat="46.52391" lon="5.48145">
        <ele>486.8</ele>
        <time>2021-08-20T15:08:22Z</time>
      </trkpt>
      <trkpt lat="46.52413" lon="5.48138">
        <ele>486</ele>
        <time>2021-08-20T15:08:23Z</time>
      </trkpt>
      <trkpt lat="46.52422" lon="5.48135">
        <ele>484.8</ele>
        <time>2021-08-20T15:08:24Z</time>
      </trkpt>
      <trkpt lat="46.5244" lon="5.48129">
        <ele>483.6</ele>
        <time>2021-08-20T15:08:26Z</time>
      </trkpt>
      <trkpt lat="46.52463" lon="5.48123">
        <ele>481.8</ele>
        <time>2021-08-20T15:08:28Z</time>
      </trkpt>
      <trkpt lat="46.52473" lon="5.4812">
        <ele>481.4</ele>
        <time>2021-08-20T15:08:29Z</time>
      </trkpt>
      <trkpt lat="46.52491" lon="5.48114">
        <ele>480.6</ele>
        <time>2021-08-20T15:08:31Z</time>
      </trkpt>
      <trkpt lat="46.52511" lon="5.48109">
        <ele>479.2</ele>
        <time>2021-08-20T15:08:33Z</time>
      </trkpt>
      <trkpt lat="46.52532" lon="5.48105">
        <ele>478</ele>
        <time>2021-08-20T15:08:35Z</time>
      </trkpt>
      <trkpt lat="46.52543" lon="5.48105">
        <ele>477.4</ele>
        <time>2021-08-20T15:08:36Z</time>
      </trkpt>
      <trkpt lat="46.52543" lon="5.48105">
        <ele>476.4</ele>
        <time>2021-08-20T15:08:37Z</time>
      </trkpt>
      <trkpt lat="46.52586" lon="5.4811">
        <ele>475.4</ele>
        <time>2021-08-20T15:08:40Z</time>
      </trkpt>
      <trkpt lat="46.52597" lon="5.48112">
        <ele>474.6</ele>
        <time>2021-08-20T15:08:42Z</time>
      </trkpt>
      <trkpt lat="46.52619" lon="5.48117">
        <ele>474.4</ele>
        <time>2021-08-20T15:08:43Z</time>
      </trkpt>
      <trkpt lat="46.52642" lon="5.48123">
        <ele>471.6</ele>
        <time>2021-08-20T15:08:45Z</time>
      </trkpt>
      <trkpt lat="46.52666" lon="5.48128">
        <ele>470.6</ele>
        <time>2021-08-20T15:08:47Z</time>
      </trkpt>
      <trkpt lat="46.52678" lon="5.4813">
        <ele>470</ele>
        <time>2021-08-20T15:08:48Z</time>
      </trkpt>
      <trkpt lat="46.5269" lon="5.48133">
        <ele>469.4</ele>
        <time>2021-08-20T15:08:49Z</time>
      </trkpt>
      <trkpt lat="46.52713" lon="5.48137">
        <ele>467.4</ele>
        <time>2021-08-20T15:08:51Z</time>
      </trkpt>
      <trkpt lat="46.52735" lon="5.48141">
        <ele>466.2</ele>
        <time>2021-08-20T15:08:53Z</time>
      </trkpt>
      <trkpt lat="46.52756" lon="5.48145">
        <ele>465.2</ele>
        <time>2021-08-20T15:08:55Z</time>
      </trkpt>
      <trkpt lat="46.52765" lon="5.48146">
        <ele>465</ele>
        <time>2021-08-20T15:08:56Z</time>
      </trkpt>
      <trkpt lat="46.52793" lon="5.48149">
        <ele>464.6</ele>
        <time>2021-08-20T15:08:59Z</time>
      </trkpt>
      <trkpt lat="46.528" lon="5.48148">
        <ele>464.4</ele>
        <time>2021-08-20T15:09:00Z</time>
      </trkpt>
      <trkpt lat="46.52809" lon="5.48143">
        <ele>464.2</ele>
        <time>2021-08-20T15:09:01Z</time>
      </trkpt>
      <trkpt lat="46.52818" lon="5.48134">
        <ele>464.2</ele>
        <time>2021-08-20T15:09:02Z</time>
      </trkpt>
      <trkpt lat="46.52824" lon="5.48123">
        <ele>464</ele>
        <time>2021-08-20T15:09:03Z</time>
      </trkpt>
      <trkpt lat="46.52835" lon="5.48099">
        <ele>463.8</ele>
        <time>2021-08-20T15:09:05Z</time>
      </trkpt>
      <trkpt lat="46.52852" lon="5.48046">
        <ele>462.2</ele>
        <time>2021-08-20T15:09:09Z</time>
      </trkpt>
      <trkpt lat="46.52856" lon="5.48033">
        <ele>461.2</ele>
        <time>2021-08-20T15:09:10Z</time>
      </trkpt>
      <trkpt lat="46.52862" lon="5.48008">
        <ele>460.2</ele>
        <time>2021-08-20T15:09:12Z</time>
      </trkpt>
      <trkpt lat="46.52865" lon="5.47998">
        <ele>459.6</ele>
        <time>2021-08-20T15:09:13Z</time>
      </trkpt>
      <trkpt lat="46.5287" lon="5.47981">
        <ele>459.2</ele>
        <time>2021-08-20T15:09:15Z</time>
      </trkpt>
      <trkpt lat="46.52873" lon="5.47966">
        <ele>459</ele>
        <time>2021-08-20T15:09:17Z</time>
      </trkpt>
      <trkpt lat="46.52878" lon="5.47949">
        <ele>457.8</ele>
        <time>2021-08-20T15:09:20Z</time>
      </trkpt>
      <trkpt lat="46.52878" lon="5.47945">
        <ele>457.6</ele>
        <time>2021-08-20T15:09:21Z</time>
      </trkpt>
      <trkpt lat="46.52869" lon="5.47935">
        <ele>457.4</ele>
        <time>2021-08-20T15:09:25Z</time>
      </trkpt>
      <trkpt lat="46.52847" lon="5.47927">
        <ele>457.2</ele>
        <time>2021-08-20T15:09:29Z</time>
      </trkpt>
      <trkpt lat="46.52814" lon="5.47915">
        <ele>457</ele>
        <time>2021-08-20T15:09:34Z</time>
      </trkpt>
      <trkpt lat="46.528" lon="5.4791">
        <ele>457</ele>
        <time>2021-08-20T15:09:36Z</time>
      </trkpt>
      <trkpt lat="46.52742" lon="5.4789">
        <ele>456.8</ele>
        <time>2021-08-20T15:09:44Z</time>
      </trkpt>
      <trkpt lat="46.52735" lon="5.47888">
        <ele>456.8</ele>
        <time>2021-08-20T15:09:45Z</time>
      </trkpt>
      <trkpt lat="46.52678" lon="5.47868">
        <ele>456.8</ele>
        <time>2021-08-20T15:09:53Z</time>
      </trkpt>
      <trkpt lat="46.52661" lon="5.47862">
        <ele>456.6</ele>
        <time>2021-08-20T15:09:55Z</time>
      </trkpt>
      <trkpt lat="46.52606" lon="5.47842">
        <ele>456</ele>
        <time>2021-08-20T15:10:02Z</time>
      </trkpt>
      <trkpt lat="46.52598" lon="5.47839">
        <ele>455.6</ele>
        <time>2021-08-20T15:10:03Z</time>
      </trkpt>
      <trkpt lat="46.5255" lon="5.47822">
        <ele>454.8</ele>
        <time>2021-08-20T15:10:09Z</time>
      </trkpt>
      <trkpt lat="46.52523" lon="5.47812">
        <ele>454.6</ele>
        <time>2021-08-20T15:10:12Z</time>
      </trkpt>
      <trkpt lat="46.52479" lon="5.47797">
        <ele>453.6</ele>
        <time>2021-08-20T15:10:17Z</time>
      </trkpt>
      <trkpt lat="46.52453" lon="5.47786">
        <ele>452.8</ele>
        <time>2021-08-20T15:10:20Z</time>
      </trkpt>
      <trkpt lat="46.52435" lon="5.47779">
        <ele>452.6</ele>
        <time>2021-08-20T15:10:22Z</time>
      </trkpt>
      <trkpt lat="46.52382" lon="5.47758">
        <ele>452.2</ele>
        <time>2021-08-20T15:10:28Z</time>
      </trkpt>
      <trkpt lat="46.52375" lon="5.47755">
        <ele>452.2</ele>
        <time>2021-08-20T15:10:29Z</time>
      </trkpt>
      <trkpt lat="46.52322" lon="5.4773">
        <ele>452</ele>
        <time>2021-08-20T15:10:35Z</time>
      </trkpt>
      <trkpt lat="46.52287" lon="5.47714">
        <ele>451.4</ele>
        <time>2021-08-20T15:10:39Z</time>
      </trkpt>
      <trkpt lat="46.52279" lon="5.4771">
        <ele>451.4</ele>
        <time>2021-08-20T15:10:40Z</time>
      </trkpt>
      <trkpt lat="46.52218" lon="5.47681">
        <ele>451</ele>
        <time>2021-08-20T15:10:47Z</time>
      </trkpt>
      <trkpt lat="46.52193" lon="5.47668">
        <ele>451</ele>
        <time>2021-08-20T15:10:50Z</time>
      </trkpt>
      <trkpt lat="46.52136" lon="5.47638">
        <ele>451.2</ele>
        <time>2021-08-20T15:10:57Z</time>
      </trkpt>
      <trkpt lat="46.52121" lon="5.4763">
        <ele>451.4</ele>
        <time>2021-08-20T15:10:59Z</time>
      </trkpt>
      <trkpt lat="46.52072" lon="5.47611">
        <ele>451.8</ele>
        <time>2021-08-20T15:11:05Z</time>
      </trkpt>
      <trkpt lat="46.52013" lon="5.47588">
        <ele>451.4</ele>
        <time>2021-08-20T15:11:12Z</time>
      </trkpt>
      <trkpt lat="46.51988" lon="5.47577">
        <ele>451</ele>
        <time>2021-08-20T15:11:15Z</time>
      </trkpt>
      <trkpt lat="46.51931" lon="5.47554">
        <ele>450.6</ele>
        <time>2021-08-20T15:11:22Z</time>
      </trkpt>
      <trkpt lat="46.51915" lon="5.47547">
        <ele>450.6</ele>
        <time>2021-08-20T15:11:24Z</time>
      </trkpt>
      <trkpt lat="46.51893" lon="5.47538">
        <ele>450.4</ele>
        <time>2021-08-20T15:11:27Z</time>
      </trkpt>
      <trkpt lat="46.51835" lon="5.47514">
        <ele>450.2</ele>
        <time>2021-08-20T15:11:34Z</time>
      </trkpt>
      <trkpt lat="46.51828" lon="5.47511">
        <ele>450.2</ele>
        <time>2021-08-20T15:11:35Z</time>
      </trkpt>
      <trkpt lat="46.51773" lon="5.47489">
        <ele>450</ele>
        <time>2021-08-20T15:11:42Z</time>
      </trkpt>
      <trkpt lat="46.51763" lon="5.47485">
        <ele>450</ele>
        <time>2021-08-20T15:11:43Z</time>
      </trkpt>
      <trkpt lat="46.51706" lon="5.47462">
        <ele>449.4</ele>
        <time>2021-08-20T15:11:50Z</time>
      </trkpt>
      <trkpt lat="46.51697" lon="5.47458">
        <ele>449.4</ele>
        <time>2021-08-20T15:11:51Z</time>
      </trkpt>
      <trkpt lat="46.51672" lon="5.4745">
        <ele>449.4</ele>
        <time>2021-08-20T15:11:54Z</time>
      </trkpt>
      <trkpt lat="46.51614" lon="5.47427">
        <ele>449.2</ele>
        <time>2021-08-20T15:12:01Z</time>
      </trkpt>
      <trkpt lat="46.51555" lon="5.47403">
        <ele>448.8</ele>
        <time>2021-08-20T15:12:08Z</time>
      </trkpt>
      <trkpt lat="46.51538" lon="5.47396">
        <ele>448.6</ele>
        <time>2021-08-20T15:12:10Z</time>
      </trkpt>
      <trkpt lat="46.51522" lon="5.47389">
        <ele>448.4</ele>
        <time>2021-08-20T15:12:12Z</time>
      </trkpt>
      <trkpt lat="46.51489" lon="5.47376">
        <ele>448</ele>
        <time>2021-08-20T15:12:16Z</time>
      </trkpt>
      <trkpt lat="46.51441" lon="5.47355">
        <ele>447.6</ele>
        <time>2021-08-20T15:12:22Z</time>
      </trkpt>
      <trkpt lat="46.51434" lon="5.47351">
        <ele>447.6</ele>
        <time>2021-08-20T15:12:23Z</time>
      </trkpt>
      <trkpt lat="46.51419" lon="5.47343">
        <ele>447.6</ele>
        <time>2021-08-20T15:12:25Z</time>
      </trkpt>
      <trkpt lat="46.5141" lon="5.4734">
        <ele>447.8</ele>
        <time>2021-08-20T15:12:26Z</time>
      </trkpt>
      <trkpt lat="46.51354" lon="5.47317">
        <ele>447.8</ele>
        <time>2021-08-20T15:12:33Z</time>
      </trkpt>
      <trkpt lat="46.51299" lon="5.47295">
        <ele>447.6</ele>
        <time>2021-08-20T15:12:40Z</time>
      </trkpt>
      <trkpt lat="46.51243" lon="5.47273">
        <ele>447.6</ele>
        <time>2021-08-20T15:12:47Z</time>
      </trkpt>
      <trkpt lat="46.51235" lon="5.4727">
        <ele>447.6</ele>
        <time>2021-08-20T15:12:48Z</time>
      </trkpt>
      <trkpt lat="46.51181" lon="5.47249">
        <ele>447.8</ele>
        <time>2021-08-20T15:12:55Z</time>
      </trkpt>
      <trkpt lat="46.51166" lon="5.47242">
        <ele>447.8</ele>
        <time>2021-08-20T15:12:57Z</time>
      </trkpt>
      <trkpt lat="46.51149" lon="5.47235">
        <ele>447.8</ele>
        <time>2021-08-20T15:12:59Z</time>
      </trkpt>
      <trkpt lat="46.51136" lon="5.47228">
        <ele>447.6</ele>
        <time>2021-08-20T15:13:01Z</time>
      </trkpt>
      <trkpt lat="46.51127" lon="5.47225">
        <ele>447.6</ele>
        <time>2021-08-20T15:13:02Z</time>
      </trkpt>
      <trkpt lat="46.5108" lon="5.47208">
        <ele>447.4</ele>
        <time>2021-08-20T15:13:08Z</time>
      </trkpt>
      <trkpt lat="46.51064" lon="5.47204">
        <ele>447.2</ele>
        <time>2021-08-20T15:13:10Z</time>
      </trkpt>
      <trkpt lat="46.51057" lon="5.47202">
        <ele>447.2</ele>
        <time>2021-08-20T15:13:11Z</time>
      </trkpt>
      <trkpt lat="46.51024" lon="5.47189">
        <ele>447</ele>
        <time>2021-08-20T15:13:15Z</time>
      </trkpt>
      <trkpt lat="46.5101" lon="5.47183">
        <ele>446.8</ele>
        <time>2021-08-20T15:13:17Z</time>
      </trkpt>
      <trkpt lat="46.50985" lon="5.4717">
        <ele>446.6</ele>
        <time>2021-08-20T15:13:20Z</time>
      </trkpt>
      <trkpt lat="46.50938" lon="5.47149">
        <ele>446.8</ele>
        <time>2021-08-20T15:13:26Z</time>
      </trkpt>
      <trkpt lat="46.50892" lon="5.47131">
        <ele>447</ele>
        <time>2021-08-20T15:13:32Z</time>
      </trkpt>
      <trkpt lat="46.50835" lon="5.47107">
        <ele>447.4</ele>
        <time>2021-08-20T15:13:39Z</time>
      </trkpt>
      <trkpt lat="46.50805" lon="5.47096">
        <ele>447.8</ele>
        <time>2021-08-20T15:13:43Z</time>
      </trkpt>
      <trkpt lat="46.50755" lon="5.47076">
        <ele>447.6</ele>
        <time>2021-08-20T15:13:49Z</time>
      </trkpt>
      <trkpt lat="46.50738" lon="5.4707">
        <ele>447.4</ele>
        <time>2021-08-20T15:13:51Z</time>
      </trkpt>
      <trkpt lat="46.50682" lon="5.47049">
        <ele>446.4</ele>
        <time>2021-08-20T15:13:58Z</time>
      </trkpt>
      <trkpt lat="46.50672" lon="5.47045">
        <ele>446.2</ele>
        <time>2021-08-20T15:13:59Z</time>
      </trkpt>
      <trkpt lat="46.50612" lon="5.47026">
        <ele>445.8</ele>
        <time>2021-08-20T15:14:06Z</time>
      </trkpt>
      <trkpt lat="46.50597" lon="5.47021">
        <ele>445.6</ele>
        <time>2021-08-20T15:14:08Z</time>
      </trkpt>
      <trkpt lat="46.50555" lon="5.47009">
        <ele>445.2</ele>
        <time>2021-08-20T15:14:13Z</time>
      </trkpt>
      <trkpt lat="46.50516" lon="5.46995">
        <ele>445</ele>
        <time>2021-08-20T15:14:18Z</time>
      </trkpt>
      <trkpt lat="46.5046" lon="5.46978">
        <ele>444.6</ele>
        <time>2021-08-20T15:14:25Z</time>
      </trkpt>
      <trkpt lat="46.50453" lon="5.46975">
        <ele>444.8</ele>
        <time>2021-08-20T15:14:26Z</time>
      </trkpt>
      <trkpt lat="46.50419" lon="5.46967">
        <ele>445.4</ele>
        <time>2021-08-20T15:14:31Z</time>
      </trkpt>
      <trkpt lat="46.50392" lon="5.46964">
        <ele>446.2</ele>
        <time>2021-08-20T15:14:35Z</time>
      </trkpt>
      <trkpt lat="46.5037" lon="5.46963">
        <ele>446.6</ele>
        <time>2021-08-20T15:14:38Z</time>
      </trkpt>
      <trkpt lat="46.50317" lon="5.46966">
        <ele>447.4</ele>
        <time>2021-08-20T15:14:46Z</time>
      </trkpt>
      <trkpt lat="46.50302" lon="5.46966">
        <ele>447.8</ele>
        <time>2021-08-20T15:14:48Z</time>
      </trkpt>
      <trkpt lat="46.50275" lon="5.46969">
        <ele>448.4</ele>
        <time>2021-08-20T15:14:52Z</time>
      </trkpt>
      <trkpt lat="46.50238" lon="5.46971">
        <ele>448.8</ele>
        <time>2021-08-20T15:14:57Z</time>
      </trkpt>
      <trkpt lat="46.50178" lon="5.46987">
        <ele>449</ele>
        <time>2021-08-20T15:15:05Z</time>
      </trkpt>
      <trkpt lat="46.50123" lon="5.47009">
        <ele>448.6</ele>
        <time>2021-08-20T15:15:12Z</time>
      </trkpt>
      <trkpt lat="46.50114" lon="5.47012">
        <ele>448.4</ele>
        <time>2021-08-20T15:15:13Z</time>
      </trkpt>
      <trkpt lat="46.50058" lon="5.47027">
        <ele>448.4</ele>
        <time>2021-08-20T15:15:20Z</time>
      </trkpt>
      <trkpt lat="46.50051" lon="5.47028">
        <ele>448.4</ele>
        <time>2021-08-20T15:15:21Z</time>
      </trkpt>
      <trkpt lat="46.50004" lon="5.47026">
        <ele>447.6</ele>
        <time>2021-08-20T15:15:27Z</time>
      </trkpt>
      <trkpt lat="46.4998" lon="5.47021">
        <ele>447.2</ele>
        <time>2021-08-20T15:15:30Z</time>
      </trkpt>
      <trkpt lat="46.4995" lon="5.47012">
        <ele>446.4</ele>
        <time>2021-08-20T15:15:34Z</time>
      </trkpt>
      <trkpt lat="46.49935" lon="5.47008">
        <ele>446</ele>
        <time>2021-08-20T15:15:36Z</time>
      </trkpt>
      <trkpt lat="46.49898" lon="5.46998">
        <ele>445.8</ele>
        <time>2021-08-20T15:15:41Z</time>
      </trkpt>
      <trkpt lat="46.49841" lon="5.46987">
        <ele>445.4</ele>
        <time>2021-08-20T15:15:48Z</time>
      </trkpt>
      <trkpt lat="46.49816" lon="5.46982">
        <ele>445</ele>
        <time>2021-08-20T15:15:51Z</time>
      </trkpt>
      <trkpt lat="46.49769" lon="5.46973">
        <ele>444.2</ele>
        <time>2021-08-20T15:15:57Z</time>
      </trkpt>
      <trkpt lat="46.4975" lon="5.4697">
        <ele>444</ele>
        <time>2021-08-20T15:15:59Z</time>
      </trkpt>
      <trkpt lat="46.497" lon="5.46961">
        <ele>443.6</ele>
        <time>2021-08-20T15:16:05Z</time>
      </trkpt>
      <trkpt lat="46.49664" lon="5.46955">
        <ele>442.8</ele>
        <time>2021-08-20T15:16:09Z</time>
      </trkpt>
      <trkpt lat="46.49646" lon="5.46951">
        <ele>442.4</ele>
        <time>2021-08-20T15:16:11Z</time>
      </trkpt>
      <trkpt lat="46.49628" lon="5.46946">
        <ele>441.8</ele>
        <time>2021-08-20T15:16:13Z</time>
      </trkpt>
      <trkpt lat="46.49585" lon="5.46933">
        <ele>440.8</ele>
        <time>2021-08-20T15:16:18Z</time>
      </trkpt>
      <trkpt lat="46.49576" lon="5.4693">
        <ele>440.6</ele>
        <time>2021-08-20T15:16:19Z</time>
      </trkpt>
      <trkpt lat="46.49532" lon="5.46911">
        <ele>439.6</ele>
        <time>2021-08-20T15:16:24Z</time>
      </trkpt>
      <trkpt lat="46.49513" lon="5.46901">
        <ele>439.4</ele>
        <time>2021-08-20T15:16:26Z</time>
      </trkpt>
      <trkpt lat="46.49489" lon="5.46889">
        <ele>438.4</ele>
        <time>2021-08-20T15:16:29Z</time>
      </trkpt>
      <trkpt lat="46.49443" lon="5.46866">
        <ele>437.2</ele>
        <time>2021-08-20T15:16:34Z</time>
      </trkpt>
      <trkpt lat="46.49434" lon="5.46861">
        <ele>437</ele>
        <time>2021-08-20T15:16:35Z</time>
      </trkpt>
      <trkpt lat="46.49404" lon="5.46846">
        <ele>436</ele>
        <time>2021-08-20T15:16:38Z</time>
      </trkpt>
      <trkpt lat="46.49367" lon="5.46827">
        <ele>435.4</ele>
        <time>2021-08-20T15:16:42Z</time>
      </trkpt>
      <trkpt lat="46.49338" lon="5.46811">
        <ele>434.6</ele>
        <time>2021-08-20T15:16:45Z</time>
      </trkpt>
      <trkpt lat="46.49309" lon="5.46794">
        <ele>433.4</ele>
        <time>2021-08-20T15:16:48Z</time>
      </trkpt>
      <trkpt lat="46.49302" lon="5.46789">
        <ele>433.2</ele>
        <time>2021-08-20T15:16:49Z</time>
      </trkpt>
      <trkpt lat="46.49271" lon="5.46771">
        <ele>431.8</ele>
        <time>2021-08-20T15:16:52Z</time>
      </trkpt>
      <trkpt lat="46.49262" lon="5.46766">
        <ele>430</ele>
        <time>2021-08-20T15:16:53Z</time>
      </trkpt>
      <trkpt lat="46.49245" lon="5.46757">
        <ele>428.6</ele>
        <time>2021-08-20T15:16:55Z</time>
      </trkpt>
      <trkpt lat="46.49223" lon="5.46747">
        <ele>427.2</ele>
        <time>2021-08-20T15:16:57Z</time>
      </trkpt>
      <trkpt lat="46.49182" lon="5.46743">
        <ele>426.2</ele>
        <time>2021-08-20T15:17:01Z</time>
      </trkpt>
      <trkpt lat="46.4917" lon="5.46745">
        <ele>425</ele>
        <time>2021-08-20T15:17:02Z</time>
      </trkpt>
      <trkpt lat="46.4916" lon="5.46749">
        <ele>424.6</ele>
        <time>2021-08-20T15:17:03Z</time>
      </trkpt>
      <trkpt lat="46.49149" lon="5.46754">
        <ele>424</ele>
        <time>2021-08-20T15:17:04Z</time>
      </trkpt>
      <trkpt lat="46.49141" lon="5.4676">
        <ele>423.8</ele>
        <time>2021-08-20T15:17:05Z</time>
      </trkpt>
      <trkpt lat="46.49122" lon="5.46777">
        <ele>422.6</ele>
        <time>2021-08-20T15:17:07Z</time>
      </trkpt>
      <trkpt lat="46.491" lon="5.46794">
        <ele>421.6</ele>
        <time>2021-08-20T15:17:09Z</time>
      </trkpt>
      <trkpt lat="46.49092" lon="5.46801">
        <ele>421.2</ele>
        <time>2021-08-20T15:17:10Z</time>
      </trkpt>
      <trkpt lat="46.49059" lon="5.4683">
        <ele>420.2</ele>
        <time>2021-08-20T15:17:13Z</time>
      </trkpt>
      <trkpt lat="46.49049" lon="5.4684">
        <ele>419.6</ele>
        <time>2021-08-20T15:17:14Z</time>
      </trkpt>
      <trkpt lat="46.49027" lon="5.46858">
        <ele>418.6</ele>
        <time>2021-08-20T15:17:16Z</time>
      </trkpt>
      <trkpt lat="46.49008" lon="5.46875">
        <ele>417</ele>
        <time>2021-08-20T15:17:18Z</time>
      </trkpt>
      <trkpt lat="46.48983" lon="5.46897">
        <ele>416.2</ele>
        <time>2021-08-20T15:17:20Z</time>
      </trkpt>
      <trkpt lat="46.48983" lon="5.46897">
        <ele>415.6</ele>
        <time>2021-08-20T15:17:21Z</time>
      </trkpt>
      <trkpt lat="46.48962" lon="5.46911">
        <ele>415.4</ele>
        <time>2021-08-20T15:17:22Z</time>
      </trkpt>
      <trkpt lat="46.48947" lon="5.46918">
        <ele>414.4</ele>
        <time>2021-08-20T15:17:23Z</time>
      </trkpt>
      <trkpt lat="46.48933" lon="5.4692">
        <ele>413.8</ele>
        <time>2021-08-20T15:17:24Z</time>
      </trkpt>
      <trkpt lat="46.4892" lon="5.46921">
        <ele>413</ele>
        <time>2021-08-20T15:17:25Z</time>
      </trkpt>
      <trkpt lat="46.48907" lon="5.4692">
        <ele>412.4</ele>
        <time>2021-08-20T15:17:26Z</time>
      </trkpt>
      <trkpt lat="46.48896" lon="5.46917">
        <ele>411.4</ele>
        <time>2021-08-20T15:17:27Z</time>
      </trkpt>
      <trkpt lat="46.4888" lon="5.46914">
        <ele>410.2</ele>
        <time>2021-08-20T15:17:28Z</time>
      </trkpt>
      <trkpt lat="46.48855" lon="5.46906">
        <ele>408.8</ele>
        <time>2021-08-20T15:17:30Z</time>
      </trkpt>
      <trkpt lat="46.48832" lon="5.46895">
        <ele>407.4</ele>
        <time>2021-08-20T15:17:32Z</time>
      </trkpt>
      <trkpt lat="46.48805" lon="5.4688">
        <ele>406</ele>
        <time>2021-08-20T15:17:34Z</time>
      </trkpt>
      <trkpt lat="46.48784" lon="5.46867">
        <ele>405</ele>
        <time>2021-08-20T15:17:36Z</time>
      </trkpt>
      <trkpt lat="46.48759" lon="5.46851">
        <ele>403.6</ele>
        <time>2021-08-20T15:17:38Z</time>
      </trkpt>
      <trkpt lat="46.48726" lon="5.46831">
        <ele>402</ele>
        <time>2021-08-20T15:17:41Z</time>
      </trkpt>
      <trkpt lat="46.48703" lon="5.46818">
        <ele>400.6</ele>
        <time>2021-08-20T15:17:43Z</time>
      </trkpt>
      <trkpt lat="46.4869" lon="5.4681">
        <ele>399.4</ele>
        <time>2021-08-20T15:17:44Z</time>
      </trkpt>
      <trkpt lat="46.4867" lon="5.46798">
        <ele>398.4</ele>
        <time>2021-08-20T15:17:46Z</time>
      </trkpt>
      <trkpt lat="46.48648" lon="5.46784">
        <ele>397.2</ele>
        <time>2021-08-20T15:17:48Z</time>
      </trkpt>
      <trkpt lat="46.48624" lon="5.4677">
        <ele>396</ele>
        <time>2021-08-20T15:17:50Z</time>
      </trkpt>
      <trkpt lat="46.48616" lon="5.46765">
        <ele>395</ele>
        <time>2021-08-20T15:17:51Z</time>
      </trkpt>
      <trkpt lat="46.48595" lon="5.46753">
        <ele>393.8</ele>
        <time>2021-08-20T15:17:53Z</time>
      </trkpt>
      <trkpt lat="46.48545" lon="5.46723">
        <ele>392.8</ele>
        <time>2021-08-20T15:17:58Z</time>
      </trkpt>
      <trkpt lat="46.48507" lon="5.46699">
        <ele>391.4</ele>
        <time>2021-08-20T15:18:02Z</time>
      </trkpt>
      <trkpt lat="46.48477" lon="5.46681">
        <ele>391</ele>
        <time>2021-08-20T15:18:05Z</time>
      </trkpt>
      <trkpt lat="46.48441" lon="5.46659">
        <ele>390.4</ele>
        <time>2021-08-20T15:18:09Z</time>
      </trkpt>
      <trkpt lat="46.4842" lon="5.46646">
        <ele>390.2</ele>
        <time>2021-08-20T15:18:11Z</time>
      </trkpt>
      <trkpt lat="46.48369" lon="5.46615">
        <ele>390</ele>
        <time>2021-08-20T15:18:17Z</time>
      </trkpt>
      <trkpt lat="46.48362" lon="5.4661">
        <ele>390</ele>
        <time>2021-08-20T15:18:18Z</time>
      </trkpt>
      <trkpt lat="46.48354" lon="5.46591">
        <ele>390</ele>
        <time>2021-08-20T15:18:20Z</time>
      </trkpt>
      <trkpt lat="46.48358" lon="5.46571">
        <ele>389.8</ele>
        <time>2021-08-20T15:18:22Z</time>
      </trkpt>
      <trkpt lat="46.48362" lon="5.46563">
        <ele>389.8</ele>
        <time>2021-08-20T15:18:23Z</time>
      </trkpt>
      <trkpt lat="46.48385" lon="5.46503">
        <ele>389.6</ele>
        <time>2021-08-20T15:18:29Z</time>
      </trkpt>
      <trkpt lat="46.48388" lon="5.46478">
        <ele>389.6</ele>
        <time>2021-08-20T15:18:31Z</time>
      </trkpt>
      <trkpt lat="46.48389" lon="5.46466">
        <ele>389.6</ele>
        <time>2021-08-20T15:18:32Z</time>
      </trkpt>
      <trkpt lat="46.4839" lon="5.46434">
        <ele>389.4</ele>
        <time>2021-08-20T15:18:35Z</time>
      </trkpt>
      <trkpt lat="46.48394" lon="5.46409">
        <ele>389.4</ele>
        <time>2021-08-20T15:18:37Z</time>
      </trkpt>
      <trkpt lat="46.48415" lon="5.46353">
        <ele>389.6</ele>
        <time>2021-08-20T15:18:43Z</time>
      </trkpt>
      <trkpt lat="46.48439" lon="5.46303">
        <ele>389.8</ele>
        <time>2021-08-20T15:18:49Z</time>
      </trkpt>
      <trkpt lat="46.48446" lon="5.46285">
        <ele>390.2</ele>
        <time>2021-08-20T15:18:51Z</time>
      </trkpt>
      <trkpt lat="46.48447" lon="5.46268">
        <ele>390.6</ele>
        <time>2021-08-20T15:18:53Z</time>
      </trkpt>
      <trkpt lat="46.48446" lon="5.46262">
        <ele>390.8</ele>
        <time>2021-08-20T15:18:54Z</time>
      </trkpt>
      <trkpt lat="46.48443" lon="5.46255">
        <ele>390.8</ele>
        <time>2021-08-20T15:18:55Z</time>
      </trkpt>
      <trkpt lat="46.4844" lon="5.46248">
        <ele>391.2</ele>
        <time>2021-08-20T15:18:56Z</time>
      </trkpt>
      <trkpt lat="46.48434" lon="5.46234">
        <ele>392</ele>
        <time>2021-08-20T15:18:58Z</time>
      </trkpt>
      <trkpt lat="46.48431" lon="5.46219">
        <ele>392.8</ele>
        <time>2021-08-20T15:19:01Z</time>
      </trkpt>
      <trkpt lat="46.48427" lon="5.46196">
        <ele>393.2</ele>
        <time>2021-08-20T15:19:03Z</time>
      </trkpt>
      <trkpt lat="46.48422" lon="5.46177">
        <ele>393.6</ele>
        <time>2021-08-20T15:19:06Z</time>
      </trkpt>
      <trkpt lat="46.48417" lon="5.46163">
        <ele>394.2</ele>
        <time>2021-08-20T15:19:08Z</time>
      </trkpt>
      <trkpt lat="46.48415" lon="5.46158">
        <ele>394.2</ele>
        <time>2021-08-20T15:19:09Z</time>
      </trkpt>
      <trkpt lat="46.48412" lon="5.46153">
        <ele>394.8</ele>
        <time>2021-08-20T15:19:10Z</time>
      </trkpt>
      <trkpt lat="46.48406" lon="5.4614">
        <ele>395.4</ele>
        <time>2021-08-20T15:19:12Z</time>
      </trkpt>
      <trkpt lat="46.484" lon="5.46129">
        <ele>395.8</ele>
        <time>2021-08-20T15:19:14Z</time>
      </trkpt>
      <trkpt lat="46.48387" lon="5.46104">
        <ele>396.4</ele>
        <time>2021-08-20T15:19:18Z</time>
      </trkpt>
      <trkpt lat="46.48379" lon="5.46087">
        <ele>396.6</ele>
        <time>2021-08-20T15:19:21Z</time>
      </trkpt>
      <trkpt lat="46.48347" lon="5.46025">
        <ele>397</ele>
        <time>2021-08-20T15:19:30Z</time>
      </trkpt>
      <trkpt lat="46.48312" lon="5.45967">
        <ele>396.8</ele>
        <time>2021-08-20T15:19:38Z</time>
      </trkpt>
      <trkpt lat="46.48282" lon="5.4592">
        <ele>396.2</ele>
        <time>2021-08-20T15:19:44Z</time>
      </trkpt>
      <trkpt lat="46.48248" lon="5.45873">
        <ele>395.6</ele>
        <time>2021-08-20T15:19:50Z</time>
      </trkpt>
      <trkpt lat="46.48241" lon="5.45864">
        <ele>395</ele>
        <time>2021-08-20T15:19:51Z</time>
      </trkpt>
      <trkpt lat="46.4822" lon="5.45838">
        <ele>393.8</ele>
        <time>2021-08-20T15:19:54Z</time>
      </trkpt>
      <trkpt lat="46.48202" lon="5.45814">
        <ele>393.2</ele>
        <time>2021-08-20T15:19:57Z</time>
      </trkpt>
      <trkpt lat="46.48187" lon="5.45796">
        <ele>392.4</ele>
        <time>2021-08-20T15:19:59Z</time>
      </trkpt>
      <trkpt lat="46.48159" lon="5.45761">
        <ele>391.2</ele>
        <time>2021-08-20T15:20:03Z</time>
      </trkpt>
      <trkpt lat="46.48144" lon="5.45742">
        <ele>391</ele>
        <time>2021-08-20T15:20:05Z</time>
      </trkpt>
      <trkpt lat="46.48122" lon="5.45715">
        <ele>390</ele>
        <time>2021-08-20T15:20:08Z</time>
      </trkpt>
      <trkpt lat="46.48095" lon="5.45684">
        <ele>388.8</ele>
        <time>2021-08-20T15:20:12Z</time>
      </trkpt>
      <trkpt lat="46.48056" lon="5.45653">
        <ele>387.8</ele>
        <time>2021-08-20T15:20:17Z</time>
      </trkpt>
      <trkpt lat="46.48018" lon="5.45634">
        <ele>387.8</ele>
        <time>2021-08-20T15:20:22Z</time>
      </trkpt>
      <trkpt lat="46.47985" lon="5.4562">
        <ele>388.4</ele>
        <time>2021-08-20T15:20:27Z</time>
      </trkpt>
      <trkpt lat="46.47979" lon="5.45617">
        <ele>388.4</ele>
        <time>2021-08-20T15:20:28Z</time>
      </trkpt>
      <trkpt lat="46.47961" lon="5.45609">
        <ele>389</ele>
        <time>2021-08-20T15:20:31Z</time>
      </trkpt>
      <trkpt lat="46.47941" lon="5.45602">
        <ele>389.6</ele>
        <time>2021-08-20T15:20:34Z</time>
      </trkpt>
      <trkpt lat="46.47919" lon="5.45594">
        <ele>390.2</ele>
        <time>2021-08-20T15:20:38Z</time>
      </trkpt>
      <trkpt lat="46.47901" lon="5.45587">
        <ele>391.2</ele>
        <time>2021-08-20T15:20:41Z</time>
      </trkpt>
      <trkpt lat="46.47896" lon="5.45585">
        <ele>391.6</ele>
        <time>2021-08-20T15:20:42Z</time>
      </trkpt>
      <trkpt lat="46.47877" lon="5.45578">
        <ele>392.2</ele>
        <time>2021-08-20T15:20:45Z</time>
      </trkpt>
      <trkpt lat="46.47847" lon="5.45569">
        <ele>393.2</ele>
        <time>2021-08-20T15:20:50Z</time>
      </trkpt>
      <trkpt lat="46.47835" lon="5.45565">
        <ele>393.8</ele>
        <time>2021-08-20T15:20:52Z</time>
      </trkpt>
      <trkpt lat="46.47818" lon="5.4556">
        <ele>394.8</ele>
        <time>2021-08-20T15:20:55Z</time>
      </trkpt>
      <trkpt lat="46.47808" lon="5.45557">
        <ele>395.2</ele>
        <time>2021-08-20T15:20:57Z</time>
      </trkpt>
      <trkpt lat="46.47771" lon="5.45548">
        <ele>395.4</ele>
        <time>2021-08-20T15:21:03Z</time>
      </trkpt>
      <trkpt lat="46.4775" lon="5.45537">
        <ele>395.4</ele>
        <time>2021-08-20T15:21:06Z</time>
      </trkpt>
      <trkpt lat="46.47739" lon="5.45527">
        <ele>395.2</ele>
        <time>2021-08-20T15:21:08Z</time>
      </trkpt>
      <trkpt lat="46.47695" lon="5.45487">
        <ele>395.2</ele>
        <time>2021-08-20T15:21:15Z</time>
      </trkpt>
      <trkpt lat="46.47656" lon="5.45459">
        <ele>395</ele>
        <time>2021-08-20T15:21:21Z</time>
      </trkpt>
      <trkpt lat="46.47604" lon="5.4543">
        <ele>394.6</ele>
        <time>2021-08-20T15:21:29Z</time>
      </trkpt>
      <trkpt lat="46.47555" lon="5.45392">
        <ele>394</ele>
        <time>2021-08-20T15:21:36Z</time>
      </trkpt>
      <trkpt lat="46.47555" lon="5.45392">
        <ele>393.8</ele>
        <time>2021-08-20T15:21:37Z</time>
      </trkpt>
      <trkpt lat="46.47542" lon="5.45382">
        <ele>393.6</ele>
        <time>2021-08-20T15:21:38Z</time>
      </trkpt>
      <trkpt lat="46.47502" lon="5.4536">
        <ele>392.6</ele>
        <time>2021-08-20T15:21:43Z</time>
      </trkpt>
      <trkpt lat="46.47467" lon="5.4535">
        <ele>391.8</ele>
        <time>2021-08-20T15:21:47Z</time>
      </trkpt>
      <trkpt lat="46.47432" lon="5.45341">
        <ele>390.4</ele>
        <time>2021-08-20T15:21:51Z</time>
      </trkpt>
      <trkpt lat="46.47423" lon="5.45338">
        <ele>390.2</ele>
        <time>2021-08-20T15:21:52Z</time>
      </trkpt>
      <trkpt lat="46.47366" lon="5.45322">
        <ele>389.4</ele>
        <time>2021-08-20T15:21:59Z</time>
      </trkpt>
      <trkpt lat="46.4735" lon="5.45316">
        <ele>389.4</ele>
        <time>2021-08-20T15:22:01Z</time>
      </trkpt>
      <trkpt lat="46.47292" lon="5.4529">
        <ele>389.8</ele>
        <time>2021-08-20T15:22:08Z</time>
      </trkpt>
      <trkpt lat="46.47261" lon="5.45276">
        <ele>389.6</ele>
        <time>2021-08-20T15:22:12Z</time>
      </trkpt>
      <trkpt lat="46.47253" lon="5.45272">
        <ele>389.4</ele>
        <time>2021-08-20T15:22:13Z</time>
      </trkpt>
      <trkpt lat="46.47197" lon="5.45246">
        <ele>388.6</ele>
        <time>2021-08-20T15:22:20Z</time>
      </trkpt>
      <trkpt lat="46.47182" lon="5.45239">
        <ele>388.4</ele>
        <time>2021-08-20T15:22:22Z</time>
      </trkpt>
      <trkpt lat="46.47174" lon="5.45235">
        <ele>388.2</ele>
        <time>2021-08-20T15:22:23Z</time>
      </trkpt>
      <trkpt lat="46.4712" lon="5.45207">
        <ele>388.4</ele>
        <time>2021-08-20T15:22:30Z</time>
      </trkpt>
      <trkpt lat="46.47097" lon="5.45195">
        <ele>388.4</ele>
        <time>2021-08-20T15:22:33Z</time>
      </trkpt>
      <trkpt lat="46.47047" lon="5.45158">
        <ele>388.4</ele>
        <time>2021-08-20T15:22:40Z</time>
      </trkpt>
      <trkpt lat="46.46999" lon="5.45117">
        <ele>388.2</ele>
        <time>2021-08-20T15:22:47Z</time>
      </trkpt>
      <trkpt lat="46.46984" lon="5.45105">
        <ele>388.2</ele>
        <time>2021-08-20T15:22:49Z</time>
      </trkpt>
      <trkpt lat="46.46946" lon="5.45075">
        <ele>387.8</ele>
        <time>2021-08-20T15:22:55Z</time>
      </trkpt>
      <trkpt lat="46.46923" lon="5.45056">
        <ele>387.8</ele>
        <time>2021-08-20T15:22:57Z</time>
      </trkpt>
      <trkpt lat="46.46907" lon="5.45043">
        <ele>387.4</ele>
        <time>2021-08-20T15:22:59Z</time>
      </trkpt>
      <trkpt lat="46.46875" lon="5.45017">
        <ele>386.4</ele>
        <time>2021-08-20T15:23:03Z</time>
      </trkpt>
      <trkpt lat="46.4686" lon="5.45004">
        <ele>386.2</ele>
        <time>2021-08-20T15:23:05Z</time>
      </trkpt>
      <trkpt lat="46.46807" lon="5.44957">
        <ele>385.4</ele>
        <time>2021-08-20T15:23:12Z</time>
      </trkpt>
      <trkpt lat="46.46787" lon="5.44941">
        <ele>385.4</ele>
        <time>2021-08-20T15:23:15Z</time>
      </trkpt>
      <trkpt lat="46.46778" lon="5.44934">
        <ele>385.2</ele>
        <time>2021-08-20T15:23:16Z</time>
      </trkpt>
      <trkpt lat="46.46757" lon="5.44923">
        <ele>385</ele>
        <time>2021-08-20T15:23:20Z</time>
      </trkpt>
      <trkpt lat="46.46705" lon="5.44895">
        <ele>385.2</ele>
        <time>2021-08-20T15:23:26Z</time>
      </trkpt>
      <trkpt lat="46.46698" lon="5.44892">
        <ele>385.4</ele>
        <time>2021-08-20T15:23:27Z</time>
      </trkpt>
      <trkpt lat="46.4667" lon="5.44877">
        <ele>386.2</ele>
        <time>2021-08-20T15:23:31Z</time>
      </trkpt>
      <trkpt lat="46.4665" lon="5.44866">
        <ele>386.4</ele>
        <time>2021-08-20T15:23:34Z</time>
      </trkpt>
      <trkpt lat="46.46598" lon="5.4484">
        <ele>386.6</ele>
        <time>2021-08-20T15:23:42Z</time>
      </trkpt>
      <trkpt lat="46.46557" lon="5.44819">
        <ele>387.4</ele>
        <time>2021-08-20T15:23:49Z</time>
      </trkpt>
      <trkpt lat="46.46513" lon="5.44797">
        <ele>387.8</ele>
        <time>2021-08-20T15:23:57Z</time>
      </trkpt>
      <trkpt lat="46.46497" lon="5.44789">
        <ele>388.6</ele>
        <time>2021-08-20T15:24:00Z</time>
      </trkpt>
      <trkpt lat="46.46471" lon="5.44775">
        <ele>388.8</ele>
        <time>2021-08-20T15:24:05Z</time>
      </trkpt>
      <trkpt lat="46.4645" lon="5.44765">
        <ele>389.8</ele>
        <time>2021-08-20T15:24:09Z</time>
      </trkpt>
      <trkpt lat="46.46425" lon="5.44751">
        <ele>390.2</ele>
        <time>2021-08-20T15:24:14Z</time>
      </trkpt>
      <trkpt lat="46.4639" lon="5.44733">
        <ele>390.8</ele>
        <time>2021-08-20T15:24:21Z</time>
      </trkpt>
      <trkpt lat="46.4638" lon="5.44729">
        <ele>391.6</ele>
        <time>2021-08-20T15:24:23Z</time>
      </trkpt>
      <trkpt lat="46.46375" lon="5.44726">
        <ele>392</ele>
        <time>2021-08-20T15:24:24Z</time>
      </trkpt>
      <trkpt lat="46.46347" lon="5.4471">
        <ele>392.4</ele>
        <time>2021-08-20T15:24:30Z</time>
      </trkpt>
      <trkpt lat="46.46336" lon="5.44706">
        <ele>392.6</ele>
        <time>2021-08-20T15:24:33Z</time>
      </trkpt>
      <trkpt lat="46.46336" lon="5.44708">
        <ele>392.6</ele>
        <time>2021-08-20T15:24:34Z</time>
      </trkpt>
      <trkpt lat="46.46343" lon="5.4471">
        <ele>393</ele>
        <time>2021-08-20T15:24:37Z</time>
      </trkpt>
      <trkpt lat="46.46348" lon="5.44707">
        <ele>393.2</ele>
        <time>2021-08-20T15:24:40Z</time>
      </trkpt>
      <trkpt lat="46.46348" lon="5.44706">
        <ele>393.4</ele>
        <time>2021-08-20T15:24:41Z</time>
      </trkpt>
      <trkpt lat="46.46349" lon="5.44706">
        <ele>393.6</ele>
        <time>2021-08-20T15:24:44Z</time>
      </trkpt>
      <trkpt lat="46.46341" lon="5.44706">
        <ele>393</ele>
        <time>2021-08-20T15:25:35Z</time>
      </trkpt>
      <trkpt lat="46.46326" lon="5.447">
        <ele>393</ele>
        <time>2021-08-20T15:25:39Z</time>
      </trkpt>
      <trkpt lat="46.46302" lon="5.44689">
        <ele>393.4</ele>
        <time>2021-08-20T15:25:45Z</time>
      </trkpt>
      <trkpt lat="46.46295" lon="5.44685">
        <ele>393.6</ele>
        <time>2021-08-20T15:25:47Z</time>
      </trkpt>
      <trkpt lat="46.46279" lon="5.44677">
        <ele>394.2</ele>
        <time>2021-08-20T15:25:51Z</time>
      </trkpt>
      <trkpt lat="46.46271" lon="5.44674">
        <ele>394.8</ele>
        <time>2021-08-20T15:25:53Z</time>
      </trkpt>
      <trkpt lat="46.46268" lon="5.44672">
        <ele>395.4</ele>
        <time>2021-08-20T15:25:54Z</time>
      </trkpt>
      <trkpt lat="46.4626" lon="5.44668">
        <ele>395.6</ele>
        <time>2021-08-20T15:25:56Z</time>
      </trkpt>
      <trkpt lat="46.46241" lon="5.44659">
        <ele>396.4</ele>
        <time>2021-08-20T15:26:01Z</time>
      </trkpt>
      <trkpt lat="46.46234" lon="5.44654">
        <ele>396.8</ele>
        <time>2021-08-20T15:26:03Z</time>
      </trkpt>
      <trkpt lat="46.4623" lon="5.44651">
        <ele>397.4</ele>
        <time>2021-08-20T15:26:04Z</time>
      </trkpt>
      <trkpt lat="46.46218" lon="5.44637">
        <ele>399</ele>
        <time>2021-08-20T15:26:08Z</time>
      </trkpt>
      <trkpt lat="46.46206" lon="5.44616">
        <ele>400.2</ele>
        <time>2021-08-20T15:26:13Z</time>
      </trkpt>
      <trkpt lat="46.46204" lon="5.44611">
        <ele>400.2</ele>
        <time>2021-08-20T15:26:14Z</time>
      </trkpt>
      <trkpt lat="46.46198" lon="5.4459">
        <ele>401.4</ele>
        <time>2021-08-20T15:26:18Z</time>
      </trkpt>
      <trkpt lat="46.46196" lon="5.44573">
        <ele>401.6</ele>
        <time>2021-08-20T15:26:21Z</time>
      </trkpt>
      <trkpt lat="46.46193" lon="5.44542">
        <ele>402.4</ele>
        <time>2021-08-20T15:26:27Z</time>
      </trkpt>
      <trkpt lat="46.46193" lon="5.44524">
        <ele>403.4</ele>
        <time>2021-08-20T15:26:30Z</time>
      </trkpt>
      <trkpt lat="46.46193" lon="5.4452">
        <ele>403.6</ele>
        <time>2021-08-20T15:26:31Z</time>
      </trkpt>
      <trkpt lat="46.4619" lon="5.44484">
        <ele>404.6</ele>
        <time>2021-08-20T15:26:37Z</time>
      </trkpt>
      <trkpt lat="46.4619" lon="5.44472">
        <ele>404.8</ele>
        <time>2021-08-20T15:26:39Z</time>
      </trkpt>
      <trkpt lat="46.46193" lon="5.44449">
        <ele>405.8</ele>
        <time>2021-08-20T15:26:43Z</time>
      </trkpt>
      <trkpt lat="46.46193" lon="5.44438">
        <ele>406.8</ele>
        <time>2021-08-20T15:26:45Z</time>
      </trkpt>
      <trkpt lat="46.46193" lon="5.44432">
        <ele>407</ele>
        <time>2021-08-20T15:26:46Z</time>
      </trkpt>
      <trkpt lat="46.46192" lon="5.44388">
        <ele>408</ele>
        <time>2021-08-20T15:26:54Z</time>
      </trkpt>
      <trkpt lat="46.46194" lon="5.44356">
        <ele>409</ele>
        <time>2021-08-20T15:27:00Z</time>
      </trkpt>
      <trkpt lat="46.46194" lon="5.44345">
        <ele>409.8</ele>
        <time>2021-08-20T15:27:02Z</time>
      </trkpt>
      <trkpt lat="46.46194" lon="5.44334">
        <ele>410.2</ele>
        <time>2021-08-20T15:27:04Z</time>
      </trkpt>
      <trkpt lat="46.46196" lon="5.44319">
        <ele>411.2</ele>
        <time>2021-08-20T15:27:07Z</time>
      </trkpt>
      <trkpt lat="46.46193" lon="5.44287">
        <ele>412.2</ele>
        <time>2021-08-20T15:27:12Z</time>
      </trkpt>
      <trkpt lat="46.46191" lon="5.44271">
        <ele>412.8</ele>
        <time>2021-08-20T15:27:15Z</time>
      </trkpt>
      <trkpt lat="46.46187" lon="5.44256">
        <ele>413.2</ele>
        <time>2021-08-20T15:27:18Z</time>
      </trkpt>
      <trkpt lat="46.46182" lon="5.44235">
        <ele>414</ele>
        <time>2021-08-20T15:27:22Z</time>
      </trkpt>
      <trkpt lat="46.46181" lon="5.44231">
        <ele>414.4</ele>
        <time>2021-08-20T15:27:23Z</time>
      </trkpt>
      <trkpt lat="46.46174" lon="5.4421">
        <ele>415.4</ele>
        <time>2021-08-20T15:27:27Z</time>
      </trkpt>
      <trkpt lat="46.46173" lon="5.44206">
        <ele>415.8</ele>
        <time>2021-08-20T15:27:28Z</time>
      </trkpt>
      <trkpt lat="46.46166" lon="5.44186">
        <ele>416.6</ele>
        <time>2021-08-20T15:27:32Z</time>
      </trkpt>
      <trkpt lat="46.46157" lon="5.44161">
        <ele>417.6</ele>
        <time>2021-08-20T15:27:37Z</time>
      </trkpt>
      <trkpt lat="46.46154" lon="5.44155">
        <ele>417.6</ele>
        <time>2021-08-20T15:27:38Z</time>
      </trkpt>
      <trkpt lat="46.46145" lon="5.44116">
        <ele>418.6</ele>
        <time>2021-08-20T15:27:45Z</time>
      </trkpt>
      <trkpt lat="46.46144" lon="5.44111">
        <ele>418.8</ele>
        <time>2021-08-20T15:27:46Z</time>
      </trkpt>
      <trkpt lat="46.46138" lon="5.44083">
        <ele>420.2</ele>
        <time>2021-08-20T15:27:51Z</time>
      </trkpt>
      <trkpt lat="46.46135" lon="5.44068">
        <ele>420.8</ele>
        <time>2021-08-20T15:27:54Z</time>
      </trkpt>
      <trkpt lat="46.46133" lon="5.44055">
        <ele>421.6</ele>
        <time>2021-08-20T15:27:56Z</time>
      </trkpt>
      <trkpt lat="46.46126" lon="5.44019">
        <ele>422.6</ele>
        <time>2021-08-20T15:28:02Z</time>
      </trkpt>
      <trkpt lat="46.46125" lon="5.44013">
        <ele>422.8</ele>
        <time>2021-08-20T15:28:03Z</time>
      </trkpt>
      <trkpt lat="46.4613" lon="5.4398">
        <ele>423.6</ele>
        <time>2021-08-20T15:28:09Z</time>
      </trkpt>
      <trkpt lat="46.46132" lon="5.4397">
        <ele>423.8</ele>
        <time>2021-08-20T15:28:11Z</time>
      </trkpt>
      <trkpt lat="46.4614" lon="5.43941">
        <ele>425</ele>
        <time>2021-08-20T15:28:17Z</time>
      </trkpt>
      <trkpt lat="46.46142" lon="5.43936">
        <ele>425.2</ele>
        <time>2021-08-20T15:28:18Z</time>
      </trkpt>
      <trkpt lat="46.46149" lon="5.4391">
        <ele>426.2</ele>
        <time>2021-08-20T15:28:23Z</time>
      </trkpt>
      <trkpt lat="46.46156" lon="5.43884">
        <ele>427.2</ele>
        <time>2021-08-20T15:28:28Z</time>
      </trkpt>
      <trkpt lat="46.46164" lon="5.4386">
        <ele>428.4</ele>
        <time>2021-08-20T15:28:33Z</time>
      </trkpt>
      <trkpt lat="46.46171" lon="5.43837">
        <ele>429.4</ele>
        <time>2021-08-20T15:28:38Z</time>
      </trkpt>
      <trkpt lat="46.46172" lon="5.43832">
        <ele>429.6</ele>
        <time>2021-08-20T15:28:39Z</time>
      </trkpt>
      <trkpt lat="46.4618" lon="5.43804">
        <ele>430.4</ele>
        <time>2021-08-20T15:28:45Z</time>
      </trkpt>
      <trkpt lat="46.46186" lon="5.43785">
        <ele>431.6</ele>
        <time>2021-08-20T15:28:49Z</time>
      </trkpt>
      <trkpt lat="46.46191" lon="5.43743">
        <ele>433.2</ele>
        <time>2021-08-20T15:28:56Z</time>
      </trkpt>
      <trkpt lat="46.46192" lon="5.43726">
        <ele>434.4</ele>
        <time>2021-08-20T15:28:59Z</time>
      </trkpt>
      <trkpt lat="46.46191" lon="5.43696">
        <ele>434.8</ele>
        <time>2021-08-20T15:29:04Z</time>
      </trkpt>
      <trkpt lat="46.4619" lon="5.4369">
        <ele>435.4</ele>
        <time>2021-08-20T15:29:05Z</time>
      </trkpt>
      <trkpt lat="46.46181" lon="5.43659">
        <ele>436.4</ele>
        <time>2021-08-20T15:29:10Z</time>
      </trkpt>
      <trkpt lat="46.46179" lon="5.43652">
        <ele>436.4</ele>
        <time>2021-08-20T15:29:11Z</time>
      </trkpt>
      <trkpt lat="46.46158" lon="5.4361">
        <ele>437.2</ele>
        <time>2021-08-20T15:29:18Z</time>
      </trkpt>
      <trkpt lat="46.4615" lon="5.43599">
        <ele>437.4</ele>
        <time>2021-08-20T15:29:20Z</time>
      </trkpt>
      <trkpt lat="46.46131" lon="5.43581">
        <ele>437.4</ele>
        <time>2021-08-20T15:29:24Z</time>
      </trkpt>
      <trkpt lat="46.46111" lon="5.4357">
        <ele>436.8</ele>
        <time>2021-08-20T15:29:27Z</time>
      </trkpt>
      <trkpt lat="46.46104" lon="5.43568">
        <ele>436.8</ele>
        <time>2021-08-20T15:29:28Z</time>
      </trkpt>
      <trkpt lat="46.46083" lon="5.43564">
        <ele>436</ele>
        <time>2021-08-20T15:29:31Z</time>
      </trkpt>
      <trkpt lat="46.46065" lon="5.43563">
        <ele>435.4</ele>
        <time>2021-08-20T15:29:33Z</time>
      </trkpt>
      <trkpt lat="46.46049" lon="5.43562">
        <ele>435</ele>
        <time>2021-08-20T15:29:35Z</time>
      </trkpt>
      <trkpt lat="46.46014" lon="5.43555">
        <ele>434</ele>
        <time>2021-08-20T15:29:39Z</time>
      </trkpt>
      <trkpt lat="46.45985" lon="5.43541">
        <ele>433</ele>
        <time>2021-08-20T15:29:42Z</time>
      </trkpt>
      <trkpt lat="46.45985" lon="5.43541">
        <ele>432.6</ele>
        <time>2021-08-20T15:29:43Z</time>
      </trkpt>
      <trkpt lat="46.45969" lon="5.43531">
        <ele>432.4</ele>
        <time>2021-08-20T15:29:44Z</time>
      </trkpt>
      <trkpt lat="46.45953" lon="5.43518">
        <ele>431.4</ele>
        <time>2021-08-20T15:29:46Z</time>
      </trkpt>
      <trkpt lat="46.45934" lon="5.43504">
        <ele>430.2</ele>
        <time>2021-08-20T15:29:49Z</time>
      </trkpt>
      <trkpt lat="46.45918" lon="5.43492">
        <ele>430</ele>
        <time>2021-08-20T15:29:50Z</time>
      </trkpt>
      <trkpt lat="46.4589" lon="5.4347">
        <ele>429.2</ele>
        <time>2021-08-20T15:29:53Z</time>
      </trkpt>
      <trkpt lat="46.45874" lon="5.43458">
        <ele>428</ele>
        <time>2021-08-20T15:29:55Z</time>
      </trkpt>
      <trkpt lat="46.45837" lon="5.4343">
        <ele>426.8</ele>
        <time>2021-08-20T15:29:59Z</time>
      </trkpt>
      <trkpt lat="46.45807" lon="5.43407">
        <ele>425.2</ele>
        <time>2021-08-20T15:30:02Z</time>
      </trkpt>
      <trkpt lat="46.45798" lon="5.43399">
        <ele>425</ele>
        <time>2021-08-20T15:30:03Z</time>
      </trkpt>
      <trkpt lat="46.45772" lon="5.43378">
        <ele>423.8</ele>
        <time>2021-08-20T15:30:06Z</time>
      </trkpt>
      <trkpt lat="46.45753" lon="5.4336">
        <ele>422.6</ele>
        <time>2021-08-20T15:30:08Z</time>
      </trkpt>
      <trkpt lat="46.45745" lon="5.43351">
        <ele>421.6</ele>
        <time>2021-08-20T15:30:09Z</time>
      </trkpt>
      <trkpt lat="46.45739" lon="5.43343">
        <ele>421</ele>
        <time>2021-08-20T15:30:10Z</time>
      </trkpt>
      <trkpt lat="46.45732" lon="5.43333">
        <ele>420.4</ele>
        <time>2021-08-20T15:30:11Z</time>
      </trkpt>
      <trkpt lat="46.45711" lon="5.43298">
        <ele>419.4</ele>
        <time>2021-08-20T15:30:14Z</time>
      </trkpt>
      <trkpt lat="46.45706" lon="5.43289">
        <ele>419</ele>
        <time>2021-08-20T15:30:15Z</time>
      </trkpt>
      <trkpt lat="46.45688" lon="5.4325">
        <ele>418.2</ele>
        <time>2021-08-20T15:30:18Z</time>
      </trkpt>
      <trkpt lat="46.45674" lon="5.43216">
        <ele>417.2</ele>
        <time>2021-08-20T15:30:21Z</time>
      </trkpt>
      <trkpt lat="46.45662" lon="5.43189">
        <ele>416</ele>
        <time>2021-08-20T15:30:23Z</time>
      </trkpt>
      <trkpt lat="46.45656" lon="5.43178">
        <ele>415.8</ele>
        <time>2021-08-20T15:30:24Z</time>
      </trkpt>
      <trkpt lat="46.45625" lon="5.43109">
        <ele>415.2</ele>
        <time>2021-08-20T15:30:30Z</time>
      </trkpt>
      <trkpt lat="46.45604" lon="5.43062">
        <ele>415.2</ele>
        <time>2021-08-20T15:30:34Z</time>
      </trkpt>
      <trkpt lat="46.45575" lon="5.43007">
        <ele>415.8</ele>
        <time>2021-08-20T15:30:40Z</time>
      </trkpt>
      <trkpt lat="46.45544" lon="5.42963">
        <ele>416.6</ele>
        <time>2021-08-20T15:30:46Z</time>
      </trkpt>
      <trkpt lat="46.45515" lon="5.42925">
        <ele>417.4</ele>
        <time>2021-08-20T15:30:52Z</time>
      </trkpt>
      <trkpt lat="46.45505" lon="5.42912">
        <ele>418.8</ele>
        <time>2021-08-20T15:30:54Z</time>
      </trkpt>
      <trkpt lat="46.45492" lon="5.42895">
        <ele>420</ele>
        <time>2021-08-20T15:30:57Z</time>
      </trkpt>
      <trkpt lat="46.45487" lon="5.42887">
        <ele>420</ele>
        <time>2021-08-20T15:30:58Z</time>
      </trkpt>
      <trkpt lat="46.45465" lon="5.42861">
        <ele>421</ele>
        <time>2021-08-20T15:31:03Z</time>
      </trkpt>
      <trkpt lat="46.45451" lon="5.42848">
        <ele>421.8</ele>
        <time>2021-08-20T15:31:06Z</time>
      </trkpt>
      <trkpt lat="46.45447" lon="5.42843">
        <ele>422</ele>
        <time>2021-08-20T15:31:07Z</time>
      </trkpt>
      <trkpt lat="46.45417" lon="5.42813">
        <ele>423.2</ele>
        <time>2021-08-20T15:31:14Z</time>
      </trkpt>
      <trkpt lat="46.45412" lon="5.42809">
        <ele>423.4</ele>
        <time>2021-08-20T15:31:15Z</time>
      </trkpt>
      <trkpt lat="46.45376" lon="5.42767">
        <ele>424.2</ele>
        <time>2021-08-20T15:31:24Z</time>
      </trkpt>
      <trkpt lat="46.45372" lon="5.42762">
        <ele>424.4</ele>
        <time>2021-08-20T15:31:25Z</time>
      </trkpt>
      <trkpt lat="46.45349" lon="5.42725">
        <ele>425.6</ele>
        <time>2021-08-20T15:31:32Z</time>
      </trkpt>
      <trkpt lat="46.45319" lon="5.42671">
        <ele>426.8</ele>
        <time>2021-08-20T15:31:42Z</time>
      </trkpt>
      <trkpt lat="46.45316" lon="5.42665">
        <ele>427</ele>
        <time>2021-08-20T15:31:43Z</time>
      </trkpt>
      <trkpt lat="46.45302" lon="5.42639">
        <ele>428</ele>
        <time>2021-08-20T15:31:48Z</time>
      </trkpt>
      <trkpt lat="46.45285" lon="5.42609">
        <ele>428.8</ele>
        <time>2021-08-20T15:31:54Z</time>
      </trkpt>
      <trkpt lat="46.4528" lon="5.426">
        <ele>429</ele>
        <time>2021-08-20T15:31:56Z</time>
      </trkpt>
      <trkpt lat="46.45265" lon="5.42574">
        <ele>430</ele>
        <time>2021-08-20T15:32:01Z</time>
      </trkpt>
      <trkpt lat="46.4526" lon="5.42564">
        <ele>430.8</ele>
        <time>2021-08-20T15:32:03Z</time>
      </trkpt>
      <trkpt lat="46.45251" lon="5.42547">
        <ele>431.2</ele>
        <time>2021-08-20T15:32:06Z</time>
      </trkpt>
      <trkpt lat="46.45234" lon="5.42516">
        <ele>432.2</ele>
        <time>2021-08-20T15:32:12Z</time>
      </trkpt>
      <trkpt lat="46.45207" lon="5.42467">
        <ele>433.4</ele>
        <time>2021-08-20T15:32:21Z</time>
      </trkpt>
      <trkpt lat="46.45204" lon="5.42462">
        <ele>433.6</ele>
        <time>2021-08-20T15:32:22Z</time>
      </trkpt>
      <trkpt lat="46.45177" lon="5.42413">
        <ele>434.6</ele>
        <time>2021-08-20T15:32:31Z</time>
      </trkpt>
      <trkpt lat="46.4517" lon="5.42403">
        <ele>435</ele>
        <time>2021-08-20T15:32:33Z</time>
      </trkpt>
      <trkpt lat="46.45155" lon="5.42377">
        <ele>435.8</ele>
        <time>2021-08-20T15:32:38Z</time>
      </trkpt>
      <trkpt lat="46.45148" lon="5.42368">
        <ele>436.2</ele>
        <time>2021-08-20T15:32:40Z</time>
      </trkpt>
      <trkpt lat="46.45128" lon="5.42344">
        <ele>436.8</ele>
        <time>2021-08-20T15:32:45Z</time>
      </trkpt>
      <trkpt lat="46.45124" lon="5.42338">
        <ele>436.8</ele>
        <time>2021-08-20T15:32:46Z</time>
      </trkpt>
      <trkpt lat="46.45119" lon="5.42328">
        <ele>437.2</ele>
        <time>2021-08-20T15:32:48Z</time>
      </trkpt>
      <trkpt lat="46.45103" lon="5.4231">
        <ele>438</ele>
        <time>2021-08-20T15:32:52Z</time>
      </trkpt>
      <trkpt lat="46.45096" lon="5.423">
        <ele>438.6</ele>
        <time>2021-08-20T15:32:54Z</time>
      </trkpt>
      <trkpt lat="46.4509" lon="5.42288">
        <ele>438.8</ele>
        <time>2021-08-20T15:32:56Z</time>
      </trkpt>
      <trkpt lat="46.45089" lon="5.42274">
        <ele>439</ele>
        <time>2021-08-20T15:32:58Z</time>
      </trkpt>
      <trkpt lat="46.45084" lon="5.42227">
        <ele>440.2</ele>
        <time>2021-08-20T15:33:05Z</time>
      </trkpt>
      <trkpt lat="46.45081" lon="5.42201">
        <ele>441.4</ele>
        <time>2021-08-20T15:33:09Z</time>
      </trkpt>
      <trkpt lat="46.45078" lon="5.42188">
        <ele>441.6</ele>
        <time>2021-08-20T15:33:11Z</time>
      </trkpt>
      <trkpt lat="46.45072" lon="5.42163">
        <ele>442.4</ele>
        <time>2021-08-20T15:33:15Z</time>
      </trkpt>
      <trkpt lat="46.45064" lon="5.42143">
        <ele>442.6</ele>
        <time>2021-08-20T15:33:18Z</time>
      </trkpt>
      <trkpt lat="46.45048" lon="5.42101">
        <ele>443</ele>
        <time>2021-08-20T15:33:24Z</time>
      </trkpt>
      <trkpt lat="46.45045" lon="5.42094">
        <ele>443</ele>
        <time>2021-08-20T15:33:25Z</time>
      </trkpt>
      <trkpt lat="46.45033" lon="5.42075">
        <ele>443.4</ele>
        <time>2021-08-20T15:33:28Z</time>
      </trkpt>
      <trkpt lat="46.4503" lon="5.42068">
        <ele>443.6</ele>
        <time>2021-08-20T15:33:29Z</time>
      </trkpt>
      <trkpt lat="46.45004" lon="5.42026">
        <ele>444.4</ele>
        <time>2021-08-20T15:33:36Z</time>
      </trkpt>
      <trkpt lat="46.44996" lon="5.42015">
        <ele>444.8</ele>
        <time>2021-08-20T15:33:38Z</time>
      </trkpt>
      <trkpt lat="46.44979" lon="5.41987">
        <ele>445.6</ele>
        <time>2021-08-20T15:33:43Z</time>
      </trkpt>
      <trkpt lat="46.44971" lon="5.41972">
        <ele>446.4</ele>
        <time>2021-08-20T15:33:46Z</time>
      </trkpt>
      <trkpt lat="46.44968" lon="5.41965">
        <ele>446.6</ele>
        <time>2021-08-20T15:33:47Z</time>
      </trkpt>
      <trkpt lat="46.4496" lon="5.41941">
        <ele>447.6</ele>
        <time>2021-08-20T15:33:51Z</time>
      </trkpt>
      <trkpt lat="46.44959" lon="5.41927">
        <ele>447.6</ele>
        <time>2021-08-20T15:33:53Z</time>
      </trkpt>
      <trkpt lat="46.44959" lon="5.4192">
        <ele>447.8</ele>
        <time>2021-08-20T15:33:54Z</time>
      </trkpt>
      <trkpt lat="46.44961" lon="5.41907">
        <ele>448</ele>
        <time>2021-08-20T15:33:56Z</time>
      </trkpt>
      <trkpt lat="46.44971" lon="5.41864">
        <ele>448.4</ele>
        <time>2021-08-20T15:34:02Z</time>
      </trkpt>
      <trkpt lat="46.44976" lon="5.41852">
        <ele>448.8</ele>
        <time>2021-08-20T15:34:04Z</time>
      </trkpt>
      <trkpt lat="46.44991" lon="5.41826">
        <ele>449.6</ele>
        <time>2021-08-20T15:34:09Z</time>
      </trkpt>
      <trkpt lat="46.44999" lon="5.41817">
        <ele>449.8</ele>
        <time>2021-08-20T15:34:11Z</time>
      </trkpt>
      <trkpt lat="46.45009" lon="5.41811">
        <ele>450</ele>
        <time>2021-08-20T15:34:13Z</time>
      </trkpt>
      <trkpt lat="46.45014" lon="5.41809">
        <ele>450</ele>
        <time>2021-08-20T15:34:14Z</time>
      </trkpt>
      <trkpt lat="46.45025" lon="5.41807">
        <ele>450.2</ele>
        <time>2021-08-20T15:34:16Z</time>
      </trkpt>
      <trkpt lat="46.45036" lon="5.41808">
        <ele>450.4</ele>
        <time>2021-08-20T15:34:18Z</time>
      </trkpt>
      <trkpt lat="46.45042" lon="5.4181">
        <ele>450.4</ele>
        <time>2021-08-20T15:34:19Z</time>
      </trkpt>
      <trkpt lat="46.45084" lon="5.41818">
        <ele>450.8</ele>
        <time>2021-08-20T15:34:26Z</time>
      </trkpt>
      <trkpt lat="46.45129" lon="5.41809">
        <ele>450.8</ele>
        <time>2021-08-20T15:34:32Z</time>
      </trkpt>
      <trkpt lat="46.45169" lon="5.41788">
        <ele>450</ele>
        <time>2021-08-20T15:34:38Z</time>
      </trkpt>
      <trkpt lat="46.45186" lon="5.41771">
        <ele>449.8</ele>
        <time>2021-08-20T15:34:41Z</time>
      </trkpt>
      <trkpt lat="46.45196" lon="5.41756">
        <ele>449.8</ele>
        <time>2021-08-20T15:34:43Z</time>
      </trkpt>
      <trkpt lat="46.45213" lon="5.41727">
        <ele>450</ele>
        <time>2021-08-20T15:34:47Z</time>
      </trkpt>
      <trkpt lat="46.45222" lon="5.41702">
        <ele>450.6</ele>
        <time>2021-08-20T15:34:50Z</time>
      </trkpt>
      <trkpt lat="46.45241" lon="5.41639">
        <ele>451.2</ele>
        <time>2021-08-20T15:34:58Z</time>
      </trkpt>
      <trkpt lat="46.45246" lon="5.41611">
        <ele>452.4</ele>
        <time>2021-08-20T15:35:02Z</time>
      </trkpt>
      <trkpt lat="46.45249" lon="5.41595">
        <ele>452.6</ele>
        <time>2021-08-20T15:35:04Z</time>
      </trkpt>
      <trkpt lat="46.45254" lon="5.41573">
        <ele>453</ele>
        <time>2021-08-20T15:35:07Z</time>
      </trkpt>
      <trkpt lat="46.45261" lon="5.41558">
        <ele>453</ele>
        <time>2021-08-20T15:35:09Z</time>
      </trkpt>
      <trkpt lat="46.45264" lon="5.41552">
        <ele>453</ele>
        <time>2021-08-20T15:35:10Z</time>
      </trkpt>
      <trkpt lat="46.45272" lon="5.41542">
        <ele>453.4</ele>
        <time>2021-08-20T15:35:12Z</time>
      </trkpt>
      <trkpt lat="46.45282" lon="5.41532">
        <ele>453.4</ele>
        <time>2021-08-20T15:35:14Z</time>
      </trkpt>
      <trkpt lat="46.45293" lon="5.41528">
        <ele>453.6</ele>
        <time>2021-08-20T15:35:16Z</time>
      </trkpt>
      <trkpt lat="46.45302" lon="5.41527">
        <ele>453.8</ele>
        <time>2021-08-20T15:35:18Z</time>
      </trkpt>
      <trkpt lat="46.45319" lon="5.41529">
        <ele>454.4</ele>
        <time>2021-08-20T15:35:21Z</time>
      </trkpt>
      <trkpt lat="46.45338" lon="5.41534">
        <ele>455</ele>
        <time>2021-08-20T15:35:25Z</time>
      </trkpt>
      <trkpt lat="46.45354" lon="5.41537">
        <ele>455.6</ele>
        <time>2021-08-20T15:35:28Z</time>
      </trkpt>
      <trkpt lat="46.4538" lon="5.41536">
        <ele>456.4</ele>
        <time>2021-08-20T15:35:33Z</time>
      </trkpt>
      <trkpt lat="46.4539" lon="5.41535">
        <ele>456.6</ele>
        <time>2021-08-20T15:35:35Z</time>
      </trkpt>
      <trkpt lat="46.45406" lon="5.41532">
        <ele>457.2</ele>
        <time>2021-08-20T15:35:38Z</time>
      </trkpt>
      <trkpt lat="46.45421" lon="5.41526">
        <ele>457.8</ele>
        <time>2021-08-20T15:35:41Z</time>
      </trkpt>
      <trkpt lat="46.45454" lon="5.41514">
        <ele>458.8</ele>
        <time>2021-08-20T15:35:48Z</time>
      </trkpt>
      <trkpt lat="46.45483" lon="5.41504">
        <ele>459.6</ele>
        <time>2021-08-20T15:35:54Z</time>
      </trkpt>
      <trkpt lat="46.45489" lon="5.41501">
        <ele>459.8</ele>
        <time>2021-08-20T15:35:55Z</time>
      </trkpt>
      <trkpt lat="46.45524" lon="5.41483">
        <ele>460.8</ele>
        <time>2021-08-20T15:36:02Z</time>
      </trkpt>
      <trkpt lat="46.45529" lon="5.4148">
        <ele>461</ele>
        <time>2021-08-20T15:36:03Z</time>
      </trkpt>
      <trkpt lat="46.4556" lon="5.41461">
        <ele>461.4</ele>
        <time>2021-08-20T15:36:09Z</time>
      </trkpt>
      <trkpt lat="46.45593" lon="5.41431">
        <ele>461.8</ele>
        <time>2021-08-20T15:36:16Z</time>
      </trkpt>
      <trkpt lat="46.45621" lon="5.41383">
        <ele>461.4</ele>
        <time>2021-08-20T15:36:24Z</time>
      </trkpt>
      <trkpt lat="46.45639" lon="5.41348">
        <ele>462.2</ele>
        <time>2021-08-20T15:36:30Z</time>
      </trkpt>
      <trkpt lat="46.45649" lon="5.41329">
        <ele>462.6</ele>
        <time>2021-08-20T15:36:33Z</time>
      </trkpt>
      <trkpt lat="46.45656" lon="5.41318">
        <ele>462.8</ele>
        <time>2021-08-20T15:36:35Z</time>
      </trkpt>
      <trkpt lat="46.45669" lon="5.41301">
        <ele>463.2</ele>
        <time>2021-08-20T15:36:38Z</time>
      </trkpt>
      <trkpt lat="46.45674" lon="5.41295">
        <ele>463.2</ele>
        <time>2021-08-20T15:36:39Z</time>
      </trkpt>
      <trkpt lat="46.45709" lon="5.41252">
        <ele>463</ele>
        <time>2021-08-20T15:36:46Z</time>
      </trkpt>
      <trkpt lat="46.45749" lon="5.41205">
        <ele>462</ele>
        <time>2021-08-20T15:36:54Z</time>
      </trkpt>
      <trkpt lat="46.45754" lon="5.41199">
        <ele>461.8</ele>
        <time>2021-08-20T15:36:55Z</time>
      </trkpt>
      <trkpt lat="46.45761" lon="5.41185">
        <ele>462.2</ele>
        <time>2021-08-20T15:36:57Z</time>
      </trkpt>
      <trkpt lat="46.45771" lon="5.4116">
        <ele>462.4</ele>
        <time>2021-08-20T15:37:00Z</time>
      </trkpt>
      <trkpt lat="46.45777" lon="5.41135">
        <ele>463.2</ele>
        <time>2021-08-20T15:37:03Z</time>
      </trkpt>
      <trkpt lat="46.45784" lon="5.41102">
        <ele>463.6</ele>
        <time>2021-08-20T15:37:07Z</time>
      </trkpt>
      <trkpt lat="46.45798" lon="5.41044">
        <ele>464.2</ele>
        <time>2021-08-20T15:37:15Z</time>
      </trkpt>
      <trkpt lat="46.45808" lon="5.41011">
        <ele>464.2</ele>
        <time>2021-08-20T15:37:18Z</time>
      </trkpt>
      <trkpt lat="46.45825" lon="5.40949">
        <ele>464.8</ele>
        <time>2021-08-20T15:37:26Z</time>
      </trkpt>
      <trkpt lat="46.45831" lon="5.40921">
        <ele>465.2</ele>
        <time>2021-08-20T15:37:30Z</time>
      </trkpt>
      <trkpt lat="46.45839" lon="5.40871">
        <ele>465.8</ele>
        <time>2021-08-20T15:37:36Z</time>
      </trkpt>
      <trkpt lat="46.45848" lon="5.40796">
        <ele>466</ele>
        <time>2021-08-20T15:37:45Z</time>
      </trkpt>
      <trkpt lat="46.45857" lon="5.40722">
        <ele>466</ele>
        <time>2021-08-20T15:37:54Z</time>
      </trkpt>
      <trkpt lat="46.45859" lon="5.40714">
        <ele>466</ele>
        <time>2021-08-20T15:37:55Z</time>
      </trkpt>
      <trkpt lat="46.45868" lon="5.40689">
        <ele>466.4</ele>
        <time>2021-08-20T15:37:59Z</time>
      </trkpt>
      <trkpt lat="46.45878" lon="5.4066">
        <ele>467.6</ele>
        <time>2021-08-20T15:38:04Z</time>
      </trkpt>
      <trkpt lat="46.45883" lon="5.40646">
        <ele>468.4</ele>
        <time>2021-08-20T15:38:07Z</time>
      </trkpt>
      <trkpt lat="46.45885" lon="5.40642">
        <ele>468.6</ele>
        <time>2021-08-20T15:38:08Z</time>
      </trkpt>
      <trkpt lat="46.45891" lon="5.40631">
        <ele>469.6</ele>
        <time>2021-08-20T15:38:11Z</time>
      </trkpt>
      <trkpt lat="46.45898" lon="5.4062">
        <ele>470.4</ele>
        <time>2021-08-20T15:38:14Z</time>
      </trkpt>
      <trkpt lat="46.45901" lon="5.40612">
        <ele>470.8</ele>
        <time>2021-08-20T15:38:16Z</time>
      </trkpt>
      <trkpt lat="46.45905" lon="5.40603">
        <ele>471.8</ele>
        <time>2021-08-20T15:38:18Z</time>
      </trkpt>
      <trkpt lat="46.45909" lon="5.40591">
        <ele>472.8</ele>
        <time>2021-08-20T15:38:21Z</time>
      </trkpt>
      <trkpt lat="46.45911" lon="5.40585">
        <ele>473.2</ele>
        <time>2021-08-20T15:38:22Z</time>
      </trkpt>
      <trkpt lat="46.45918" lon="5.40568">
        <ele>474.2</ele>
        <time>2021-08-20T15:38:26Z</time>
      </trkpt>
      <trkpt lat="46.4592" lon="5.40563">
        <ele>474.6</ele>
        <time>2021-08-20T15:38:27Z</time>
      </trkpt>
      <trkpt lat="46.45925" lon="5.40551">
        <ele>475.4</ele>
        <time>2021-08-20T15:38:31Z</time>
      </trkpt>
      <trkpt lat="46.45936" lon="5.40534">
        <ele>476.4</ele>
        <time>2021-08-20T15:38:35Z</time>
      </trkpt>
      <trkpt lat="46.45944" lon="5.40521">
        <ele>477.4</ele>
        <time>2021-08-20T15:38:39Z</time>
      </trkpt>
      <trkpt lat="46.45949" lon="5.40515">
        <ele>477.8</ele>
        <time>2021-08-20T15:38:41Z</time>
      </trkpt>
      <trkpt lat="46.45953" lon="5.4051">
        <ele>478</ele>
        <time>2021-08-20T15:38:43Z</time>
      </trkpt>
      <trkpt lat="46.45958" lon="5.40504">
        <ele>478.6</ele>
        <time>2021-08-20T15:38:45Z</time>
      </trkpt>
      <trkpt lat="46.45965" lon="5.40495">
        <ele>479.6</ele>
        <time>2021-08-20T15:38:48Z</time>
      </trkpt>
      <trkpt lat="46.45967" lon="5.40491">
        <ele>479.8</ele>
        <time>2021-08-20T15:38:49Z</time>
      </trkpt>
      <trkpt lat="46.45978" lon="5.40474">
        <ele>480.8</ele>
        <time>2021-08-20T15:38:54Z</time>
      </trkpt>
      <trkpt lat="46.45984" lon="5.40465">
        <ele>481.6</ele>
        <time>2021-08-20T15:38:57Z</time>
      </trkpt>
      <trkpt lat="46.45988" lon="5.40458">
        <ele>482</ele>
        <time>2021-08-20T15:38:59Z</time>
      </trkpt>
      <trkpt lat="46.45997" lon="5.40441">
        <ele>483</ele>
        <time>2021-08-20T15:39:04Z</time>
      </trkpt>
      <trkpt lat="46.45999" lon="5.40438">
        <ele>483.2</ele>
        <time>2021-08-20T15:39:05Z</time>
      </trkpt>
      <trkpt lat="46.46006" lon="5.40423">
        <ele>484.2</ele>
        <time>2021-08-20T15:39:09Z</time>
      </trkpt>
      <trkpt lat="46.46011" lon="5.40412">
        <ele>484.8</ele>
        <time>2021-08-20T15:39:12Z</time>
      </trkpt>
      <trkpt lat="46.46015" lon="5.40404">
        <ele>485.6</ele>
        <time>2021-08-20T15:39:14Z</time>
      </trkpt>
      <trkpt lat="46.4602" lon="5.40391">
        <ele>486.2</ele>
        <time>2021-08-20T15:39:17Z</time>
      </trkpt>
      <trkpt lat="46.46021" lon="5.40387">
        <ele>486.6</ele>
        <time>2021-08-20T15:39:18Z</time>
      </trkpt>
      <trkpt lat="46.46036" lon="5.40357">
        <ele>487.8</ele>
        <time>2021-08-20T15:39:24Z</time>
      </trkpt>
      <trkpt lat="46.46037" lon="5.40351">
        <ele>488</ele>
        <time>2021-08-20T15:39:25Z</time>
      </trkpt>
      <trkpt lat="46.46046" lon="5.40344">
        <ele>489</ele>
        <time>2021-08-20T15:39:28Z</time>
      </trkpt>
      <trkpt lat="46.46057" lon="5.40334">
        <ele>490.2</ele>
        <time>2021-08-20T15:39:32Z</time>
      </trkpt>
      <trkpt lat="46.46073" lon="5.40324">
        <ele>491</ele>
        <time>2021-08-20T15:39:37Z</time>
      </trkpt>
      <trkpt lat="46.46085" lon="5.40318">
        <ele>492</ele>
        <time>2021-08-20T15:39:41Z</time>
      </trkpt>
      <trkpt lat="46.46089" lon="5.40317">
        <ele>492.6</ele>
        <time>2021-08-20T15:39:42Z</time>
      </trkpt>
      <trkpt lat="46.46106" lon="5.40309">
        <ele>493.6</ele>
        <time>2021-08-20T15:39:47Z</time>
      </trkpt>
      <trkpt lat="46.46118" lon="5.40302">
        <ele>494.6</ele>
        <time>2021-08-20T15:39:51Z</time>
      </trkpt>
      <trkpt lat="46.46131" lon="5.40289">
        <ele>496</ele>
        <time>2021-08-20T15:39:56Z</time>
      </trkpt>
      <trkpt lat="46.46137" lon="5.40279">
        <ele>496.6</ele>
        <time>2021-08-20T15:39:58Z</time>
      </trkpt>
      <trkpt lat="46.4615" lon="5.4026">
        <ele>497.2</ele>
        <time>2021-08-20T15:40:02Z</time>
      </trkpt>
      <trkpt lat="46.46153" lon="5.40255">
        <ele>497.4</ele>
        <time>2021-08-20T15:40:03Z</time>
      </trkpt>
      <trkpt lat="46.46173" lon="5.40222">
        <ele>498</ele>
        <time>2021-08-20T15:40:10Z</time>
      </trkpt>
      <trkpt lat="46.46189" lon="5.40194">
        <ele>498.2</ele>
        <time>2021-08-20T15:40:16Z</time>
      </trkpt>
      <trkpt lat="46.46195" lon="5.40185">
        <ele>498.6</ele>
        <time>2021-08-20T15:40:18Z</time>
      </trkpt>
      <trkpt lat="46.46203" lon="5.40171">
        <ele>499.4</ele>
        <time>2021-08-20T15:40:21Z</time>
      </trkpt>
      <trkpt lat="46.46215" lon="5.4015">
        <ele>500.2</ele>
        <time>2021-08-20T15:40:25Z</time>
      </trkpt>
      <trkpt lat="46.46225" lon="5.40136">
        <ele>500.2</ele>
        <time>2021-08-20T15:40:28Z</time>
      </trkpt>
      <trkpt lat="46.46228" lon="5.40131">
        <ele>500.4</ele>
        <time>2021-08-20T15:40:29Z</time>
      </trkpt>
      <trkpt lat="46.46247" lon="5.40107">
        <ele>500.8</ele>
        <time>2021-08-20T15:40:35Z</time>
      </trkpt>
      <trkpt lat="46.46255" lon="5.40099">
        <ele>501</ele>
        <time>2021-08-20T15:40:36Z</time>
      </trkpt>
      <trkpt lat="46.46269" lon="5.40092">
        <ele>501.4</ele>
        <time>2021-08-20T15:40:39Z</time>
      </trkpt>
      <trkpt lat="46.46274" lon="5.4009">
        <ele>501.6</ele>
        <time>2021-08-20T15:40:40Z</time>
      </trkpt>
      <trkpt lat="46.46287" lon="5.4009">
        <ele>502.2</ele>
        <time>2021-08-20T15:40:43Z</time>
      </trkpt>
      <trkpt lat="46.46292" lon="5.4009">
        <ele>502.4</ele>
        <time>2021-08-20T15:40:44Z</time>
      </trkpt>
      <trkpt lat="46.463" lon="5.4009">
        <ele>502.6</ele>
        <time>2021-08-20T15:40:46Z</time>
      </trkpt>
      <trkpt lat="46.46303" lon="5.4009">
        <ele>502.6</ele>
        <time>2021-08-20T15:40:47Z</time>
      </trkpt>
      <trkpt lat="46.46307" lon="5.40091">
        <ele>502.8</ele>
        <time>2021-08-20T15:40:48Z</time>
      </trkpt>
      <trkpt lat="46.46315" lon="5.40093">
        <ele>503.2</ele>
        <time>2021-08-20T15:40:50Z</time>
      </trkpt>
      <trkpt lat="46.46331" lon="5.40095">
        <ele>504</ele>
        <time>2021-08-20T15:40:54Z</time>
      </trkpt>
      <trkpt lat="46.46343" lon="5.40095">
        <ele>504.8</ele>
        <time>2021-08-20T15:40:57Z</time>
      </trkpt>
      <trkpt lat="46.46348" lon="5.40095">
        <ele>505.2</ele>
        <time>2021-08-20T15:40:58Z</time>
      </trkpt>
      <trkpt lat="46.46366" lon="5.40092">
        <ele>506.2</ele>
        <time>2021-08-20T15:41:03Z</time>
      </trkpt>
      <trkpt lat="46.46379" lon="5.4009">
        <ele>506.2</ele>
        <time>2021-08-20T15:41:05Z</time>
      </trkpt>
      <trkpt lat="46.46409" lon="5.40084">
        <ele>507.2</ele>
        <time>2021-08-20T15:41:13Z</time>
      </trkpt>
      <trkpt lat="46.4643" lon="5.4008">
        <ele>508.2</ele>
        <time>2021-08-20T15:41:18Z</time>
      </trkpt>
      <trkpt lat="46.46434" lon="5.40079">
        <ele>508.6</ele>
        <time>2021-08-20T15:41:19Z</time>
      </trkpt>
      <trkpt lat="46.46464" lon="5.40074">
        <ele>509.6</ele>
        <time>2021-08-20T15:41:25Z</time>
      </trkpt>
      <trkpt lat="46.46487" lon="5.40071">
        <ele>510.2</ele>
        <time>2021-08-20T15:41:30Z</time>
      </trkpt>
      <trkpt lat="46.46497" lon="5.4007">
        <ele>510.6</ele>
        <time>2021-08-20T15:41:32Z</time>
      </trkpt>
      <trkpt lat="46.46511" lon="5.40073">
        <ele>511</ele>
        <time>2021-08-20T15:41:35Z</time>
      </trkpt>
      <trkpt lat="46.46534" lon="5.40083">
        <ele>511.6</ele>
        <time>2021-08-20T15:41:40Z</time>
      </trkpt>
      <trkpt lat="46.46551" lon="5.40092">
        <ele>512</ele>
        <time>2021-08-20T15:41:44Z</time>
      </trkpt>
      <trkpt lat="46.46576" lon="5.40105">
        <ele>513</ele>
        <time>2021-08-20T15:41:50Z</time>
      </trkpt>
      <trkpt lat="46.46588" lon="5.40111">
        <ele>513.2</ele>
        <time>2021-08-20T15:41:53Z</time>
      </trkpt>
      <trkpt lat="46.46604" lon="5.40121">
        <ele>514</ele>
        <time>2021-08-20T15:41:57Z</time>
      </trkpt>
      <trkpt lat="46.46619" lon="5.40129">
        <ele>515</ele>
        <time>2021-08-20T15:42:01Z</time>
      </trkpt>
      <trkpt lat="46.46641" lon="5.40141">
        <ele>516.2</ele>
        <time>2021-08-20T15:42:08Z</time>
      </trkpt>
      <trkpt lat="46.46659" lon="5.4015">
        <ele>517</ele>
        <time>2021-08-20T15:42:12Z</time>
      </trkpt>
      <trkpt lat="46.46663" lon="5.40152">
        <ele>517.4</ele>
        <time>2021-08-20T15:42:13Z</time>
      </trkpt>
      <trkpt lat="46.4668" lon="5.40161">
        <ele>518.4</ele>
        <time>2021-08-20T15:42:18Z</time>
      </trkpt>
      <trkpt lat="46.46691" lon="5.40166">
        <ele>520</ele>
        <time>2021-08-20T15:42:22Z</time>
      </trkpt>
      <trkpt lat="46.46705" lon="5.40175">
        <ele>521</ele>
        <time>2021-08-20T15:42:26Z</time>
      </trkpt>
      <trkpt lat="46.46728" lon="5.40187">
        <ele>521.6</ele>
        <time>2021-08-20T15:42:31Z</time>
      </trkpt>
      <trkpt lat="46.46735" lon="5.4019">
        <ele>522.2</ele>
        <time>2021-08-20T15:42:33Z</time>
      </trkpt>
      <trkpt lat="46.4675" lon="5.40197">
        <ele>523.2</ele>
        <time>2021-08-20T15:42:37Z</time>
      </trkpt>
      <trkpt lat="46.46764" lon="5.40205">
        <ele>524.4</ele>
        <time>2021-08-20T15:42:41Z</time>
      </trkpt>
      <trkpt lat="46.46785" lon="5.40216">
        <ele>525.6</ele>
        <time>2021-08-20T15:42:47Z</time>
      </trkpt>
      <trkpt lat="46.468" lon="5.40224">
        <ele>526.4</ele>
        <time>2021-08-20T15:42:51Z</time>
      </trkpt>
      <trkpt lat="46.46803" lon="5.40226">
        <ele>526.8</ele>
        <time>2021-08-20T15:42:52Z</time>
      </trkpt>
      <trkpt lat="46.46821" lon="5.40236">
        <ele>527.8</ele>
        <time>2021-08-20T15:42:57Z</time>
      </trkpt>
      <trkpt lat="46.46832" lon="5.40241">
        <ele>528.4</ele>
        <time>2021-08-20T15:43:00Z</time>
      </trkpt>
      <trkpt lat="46.46844" lon="5.40247">
        <ele>529</ele>
        <time>2021-08-20T15:43:03Z</time>
      </trkpt>
      <trkpt lat="46.46864" lon="5.40256">
        <ele>530</ele>
        <time>2021-08-20T15:43:08Z</time>
      </trkpt>
      <trkpt lat="46.46876" lon="5.40263">
        <ele>530.4</ele>
        <time>2021-08-20T15:43:11Z</time>
      </trkpt>
      <trkpt lat="46.46885" lon="5.40267">
        <ele>531.4</ele>
        <time>2021-08-20T15:43:13Z</time>
      </trkpt>
      <trkpt lat="46.46913" lon="5.40281">
        <ele>532.4</ele>
        <time>2021-08-20T15:43:19Z</time>
      </trkpt>
      <trkpt lat="46.46918" lon="5.40284">
        <ele>532.6</ele>
        <time>2021-08-20T15:43:20Z</time>
      </trkpt>
      <trkpt lat="46.46945" lon="5.40298">
        <ele>533.4</ele>
        <time>2021-08-20T15:43:26Z</time>
      </trkpt>
      <trkpt lat="46.46958" lon="5.40305">
        <ele>533.8</ele>
        <time>2021-08-20T15:43:29Z</time>
      </trkpt>
      <trkpt lat="46.46975" lon="5.40311">
        <ele>534.6</ele>
        <time>2021-08-20T15:43:33Z</time>
      </trkpt>
      <trkpt lat="46.46985" lon="5.40314">
        <ele>535</ele>
        <time>2021-08-20T15:43:35Z</time>
      </trkpt>
      <trkpt lat="46.46994" lon="5.40317">
        <ele>535.8</ele>
        <time>2021-08-20T15:43:37Z</time>
      </trkpt>
      <trkpt lat="46.46999" lon="5.40319">
        <ele>536</ele>
        <time>2021-08-20T15:43:38Z</time>
      </trkpt>
      <trkpt lat="46.47025" lon="5.40324">
        <ele>536.8</ele>
        <time>2021-08-20T15:43:43Z</time>
      </trkpt>
      <trkpt lat="46.47036" lon="5.40325">
        <ele>536.8</ele>
        <time>2021-08-20T15:43:45Z</time>
      </trkpt>
      <trkpt lat="46.47073" lon="5.40328">
        <ele>536.8</ele>
        <time>2021-08-20T15:43:51Z</time>
      </trkpt>
      <trkpt lat="46.4708" lon="5.40329">
        <ele>536.8</ele>
        <time>2021-08-20T15:43:52Z</time>
      </trkpt>
      <trkpt lat="46.47096" lon="5.40331">
        <ele>536.6</ele>
        <time>2021-08-20T15:43:54Z</time>
      </trkpt>
      <trkpt lat="46.47106" lon="5.40332">
        <ele>536.2</ele>
        <time>2021-08-20T15:43:55Z</time>
      </trkpt>
      <trkpt lat="46.47124" lon="5.40335">
        <ele>535</ele>
        <time>2021-08-20T15:43:57Z</time>
      </trkpt>
      <trkpt lat="46.47143" lon="5.4034">
        <ele>533.6</ele>
        <time>2021-08-20T15:43:59Z</time>
      </trkpt>
      <trkpt lat="46.47154" lon="5.40342">
        <ele>533.2</ele>
        <time>2021-08-20T15:44:00Z</time>
      </trkpt>
      <trkpt lat="46.47175" lon="5.40349">
        <ele>532.4</ele>
        <time>2021-08-20T15:44:02Z</time>
      </trkpt>
      <trkpt lat="46.47197" lon="5.4036">
        <ele>531.2</ele>
        <time>2021-08-20T15:44:04Z</time>
      </trkpt>
      <trkpt lat="46.47215" lon="5.40381">
        <ele>530</ele>
        <time>2021-08-20T15:44:06Z</time>
      </trkpt>
      <trkpt lat="46.47223" lon="5.40392">
        <ele>529.6</ele>
        <time>2021-08-20T15:44:07Z</time>
      </trkpt>
      <trkpt lat="46.47231" lon="5.40401">
        <ele>529.2</ele>
        <time>2021-08-20T15:44:08Z</time>
      </trkpt>
      <trkpt lat="46.4724" lon="5.40409">
        <ele>528.8</ele>
        <time>2021-08-20T15:44:09Z</time>
      </trkpt>
      <trkpt lat="46.47251" lon="5.40416">
        <ele>528.6</ele>
        <time>2021-08-20T15:44:10Z</time>
      </trkpt>
      <trkpt lat="46.47274" lon="5.40423">
        <ele>527.2</ele>
        <time>2021-08-20T15:44:12Z</time>
      </trkpt>
      <trkpt lat="46.47298" lon="5.40429">
        <ele>526.2</ele>
        <time>2021-08-20T15:44:14Z</time>
      </trkpt>
      <trkpt lat="46.47312" lon="5.40432">
        <ele>526</ele>
        <time>2021-08-20T15:44:15Z</time>
      </trkpt>
      <trkpt lat="46.47336" lon="5.40436">
        <ele>524.8</ele>
        <time>2021-08-20T15:44:17Z</time>
      </trkpt>
      <trkpt lat="46.47345" lon="5.40438">
        <ele>523.8</ele>
        <time>2021-08-20T15:44:18Z</time>
      </trkpt>
      <trkpt lat="46.47372" lon="5.40442">
        <ele>522.4</ele>
        <time>2021-08-20T15:44:20Z</time>
      </trkpt>
      <trkpt lat="46.47384" lon="5.40442">
        <ele>521.4</ele>
        <time>2021-08-20T15:44:21Z</time>
      </trkpt>
      <trkpt lat="46.47416" lon="5.4044">
        <ele>520.2</ele>
        <time>2021-08-20T15:44:24Z</time>
      </trkpt>
      <trkpt lat="46.47426" lon="5.40438">
        <ele>519.2</ele>
        <time>2021-08-20T15:44:25Z</time>
      </trkpt>
      <trkpt lat="46.4744" lon="5.40438">
        <ele>518.2</ele>
        <time>2021-08-20T15:44:26Z</time>
      </trkpt>
      <trkpt lat="46.4746" lon="5.40439">
        <ele>517.2</ele>
        <time>2021-08-20T15:44:28Z</time>
      </trkpt>
      <trkpt lat="46.47483" lon="5.40442">
        <ele>516</ele>
        <time>2021-08-20T15:44:30Z</time>
      </trkpt>
      <trkpt lat="46.47495" lon="5.40446">
        <ele>514.6</ele>
        <time>2021-08-20T15:44:32Z</time>
      </trkpt>
      <trkpt lat="46.47515" lon="5.40458">
        <ele>513.8</ele>
        <time>2021-08-20T15:44:33Z</time>
      </trkpt>
      <trkpt lat="46.47523" lon="5.40467">
        <ele>513.6</ele>
        <time>2021-08-20T15:44:34Z</time>
      </trkpt>
      <trkpt lat="46.47552" lon="5.40491">
        <ele>512.8</ele>
        <time>2021-08-20T15:44:38Z</time>
      </trkpt>
      <trkpt lat="46.47553" lon="5.40488">
        <ele>512</ele>
        <time>2021-08-20T15:44:39Z</time>
      </trkpt>
      <trkpt lat="46.47554" lon="5.40483">
        <ele>511.4</ele>
        <time>2021-08-20T15:44:40Z</time>
      </trkpt>
      <trkpt lat="46.47555" lon="5.40445">
        <ele>510.6</ele>
        <time>2021-08-20T15:44:42Z</time>
      </trkpt>
      <trkpt lat="46.47551" lon="5.40422">
        <ele>510</ele>
        <time>2021-08-20T15:44:43Z</time>
      </trkpt>
      <trkpt lat="46.47545" lon="5.40403">
        <ele>509</ele>
        <time>2021-08-20T15:44:44Z</time>
      </trkpt>
      <trkpt lat="46.47534" lon="5.40366">
        <ele>506.8</ele>
        <time>2021-08-20T15:44:46Z</time>
      </trkpt>
      <trkpt lat="46.47533" lon="5.40347">
        <ele>506</ele>
        <time>2021-08-20T15:44:47Z</time>
      </trkpt>
      <trkpt lat="46.47536" lon="5.4033">
        <ele>505.6</ele>
        <time>2021-08-20T15:44:48Z</time>
      </trkpt>
      <trkpt lat="46.47542" lon="5.40313">
        <ele>504.8</ele>
        <time>2021-08-20T15:44:49Z</time>
      </trkpt>
      <trkpt lat="46.4755" lon="5.40299">
        <ele>504.4</ele>
        <time>2021-08-20T15:44:50Z</time>
      </trkpt>
      <trkpt lat="46.4756" lon="5.40286">
        <ele>503.6</ele>
        <time>2021-08-20T15:44:51Z</time>
      </trkpt>
      <trkpt lat="46.4757" lon="5.40276">
        <ele>503.2</ele>
        <time>2021-08-20T15:44:52Z</time>
      </trkpt>
      <trkpt lat="46.47581" lon="5.40268">
        <ele>502.6</ele>
        <time>2021-08-20T15:44:53Z</time>
      </trkpt>
      <trkpt lat="46.47592" lon="5.40263">
        <ele>501.6</ele>
        <time>2021-08-20T15:44:54Z</time>
      </trkpt>
      <trkpt lat="46.47616" lon="5.40255">
        <ele>500.6</ele>
        <time>2021-08-20T15:44:56Z</time>
      </trkpt>
      <trkpt lat="46.47653" lon="5.40246">
        <ele>499.2</ele>
        <time>2021-08-20T15:44:59Z</time>
      </trkpt>
      <trkpt lat="46.47665" lon="5.40244">
        <ele>498.8</ele>
        <time>2021-08-20T15:45:00Z</time>
      </trkpt>
      <trkpt lat="46.47676" lon="5.40243">
        <ele>497.8</ele>
        <time>2021-08-20T15:45:01Z</time>
      </trkpt>
      <trkpt lat="46.47687" lon="5.40243">
        <ele>497.6</ele>
        <time>2021-08-20T15:45:02Z</time>
      </trkpt>
      <trkpt lat="46.47697" lon="5.40243">
        <ele>496.8</ele>
        <time>2021-08-20T15:45:03Z</time>
      </trkpt>
      <trkpt lat="46.47708" lon="5.40239">
        <ele>496.4</ele>
        <time>2021-08-20T15:45:04Z</time>
      </trkpt>
      <trkpt lat="46.47719" lon="5.40231">
        <ele>496</ele>
        <time>2021-08-20T15:45:05Z</time>
      </trkpt>
      <trkpt lat="46.47727" lon="5.40217">
        <ele>495.8</ele>
        <time>2021-08-20T15:45:06Z</time>
      </trkpt>
      <trkpt lat="46.47733" lon="5.402">
        <ele>495.4</ele>
        <time>2021-08-20T15:45:07Z</time>
      </trkpt>
      <trkpt lat="46.47749" lon="5.40153">
        <ele>494.2</ele>
        <time>2021-08-20T15:45:10Z</time>
      </trkpt>
      <trkpt lat="46.47766" lon="5.40133">
        <ele>493.4</ele>
        <time>2021-08-20T15:45:12Z</time>
      </trkpt>
      <trkpt lat="46.47774" lon="5.40122">
        <ele>493.2</ele>
        <time>2021-08-20T15:45:13Z</time>
      </trkpt>
      <trkpt lat="46.47779" lon="5.40106">
        <ele>492.4</ele>
        <time>2021-08-20T15:45:14Z</time>
      </trkpt>
      <trkpt lat="46.47785" lon="5.40091">
        <ele>491.6</ele>
        <time>2021-08-20T15:45:15Z</time>
      </trkpt>
      <trkpt lat="46.47788" lon="5.40075">
        <ele>490.4</ele>
        <time>2021-08-20T15:45:16Z</time>
      </trkpt>
      <trkpt lat="46.47789" lon="5.40044">
        <ele>489.2</ele>
        <time>2021-08-20T15:45:18Z</time>
      </trkpt>
      <trkpt lat="46.47789" lon="5.40029">
        <ele>488.8</ele>
        <time>2021-08-20T15:45:19Z</time>
      </trkpt>
      <trkpt lat="46.47789" lon="5.40016">
        <ele>488.6</ele>
        <time>2021-08-20T15:45:20Z</time>
      </trkpt>
      <trkpt lat="46.47791" lon="5.40003">
        <ele>487.8</ele>
        <time>2021-08-20T15:45:21Z</time>
      </trkpt>
      <trkpt lat="46.47796" lon="5.39993">
        <ele>487.6</ele>
        <time>2021-08-20T15:45:22Z</time>
      </trkpt>
      <trkpt lat="46.47811" lon="5.39981">
        <ele>486.6</ele>
        <time>2021-08-20T15:45:24Z</time>
      </trkpt>
      <trkpt lat="46.47851" lon="5.39961">
        <ele>485</ele>
        <time>2021-08-20T15:45:28Z</time>
      </trkpt>
      <trkpt lat="46.47862" lon="5.39955">
        <ele>484</ele>
        <time>2021-08-20T15:45:29Z</time>
      </trkpt>
      <trkpt lat="46.47873" lon="5.3995">
        <ele>483</ele>
        <time>2021-08-20T15:45:30Z</time>
      </trkpt>
      <trkpt lat="46.47884" lon="5.39944">
        <ele>481.6</ele>
        <time>2021-08-20T15:45:31Z</time>
      </trkpt>
      <trkpt lat="46.47905" lon="5.39932">
        <ele>480.2</ele>
        <time>2021-08-20T15:45:33Z</time>
      </trkpt>
      <trkpt lat="46.47939" lon="5.39914">
        <ele>479</ele>
        <time>2021-08-20T15:45:36Z</time>
      </trkpt>
      <trkpt lat="46.4795" lon="5.39908">
        <ele>478</ele>
        <time>2021-08-20T15:45:37Z</time>
      </trkpt>
      <trkpt lat="46.47972" lon="5.39897">
        <ele>476.8</ele>
        <time>2021-08-20T15:45:39Z</time>
      </trkpt>
      <trkpt lat="46.47992" lon="5.39886">
        <ele>475.8</ele>
        <time>2021-08-20T15:45:41Z</time>
      </trkpt>
      <trkpt lat="46.48005" lon="5.3988">
        <ele>474.6</ele>
        <time>2021-08-20T15:45:42Z</time>
      </trkpt>
      <trkpt lat="46.48015" lon="5.39876">
        <ele>474.4</ele>
        <time>2021-08-20T15:45:43Z</time>
      </trkpt>
      <trkpt lat="46.48025" lon="5.39873">
        <ele>473.8</ele>
        <time>2021-08-20T15:45:44Z</time>
      </trkpt>
      <trkpt lat="46.48035" lon="5.39872">
        <ele>473.6</ele>
        <time>2021-08-20T15:45:45Z</time>
      </trkpt>
      <trkpt lat="46.48046" lon="5.39873">
        <ele>473.4</ele>
        <time>2021-08-20T15:45:46Z</time>
      </trkpt>
      <trkpt lat="46.48074" lon="5.39889">
        <ele>473.2</ele>
        <time>2021-08-20T15:45:49Z</time>
      </trkpt>
      <trkpt lat="46.4809" lon="5.39897">
        <ele>473.2</ele>
        <time>2021-08-20T15:45:51Z</time>
      </trkpt>
      <trkpt lat="46.48106" lon="5.399">
        <ele>473</ele>
        <time>2021-08-20T15:45:53Z</time>
      </trkpt>
      <trkpt lat="46.48122" lon="5.39899">
        <ele>473.2</ele>
        <time>2021-08-20T15:45:55Z</time>
      </trkpt>
      <trkpt lat="46.48147" lon="5.39893">
        <ele>473.4</ele>
        <time>2021-08-20T15:45:58Z</time>
      </trkpt>
      <trkpt lat="46.48186" lon="5.39873">
        <ele>473.4</ele>
        <time>2021-08-20T15:46:03Z</time>
      </trkpt>
      <trkpt lat="46.48208" lon="5.39857">
        <ele>473.4</ele>
        <time>2021-08-20T15:46:06Z</time>
      </trkpt>
      <trkpt lat="46.48214" lon="5.39849">
        <ele>473.4</ele>
        <time>2021-08-20T15:46:07Z</time>
      </trkpt>
      <trkpt lat="46.48217" lon="5.3984">
        <ele>473.4</ele>
        <time>2021-08-20T15:46:08Z</time>
      </trkpt>
      <trkpt lat="46.48218" lon="5.39829">
        <ele>473.4</ele>
        <time>2021-08-20T15:46:09Z</time>
      </trkpt>
      <trkpt lat="46.48217" lon="5.39818">
        <ele>473.4</ele>
        <time>2021-08-20T15:46:10Z</time>
      </trkpt>
      <trkpt lat="46.48213" lon="5.39794">
        <ele>473.4</ele>
        <time>2021-08-20T15:46:12Z</time>
      </trkpt>
      <trkpt lat="46.48201" lon="5.3971">
        <ele>473</ele>
        <time>2021-08-20T15:46:19Z</time>
      </trkpt>
      <trkpt lat="46.48199" lon="5.39685">
        <ele>472.6</ele>
        <time>2021-08-20T15:46:21Z</time>
      </trkpt>
      <trkpt lat="46.482" lon="5.39672">
        <ele>472.4</ele>
        <time>2021-08-20T15:46:22Z</time>
      </trkpt>
      <trkpt lat="46.48202" lon="5.39644">
        <ele>471.6</ele>
        <time>2021-08-20T15:46:24Z</time>
      </trkpt>
      <trkpt lat="46.4821" lon="5.39617">
        <ele>471.2</ele>
        <time>2021-08-20T15:46:26Z</time>
      </trkpt>
      <trkpt lat="46.48221" lon="5.39591">
        <ele>469.6</ele>
        <time>2021-08-20T15:46:28Z</time>
      </trkpt>
      <trkpt lat="46.48227" lon="5.39577">
        <ele>469</ele>
        <time>2021-08-20T15:46:29Z</time>
      </trkpt>
      <trkpt lat="46.48232" lon="5.39562">
        <ele>468.6</ele>
        <time>2021-08-20T15:46:30Z</time>
      </trkpt>
      <trkpt lat="46.48236" lon="5.39547">
        <ele>468</ele>
        <time>2021-08-20T15:46:31Z</time>
      </trkpt>
      <trkpt lat="46.48239" lon="5.3953">
        <ele>467.2</ele>
        <time>2021-08-20T15:46:32Z</time>
      </trkpt>
      <trkpt lat="46.48241" lon="5.39514">
        <ele>466</ele>
        <time>2021-08-20T15:46:33Z</time>
      </trkpt>
      <trkpt lat="46.48245" lon="5.39499">
        <ele>464.6</ele>
        <time>2021-08-20T15:46:34Z</time>
      </trkpt>
      <trkpt lat="46.48249" lon="5.39485">
        <ele>464</ele>
        <time>2021-08-20T15:46:35Z</time>
      </trkpt>
      <trkpt lat="46.48255" lon="5.39473">
        <ele>462.4</ele>
        <time>2021-08-20T15:46:36Z</time>
      </trkpt>
      <trkpt lat="46.48262" lon="5.39464">
        <ele>461.6</ele>
        <time>2021-08-20T15:46:37Z</time>
      </trkpt>
      <trkpt lat="46.48269" lon="5.39457">
        <ele>460.4</ele>
        <time>2021-08-20T15:46:38Z</time>
      </trkpt>
      <trkpt lat="46.48276" lon="5.39453">
        <ele>460</ele>
        <time>2021-08-20T15:46:39Z</time>
      </trkpt>
      <trkpt lat="46.48285" lon="5.39452">
        <ele>459.2</ele>
        <time>2021-08-20T15:46:40Z</time>
      </trkpt>
      <trkpt lat="46.48294" lon="5.39452">
        <ele>458.2</ele>
        <time>2021-08-20T15:46:41Z</time>
      </trkpt>
      <trkpt lat="46.48302" lon="5.3945">
        <ele>457.6</ele>
        <time>2021-08-20T15:46:42Z</time>
      </trkpt>
      <trkpt lat="46.48309" lon="5.39447">
        <ele>457</ele>
        <time>2021-08-20T15:46:43Z</time>
      </trkpt>
      <trkpt lat="46.48322" lon="5.39433">
        <ele>456.2</ele>
        <time>2021-08-20T15:46:45Z</time>
      </trkpt>
      <trkpt lat="46.48327" lon="5.39419">
        <ele>456</ele>
        <time>2021-08-20T15:46:46Z</time>
      </trkpt>
      <trkpt lat="46.48331" lon="5.39407">
        <ele>455.2</ele>
        <time>2021-08-20T15:46:47Z</time>
      </trkpt>
      <trkpt lat="46.48335" lon="5.3939">
        <ele>454.2</ele>
        <time>2021-08-20T15:46:48Z</time>
      </trkpt>
      <trkpt lat="46.48341" lon="5.39374">
        <ele>453.8</ele>
        <time>2021-08-20T15:46:49Z</time>
      </trkpt>
      <trkpt lat="46.48347" lon="5.3936">
        <ele>452.8</ele>
        <time>2021-08-20T15:46:50Z</time>
      </trkpt>
      <trkpt lat="46.48362" lon="5.39335">
        <ele>451.6</ele>
        <time>2021-08-20T15:46:52Z</time>
      </trkpt>
      <trkpt lat="46.4838" lon="5.39318">
        <ele>450.4</ele>
        <time>2021-08-20T15:46:54Z</time>
      </trkpt>
      <trkpt lat="46.48391" lon="5.39314">
        <ele>448.4</ele>
        <time>2021-08-20T15:46:55Z</time>
      </trkpt>
      <trkpt lat="46.48401" lon="5.39313">
        <ele>447.6</ele>
        <time>2021-08-20T15:46:56Z</time>
      </trkpt>
      <trkpt lat="46.48412" lon="5.39315">
        <ele>446.4</ele>
        <time>2021-08-20T15:46:57Z</time>
      </trkpt>
      <trkpt lat="46.48424" lon="5.39318">
        <ele>446</ele>
        <time>2021-08-20T15:46:58Z</time>
      </trkpt>
      <trkpt lat="46.48437" lon="5.39319">
        <ele>445.2</ele>
        <time>2021-08-20T15:46:59Z</time>
      </trkpt>
      <trkpt lat="46.48462" lon="5.39315">
        <ele>443.4</ele>
        <time>2021-08-20T15:47:01Z</time>
      </trkpt>
      <trkpt lat="46.48474" lon="5.3931">
        <ele>442.4</ele>
        <time>2021-08-20T15:47:02Z</time>
      </trkpt>
      <trkpt lat="46.48504" lon="5.39302">
        <ele>439.4</ele>
        <time>2021-08-20T15:47:04Z</time>
      </trkpt>
      <trkpt lat="46.4853" lon="5.39296">
        <ele>437.2</ele>
        <time>2021-08-20T15:47:06Z</time>
      </trkpt>
      <trkpt lat="46.48558" lon="5.39287">
        <ele>434.8</ele>
        <time>2021-08-20T15:47:08Z</time>
      </trkpt>
      <trkpt lat="46.48572" lon="5.39284">
        <ele>433.2</ele>
        <time>2021-08-20T15:47:09Z</time>
      </trkpt>
      <trkpt lat="46.48615" lon="5.39272">
        <ele>431.8</ele>
        <time>2021-08-20T15:47:12Z</time>
      </trkpt>
      <trkpt lat="46.48628" lon="5.39269">
        <ele>430.8</ele>
        <time>2021-08-20T15:47:13Z</time>
      </trkpt>
      <trkpt lat="46.48657" lon="5.39266">
        <ele>428.2</ele>
        <time>2021-08-20T15:47:15Z</time>
      </trkpt>
      <trkpt lat="46.48672" lon="5.39266">
        <ele>426.6</ele>
        <time>2021-08-20T15:47:16Z</time>
      </trkpt>
      <trkpt lat="46.487" lon="5.39272">
        <ele>425.2</ele>
        <time>2021-08-20T15:47:18Z</time>
      </trkpt>
      <trkpt lat="46.48714" lon="5.39278">
        <ele>424.8</ele>
        <time>2021-08-20T15:47:19Z</time>
      </trkpt>
      <trkpt lat="46.48733" lon="5.39289">
        <ele>424</ele>
        <time>2021-08-20T15:47:21Z</time>
      </trkpt>
      <trkpt lat="46.48742" lon="5.39294">
        <ele>423</ele>
        <time>2021-08-20T15:47:22Z</time>
      </trkpt>
      <trkpt lat="46.48749" lon="5.39296">
        <ele>421.4</ele>
        <time>2021-08-20T15:47:23Z</time>
      </trkpt>
      <trkpt lat="46.48762" lon="5.39293">
        <ele>419</ele>
        <time>2021-08-20T15:47:25Z</time>
      </trkpt>
      <trkpt lat="46.48761" lon="5.39288">
        <ele>418.2</ele>
        <time>2021-08-20T15:47:26Z</time>
      </trkpt>
      <trkpt lat="46.48757" lon="5.39279">
        <ele>417.2</ele>
        <time>2021-08-20T15:47:27Z</time>
      </trkpt>
      <trkpt lat="46.48751" lon="5.39266">
        <ele>416.6</ele>
        <time>2021-08-20T15:47:28Z</time>
      </trkpt>
      <trkpt lat="46.48744" lon="5.39256">
        <ele>415.6</ele>
        <time>2021-08-20T15:47:29Z</time>
      </trkpt>
      <trkpt lat="46.48736" lon="5.39244">
        <ele>414.8</ele>
        <time>2021-08-20T15:47:30Z</time>
      </trkpt>
      <trkpt lat="46.48727" lon="5.39231">
        <ele>414.4</ele>
        <time>2021-08-20T15:47:31Z</time>
      </trkpt>
      <trkpt lat="46.48719" lon="5.39218">
        <ele>412.6</ele>
        <time>2021-08-20T15:47:32Z</time>
      </trkpt>
      <trkpt lat="46.48709" lon="5.39204">
        <ele>412</ele>
        <time>2021-08-20T15:47:33Z</time>
      </trkpt>
      <trkpt lat="46.48699" lon="5.3919">
        <ele>410.8</ele>
        <time>2021-08-20T15:47:34Z</time>
      </trkpt>
      <trkpt lat="46.4868" lon="5.39162">
        <ele>409</ele>
        <time>2021-08-20T15:47:36Z</time>
      </trkpt>
      <trkpt lat="46.4867" lon="5.39148">
        <ele>407.4</ele>
        <time>2021-08-20T15:47:37Z</time>
      </trkpt>
      <trkpt lat="46.48658" lon="5.39136">
        <ele>406.8</ele>
        <time>2021-08-20T15:47:38Z</time>
      </trkpt>
      <trkpt lat="46.48645" lon="5.39124">
        <ele>405.6</ele>
        <time>2021-08-20T15:47:39Z</time>
      </trkpt>
      <trkpt lat="46.48621" lon="5.39105">
        <ele>404</ele>
        <time>2021-08-20T15:47:41Z</time>
      </trkpt>
      <trkpt lat="46.48608" lon="5.39095">
        <ele>403.6</ele>
        <time>2021-08-20T15:47:42Z</time>
      </trkpt>
      <trkpt lat="46.48595" lon="5.39085">
        <ele>402.8</ele>
        <time>2021-08-20T15:47:43Z</time>
      </trkpt>
      <trkpt lat="46.48582" lon="5.39076">
        <ele>400.4</ele>
        <time>2021-08-20T15:47:44Z</time>
      </trkpt>
      <trkpt lat="46.48556" lon="5.3906">
        <ele>398.4</ele>
        <time>2021-08-20T15:47:46Z</time>
      </trkpt>
      <trkpt lat="46.48543" lon="5.3905">
        <ele>398</ele>
        <time>2021-08-20T15:47:47Z</time>
      </trkpt>
      <trkpt lat="46.48528" lon="5.39036">
        <ele>396.8</ele>
        <time>2021-08-20T15:47:48Z</time>
      </trkpt>
      <trkpt lat="46.48521" lon="5.39023">
        <ele>395.8</ele>
        <time>2021-08-20T15:47:49Z</time>
      </trkpt>
      <trkpt lat="46.48514" lon="5.39003">
        <ele>393.4</ele>
        <time>2021-08-20T15:47:50Z</time>
      </trkpt>
      <trkpt lat="46.48509" lon="5.38981">
        <ele>391.4</ele>
        <time>2021-08-20T15:47:51Z</time>
      </trkpt>
      <trkpt lat="46.48504" lon="5.38961">
        <ele>390.4</ele>
        <time>2021-08-20T15:47:52Z</time>
      </trkpt>
      <trkpt lat="46.48497" lon="5.38944">
        <ele>388.6</ele>
        <time>2021-08-20T15:47:53Z</time>
      </trkpt>
      <trkpt lat="46.48481" lon="5.38914">
        <ele>386.4</ele>
        <time>2021-08-20T15:47:55Z</time>
      </trkpt>
      <trkpt lat="46.48474" lon="5.38899">
        <ele>386</ele>
        <time>2021-08-20T15:47:56Z</time>
      </trkpt>
      <trkpt lat="46.4847" lon="5.38884">
        <ele>385.2</ele>
        <time>2021-08-20T15:47:57Z</time>
      </trkpt>
      <trkpt lat="46.48468" lon="5.38869">
        <ele>384.6</ele>
        <time>2021-08-20T15:47:58Z</time>
      </trkpt>
      <trkpt lat="46.48478" lon="5.38846">
        <ele>383.2</ele>
        <time>2021-08-20T15:48:00Z</time>
      </trkpt>
      <trkpt lat="46.48497" lon="5.38832">
        <ele>381.6</ele>
        <time>2021-08-20T15:48:02Z</time>
      </trkpt>
      <trkpt lat="46.48507" lon="5.38825">
        <ele>381.4</ele>
        <time>2021-08-20T15:48:03Z</time>
      </trkpt>
      <trkpt lat="46.48517" lon="5.38819">
        <ele>380.4</ele>
        <time>2021-08-20T15:48:04Z</time>
      </trkpt>
      <trkpt lat="46.48537" lon="5.38806">
        <ele>379.4</ele>
        <time>2021-08-20T15:48:06Z</time>
      </trkpt>
      <trkpt lat="46.48557" lon="5.38793">
        <ele>378</ele>
        <time>2021-08-20T15:48:08Z</time>
      </trkpt>
      <trkpt lat="46.48587" lon="5.38774">
        <ele>376.2</ele>
        <time>2021-08-20T15:48:11Z</time>
      </trkpt>
      <trkpt lat="46.48595" lon="5.38769">
        <ele>375.2</ele>
        <time>2021-08-20T15:48:12Z</time>
      </trkpt>
      <trkpt lat="46.48603" lon="5.38767">
        <ele>374.8</ele>
        <time>2021-08-20T15:48:13Z</time>
      </trkpt>
      <trkpt lat="46.4861" lon="5.38769">
        <ele>373.8</ele>
        <time>2021-08-20T15:48:14Z</time>
      </trkpt>
      <trkpt lat="46.48616" lon="5.38772">
        <ele>373.4</ele>
        <time>2021-08-20T15:48:15Z</time>
      </trkpt>
      <trkpt lat="46.48623" lon="5.38771">
        <ele>372</ele>
        <time>2021-08-20T15:48:16Z</time>
      </trkpt>
      <trkpt lat="46.48629" lon="5.38766">
        <ele>371.6</ele>
        <time>2021-08-20T15:48:17Z</time>
      </trkpt>
      <trkpt lat="46.48635" lon="5.38758">
        <ele>370.8</ele>
        <time>2021-08-20T15:48:18Z</time>
      </trkpt>
      <trkpt lat="46.4864" lon="5.38747">
        <ele>369.8</ele>
        <time>2021-08-20T15:48:19Z</time>
      </trkpt>
      <trkpt lat="46.4865" lon="5.38723">
        <ele>368.6</ele>
        <time>2021-08-20T15:48:21Z</time>
      </trkpt>
      <trkpt lat="46.48654" lon="5.38708">
        <ele>368.2</ele>
        <time>2021-08-20T15:48:22Z</time>
      </trkpt>
      <trkpt lat="46.48656" lon="5.38693">
        <ele>367.2</ele>
        <time>2021-08-20T15:48:23Z</time>
      </trkpt>
      <trkpt lat="46.48657" lon="5.38661">
        <ele>365.8</ele>
        <time>2021-08-20T15:48:25Z</time>
      </trkpt>
      <trkpt lat="46.48652" lon="5.38631">
        <ele>364.2</ele>
        <time>2021-08-20T15:48:27Z</time>
      </trkpt>
      <trkpt lat="46.48648" lon="5.38616">
        <ele>363.8</ele>
        <time>2021-08-20T15:48:28Z</time>
      </trkpt>
      <trkpt lat="46.48644" lon="5.38602">
        <ele>363</ele>
        <time>2021-08-20T15:48:29Z</time>
      </trkpt>
      <trkpt lat="46.4864" lon="5.38587">
        <ele>361.6</ele>
        <time>2021-08-20T15:48:30Z</time>
      </trkpt>
      <trkpt lat="46.48632" lon="5.38556">
        <ele>360.4</ele>
        <time>2021-08-20T15:48:32Z</time>
      </trkpt>
      <trkpt lat="46.48623" lon="5.38525">
        <ele>359</ele>
        <time>2021-08-20T15:48:34Z</time>
      </trkpt>
      <trkpt lat="46.48615" lon="5.38495">
        <ele>358</ele>
        <time>2021-08-20T15:48:36Z</time>
      </trkpt>
      <trkpt lat="46.48609" lon="5.3848">
        <ele>357.2</ele>
        <time>2021-08-20T15:48:37Z</time>
      </trkpt>
    </trkseg>
  </trk>
</gpx>